<?xml version="1.0" encoding="UTF-8" standalone="no" ?>
<gpx xmlns="http://www.topografix.com/GPX/1/1" xmlns:xsi="http://www.w3.org/2001/XMLSchema-instance" xsi:schemaLocation="http://www.topografix.com/GPX/1/1 http://www.topografix.com/GPX/1/1/gpx.xsd" version="1.1" creator="VisuGPX - https://www.visugpx.com">
  <metadata>
    <name>2018-10-09 Bike ride VTT-Amberieux Les Cheres O v22k</name>
    <desc><![CDATA[2018-10-09 Bike ride VTT-Amberieux Les Cheres O v22k]]></desc>
  </metadata>
  <wpt lat="45.92451" lon="4.7373">
    <ele>174</ele>
    <name><![CDATA[2018-10-09 15:20 (Start)]]></name>
  </wpt>
  <wpt lat="45.92461" lon="4.73712">
    <ele>174</ele>
    <name><![CDATA[2018-10-09 15:20 (End)]]></name>
  </wpt>
  <trk>
    <name><![CDATA[2018-10-09 15:20]]></name>
    <trkseg>
      <trkpt lat="45.92451" lon="4.7373">
        <ele>174</ele>
        <time>2018-10-09T13:20:37.685Z</time>
      </trkpt>
      <trkpt lat="45.92452" lon="4.73726">
        <ele>174</ele>
        <time>2018-10-09T13:20:40.889Z</time>
      </trkpt>
      <trkpt lat="45.92452" lon="4.73725">
        <ele>174</ele>
        <time>2018-10-09T13:20:41.889Z</time>
      </trkpt>
      <trkpt lat="45.92452" lon="4.73728">
        <ele>174</ele>
        <time>2018-10-09T13:20:43.888Z</time>
      </trkpt>
      <trkpt lat="45.9245" lon="4.73729">
        <ele>174</ele>
        <time>2018-10-09T13:20:44.888Z</time>
      </trkpt>
      <trkpt lat="45.92445" lon="4.73728">
        <ele>174</ele>
        <time>2018-10-09T13:20:47.889Z</time>
      </trkpt>
      <trkpt lat="45.92446" lon="4.73727">
        <ele>174</ele>
        <time>2018-10-09T13:20:48.888Z</time>
      </trkpt>
      <trkpt lat="45.92454" lon="4.73722">
        <ele>174</ele>
        <time>2018-10-09T13:20:52Z</time>
      </trkpt>
      <trkpt lat="45.92455" lon="4.73722">
        <ele>174</ele>
        <time>2018-10-09T13:20:52.926Z</time>
      </trkpt>
      <trkpt lat="45.9246" lon="4.73716">
        <ele>174</ele>
        <time>2018-10-09T13:20:54Z</time>
      </trkpt>
      <trkpt lat="45.92462" lon="4.73712">
        <ele>174</ele>
        <time>2018-10-09T13:20:55Z</time>
      </trkpt>
      <trkpt lat="45.92464" lon="4.73705">
        <ele>174</ele>
        <time>2018-10-09T13:20:57Z</time>
      </trkpt>
      <trkpt lat="45.92464" lon="4.737">
        <ele>174</ele>
        <time>2018-10-09T13:20:58Z</time>
      </trkpt>
      <trkpt lat="45.92466" lon="4.7369">
        <ele>174</ele>
        <time>2018-10-09T13:21:01Z</time>
      </trkpt>
      <trkpt lat="45.92466" lon="4.73687">
        <ele>174</ele>
        <time>2018-10-09T13:21:02Z</time>
      </trkpt>
      <trkpt lat="45.92469" lon="4.73675">
        <ele>174</ele>
        <time>2018-10-09T13:21:06Z</time>
      </trkpt>
      <trkpt lat="45.92469" lon="4.73667">
        <ele>174</ele>
        <time>2018-10-09T13:21:07Z</time>
      </trkpt>
      <trkpt lat="45.92469" lon="4.73654">
        <ele>174</ele>
        <time>2018-10-09T13:21:10Z</time>
      </trkpt>
      <trkpt lat="45.92469" lon="4.73651">
        <ele>174</ele>
        <time>2018-10-09T13:21:11Z</time>
      </trkpt>
      <trkpt lat="45.92471" lon="4.73645">
        <ele>174</ele>
        <time>2018-10-09T13:21:13Z</time>
      </trkpt>
      <trkpt lat="45.92476" lon="4.73639">
        <ele>174</ele>
        <time>2018-10-09T13:21:14Z</time>
      </trkpt>
      <trkpt lat="45.92485" lon="4.73639">
        <ele>174</ele>
        <time>2018-10-09T13:21:16Z</time>
      </trkpt>
      <trkpt lat="45.92489" lon="4.7364">
        <ele>174</ele>
        <time>2018-10-09T13:21:17Z</time>
      </trkpt>
      <trkpt lat="45.92495" lon="4.73642">
        <ele>174</ele>
        <time>2018-10-09T13:21:18Z</time>
      </trkpt>
      <trkpt lat="45.92499" lon="4.73642">
        <ele>174</ele>
        <time>2018-10-09T13:21:19Z</time>
      </trkpt>
      <trkpt lat="45.92504" lon="4.73642">
        <ele>174</ele>
        <time>2018-10-09T13:21:20Z</time>
      </trkpt>
      <trkpt lat="45.92509" lon="4.73641">
        <ele>174</ele>
        <time>2018-10-09T13:21:21Z</time>
      </trkpt>
      <trkpt lat="45.92514" lon="4.73639">
        <ele>174</ele>
        <time>2018-10-09T13:21:22Z</time>
      </trkpt>
      <trkpt lat="45.92519" lon="4.73639">
        <ele>173</ele>
        <time>2018-10-09T13:21:23Z</time>
      </trkpt>
      <trkpt lat="45.92524" lon="4.73639">
        <ele>173</ele>
        <time>2018-10-09T13:21:24Z</time>
      </trkpt>
      <trkpt lat="45.92529" lon="4.73639">
        <ele>173</ele>
        <time>2018-10-09T13:21:25Z</time>
      </trkpt>
      <trkpt lat="45.92535" lon="4.73639">
        <ele>173</ele>
        <time>2018-10-09T13:21:26Z</time>
      </trkpt>
      <trkpt lat="45.92539" lon="4.73637">
        <ele>173</ele>
        <time>2018-10-09T13:21:27Z</time>
      </trkpt>
      <trkpt lat="45.92548" lon="4.73634">
        <ele>173</ele>
        <time>2018-10-09T13:21:29Z</time>
      </trkpt>
      <trkpt lat="45.92552" lon="4.73634">
        <ele>173</ele>
        <time>2018-10-09T13:21:30Z</time>
      </trkpt>
      <trkpt lat="45.92557" lon="4.73633">
        <ele>173</ele>
        <time>2018-10-09T13:21:31Z</time>
      </trkpt>
      <trkpt lat="45.92563" lon="4.73631">
        <ele>173</ele>
        <time>2018-10-09T13:21:32Z</time>
      </trkpt>
      <trkpt lat="45.92567" lon="4.7363">
        <ele>173</ele>
        <time>2018-10-09T13:21:33Z</time>
      </trkpt>
      <trkpt lat="45.92572" lon="4.73626">
        <ele>173</ele>
        <time>2018-10-09T13:21:34Z</time>
      </trkpt>
      <trkpt lat="45.92577" lon="4.73625">
        <ele>173</ele>
        <time>2018-10-09T13:21:35Z</time>
      </trkpt>
      <trkpt lat="45.92582" lon="4.73623">
        <ele>173</ele>
        <time>2018-10-09T13:21:36Z</time>
      </trkpt>
      <trkpt lat="45.92587" lon="4.73623">
        <ele>173</ele>
        <time>2018-10-09T13:21:37Z</time>
      </trkpt>
      <trkpt lat="45.92593" lon="4.73622">
        <ele>173</ele>
        <time>2018-10-09T13:21:38Z</time>
      </trkpt>
      <trkpt lat="45.92598" lon="4.7362">
        <ele>173</ele>
        <time>2018-10-09T13:21:39Z</time>
      </trkpt>
      <trkpt lat="45.92602" lon="4.73622">
        <ele>173</ele>
        <time>2018-10-09T13:21:40Z</time>
      </trkpt>
      <trkpt lat="45.92607" lon="4.73623">
        <ele>173</ele>
        <time>2018-10-09T13:21:41Z</time>
      </trkpt>
      <trkpt lat="45.92611" lon="4.73627">
        <ele>173</ele>
        <time>2018-10-09T13:21:42Z</time>
      </trkpt>
      <trkpt lat="45.92615" lon="4.7363">
        <ele>173</ele>
        <time>2018-10-09T13:21:43Z</time>
      </trkpt>
      <trkpt lat="45.92617" lon="4.73637">
        <ele>173</ele>
        <time>2018-10-09T13:21:44Z</time>
      </trkpt>
      <trkpt lat="45.92621" lon="4.73641">
        <ele>173</ele>
        <time>2018-10-09T13:21:45Z</time>
      </trkpt>
      <trkpt lat="45.92624" lon="4.73648">
        <ele>173</ele>
        <time>2018-10-09T13:21:46Z</time>
      </trkpt>
      <trkpt lat="45.92627" lon="4.73656">
        <ele>173</ele>
        <time>2018-10-09T13:21:47Z</time>
      </trkpt>
      <trkpt lat="45.92629" lon="4.73662">
        <ele>173</ele>
        <time>2018-10-09T13:21:48Z</time>
      </trkpt>
      <trkpt lat="45.92633" lon="4.73669">
        <ele>173</ele>
        <time>2018-10-09T13:21:49Z</time>
      </trkpt>
      <trkpt lat="45.92636" lon="4.73675">
        <ele>173</ele>
        <time>2018-10-09T13:21:50Z</time>
      </trkpt>
      <trkpt lat="45.9264" lon="4.7368">
        <ele>173</ele>
        <time>2018-10-09T13:21:51Z</time>
      </trkpt>
      <trkpt lat="45.92644" lon="4.73686">
        <ele>173</ele>
        <time>2018-10-09T13:21:52Z</time>
      </trkpt>
      <trkpt lat="45.92648" lon="4.73689">
        <ele>173</ele>
        <time>2018-10-09T13:21:53Z</time>
      </trkpt>
      <trkpt lat="45.92652" lon="4.73694">
        <ele>173</ele>
        <time>2018-10-09T13:21:54Z</time>
      </trkpt>
      <trkpt lat="45.92658" lon="4.73698">
        <ele>173</ele>
        <time>2018-10-09T13:21:55Z</time>
      </trkpt>
      <trkpt lat="45.92662" lon="4.73701">
        <ele>173</ele>
        <time>2018-10-09T13:21:56Z</time>
      </trkpt>
      <trkpt lat="45.92668" lon="4.73705">
        <ele>174</ele>
        <time>2018-10-09T13:21:57Z</time>
      </trkpt>
      <trkpt lat="45.92672" lon="4.73706">
        <ele>174</ele>
        <time>2018-10-09T13:21:58Z</time>
      </trkpt>
      <trkpt lat="45.92681" lon="4.73709">
        <ele>173</ele>
        <time>2018-10-09T13:22:00Z</time>
      </trkpt>
      <trkpt lat="45.92686" lon="4.7371">
        <ele>173</ele>
        <time>2018-10-09T13:22:01Z</time>
      </trkpt>
      <trkpt lat="45.9269" lon="4.73711">
        <ele>173</ele>
        <time>2018-10-09T13:22:02Z</time>
      </trkpt>
      <trkpt lat="45.92696" lon="4.73711">
        <ele>173</ele>
        <time>2018-10-09T13:22:03Z</time>
      </trkpt>
      <trkpt lat="45.92701" lon="4.73713">
        <ele>173</ele>
        <time>2018-10-09T13:22:04Z</time>
      </trkpt>
      <trkpt lat="45.92707" lon="4.73714">
        <ele>173</ele>
        <time>2018-10-09T13:22:05Z</time>
      </trkpt>
      <trkpt lat="45.92712" lon="4.73717">
        <ele>173</ele>
        <time>2018-10-09T13:22:06Z</time>
      </trkpt>
      <trkpt lat="45.92718" lon="4.73717">
        <ele>173</ele>
        <time>2018-10-09T13:22:07Z</time>
      </trkpt>
      <trkpt lat="45.92723" lon="4.73719">
        <ele>173</ele>
        <time>2018-10-09T13:22:08Z</time>
      </trkpt>
      <trkpt lat="45.92729" lon="4.73721">
        <ele>173</ele>
        <time>2018-10-09T13:22:09Z</time>
      </trkpt>
      <trkpt lat="45.92734" lon="4.73723">
        <ele>173</ele>
        <time>2018-10-09T13:22:10Z</time>
      </trkpt>
      <trkpt lat="45.9274" lon="4.73723">
        <ele>173</ele>
        <time>2018-10-09T13:22:11Z</time>
      </trkpt>
      <trkpt lat="45.92748" lon="4.73726">
        <ele>173</ele>
        <time>2018-10-09T13:22:13Z</time>
      </trkpt>
      <trkpt lat="45.92752" lon="4.73728">
        <ele>172</ele>
        <time>2018-10-09T13:22:14Z</time>
      </trkpt>
      <trkpt lat="45.92758" lon="4.73732">
        <ele>172</ele>
        <time>2018-10-09T13:22:16Z</time>
      </trkpt>
      <trkpt lat="45.92762" lon="4.73735">
        <ele>172</ele>
        <time>2018-10-09T13:22:17Z</time>
      </trkpt>
      <trkpt lat="45.9277" lon="4.73738">
        <ele>172</ele>
        <time>2018-10-09T13:22:19Z</time>
      </trkpt>
      <trkpt lat="45.92771" lon="4.7374">
        <ele>172</ele>
        <time>2018-10-09T13:22:20Z</time>
      </trkpt>
      <trkpt lat="45.92774" lon="4.73742">
        <ele>172</ele>
        <time>2018-10-09T13:22:21Z</time>
      </trkpt>
      <trkpt lat="45.92777" lon="4.73749">
        <ele>172</ele>
        <time>2018-10-09T13:22:22Z</time>
      </trkpt>
      <trkpt lat="45.92782" lon="4.73759">
        <ele>173</ele>
        <time>2018-10-09T13:22:25Z</time>
      </trkpt>
      <trkpt lat="45.92788" lon="4.73759">
        <ele>173</ele>
        <time>2018-10-09T13:22:26Z</time>
      </trkpt>
      <trkpt lat="45.92792" lon="4.73761">
        <ele>173</ele>
        <time>2018-10-09T13:22:27Z</time>
      </trkpt>
      <trkpt lat="45.92797" lon="4.73763">
        <ele>173</ele>
        <time>2018-10-09T13:22:28Z</time>
      </trkpt>
      <trkpt lat="45.92802" lon="4.73766">
        <ele>173</ele>
        <time>2018-10-09T13:22:29Z</time>
      </trkpt>
      <trkpt lat="45.92806" lon="4.73768">
        <ele>173</ele>
        <time>2018-10-09T13:22:30Z</time>
      </trkpt>
      <trkpt lat="45.92811" lon="4.73771">
        <ele>173</ele>
        <time>2018-10-09T13:22:31Z</time>
      </trkpt>
      <trkpt lat="45.92815" lon="4.73774">
        <ele>173</ele>
        <time>2018-10-09T13:22:32Z</time>
      </trkpt>
      <trkpt lat="45.9282" lon="4.73778">
        <ele>173</ele>
        <time>2018-10-09T13:22:33Z</time>
      </trkpt>
      <trkpt lat="45.92826" lon="4.73781">
        <ele>173</ele>
        <time>2018-10-09T13:22:34Z</time>
      </trkpt>
      <trkpt lat="45.9283" lon="4.73785">
        <ele>173</ele>
        <time>2018-10-09T13:22:35Z</time>
      </trkpt>
      <trkpt lat="45.92835" lon="4.73789">
        <ele>173</ele>
        <time>2018-10-09T13:22:36Z</time>
      </trkpt>
      <trkpt lat="45.92841" lon="4.73793">
        <ele>173</ele>
        <time>2018-10-09T13:22:37Z</time>
      </trkpt>
      <trkpt lat="45.92845" lon="4.73796">
        <ele>173</ele>
        <time>2018-10-09T13:22:38Z</time>
      </trkpt>
      <trkpt lat="45.92851" lon="4.73801">
        <ele>173</ele>
        <time>2018-10-09T13:22:40Z</time>
      </trkpt>
      <trkpt lat="45.92854" lon="4.73809">
        <ele>173</ele>
        <time>2018-10-09T13:22:41Z</time>
      </trkpt>
      <trkpt lat="45.92856" lon="4.73815">
        <ele>173</ele>
        <time>2018-10-09T13:22:42Z</time>
      </trkpt>
      <trkpt lat="45.92858" lon="4.73823">
        <ele>173</ele>
        <time>2018-10-09T13:22:43Z</time>
      </trkpt>
      <trkpt lat="45.9286" lon="4.7383">
        <ele>173</ele>
        <time>2018-10-09T13:22:44Z</time>
      </trkpt>
      <trkpt lat="45.92862" lon="4.73837">
        <ele>173</ele>
        <time>2018-10-09T13:22:45Z</time>
      </trkpt>
      <trkpt lat="45.92864" lon="4.73844">
        <ele>173</ele>
        <time>2018-10-09T13:22:46Z</time>
      </trkpt>
      <trkpt lat="45.92865" lon="4.73852">
        <ele>173</ele>
        <time>2018-10-09T13:22:47Z</time>
      </trkpt>
      <trkpt lat="45.92867" lon="4.73859">
        <ele>173</ele>
        <time>2018-10-09T13:22:48Z</time>
      </trkpt>
      <trkpt lat="45.92871" lon="4.73868">
        <ele>173</ele>
        <time>2018-10-09T13:22:49Z</time>
      </trkpt>
      <trkpt lat="45.92873" lon="4.73876">
        <ele>173</ele>
        <time>2018-10-09T13:22:50Z</time>
      </trkpt>
      <trkpt lat="45.92874" lon="4.73884">
        <ele>173</ele>
        <time>2018-10-09T13:22:51Z</time>
      </trkpt>
      <trkpt lat="45.92879" lon="4.7389">
        <ele>173</ele>
        <time>2018-10-09T13:22:52Z</time>
      </trkpt>
      <trkpt lat="45.92878" lon="4.73898">
        <ele>173</ele>
        <time>2018-10-09T13:22:53Z</time>
      </trkpt>
      <trkpt lat="45.92879" lon="4.73906">
        <ele>173</ele>
        <time>2018-10-09T13:22:54Z</time>
      </trkpt>
      <trkpt lat="45.9288" lon="4.73914">
        <ele>173</ele>
        <time>2018-10-09T13:22:55Z</time>
      </trkpt>
      <trkpt lat="45.92881" lon="4.7392">
        <ele>172</ele>
        <time>2018-10-09T13:22:56Z</time>
      </trkpt>
      <trkpt lat="45.92882" lon="4.73928">
        <ele>172</ele>
        <time>2018-10-09T13:22:57Z</time>
      </trkpt>
      <trkpt lat="45.92882" lon="4.73935">
        <ele>172</ele>
        <time>2018-10-09T13:22:58Z</time>
      </trkpt>
      <trkpt lat="45.92882" lon="4.73943">
        <ele>172</ele>
        <time>2018-10-09T13:22:59Z</time>
      </trkpt>
      <trkpt lat="45.92883" lon="4.7395">
        <ele>172</ele>
        <time>2018-10-09T13:23:00Z</time>
      </trkpt>
      <trkpt lat="45.92883" lon="4.73958">
        <ele>172</ele>
        <time>2018-10-09T13:23:01Z</time>
      </trkpt>
      <trkpt lat="45.92883" lon="4.73965">
        <ele>172</ele>
        <time>2018-10-09T13:23:02Z</time>
      </trkpt>
      <trkpt lat="45.92882" lon="4.73972">
        <ele>172</ele>
        <time>2018-10-09T13:23:03Z</time>
      </trkpt>
      <trkpt lat="45.92882" lon="4.73979">
        <ele>172</ele>
        <time>2018-10-09T13:23:04Z</time>
      </trkpt>
      <trkpt lat="45.92881" lon="4.73986">
        <ele>172</ele>
        <time>2018-10-09T13:23:05Z</time>
      </trkpt>
      <trkpt lat="45.92879" lon="4.73992">
        <ele>172</ele>
        <time>2018-10-09T13:23:06Z</time>
      </trkpt>
      <trkpt lat="45.92877" lon="4.73999">
        <ele>172</ele>
        <time>2018-10-09T13:23:07Z</time>
      </trkpt>
      <trkpt lat="45.92876" lon="4.74006">
        <ele>172</ele>
        <time>2018-10-09T13:23:08Z</time>
      </trkpt>
      <trkpt lat="45.92876" lon="4.74013">
        <ele>172</ele>
        <time>2018-10-09T13:23:09Z</time>
      </trkpt>
      <trkpt lat="45.92876" lon="4.7402">
        <ele>172</ele>
        <time>2018-10-09T13:23:10Z</time>
      </trkpt>
      <trkpt lat="45.92878" lon="4.74027">
        <ele>172</ele>
        <time>2018-10-09T13:23:11Z</time>
      </trkpt>
      <trkpt lat="45.9288" lon="4.74033">
        <ele>172</ele>
        <time>2018-10-09T13:23:12Z</time>
      </trkpt>
      <trkpt lat="45.92882" lon="4.74039">
        <ele>172</ele>
        <time>2018-10-09T13:23:13Z</time>
      </trkpt>
      <trkpt lat="45.92889" lon="4.74047">
        <ele>172</ele>
        <time>2018-10-09T13:23:15Z</time>
      </trkpt>
      <trkpt lat="45.92893" lon="4.7405">
        <ele>172</ele>
        <time>2018-10-09T13:23:16Z</time>
      </trkpt>
      <trkpt lat="45.92898" lon="4.74052">
        <ele>172</ele>
        <time>2018-10-09T13:23:17Z</time>
      </trkpt>
      <trkpt lat="45.92902" lon="4.74055">
        <ele>172</ele>
        <time>2018-10-09T13:23:18Z</time>
      </trkpt>
      <trkpt lat="45.92906" lon="4.74059">
        <ele>172</ele>
        <time>2018-10-09T13:23:19Z</time>
      </trkpt>
      <trkpt lat="45.92908" lon="4.74065">
        <ele>173</ele>
        <time>2018-10-09T13:23:20Z</time>
      </trkpt>
      <trkpt lat="45.92911" lon="4.74071">
        <ele>173</ele>
        <time>2018-10-09T13:23:21Z</time>
      </trkpt>
      <trkpt lat="45.9291" lon="4.74078">
        <ele>173</ele>
        <time>2018-10-09T13:23:22Z</time>
      </trkpt>
      <trkpt lat="45.92908" lon="4.74091">
        <ele>173</ele>
        <time>2018-10-09T13:23:24Z</time>
      </trkpt>
      <trkpt lat="45.92905" lon="4.74096">
        <ele>172</ele>
        <time>2018-10-09T13:23:25Z</time>
      </trkpt>
      <trkpt lat="45.929" lon="4.74106">
        <ele>172</ele>
        <time>2018-10-09T13:23:29Z</time>
      </trkpt>
      <trkpt lat="45.92898" lon="4.74108">
        <ele>172</ele>
        <time>2018-10-09T13:23:30Z</time>
      </trkpt>
      <trkpt lat="45.92891" lon="4.74116">
        <ele>172</ele>
        <time>2018-10-09T13:23:33Z</time>
      </trkpt>
      <trkpt lat="45.92889" lon="4.74119">
        <ele>172</ele>
        <time>2018-10-09T13:23:34Z</time>
      </trkpt>
      <trkpt lat="45.92885" lon="4.74128">
        <ele>172</ele>
        <time>2018-10-09T13:23:37Z</time>
      </trkpt>
      <trkpt lat="45.92884" lon="4.74131">
        <ele>172</ele>
        <time>2018-10-09T13:23:38Z</time>
      </trkpt>
      <trkpt lat="45.92882" lon="4.74143">
        <ele>172</ele>
        <time>2018-10-09T13:23:41Z</time>
      </trkpt>
      <trkpt lat="45.92883" lon="4.74148">
        <ele>172</ele>
        <time>2018-10-09T13:23:42Z</time>
      </trkpt>
      <trkpt lat="45.92886" lon="4.7416">
        <ele>172</ele>
        <time>2018-10-09T13:23:45Z</time>
      </trkpt>
      <trkpt lat="45.92888" lon="4.74163">
        <ele>172</ele>
        <time>2018-10-09T13:23:46Z</time>
      </trkpt>
      <trkpt lat="45.92893" lon="4.74169">
        <ele>171</ele>
        <time>2018-10-09T13:23:48Z</time>
      </trkpt>
      <trkpt lat="45.92895" lon="4.74171">
        <ele>172</ele>
        <time>2018-10-09T13:23:49Z</time>
      </trkpt>
      <trkpt lat="45.92901" lon="4.74176">
        <ele>172</ele>
        <time>2018-10-09T13:23:50Z</time>
      </trkpt>
      <trkpt lat="45.92904" lon="4.74178">
        <ele>172</ele>
        <time>2018-10-09T13:23:51Z</time>
      </trkpt>
      <trkpt lat="45.92911" lon="4.74183">
        <ele>172</ele>
        <time>2018-10-09T13:23:54Z</time>
      </trkpt>
      <trkpt lat="45.92914" lon="4.74185">
        <ele>172</ele>
        <time>2018-10-09T13:23:55Z</time>
      </trkpt>
      <trkpt lat="45.92921" lon="4.7419">
        <ele>171</ele>
        <time>2018-10-09T13:23:58Z</time>
      </trkpt>
      <trkpt lat="45.92923" lon="4.74192">
        <ele>171</ele>
        <time>2018-10-09T13:23:59Z</time>
      </trkpt>
      <trkpt lat="45.92929" lon="4.74196">
        <ele>170</ele>
        <time>2018-10-09T13:24:02Z</time>
      </trkpt>
      <trkpt lat="45.92931" lon="4.74198">
        <ele>170</ele>
        <time>2018-10-09T13:24:03Z</time>
      </trkpt>
      <trkpt lat="45.92937" lon="4.74202">
        <ele>170</ele>
        <time>2018-10-09T13:24:06Z</time>
      </trkpt>
      <trkpt lat="45.92939" lon="4.74203">
        <ele>170</ele>
        <time>2018-10-09T13:24:07Z</time>
      </trkpt>
      <trkpt lat="45.92945" lon="4.74205">
        <ele>170</ele>
        <time>2018-10-09T13:24:09Z</time>
      </trkpt>
      <trkpt lat="45.92952" lon="4.74208">
        <ele>170</ele>
        <time>2018-10-09T13:24:10Z</time>
      </trkpt>
      <trkpt lat="45.9296" lon="4.74208">
        <ele>170</ele>
        <time>2018-10-09T13:24:12Z</time>
      </trkpt>
      <trkpt lat="45.92964" lon="4.74206">
        <ele>170</ele>
        <time>2018-10-09T13:24:13Z</time>
      </trkpt>
      <trkpt lat="45.92971" lon="4.742">
        <ele>170</ele>
        <time>2018-10-09T13:24:15Z</time>
      </trkpt>
      <trkpt lat="45.92974" lon="4.74197">
        <ele>170</ele>
        <time>2018-10-09T13:24:16Z</time>
      </trkpt>
      <trkpt lat="45.92976" lon="4.74185">
        <ele>170</ele>
        <time>2018-10-09T13:24:17Z</time>
      </trkpt>
      <trkpt lat="45.92978" lon="4.74178">
        <ele>170</ele>
        <time>2018-10-09T13:24:18Z</time>
      </trkpt>
      <trkpt lat="45.9298" lon="4.74172">
        <ele>170</ele>
        <time>2018-10-09T13:24:19Z</time>
      </trkpt>
      <trkpt lat="45.92982" lon="4.74165">
        <ele>170</ele>
        <time>2018-10-09T13:24:20Z</time>
      </trkpt>
      <trkpt lat="45.92984" lon="4.74157">
        <ele>170</ele>
        <time>2018-10-09T13:24:21Z</time>
      </trkpt>
      <trkpt lat="45.92987" lon="4.7415">
        <ele>170</ele>
        <time>2018-10-09T13:24:22Z</time>
      </trkpt>
      <trkpt lat="45.9299" lon="4.74141">
        <ele>171</ele>
        <time>2018-10-09T13:24:23Z</time>
      </trkpt>
      <trkpt lat="45.92993" lon="4.74133">
        <ele>171</ele>
        <time>2018-10-09T13:24:24Z</time>
      </trkpt>
      <trkpt lat="45.92996" lon="4.74124">
        <ele>171</ele>
        <time>2018-10-09T13:24:25Z</time>
      </trkpt>
      <trkpt lat="45.92998" lon="4.74114">
        <ele>171</ele>
        <time>2018-10-09T13:24:26Z</time>
      </trkpt>
      <trkpt lat="45.93" lon="4.74106">
        <ele>170</ele>
        <time>2018-10-09T13:24:27Z</time>
      </trkpt>
      <trkpt lat="45.93002" lon="4.74096">
        <ele>170</ele>
        <time>2018-10-09T13:24:28Z</time>
      </trkpt>
      <trkpt lat="45.93003" lon="4.74085">
        <ele>171</ele>
        <time>2018-10-09T13:24:29Z</time>
      </trkpt>
      <trkpt lat="45.93003" lon="4.74075">
        <ele>171</ele>
        <time>2018-10-09T13:24:30Z</time>
      </trkpt>
      <trkpt lat="45.93003" lon="4.74067">
        <ele>170</ele>
        <time>2018-10-09T13:24:31Z</time>
      </trkpt>
      <trkpt lat="45.93002" lon="4.74059">
        <ele>170</ele>
        <time>2018-10-09T13:24:32Z</time>
      </trkpt>
      <trkpt lat="45.93002" lon="4.7405">
        <ele>170</ele>
        <time>2018-10-09T13:24:33Z</time>
      </trkpt>
      <trkpt lat="45.93002" lon="4.74042">
        <ele>170</ele>
        <time>2018-10-09T13:24:34Z</time>
      </trkpt>
      <trkpt lat="45.93003" lon="4.74034">
        <ele>170</ele>
        <time>2018-10-09T13:24:35Z</time>
      </trkpt>
      <trkpt lat="45.93004" lon="4.74027">
        <ele>170</ele>
        <time>2018-10-09T13:24:36Z</time>
      </trkpt>
      <trkpt lat="45.93007" lon="4.7402">
        <ele>170</ele>
        <time>2018-10-09T13:24:37Z</time>
      </trkpt>
      <trkpt lat="45.93009" lon="4.74014">
        <ele>170</ele>
        <time>2018-10-09T13:24:38Z</time>
      </trkpt>
      <trkpt lat="45.93012" lon="4.74008">
        <ele>170</ele>
        <time>2018-10-09T13:24:39Z</time>
      </trkpt>
      <trkpt lat="45.93016" lon="4.74004">
        <ele>170</ele>
        <time>2018-10-09T13:24:40Z</time>
      </trkpt>
      <trkpt lat="45.93021" lon="4.74001">
        <ele>170</ele>
        <time>2018-10-09T13:24:41Z</time>
      </trkpt>
      <trkpt lat="45.93025" lon="4.73998">
        <ele>169</ele>
        <time>2018-10-09T13:24:42Z</time>
      </trkpt>
      <trkpt lat="45.93032" lon="4.74">
        <ele>169</ele>
        <time>2018-10-09T13:24:44Z</time>
      </trkpt>
      <trkpt lat="45.93036" lon="4.74003">
        <ele>169</ele>
        <time>2018-10-09T13:24:45Z</time>
      </trkpt>
      <trkpt lat="45.93044" lon="4.74008">
        <ele>169</ele>
        <time>2018-10-09T13:24:47Z</time>
      </trkpt>
      <trkpt lat="45.93049" lon="4.74009">
        <ele>169</ele>
        <time>2018-10-09T13:24:48Z</time>
      </trkpt>
      <trkpt lat="45.93054" lon="4.7401">
        <ele>169</ele>
        <time>2018-10-09T13:24:49Z</time>
      </trkpt>
      <trkpt lat="45.93059" lon="4.74012">
        <ele>169</ele>
        <time>2018-10-09T13:24:50Z</time>
      </trkpt>
      <trkpt lat="45.93064" lon="4.74013">
        <ele>169</ele>
        <time>2018-10-09T13:24:51Z</time>
      </trkpt>
      <trkpt lat="45.93068" lon="4.74014">
        <ele>169</ele>
        <time>2018-10-09T13:24:52Z</time>
      </trkpt>
      <trkpt lat="45.93073" lon="4.74016">
        <ele>169</ele>
        <time>2018-10-09T13:24:53Z</time>
      </trkpt>
      <trkpt lat="45.93077" lon="4.74018">
        <ele>169</ele>
        <time>2018-10-09T13:24:54Z</time>
      </trkpt>
      <trkpt lat="45.93086" lon="4.74019">
        <ele>168</ele>
        <time>2018-10-09T13:24:56Z</time>
      </trkpt>
      <trkpt lat="45.9309" lon="4.7402">
        <ele>168</ele>
        <time>2018-10-09T13:24:57Z</time>
      </trkpt>
      <trkpt lat="45.93095" lon="4.74019">
        <ele>168</ele>
        <time>2018-10-09T13:24:58Z</time>
      </trkpt>
      <trkpt lat="45.931" lon="4.7402">
        <ele>168</ele>
        <time>2018-10-09T13:24:59Z</time>
      </trkpt>
      <trkpt lat="45.93105" lon="4.74022">
        <ele>168</ele>
        <time>2018-10-09T13:25:00Z</time>
      </trkpt>
      <trkpt lat="45.9311" lon="4.74023">
        <ele>168</ele>
        <time>2018-10-09T13:25:01Z</time>
      </trkpt>
      <trkpt lat="45.93115" lon="4.74025">
        <ele>168</ele>
        <time>2018-10-09T13:25:02Z</time>
      </trkpt>
      <trkpt lat="45.9312" lon="4.74028">
        <ele>168</ele>
        <time>2018-10-09T13:25:03Z</time>
      </trkpt>
      <trkpt lat="45.93124" lon="4.7403">
        <ele>168</ele>
        <time>2018-10-09T13:25:04Z</time>
      </trkpt>
      <trkpt lat="45.93129" lon="4.74032">
        <ele>168</ele>
        <time>2018-10-09T13:25:05Z</time>
      </trkpt>
      <trkpt lat="45.93137" lon="4.74037">
        <ele>168</ele>
        <time>2018-10-09T13:25:07Z</time>
      </trkpt>
      <trkpt lat="45.9314" lon="4.74039">
        <ele>168</ele>
        <time>2018-10-09T13:25:08Z</time>
      </trkpt>
      <trkpt lat="45.93144" lon="4.74042">
        <ele>168</ele>
        <time>2018-10-09T13:25:09Z</time>
      </trkpt>
      <trkpt lat="45.93149" lon="4.74046">
        <ele>168</ele>
        <time>2018-10-09T13:25:10Z</time>
      </trkpt>
      <trkpt lat="45.93153" lon="4.74051">
        <ele>168</ele>
        <time>2018-10-09T13:25:11Z</time>
      </trkpt>
      <trkpt lat="45.93158" lon="4.74054">
        <ele>168</ele>
        <time>2018-10-09T13:25:12Z</time>
      </trkpt>
      <trkpt lat="45.93162" lon="4.74059">
        <ele>168</ele>
        <time>2018-10-09T13:25:13Z</time>
      </trkpt>
      <trkpt lat="45.93167" lon="4.74063">
        <ele>168</ele>
        <time>2018-10-09T13:25:14Z</time>
      </trkpt>
      <trkpt lat="45.93171" lon="4.74068">
        <ele>168</ele>
        <time>2018-10-09T13:25:15Z</time>
      </trkpt>
      <trkpt lat="45.93177" lon="4.74073">
        <ele>168</ele>
        <time>2018-10-09T13:25:16Z</time>
      </trkpt>
      <trkpt lat="45.93181" lon="4.74077">
        <ele>168</ele>
        <time>2018-10-09T13:25:17Z</time>
      </trkpt>
      <trkpt lat="45.93186" lon="4.7408">
        <ele>168</ele>
        <time>2018-10-09T13:25:18Z</time>
      </trkpt>
      <trkpt lat="45.9319" lon="4.74085">
        <ele>168</ele>
        <time>2018-10-09T13:25:19Z</time>
      </trkpt>
      <trkpt lat="45.93195" lon="4.74089">
        <ele>167</ele>
        <time>2018-10-09T13:25:20Z</time>
      </trkpt>
      <trkpt lat="45.932" lon="4.74094">
        <ele>167</ele>
        <time>2018-10-09T13:25:21Z</time>
      </trkpt>
      <trkpt lat="45.93204" lon="4.74099">
        <ele>167</ele>
        <time>2018-10-09T13:25:22Z</time>
      </trkpt>
      <trkpt lat="45.93208" lon="4.74104">
        <ele>167</ele>
        <time>2018-10-09T13:25:23Z</time>
      </trkpt>
      <trkpt lat="45.93213" lon="4.74108">
        <ele>167</ele>
        <time>2018-10-09T13:25:24Z</time>
      </trkpt>
      <trkpt lat="45.93222" lon="4.74111">
        <ele>167</ele>
        <time>2018-10-09T13:25:26Z</time>
      </trkpt>
      <trkpt lat="45.93226" lon="4.74113">
        <ele>167</ele>
        <time>2018-10-09T13:25:27Z</time>
      </trkpt>
      <trkpt lat="45.93234" lon="4.74112">
        <ele>167</ele>
        <time>2018-10-09T13:25:29Z</time>
      </trkpt>
      <trkpt lat="45.93238" lon="4.74109">
        <ele>167</ele>
        <time>2018-10-09T13:25:30Z</time>
      </trkpt>
      <trkpt lat="45.93244" lon="4.74103">
        <ele>167</ele>
        <time>2018-10-09T13:25:32Z</time>
      </trkpt>
      <trkpt lat="45.93247" lon="4.74098">
        <ele>167</ele>
        <time>2018-10-09T13:25:33Z</time>
      </trkpt>
      <trkpt lat="45.9325" lon="4.74093">
        <ele>167</ele>
        <time>2018-10-09T13:25:34Z</time>
      </trkpt>
      <trkpt lat="45.93253" lon="4.74088">
        <ele>167</ele>
        <time>2018-10-09T13:25:35Z</time>
      </trkpt>
      <trkpt lat="45.93256" lon="4.74083">
        <ele>167</ele>
        <time>2018-10-09T13:25:36Z</time>
      </trkpt>
      <trkpt lat="45.93259" lon="4.74078">
        <ele>167</ele>
        <time>2018-10-09T13:25:37Z</time>
      </trkpt>
      <trkpt lat="45.93263" lon="4.74071">
        <ele>167</ele>
        <time>2018-10-09T13:25:38Z</time>
      </trkpt>
      <trkpt lat="45.93266" lon="4.74065">
        <ele>167</ele>
        <time>2018-10-09T13:25:39Z</time>
      </trkpt>
      <trkpt lat="45.93269" lon="4.74059">
        <ele>168</ele>
        <time>2018-10-09T13:25:40Z</time>
      </trkpt>
      <trkpt lat="45.93272" lon="4.74052">
        <ele>168</ele>
        <time>2018-10-09T13:25:41Z</time>
      </trkpt>
      <trkpt lat="45.93276" lon="4.74046">
        <ele>168</ele>
        <time>2018-10-09T13:25:42Z</time>
      </trkpt>
      <trkpt lat="45.93279" lon="4.7404">
        <ele>168</ele>
        <time>2018-10-09T13:25:43Z</time>
      </trkpt>
      <trkpt lat="45.93283" lon="4.74034">
        <ele>168</ele>
        <time>2018-10-09T13:25:44Z</time>
      </trkpt>
      <trkpt lat="45.93285" lon="4.74028">
        <ele>168</ele>
        <time>2018-10-09T13:25:45Z</time>
      </trkpt>
      <trkpt lat="45.93288" lon="4.74022">
        <ele>168</ele>
        <time>2018-10-09T13:25:46Z</time>
      </trkpt>
      <trkpt lat="45.93291" lon="4.74016">
        <ele>168</ele>
        <time>2018-10-09T13:25:47Z</time>
      </trkpt>
      <trkpt lat="45.93296" lon="4.74008">
        <ele>168</ele>
        <time>2018-10-09T13:25:49Z</time>
      </trkpt>
      <trkpt lat="45.93298" lon="4.74003">
        <ele>168</ele>
        <time>2018-10-09T13:25:50Z</time>
      </trkpt>
      <trkpt lat="45.933" lon="4.73998">
        <ele>168</ele>
        <time>2018-10-09T13:25:51Z</time>
      </trkpt>
      <trkpt lat="45.93304" lon="4.73992">
        <ele>168</ele>
        <time>2018-10-09T13:25:52Z</time>
      </trkpt>
      <trkpt lat="45.93308" lon="4.73987">
        <ele>168</ele>
        <time>2018-10-09T13:25:53Z</time>
      </trkpt>
      <trkpt lat="45.93311" lon="4.73981">
        <ele>168</ele>
        <time>2018-10-09T13:25:54Z</time>
      </trkpt>
      <trkpt lat="45.93313" lon="4.73974">
        <ele>168</ele>
        <time>2018-10-09T13:25:55Z</time>
      </trkpt>
      <trkpt lat="45.93316" lon="4.73968">
        <ele>168</ele>
        <time>2018-10-09T13:25:56Z</time>
      </trkpt>
      <trkpt lat="45.93319" lon="4.73959">
        <ele>168</ele>
        <time>2018-10-09T13:25:58Z</time>
      </trkpt>
      <trkpt lat="45.93321" lon="4.73954">
        <ele>168</ele>
        <time>2018-10-09T13:25:59Z</time>
      </trkpt>
      <trkpt lat="45.93326" lon="4.73945">
        <ele>168</ele>
        <time>2018-10-09T13:26:01Z</time>
      </trkpt>
      <trkpt lat="45.93328" lon="4.7394">
        <ele>168</ele>
        <time>2018-10-09T13:26:02Z</time>
      </trkpt>
      <trkpt lat="45.93331" lon="4.73934">
        <ele>168</ele>
        <time>2018-10-09T13:26:03Z</time>
      </trkpt>
      <trkpt lat="45.93334" lon="4.73929">
        <ele>168</ele>
        <time>2018-10-09T13:26:04Z</time>
      </trkpt>
      <trkpt lat="45.93338" lon="4.73923">
        <ele>168</ele>
        <time>2018-10-09T13:26:05Z</time>
      </trkpt>
      <trkpt lat="45.93341" lon="4.73917">
        <ele>168</ele>
        <time>2018-10-09T13:26:06Z</time>
      </trkpt>
      <trkpt lat="45.93345" lon="4.73911">
        <ele>168</ele>
        <time>2018-10-09T13:26:07Z</time>
      </trkpt>
      <trkpt lat="45.93348" lon="4.73905">
        <ele>168</ele>
        <time>2018-10-09T13:26:08Z</time>
      </trkpt>
      <trkpt lat="45.93351" lon="4.73902">
        <ele>168</ele>
        <time>2018-10-09T13:26:09Z</time>
      </trkpt>
      <trkpt lat="45.93354" lon="4.73896">
        <ele>168</ele>
        <time>2018-10-09T13:26:10Z</time>
      </trkpt>
      <trkpt lat="45.93358" lon="4.73891">
        <ele>168</ele>
        <time>2018-10-09T13:26:11Z</time>
      </trkpt>
      <trkpt lat="45.9336" lon="4.73886">
        <ele>168</ele>
        <time>2018-10-09T13:26:12Z</time>
      </trkpt>
      <trkpt lat="45.93366" lon="4.7388">
        <ele>168</ele>
        <time>2018-10-09T13:26:14Z</time>
      </trkpt>
      <trkpt lat="45.9337" lon="4.73876">
        <ele>168</ele>
        <time>2018-10-09T13:26:15Z</time>
      </trkpt>
      <trkpt lat="45.93376" lon="4.73871">
        <ele>169</ele>
        <time>2018-10-09T13:26:17Z</time>
      </trkpt>
      <trkpt lat="45.93379" lon="4.73867">
        <ele>169</ele>
        <time>2018-10-09T13:26:18Z</time>
      </trkpt>
      <trkpt lat="45.93386" lon="4.73863">
        <ele>169</ele>
        <time>2018-10-09T13:26:20Z</time>
      </trkpt>
      <trkpt lat="45.9339" lon="4.73861">
        <ele>169</ele>
        <time>2018-10-09T13:26:21Z</time>
      </trkpt>
      <trkpt lat="45.93397" lon="4.73857">
        <ele>169</ele>
        <time>2018-10-09T13:26:23Z</time>
      </trkpt>
      <trkpt lat="45.93401" lon="4.73855">
        <ele>169</ele>
        <time>2018-10-09T13:26:24Z</time>
      </trkpt>
      <trkpt lat="45.93405" lon="4.73852">
        <ele>169</ele>
        <time>2018-10-09T13:26:25Z</time>
      </trkpt>
      <trkpt lat="45.93409" lon="4.73849">
        <ele>169</ele>
        <time>2018-10-09T13:26:26Z</time>
      </trkpt>
      <trkpt lat="45.93418" lon="4.73844">
        <ele>169</ele>
        <time>2018-10-09T13:26:28Z</time>
      </trkpt>
      <trkpt lat="45.93421" lon="4.73843">
        <ele>169</ele>
        <time>2018-10-09T13:26:29Z</time>
      </trkpt>
      <trkpt lat="45.93429" lon="4.73838">
        <ele>169</ele>
        <time>2018-10-09T13:26:31Z</time>
      </trkpt>
      <trkpt lat="45.93433" lon="4.73837">
        <ele>169</ele>
        <time>2018-10-09T13:26:32Z</time>
      </trkpt>
      <trkpt lat="45.93441" lon="4.73835">
        <ele>169</ele>
        <time>2018-10-09T13:26:35Z</time>
      </trkpt>
      <trkpt lat="45.93444" lon="4.73833">
        <ele>169</ele>
        <time>2018-10-09T13:26:36Z</time>
      </trkpt>
      <trkpt lat="45.9345" lon="4.73831">
        <ele>169</ele>
        <time>2018-10-09T13:26:37Z</time>
      </trkpt>
      <trkpt lat="45.93453" lon="4.73829">
        <ele>169</ele>
        <time>2018-10-09T13:26:38Z</time>
      </trkpt>
      <trkpt lat="45.93461" lon="4.73825">
        <ele>169</ele>
        <time>2018-10-09T13:26:40Z</time>
      </trkpt>
      <trkpt lat="45.93465" lon="4.73822">
        <ele>169</ele>
        <time>2018-10-09T13:26:41Z</time>
      </trkpt>
      <trkpt lat="45.9347" lon="4.73821">
        <ele>169</ele>
        <time>2018-10-09T13:26:42Z</time>
      </trkpt>
      <trkpt lat="45.93474" lon="4.73818">
        <ele>169</ele>
        <time>2018-10-09T13:26:43Z</time>
      </trkpt>
      <trkpt lat="45.93479" lon="4.73816">
        <ele>169</ele>
        <time>2018-10-09T13:26:44Z</time>
      </trkpt>
      <trkpt lat="45.93483" lon="4.73814">
        <ele>169</ele>
        <time>2018-10-09T13:26:45Z</time>
      </trkpt>
      <trkpt lat="45.93491" lon="4.73809">
        <ele>169</ele>
        <time>2018-10-09T13:26:47Z</time>
      </trkpt>
      <trkpt lat="45.93495" lon="4.73806">
        <ele>169</ele>
        <time>2018-10-09T13:26:48Z</time>
      </trkpt>
      <trkpt lat="45.93502" lon="4.73801">
        <ele>169</ele>
        <time>2018-10-09T13:26:50Z</time>
      </trkpt>
      <trkpt lat="45.93505" lon="4.73798">
        <ele>169</ele>
        <time>2018-10-09T13:26:51Z</time>
      </trkpt>
      <trkpt lat="45.93512" lon="4.73791">
        <ele>169</ele>
        <time>2018-10-09T13:26:53Z</time>
      </trkpt>
      <trkpt lat="45.93516" lon="4.73788">
        <ele>169</ele>
        <time>2018-10-09T13:26:54Z</time>
      </trkpt>
      <trkpt lat="45.9352" lon="4.73783">
        <ele>169</ele>
        <time>2018-10-09T13:26:55Z</time>
      </trkpt>
      <trkpt lat="45.93524" lon="4.73778">
        <ele>169</ele>
        <time>2018-10-09T13:26:56Z</time>
      </trkpt>
      <trkpt lat="45.93528" lon="4.73775">
        <ele>169</ele>
        <time>2018-10-09T13:26:57Z</time>
      </trkpt>
      <trkpt lat="45.93532" lon="4.73771">
        <ele>169</ele>
        <time>2018-10-09T13:26:58Z</time>
      </trkpt>
      <trkpt lat="45.93539" lon="4.73763">
        <ele>169</ele>
        <time>2018-10-09T13:27:00Z</time>
      </trkpt>
      <trkpt lat="45.93542" lon="4.73759">
        <ele>169</ele>
        <time>2018-10-09T13:27:01Z</time>
      </trkpt>
      <trkpt lat="45.93549" lon="4.73751">
        <ele>169</ele>
        <time>2018-10-09T13:27:03Z</time>
      </trkpt>
      <trkpt lat="45.93553" lon="4.73747">
        <ele>169</ele>
        <time>2018-10-09T13:27:04Z</time>
      </trkpt>
      <trkpt lat="45.93557" lon="4.73743">
        <ele>169</ele>
        <time>2018-10-09T13:27:05Z</time>
      </trkpt>
      <trkpt lat="45.93561" lon="4.73738">
        <ele>169</ele>
        <time>2018-10-09T13:27:06Z</time>
      </trkpt>
      <trkpt lat="45.93565" lon="4.73735">
        <ele>169</ele>
        <time>2018-10-09T13:27:07Z</time>
      </trkpt>
      <trkpt lat="45.93569" lon="4.7373">
        <ele>169</ele>
        <time>2018-10-09T13:27:08Z</time>
      </trkpt>
      <trkpt lat="45.93573" lon="4.73727">
        <ele>169</ele>
        <time>2018-10-09T13:27:09Z</time>
      </trkpt>
      <trkpt lat="45.93577" lon="4.73723">
        <ele>169</ele>
        <time>2018-10-09T13:27:10Z</time>
      </trkpt>
      <trkpt lat="45.9358" lon="4.73718">
        <ele>169</ele>
        <time>2018-10-09T13:27:11Z</time>
      </trkpt>
      <trkpt lat="45.93583" lon="4.73713">
        <ele>169</ele>
        <time>2018-10-09T13:27:12Z</time>
      </trkpt>
      <trkpt lat="45.93586" lon="4.73703">
        <ele>169</ele>
        <time>2018-10-09T13:27:14Z</time>
      </trkpt>
      <trkpt lat="45.93587" lon="4.73697">
        <ele>169</ele>
        <time>2018-10-09T13:27:15Z</time>
      </trkpt>
      <trkpt lat="45.93587" lon="4.73691">
        <ele>169</ele>
        <time>2018-10-09T13:27:16Z</time>
      </trkpt>
      <trkpt lat="45.93587" lon="4.73682">
        <ele>169</ele>
        <time>2018-10-09T13:27:17Z</time>
      </trkpt>
      <trkpt lat="45.93587" lon="4.73675">
        <ele>168</ele>
        <time>2018-10-09T13:27:18Z</time>
      </trkpt>
      <trkpt lat="45.93587" lon="4.73667">
        <ele>168</ele>
        <time>2018-10-09T13:27:19Z</time>
      </trkpt>
      <trkpt lat="45.93586" lon="4.7366">
        <ele>168</ele>
        <time>2018-10-09T13:27:20Z</time>
      </trkpt>
      <trkpt lat="45.93585" lon="4.73654">
        <ele>168</ele>
        <time>2018-10-09T13:27:21Z</time>
      </trkpt>
      <trkpt lat="45.93584" lon="4.73641">
        <ele>168</ele>
        <time>2018-10-09T13:27:23Z</time>
      </trkpt>
      <trkpt lat="45.93583" lon="4.73636">
        <ele>168</ele>
        <time>2018-10-09T13:27:24Z</time>
      </trkpt>
      <trkpt lat="45.93582" lon="4.73629">
        <ele>168</ele>
        <time>2018-10-09T13:27:25Z</time>
      </trkpt>
      <trkpt lat="45.93582" lon="4.73622">
        <ele>168</ele>
        <time>2018-10-09T13:27:26Z</time>
      </trkpt>
      <trkpt lat="45.93581" lon="4.73615">
        <ele>168</ele>
        <time>2018-10-09T13:27:27Z</time>
      </trkpt>
      <trkpt lat="45.93581" lon="4.73609">
        <ele>168</ele>
        <time>2018-10-09T13:27:28Z</time>
      </trkpt>
      <trkpt lat="45.9358" lon="4.73601">
        <ele>168</ele>
        <time>2018-10-09T13:27:29Z</time>
      </trkpt>
      <trkpt lat="45.93579" lon="4.73593">
        <ele>168</ele>
        <time>2018-10-09T13:27:30Z</time>
      </trkpt>
      <trkpt lat="45.93578" lon="4.73585">
        <ele>168</ele>
        <time>2018-10-09T13:27:31Z</time>
      </trkpt>
      <trkpt lat="45.93578" lon="4.73576">
        <ele>168</ele>
        <time>2018-10-09T13:27:32Z</time>
      </trkpt>
      <trkpt lat="45.93577" lon="4.73568">
        <ele>168</ele>
        <time>2018-10-09T13:27:33Z</time>
      </trkpt>
      <trkpt lat="45.93575" lon="4.73561">
        <ele>168</ele>
        <time>2018-10-09T13:27:34Z</time>
      </trkpt>
      <trkpt lat="45.93575" lon="4.73555">
        <ele>168</ele>
        <time>2018-10-09T13:27:35Z</time>
      </trkpt>
      <trkpt lat="45.93574" lon="4.73548">
        <ele>168</ele>
        <time>2018-10-09T13:27:36Z</time>
      </trkpt>
      <trkpt lat="45.93572" lon="4.73536">
        <ele>169</ele>
        <time>2018-10-09T13:27:38Z</time>
      </trkpt>
      <trkpt lat="45.9357" lon="4.73531">
        <ele>169</ele>
        <time>2018-10-09T13:27:39Z</time>
      </trkpt>
      <trkpt lat="45.93567" lon="4.73519">
        <ele>168</ele>
        <time>2018-10-09T13:27:41Z</time>
      </trkpt>
      <trkpt lat="45.93565" lon="4.73512">
        <ele>168</ele>
        <time>2018-10-09T13:27:42Z</time>
      </trkpt>
      <trkpt lat="45.93563" lon="4.73506">
        <ele>168</ele>
        <time>2018-10-09T13:27:43Z</time>
      </trkpt>
      <trkpt lat="45.93561" lon="4.73499">
        <ele>169</ele>
        <time>2018-10-09T13:27:44Z</time>
      </trkpt>
      <trkpt lat="45.93559" lon="4.73491">
        <ele>169</ele>
        <time>2018-10-09T13:27:45Z</time>
      </trkpt>
      <trkpt lat="45.93557" lon="4.73485">
        <ele>169</ele>
        <time>2018-10-09T13:27:46Z</time>
      </trkpt>
      <trkpt lat="45.93555" lon="4.73479">
        <ele>169</ele>
        <time>2018-10-09T13:27:47Z</time>
      </trkpt>
      <trkpt lat="45.93553" lon="4.73472">
        <ele>169</ele>
        <time>2018-10-09T13:27:48Z</time>
      </trkpt>
      <trkpt lat="45.93551" lon="4.73466">
        <ele>169</ele>
        <time>2018-10-09T13:27:49Z</time>
      </trkpt>
      <trkpt lat="45.93549" lon="4.7346">
        <ele>169</ele>
        <time>2018-10-09T13:27:50Z</time>
      </trkpt>
      <trkpt lat="45.93546" lon="4.73451">
        <ele>169</ele>
        <time>2018-10-09T13:27:52Z</time>
      </trkpt>
      <trkpt lat="45.93544" lon="4.73446">
        <ele>169</ele>
        <time>2018-10-09T13:27:53Z</time>
      </trkpt>
      <trkpt lat="45.93545" lon="4.73436">
        <ele>169</ele>
        <time>2018-10-09T13:27:55Z</time>
      </trkpt>
      <trkpt lat="45.93543" lon="4.7343">
        <ele>169</ele>
        <time>2018-10-09T13:27:56Z</time>
      </trkpt>
      <trkpt lat="45.93541" lon="4.73425">
        <ele>169</ele>
        <time>2018-10-09T13:27:57Z</time>
      </trkpt>
      <trkpt lat="45.93538" lon="4.73418">
        <ele>169</ele>
        <time>2018-10-09T13:27:58Z</time>
      </trkpt>
      <trkpt lat="45.93536" lon="4.73405">
        <ele>169</ele>
        <time>2018-10-09T13:28:00Z</time>
      </trkpt>
      <trkpt lat="45.93535" lon="4.73399">
        <ele>169</ele>
        <time>2018-10-09T13:28:01Z</time>
      </trkpt>
      <trkpt lat="45.93534" lon="4.73393">
        <ele>169</ele>
        <time>2018-10-09T13:28:02Z</time>
      </trkpt>
      <trkpt lat="45.93534" lon="4.73386">
        <ele>169</ele>
        <time>2018-10-09T13:28:03Z</time>
      </trkpt>
      <trkpt lat="45.93534" lon="4.73378">
        <ele>169</ele>
        <time>2018-10-09T13:28:04Z</time>
      </trkpt>
      <trkpt lat="45.93532" lon="4.73371">
        <ele>169</ele>
        <time>2018-10-09T13:28:05Z</time>
      </trkpt>
      <trkpt lat="45.93531" lon="4.73364">
        <ele>169</ele>
        <time>2018-10-09T13:28:06Z</time>
      </trkpt>
      <trkpt lat="45.93529" lon="4.73357">
        <ele>169</ele>
        <time>2018-10-09T13:28:07Z</time>
      </trkpt>
      <trkpt lat="45.93527" lon="4.73349">
        <ele>169</ele>
        <time>2018-10-09T13:28:08Z</time>
      </trkpt>
      <trkpt lat="45.93526" lon="4.73342">
        <ele>169</ele>
        <time>2018-10-09T13:28:09Z</time>
      </trkpt>
      <trkpt lat="45.93525" lon="4.73335">
        <ele>169</ele>
        <time>2018-10-09T13:28:10Z</time>
      </trkpt>
      <trkpt lat="45.93524" lon="4.73329">
        <ele>169</ele>
        <time>2018-10-09T13:28:11Z</time>
      </trkpt>
      <trkpt lat="45.93522" lon="4.73317">
        <ele>169</ele>
        <time>2018-10-09T13:28:13Z</time>
      </trkpt>
      <trkpt lat="45.93521" lon="4.73311">
        <ele>169</ele>
        <time>2018-10-09T13:28:14Z</time>
      </trkpt>
      <trkpt lat="45.93519" lon="4.73299">
        <ele>169</ele>
        <time>2018-10-09T13:28:16Z</time>
      </trkpt>
      <trkpt lat="45.93518" lon="4.73293">
        <ele>169</ele>
        <time>2018-10-09T13:28:17Z</time>
      </trkpt>
      <trkpt lat="45.93516" lon="4.73281">
        <ele>169</ele>
        <time>2018-10-09T13:28:19Z</time>
      </trkpt>
      <trkpt lat="45.93515" lon="4.73274">
        <ele>169</ele>
        <time>2018-10-09T13:28:20Z</time>
      </trkpt>
      <trkpt lat="45.93515" lon="4.73267">
        <ele>169</ele>
        <time>2018-10-09T13:28:21Z</time>
      </trkpt>
      <trkpt lat="45.93515" lon="4.7326">
        <ele>169</ele>
        <time>2018-10-09T13:28:22Z</time>
      </trkpt>
      <trkpt lat="45.93514" lon="4.73253">
        <ele>169</ele>
        <time>2018-10-09T13:28:23Z</time>
      </trkpt>
      <trkpt lat="45.93513" lon="4.73245">
        <ele>169</ele>
        <time>2018-10-09T13:28:24Z</time>
      </trkpt>
      <trkpt lat="45.93512" lon="4.73238">
        <ele>169</ele>
        <time>2018-10-09T13:28:25Z</time>
      </trkpt>
      <trkpt lat="45.93512" lon="4.7323">
        <ele>169</ele>
        <time>2018-10-09T13:28:26Z</time>
      </trkpt>
      <trkpt lat="45.93511" lon="4.73223">
        <ele>169</ele>
        <time>2018-10-09T13:28:27Z</time>
      </trkpt>
      <trkpt lat="45.9351" lon="4.73216">
        <ele>169</ele>
        <time>2018-10-09T13:28:28Z</time>
      </trkpt>
      <trkpt lat="45.93507" lon="4.73204">
        <ele>169</ele>
        <time>2018-10-09T13:28:30Z</time>
      </trkpt>
      <trkpt lat="45.93506" lon="4.73198">
        <ele>169</ele>
        <time>2018-10-09T13:28:31Z</time>
      </trkpt>
      <trkpt lat="45.93503" lon="4.73187">
        <ele>169</ele>
        <time>2018-10-09T13:28:33Z</time>
      </trkpt>
      <trkpt lat="45.93502" lon="4.73182">
        <ele>169</ele>
        <time>2018-10-09T13:28:34Z</time>
      </trkpt>
      <trkpt lat="45.93498" lon="4.73171">
        <ele>170</ele>
        <time>2018-10-09T13:28:36Z</time>
      </trkpt>
      <trkpt lat="45.93496" lon="4.73166">
        <ele>170</ele>
        <time>2018-10-09T13:28:37Z</time>
      </trkpt>
      <trkpt lat="45.93495" lon="4.7316">
        <ele>170</ele>
        <time>2018-10-09T13:28:38Z</time>
      </trkpt>
      <trkpt lat="45.93493" lon="4.73155">
        <ele>170</ele>
        <time>2018-10-09T13:28:39Z</time>
      </trkpt>
      <trkpt lat="45.93491" lon="4.73147">
        <ele>170</ele>
        <time>2018-10-09T13:28:40Z</time>
      </trkpt>
      <trkpt lat="45.93489" lon="4.7314">
        <ele>170</ele>
        <time>2018-10-09T13:28:41Z</time>
      </trkpt>
      <trkpt lat="45.93489" lon="4.73133">
        <ele>170</ele>
        <time>2018-10-09T13:28:42Z</time>
      </trkpt>
      <trkpt lat="45.93489" lon="4.73126">
        <ele>170</ele>
        <time>2018-10-09T13:28:43Z</time>
      </trkpt>
      <trkpt lat="45.9349" lon="4.73119">
        <ele>170</ele>
        <time>2018-10-09T13:28:44Z</time>
      </trkpt>
      <trkpt lat="45.9349" lon="4.73112">
        <ele>170</ele>
        <time>2018-10-09T13:28:45Z</time>
      </trkpt>
      <trkpt lat="45.93488" lon="4.73101">
        <ele>170</ele>
        <time>2018-10-09T13:28:47Z</time>
      </trkpt>
      <trkpt lat="45.93488" lon="4.73095">
        <ele>170</ele>
        <time>2018-10-09T13:28:48Z</time>
      </trkpt>
      <trkpt lat="45.93488" lon="4.73083">
        <ele>170</ele>
        <time>2018-10-09T13:28:50Z</time>
      </trkpt>
      <trkpt lat="45.93489" lon="4.73075">
        <ele>170</ele>
        <time>2018-10-09T13:28:51Z</time>
      </trkpt>
      <trkpt lat="45.9349" lon="4.73068">
        <ele>170</ele>
        <time>2018-10-09T13:28:52Z</time>
      </trkpt>
      <trkpt lat="45.9349" lon="4.73061">
        <ele>170</ele>
        <time>2018-10-09T13:28:53Z</time>
      </trkpt>
      <trkpt lat="45.9349" lon="4.73054">
        <ele>170</ele>
        <time>2018-10-09T13:28:54Z</time>
      </trkpt>
      <trkpt lat="45.93491" lon="4.73047">
        <ele>170</ele>
        <time>2018-10-09T13:28:55Z</time>
      </trkpt>
      <trkpt lat="45.93491" lon="4.73035">
        <ele>170</ele>
        <time>2018-10-09T13:28:57Z</time>
      </trkpt>
      <trkpt lat="45.93491" lon="4.7303">
        <ele>170</ele>
        <time>2018-10-09T13:28:58Z</time>
      </trkpt>
      <trkpt lat="45.93492" lon="4.73019">
        <ele>170</ele>
        <time>2018-10-09T13:29:00Z</time>
      </trkpt>
      <trkpt lat="45.93492" lon="4.73016">
        <ele>170</ele>
        <time>2018-10-09T13:29:01Z</time>
      </trkpt>
      <trkpt lat="45.93492" lon="4.73008">
        <ele>170</ele>
        <time>2018-10-09T13:29:02Z</time>
      </trkpt>
      <trkpt lat="45.93491" lon="4.73003">
        <ele>170</ele>
        <time>2018-10-09T13:29:03Z</time>
      </trkpt>
      <trkpt lat="45.9349" lon="4.72991">
        <ele>170</ele>
        <time>2018-10-09T13:29:05Z</time>
      </trkpt>
      <trkpt lat="45.93491" lon="4.72985">
        <ele>170</ele>
        <time>2018-10-09T13:29:06Z</time>
      </trkpt>
      <trkpt lat="45.93491" lon="4.72979">
        <ele>171</ele>
        <time>2018-10-09T13:29:07Z</time>
      </trkpt>
      <trkpt lat="45.93493" lon="4.72972">
        <ele>171</ele>
        <time>2018-10-09T13:29:08Z</time>
      </trkpt>
      <trkpt lat="45.93493" lon="4.72964">
        <ele>171</ele>
        <time>2018-10-09T13:29:09Z</time>
      </trkpt>
      <trkpt lat="45.93495" lon="4.72958">
        <ele>171</ele>
        <time>2018-10-09T13:29:10Z</time>
      </trkpt>
      <trkpt lat="45.93498" lon="4.72947">
        <ele>171</ele>
        <time>2018-10-09T13:29:12Z</time>
      </trkpt>
      <trkpt lat="45.93499" lon="4.72941">
        <ele>171</ele>
        <time>2018-10-09T13:29:13Z</time>
      </trkpt>
      <trkpt lat="45.93501" lon="4.72934">
        <ele>171</ele>
        <time>2018-10-09T13:29:14Z</time>
      </trkpt>
      <trkpt lat="45.93501" lon="4.72927">
        <ele>171</ele>
        <time>2018-10-09T13:29:15Z</time>
      </trkpt>
      <trkpt lat="45.93506" lon="4.72916">
        <ele>172</ele>
        <time>2018-10-09T13:29:17Z</time>
      </trkpt>
      <trkpt lat="45.93507" lon="4.7291">
        <ele>172</ele>
        <time>2018-10-09T13:29:18Z</time>
      </trkpt>
      <trkpt lat="45.93515" lon="4.72904">
        <ele>172</ele>
        <time>2018-10-09T13:29:20Z</time>
      </trkpt>
      <trkpt lat="45.93518" lon="4.72901">
        <ele>172</ele>
        <time>2018-10-09T13:29:21Z</time>
      </trkpt>
      <trkpt lat="45.93524" lon="4.72894">
        <ele>172</ele>
        <time>2018-10-09T13:29:23Z</time>
      </trkpt>
      <trkpt lat="45.93526" lon="4.72892">
        <ele>172</ele>
        <time>2018-10-09T13:29:24Z</time>
      </trkpt>
      <trkpt lat="45.93528" lon="4.7289">
        <ele>172</ele>
        <time>2018-10-09T13:29:25Z</time>
      </trkpt>
      <trkpt lat="45.93533" lon="4.72884">
        <ele>172</ele>
        <time>2018-10-09T13:29:26Z</time>
      </trkpt>
      <trkpt lat="45.93539" lon="4.72876">
        <ele>173</ele>
        <time>2018-10-09T13:29:28Z</time>
      </trkpt>
      <trkpt lat="45.93543" lon="4.72872">
        <ele>173</ele>
        <time>2018-10-09T13:29:29Z</time>
      </trkpt>
      <trkpt lat="45.93546" lon="4.72868">
        <ele>173</ele>
        <time>2018-10-09T13:29:30Z</time>
      </trkpt>
      <trkpt lat="45.93551" lon="4.72864">
        <ele>173</ele>
        <time>2018-10-09T13:29:31Z</time>
      </trkpt>
      <trkpt lat="45.93555" lon="4.7286">
        <ele>172</ele>
        <time>2018-10-09T13:29:32Z</time>
      </trkpt>
      <trkpt lat="45.93559" lon="4.72856">
        <ele>172</ele>
        <time>2018-10-09T13:29:33Z</time>
      </trkpt>
      <trkpt lat="45.93563" lon="4.72852">
        <ele>172</ele>
        <time>2018-10-09T13:29:34Z</time>
      </trkpt>
      <trkpt lat="45.93567" lon="4.72848">
        <ele>172</ele>
        <time>2018-10-09T13:29:35Z</time>
      </trkpt>
      <trkpt lat="45.93572" lon="4.72845">
        <ele>172</ele>
        <time>2018-10-09T13:29:36Z</time>
      </trkpt>
      <trkpt lat="45.93576" lon="4.72841">
        <ele>172</ele>
        <time>2018-10-09T13:29:37Z</time>
      </trkpt>
      <trkpt lat="45.93581" lon="4.72837">
        <ele>172</ele>
        <time>2018-10-09T13:29:38Z</time>
      </trkpt>
      <trkpt lat="45.93585" lon="4.72833">
        <ele>172</ele>
        <time>2018-10-09T13:29:39Z</time>
      </trkpt>
      <trkpt lat="45.93588" lon="4.72829">
        <ele>172</ele>
        <time>2018-10-09T13:29:40Z</time>
      </trkpt>
      <trkpt lat="45.93592" lon="4.72825">
        <ele>173</ele>
        <time>2018-10-09T13:29:41Z</time>
      </trkpt>
      <trkpt lat="45.936" lon="4.7282">
        <ele>173</ele>
        <time>2018-10-09T13:29:43Z</time>
      </trkpt>
      <trkpt lat="45.93603" lon="4.72817">
        <ele>173</ele>
        <time>2018-10-09T13:29:44Z</time>
      </trkpt>
      <trkpt lat="45.9361" lon="4.72812">
        <ele>173</ele>
        <time>2018-10-09T13:29:46Z</time>
      </trkpt>
      <trkpt lat="45.93613" lon="4.72809">
        <ele>173</ele>
        <time>2018-10-09T13:29:47Z</time>
      </trkpt>
      <trkpt lat="45.93621" lon="4.72804">
        <ele>173</ele>
        <time>2018-10-09T13:29:49Z</time>
      </trkpt>
      <trkpt lat="45.93625" lon="4.72801">
        <ele>173</ele>
        <time>2018-10-09T13:29:50Z</time>
      </trkpt>
      <trkpt lat="45.93629" lon="4.72798">
        <ele>173</ele>
        <time>2018-10-09T13:29:51Z</time>
      </trkpt>
      <trkpt lat="45.93634" lon="4.72794">
        <ele>173</ele>
        <time>2018-10-09T13:29:52Z</time>
      </trkpt>
      <trkpt lat="45.93638" lon="4.72791">
        <ele>173</ele>
        <time>2018-10-09T13:29:53Z</time>
      </trkpt>
      <trkpt lat="45.93642" lon="4.72788">
        <ele>173</ele>
        <time>2018-10-09T13:29:54Z</time>
      </trkpt>
      <trkpt lat="45.93647" lon="4.72785">
        <ele>173</ele>
        <time>2018-10-09T13:29:55Z</time>
      </trkpt>
      <trkpt lat="45.93651" lon="4.72782">
        <ele>174</ele>
        <time>2018-10-09T13:29:56Z</time>
      </trkpt>
      <trkpt lat="45.93659" lon="4.72776">
        <ele>174</ele>
        <time>2018-10-09T13:29:58Z</time>
      </trkpt>
      <trkpt lat="45.93662" lon="4.72774">
        <ele>174</ele>
        <time>2018-10-09T13:29:59Z</time>
      </trkpt>
      <trkpt lat="45.93668" lon="4.72769">
        <ele>173</ele>
        <time>2018-10-09T13:30:01Z</time>
      </trkpt>
      <trkpt lat="45.93672" lon="4.72766">
        <ele>173</ele>
        <time>2018-10-09T13:30:02Z</time>
      </trkpt>
      <trkpt lat="45.93678" lon="4.7276">
        <ele>173</ele>
        <time>2018-10-09T13:30:04Z</time>
      </trkpt>
      <trkpt lat="45.93682" lon="4.72756">
        <ele>173</ele>
        <time>2018-10-09T13:30:05Z</time>
      </trkpt>
      <trkpt lat="45.93687" lon="4.72751">
        <ele>173</ele>
        <time>2018-10-09T13:30:06Z</time>
      </trkpt>
      <trkpt lat="45.93693" lon="4.72746">
        <ele>173</ele>
        <time>2018-10-09T13:30:07Z</time>
      </trkpt>
      <trkpt lat="45.93698" lon="4.72742">
        <ele>173</ele>
        <time>2018-10-09T13:30:08Z</time>
      </trkpt>
      <trkpt lat="45.93703" lon="4.72737">
        <ele>173</ele>
        <time>2018-10-09T13:30:09Z</time>
      </trkpt>
      <trkpt lat="45.93707" lon="4.72733">
        <ele>173</ele>
        <time>2018-10-09T13:30:10Z</time>
      </trkpt>
      <trkpt lat="45.93712" lon="4.72728">
        <ele>173</ele>
        <time>2018-10-09T13:30:11Z</time>
      </trkpt>
      <trkpt lat="45.93717" lon="4.72725">
        <ele>173</ele>
        <time>2018-10-09T13:30:12Z</time>
      </trkpt>
      <trkpt lat="45.93722" lon="4.7272">
        <ele>173</ele>
        <time>2018-10-09T13:30:13Z</time>
      </trkpt>
      <trkpt lat="45.93726" lon="4.72716">
        <ele>173</ele>
        <time>2018-10-09T13:30:14Z</time>
      </trkpt>
      <trkpt lat="45.9373" lon="4.72712">
        <ele>173</ele>
        <time>2018-10-09T13:30:15Z</time>
      </trkpt>
      <trkpt lat="45.93734" lon="4.72709">
        <ele>173</ele>
        <time>2018-10-09T13:30:16Z</time>
      </trkpt>
      <trkpt lat="45.93738" lon="4.72705">
        <ele>173</ele>
        <time>2018-10-09T13:30:17Z</time>
      </trkpt>
      <trkpt lat="45.93744" lon="4.72699">
        <ele>173</ele>
        <time>2018-10-09T13:30:19Z</time>
      </trkpt>
      <trkpt lat="45.93748" lon="4.72695">
        <ele>173</ele>
        <time>2018-10-09T13:30:20Z</time>
      </trkpt>
      <trkpt lat="45.93752" lon="4.72691">
        <ele>172</ele>
        <time>2018-10-09T13:30:21Z</time>
      </trkpt>
      <trkpt lat="45.93756" lon="4.72688">
        <ele>173</ele>
        <time>2018-10-09T13:30:22Z</time>
      </trkpt>
      <trkpt lat="45.9376" lon="4.72683">
        <ele>173</ele>
        <time>2018-10-09T13:30:23Z</time>
      </trkpt>
      <trkpt lat="45.93763" lon="4.72679">
        <ele>173</ele>
        <time>2018-10-09T13:30:24Z</time>
      </trkpt>
      <trkpt lat="45.93767" lon="4.72676">
        <ele>173</ele>
        <time>2018-10-09T13:30:25Z</time>
      </trkpt>
      <trkpt lat="45.93771" lon="4.72672">
        <ele>173</ele>
        <time>2018-10-09T13:30:26Z</time>
      </trkpt>
      <trkpt lat="45.93776" lon="4.72667">
        <ele>173</ele>
        <time>2018-10-09T13:30:27Z</time>
      </trkpt>
      <trkpt lat="45.93778" lon="4.72662">
        <ele>173</ele>
        <time>2018-10-09T13:30:28Z</time>
      </trkpt>
      <trkpt lat="45.93782" lon="4.72657">
        <ele>173</ele>
        <time>2018-10-09T13:30:29Z</time>
      </trkpt>
      <trkpt lat="45.93785" lon="4.72652">
        <ele>173</ele>
        <time>2018-10-09T13:30:30Z</time>
      </trkpt>
      <trkpt lat="45.93791" lon="4.72644">
        <ele>173</ele>
        <time>2018-10-09T13:30:32Z</time>
      </trkpt>
      <trkpt lat="45.93794" lon="4.72641">
        <ele>173</ele>
        <time>2018-10-09T13:30:33Z</time>
      </trkpt>
      <trkpt lat="45.938" lon="4.72632">
        <ele>173</ele>
        <time>2018-10-09T13:30:35Z</time>
      </trkpt>
      <trkpt lat="45.93803" lon="4.72628">
        <ele>173</ele>
        <time>2018-10-09T13:30:36Z</time>
      </trkpt>
      <trkpt lat="45.93807" lon="4.72624">
        <ele>173</ele>
        <time>2018-10-09T13:30:37Z</time>
      </trkpt>
      <trkpt lat="45.9381" lon="4.72619">
        <ele>173</ele>
        <time>2018-10-09T13:30:38Z</time>
      </trkpt>
      <trkpt lat="45.93813" lon="4.72613">
        <ele>173</ele>
        <time>2018-10-09T13:30:39Z</time>
      </trkpt>
      <trkpt lat="45.93815" lon="4.72609">
        <ele>173</ele>
        <time>2018-10-09T13:30:40Z</time>
      </trkpt>
      <trkpt lat="45.93818" lon="4.72597">
        <ele>174</ele>
        <time>2018-10-09T13:30:42Z</time>
      </trkpt>
      <trkpt lat="45.93817" lon="4.72592">
        <ele>174</ele>
        <time>2018-10-09T13:30:43Z</time>
      </trkpt>
      <trkpt lat="45.93813" lon="4.72584">
        <ele>174</ele>
        <time>2018-10-09T13:30:45Z</time>
      </trkpt>
      <trkpt lat="45.9381" lon="4.7258">
        <ele>174</ele>
        <time>2018-10-09T13:30:46Z</time>
      </trkpt>
      <trkpt lat="45.93807" lon="4.72576">
        <ele>174</ele>
        <time>2018-10-09T13:30:47Z</time>
      </trkpt>
      <trkpt lat="45.9379" lon="4.72561">
        <ele>174</ele>
        <time>2018-10-09T13:30:52Z</time>
      </trkpt>
      <trkpt lat="45.93783" lon="4.72556">
        <ele>173</ele>
        <time>2018-10-09T13:30:54Z</time>
      </trkpt>
      <trkpt lat="45.93781" lon="4.72555">
        <ele>173</ele>
        <time>2018-10-09T13:30:55Z</time>
      </trkpt>
      <trkpt lat="45.93778" lon="4.72552">
        <ele>173</ele>
        <time>2018-10-09T13:30:56Z</time>
      </trkpt>
      <trkpt lat="45.93768" lon="4.72542">
        <ele>173</ele>
        <time>2018-10-09T13:30:57Z</time>
      </trkpt>
      <trkpt lat="45.93763" lon="4.72537">
        <ele>173</ele>
        <time>2018-10-09T13:30:58Z</time>
      </trkpt>
      <trkpt lat="45.9376" lon="4.72533">
        <ele>173</ele>
        <time>2018-10-09T13:30:59Z</time>
      </trkpt>
      <trkpt lat="45.93754" lon="4.72529">
        <ele>172</ele>
        <time>2018-10-09T13:31:00Z</time>
      </trkpt>
      <trkpt lat="45.93749" lon="4.72525">
        <ele>172</ele>
        <time>2018-10-09T13:31:01Z</time>
      </trkpt>
      <trkpt lat="45.93744" lon="4.72521">
        <ele>171</ele>
        <time>2018-10-09T13:31:02Z</time>
      </trkpt>
      <trkpt lat="45.93741" lon="4.72516">
        <ele>171</ele>
        <time>2018-10-09T13:31:03Z</time>
      </trkpt>
      <trkpt lat="45.93737" lon="4.72512">
        <ele>171</ele>
        <time>2018-10-09T13:31:04Z</time>
      </trkpt>
      <trkpt lat="45.93732" lon="4.72508">
        <ele>171</ele>
        <time>2018-10-09T13:31:05Z</time>
      </trkpt>
      <trkpt lat="45.93729" lon="4.72504">
        <ele>171</ele>
        <time>2018-10-09T13:31:06Z</time>
      </trkpt>
      <trkpt lat="45.93723" lon="4.72502">
        <ele>171</ele>
        <time>2018-10-09T13:31:07Z</time>
      </trkpt>
      <trkpt lat="45.93717" lon="4.72499">
        <ele>171</ele>
        <time>2018-10-09T13:31:08Z</time>
      </trkpt>
      <trkpt lat="45.93715" lon="4.72494">
        <ele>171</ele>
        <time>2018-10-09T13:31:09Z</time>
      </trkpt>
      <trkpt lat="45.93709" lon="4.72492">
        <ele>171</ele>
        <time>2018-10-09T13:31:10Z</time>
      </trkpt>
      <trkpt lat="45.93705" lon="4.72488">
        <ele>171</ele>
        <time>2018-10-09T13:31:11Z</time>
      </trkpt>
      <trkpt lat="45.93702" lon="4.72484">
        <ele>171</ele>
        <time>2018-10-09T13:31:12Z</time>
      </trkpt>
      <trkpt lat="45.93698" lon="4.72479">
        <ele>171</ele>
        <time>2018-10-09T13:31:13Z</time>
      </trkpt>
      <trkpt lat="45.93694" lon="4.72474">
        <ele>171</ele>
        <time>2018-10-09T13:31:14Z</time>
      </trkpt>
      <trkpt lat="45.9369" lon="4.72469">
        <ele>171</ele>
        <time>2018-10-09T13:31:15Z</time>
      </trkpt>
      <trkpt lat="45.93686" lon="4.72465">
        <ele>171</ele>
        <time>2018-10-09T13:31:16Z</time>
      </trkpt>
      <trkpt lat="45.93682" lon="4.72461">
        <ele>171</ele>
        <time>2018-10-09T13:31:17Z</time>
      </trkpt>
      <trkpt lat="45.93675" lon="4.72455">
        <ele>171</ele>
        <time>2018-10-09T13:31:19Z</time>
      </trkpt>
      <trkpt lat="45.93671" lon="4.72451">
        <ele>171</ele>
        <time>2018-10-09T13:31:20Z</time>
      </trkpt>
      <trkpt lat="45.93663" lon="4.72444">
        <ele>172</ele>
        <time>2018-10-09T13:31:22Z</time>
      </trkpt>
      <trkpt lat="45.93662" lon="4.72443">
        <ele>172</ele>
        <time>2018-10-09T13:31:23Z</time>
      </trkpt>
      <trkpt lat="45.93659" lon="4.72434">
        <ele>172</ele>
        <time>2018-10-09T13:31:26Z</time>
      </trkpt>
      <trkpt lat="45.93658" lon="4.72431">
        <ele>172</ele>
        <time>2018-10-09T13:31:27Z</time>
      </trkpt>
      <trkpt lat="45.93653" lon="4.72423">
        <ele>172</ele>
        <time>2018-10-09T13:31:31Z</time>
      </trkpt>
      <trkpt lat="45.9365" lon="4.7242">
        <ele>172</ele>
        <time>2018-10-09T13:31:32Z</time>
      </trkpt>
      <trkpt lat="45.93643" lon="4.72413">
        <ele>172</ele>
        <time>2018-10-09T13:31:35Z</time>
      </trkpt>
      <trkpt lat="45.93642" lon="4.7241">
        <ele>172</ele>
        <time>2018-10-09T13:31:36Z</time>
      </trkpt>
      <trkpt lat="45.93638" lon="4.72403">
        <ele>172</ele>
        <time>2018-10-09T13:31:38Z</time>
      </trkpt>
      <trkpt lat="45.93636" lon="4.724">
        <ele>172</ele>
        <time>2018-10-09T13:31:39Z</time>
      </trkpt>
      <trkpt lat="45.93631" lon="4.72391">
        <ele>172</ele>
        <time>2018-10-09T13:31:42Z</time>
      </trkpt>
      <trkpt lat="45.93625" lon="4.72381">
        <ele>172</ele>
        <time>2018-10-09T13:31:43Z</time>
      </trkpt>
      <trkpt lat="45.93619" lon="4.72373">
        <ele>172</ele>
        <time>2018-10-09T13:31:47Z</time>
      </trkpt>
      <trkpt lat="45.93617" lon="4.72371">
        <ele>172</ele>
        <time>2018-10-09T13:31:48Z</time>
      </trkpt>
      <trkpt lat="45.93611" lon="4.72365">
        <ele>172</ele>
        <time>2018-10-09T13:31:51Z</time>
      </trkpt>
      <trkpt lat="45.93609" lon="4.72362">
        <ele>172</ele>
        <time>2018-10-09T13:31:52Z</time>
      </trkpt>
      <trkpt lat="45.93602" lon="4.72355">
        <ele>172</ele>
        <time>2018-10-09T13:31:55Z</time>
      </trkpt>
      <trkpt lat="45.936" lon="4.72353">
        <ele>172</ele>
        <time>2018-10-09T13:31:56Z</time>
      </trkpt>
      <trkpt lat="45.93594" lon="4.72345">
        <ele>172</ele>
        <time>2018-10-09T13:31:59Z</time>
      </trkpt>
      <trkpt lat="45.93592" lon="4.72343">
        <ele>173</ele>
        <time>2018-10-09T13:32:00Z</time>
      </trkpt>
      <trkpt lat="45.93587" lon="4.72334">
        <ele>173</ele>
        <time>2018-10-09T13:32:03Z</time>
      </trkpt>
      <trkpt lat="45.93584" lon="4.72332">
        <ele>173</ele>
        <time>2018-10-09T13:32:04Z</time>
      </trkpt>
      <trkpt lat="45.93579" lon="4.72326">
        <ele>173</ele>
        <time>2018-10-09T13:32:06Z</time>
      </trkpt>
      <trkpt lat="45.93576" lon="4.72324">
        <ele>173</ele>
        <time>2018-10-09T13:32:07Z</time>
      </trkpt>
      <trkpt lat="45.93568" lon="4.72318">
        <ele>173</ele>
        <time>2018-10-09T13:32:10Z</time>
      </trkpt>
      <trkpt lat="45.93566" lon="4.72317">
        <ele>173</ele>
        <time>2018-10-09T13:32:11Z</time>
      </trkpt>
      <trkpt lat="45.93557" lon="4.72313">
        <ele>173</ele>
        <time>2018-10-09T13:32:14Z</time>
      </trkpt>
      <trkpt lat="45.93554" lon="4.72312">
        <ele>173</ele>
        <time>2018-10-09T13:32:15Z</time>
      </trkpt>
      <trkpt lat="45.93547" lon="4.72311">
        <ele>173</ele>
        <time>2018-10-09T13:32:17Z</time>
      </trkpt>
      <trkpt lat="45.93544" lon="4.72311">
        <ele>173</ele>
        <time>2018-10-09T13:32:18Z</time>
      </trkpt>
      <trkpt lat="45.93537" lon="4.72311">
        <ele>173</ele>
        <time>2018-10-09T13:32:20Z</time>
      </trkpt>
      <trkpt lat="45.93535" lon="4.72312">
        <ele>173</ele>
        <time>2018-10-09T13:32:21Z</time>
      </trkpt>
      <trkpt lat="45.93528" lon="4.72316">
        <ele>173</ele>
        <time>2018-10-09T13:32:25Z</time>
      </trkpt>
      <trkpt lat="45.93526" lon="4.72318">
        <ele>173</ele>
        <time>2018-10-09T13:32:26Z</time>
      </trkpt>
      <trkpt lat="45.93521" lon="4.72326">
        <ele>173</ele>
        <time>2018-10-09T13:32:31Z</time>
      </trkpt>
      <trkpt lat="45.9352" lon="4.72327">
        <ele>173</ele>
        <time>2018-10-09T13:32:32Z</time>
      </trkpt>
      <trkpt lat="45.93519" lon="4.72315">
        <ele>173</ele>
        <time>2018-10-09T13:32:42Z</time>
      </trkpt>
      <trkpt lat="45.9352" lon="4.72313">
        <ele>173</ele>
        <time>2018-10-09T13:32:43Z</time>
      </trkpt>
      <trkpt lat="45.93525" lon="4.72302">
        <ele>173</ele>
        <time>2018-10-09T13:32:46Z</time>
      </trkpt>
      <trkpt lat="45.93526" lon="4.72298">
        <ele>172</ele>
        <time>2018-10-09T13:32:47Z</time>
      </trkpt>
      <trkpt lat="45.9353" lon="4.7229">
        <ele>172</ele>
        <time>2018-10-09T13:32:49Z</time>
      </trkpt>
      <trkpt lat="45.93531" lon="4.72286">
        <ele>172</ele>
        <time>2018-10-09T13:32:50Z</time>
      </trkpt>
      <trkpt lat="45.93534" lon="4.72278">
        <ele>172</ele>
        <time>2018-10-09T13:32:52Z</time>
      </trkpt>
      <trkpt lat="45.93535" lon="4.72274">
        <ele>172</ele>
        <time>2018-10-09T13:32:53Z</time>
      </trkpt>
      <trkpt lat="45.93538" lon="4.72266">
        <ele>172</ele>
        <time>2018-10-09T13:32:55Z</time>
      </trkpt>
      <trkpt lat="45.9354" lon="4.72261">
        <ele>172</ele>
        <time>2018-10-09T13:32:56Z</time>
      </trkpt>
      <trkpt lat="45.93544" lon="4.72253">
        <ele>172</ele>
        <time>2018-10-09T13:32:58Z</time>
      </trkpt>
      <trkpt lat="45.93545" lon="4.72249">
        <ele>172</ele>
        <time>2018-10-09T13:32:59Z</time>
      </trkpt>
      <trkpt lat="45.93548" lon="4.72241">
        <ele>172</ele>
        <time>2018-10-09T13:33:01Z</time>
      </trkpt>
      <trkpt lat="45.93551" lon="4.72233">
        <ele>172</ele>
        <time>2018-10-09T13:33:02Z</time>
      </trkpt>
      <trkpt lat="45.93556" lon="4.72223">
        <ele>173</ele>
        <time>2018-10-09T13:33:07Z</time>
      </trkpt>
      <trkpt lat="45.93557" lon="4.72222">
        <ele>173</ele>
        <time>2018-10-09T13:33:08Z</time>
      </trkpt>
      <trkpt lat="45.93555" lon="4.72209">
        <ele>173</ele>
        <time>2018-10-09T13:33:19Z</time>
      </trkpt>
      <trkpt lat="45.93551" lon="4.72203">
        <ele>173</ele>
        <time>2018-10-09T13:33:20Z</time>
      </trkpt>
      <trkpt lat="45.93544" lon="4.72202">
        <ele>173</ele>
        <time>2018-10-09T13:33:22Z</time>
      </trkpt>
      <trkpt lat="45.9354" lon="4.72202">
        <ele>173</ele>
        <time>2018-10-09T13:33:23Z</time>
      </trkpt>
      <trkpt lat="45.93532" lon="4.72202">
        <ele>172</ele>
        <time>2018-10-09T13:33:25Z</time>
      </trkpt>
      <trkpt lat="45.93528" lon="4.72201">
        <ele>172</ele>
        <time>2018-10-09T13:33:26Z</time>
      </trkpt>
      <trkpt lat="45.9352" lon="4.72199">
        <ele>172</ele>
        <time>2018-10-09T13:33:28Z</time>
      </trkpt>
      <trkpt lat="45.93514" lon="4.72198">
        <ele>172</ele>
        <time>2018-10-09T13:33:29Z</time>
      </trkpt>
      <trkpt lat="45.93509" lon="4.72195">
        <ele>173</ele>
        <time>2018-10-09T13:33:30Z</time>
      </trkpt>
      <trkpt lat="45.93505" lon="4.72193">
        <ele>173</ele>
        <time>2018-10-09T13:33:31Z</time>
      </trkpt>
      <trkpt lat="45.93497" lon="4.7219">
        <ele>173</ele>
        <time>2018-10-09T13:33:33Z</time>
      </trkpt>
      <trkpt lat="45.93493" lon="4.72186">
        <ele>173</ele>
        <time>2018-10-09T13:33:34Z</time>
      </trkpt>
      <trkpt lat="45.93487" lon="4.7218">
        <ele>173</ele>
        <time>2018-10-09T13:33:36Z</time>
      </trkpt>
      <trkpt lat="45.93482" lon="4.72179">
        <ele>173</ele>
        <time>2018-10-09T13:33:37Z</time>
      </trkpt>
      <trkpt lat="45.93474" lon="4.72175">
        <ele>174</ele>
        <time>2018-10-09T13:33:39Z</time>
      </trkpt>
      <trkpt lat="45.93468" lon="4.72175">
        <ele>174</ele>
        <time>2018-10-09T13:33:40Z</time>
      </trkpt>
      <trkpt lat="45.93463" lon="4.72175">
        <ele>174</ele>
        <time>2018-10-09T13:33:41Z</time>
      </trkpt>
      <trkpt lat="45.93458" lon="4.72175">
        <ele>174</ele>
        <time>2018-10-09T13:33:42Z</time>
      </trkpt>
      <trkpt lat="45.93453" lon="4.72173">
        <ele>174</ele>
        <time>2018-10-09T13:33:43Z</time>
      </trkpt>
      <trkpt lat="45.93447" lon="4.72172">
        <ele>174</ele>
        <time>2018-10-09T13:33:44Z</time>
      </trkpt>
      <trkpt lat="45.93443" lon="4.72173">
        <ele>175</ele>
        <time>2018-10-09T13:33:45Z</time>
      </trkpt>
      <trkpt lat="45.93438" lon="4.72174">
        <ele>175</ele>
        <time>2018-10-09T13:33:46Z</time>
      </trkpt>
      <trkpt lat="45.93433" lon="4.72175">
        <ele>175</ele>
        <time>2018-10-09T13:33:47Z</time>
      </trkpt>
      <trkpt lat="45.93428" lon="4.72178">
        <ele>175</ele>
        <time>2018-10-09T13:33:48Z</time>
      </trkpt>
      <trkpt lat="45.93424" lon="4.7218">
        <ele>175</ele>
        <time>2018-10-09T13:33:49Z</time>
      </trkpt>
      <trkpt lat="45.93419" lon="4.72184">
        <ele>175</ele>
        <time>2018-10-09T13:33:50Z</time>
      </trkpt>
      <trkpt lat="45.93411" lon="4.72189">
        <ele>176</ele>
        <time>2018-10-09T13:33:52Z</time>
      </trkpt>
      <trkpt lat="45.93407" lon="4.72191">
        <ele>176</ele>
        <time>2018-10-09T13:33:53Z</time>
      </trkpt>
      <trkpt lat="45.93401" lon="4.72195">
        <ele>176</ele>
        <time>2018-10-09T13:33:55Z</time>
      </trkpt>
      <trkpt lat="45.93395" lon="4.72196">
        <ele>176</ele>
        <time>2018-10-09T13:33:56Z</time>
      </trkpt>
      <trkpt lat="45.93387" lon="4.72199">
        <ele>176</ele>
        <time>2018-10-09T13:33:58Z</time>
      </trkpt>
      <trkpt lat="45.93384" lon="4.72199">
        <ele>176</ele>
        <time>2018-10-09T13:33:59Z</time>
      </trkpt>
      <trkpt lat="45.93378" lon="4.72199">
        <ele>176</ele>
        <time>2018-10-09T13:34:01Z</time>
      </trkpt>
      <trkpt lat="45.93372" lon="4.722">
        <ele>177</ele>
        <time>2018-10-09T13:34:02Z</time>
      </trkpt>
      <trkpt lat="45.93366" lon="4.72203">
        <ele>177</ele>
        <time>2018-10-09T13:34:03Z</time>
      </trkpt>
      <trkpt lat="45.93362" lon="4.72204">
        <ele>177</ele>
        <time>2018-10-09T13:34:04Z</time>
      </trkpt>
      <trkpt lat="45.93353" lon="4.72205">
        <ele>177</ele>
        <time>2018-10-09T13:34:06Z</time>
      </trkpt>
      <trkpt lat="45.93347" lon="4.72205">
        <ele>177</ele>
        <time>2018-10-09T13:34:07Z</time>
      </trkpt>
      <trkpt lat="45.93341" lon="4.72204">
        <ele>177</ele>
        <time>2018-10-09T13:34:09Z</time>
      </trkpt>
      <trkpt lat="45.93334" lon="4.72207">
        <ele>177</ele>
        <time>2018-10-09T13:34:10Z</time>
      </trkpt>
      <trkpt lat="45.93332" lon="4.72208">
        <ele>176</ele>
        <time>2018-10-09T13:34:11Z</time>
      </trkpt>
      <trkpt lat="45.93325" lon="4.72209">
        <ele>176</ele>
        <time>2018-10-09T13:34:12Z</time>
      </trkpt>
      <trkpt lat="45.93316" lon="4.72207">
        <ele>176</ele>
        <time>2018-10-09T13:34:15Z</time>
      </trkpt>
      <trkpt lat="45.93312" lon="4.72207">
        <ele>175</ele>
        <time>2018-10-09T13:34:16Z</time>
      </trkpt>
      <trkpt lat="45.93304" lon="4.72208">
        <ele>175</ele>
        <time>2018-10-09T13:34:19Z</time>
      </trkpt>
      <trkpt lat="45.93301" lon="4.72208">
        <ele>175</ele>
        <time>2018-10-09T13:34:20Z</time>
      </trkpt>
      <trkpt lat="45.93292" lon="4.72209">
        <ele>175</ele>
        <time>2018-10-09T13:34:21Z</time>
      </trkpt>
      <trkpt lat="45.93287" lon="4.72209">
        <ele>175</ele>
        <time>2018-10-09T13:34:22Z</time>
      </trkpt>
      <trkpt lat="45.93279" lon="4.72209">
        <ele>174</ele>
        <time>2018-10-09T13:34:23Z</time>
      </trkpt>
      <trkpt lat="45.93273" lon="4.7221">
        <ele>174</ele>
        <time>2018-10-09T13:34:24Z</time>
      </trkpt>
      <trkpt lat="45.93268" lon="4.7221">
        <ele>174</ele>
        <time>2018-10-09T13:34:25Z</time>
      </trkpt>
      <trkpt lat="45.93261" lon="4.7221">
        <ele>174</ele>
        <time>2018-10-09T13:34:26Z</time>
      </trkpt>
      <trkpt lat="45.93256" lon="4.7221">
        <ele>174</ele>
        <time>2018-10-09T13:34:27Z</time>
      </trkpt>
      <trkpt lat="45.9325" lon="4.7221">
        <ele>174</ele>
        <time>2018-10-09T13:34:28Z</time>
      </trkpt>
      <trkpt lat="45.93246" lon="4.7221">
        <ele>171</ele>
        <time>2018-10-09T13:34:29Z</time>
      </trkpt>
      <trkpt lat="45.9324" lon="4.72211">
        <ele>171</ele>
        <time>2018-10-09T13:34:30Z</time>
      </trkpt>
      <trkpt lat="45.93236" lon="4.72211">
        <ele>171</ele>
        <time>2018-10-09T13:34:31Z</time>
      </trkpt>
      <trkpt lat="45.93231" lon="4.72211">
        <ele>171</ele>
        <time>2018-10-09T13:34:32Z</time>
      </trkpt>
      <trkpt lat="45.93226" lon="4.72212">
        <ele>171</ele>
        <time>2018-10-09T13:34:33Z</time>
      </trkpt>
      <trkpt lat="45.93221" lon="4.72212">
        <ele>171</ele>
        <time>2018-10-09T13:34:34Z</time>
      </trkpt>
      <trkpt lat="45.93217" lon="4.72213">
        <ele>171</ele>
        <time>2018-10-09T13:34:35Z</time>
      </trkpt>
      <trkpt lat="45.93209" lon="4.72215">
        <ele>171</ele>
        <time>2018-10-09T13:34:37Z</time>
      </trkpt>
      <trkpt lat="45.93205" lon="4.72216">
        <ele>171</ele>
        <time>2018-10-09T13:34:38Z</time>
      </trkpt>
      <trkpt lat="45.932" lon="4.72216">
        <ele>171</ele>
        <time>2018-10-09T13:34:39Z</time>
      </trkpt>
      <trkpt lat="45.93195" lon="4.72217">
        <ele>171</ele>
        <time>2018-10-09T13:34:40Z</time>
      </trkpt>
      <trkpt lat="45.93187" lon="4.72219">
        <ele>170</ele>
        <time>2018-10-09T13:34:42Z</time>
      </trkpt>
      <trkpt lat="45.93183" lon="4.72219">
        <ele>170</ele>
        <time>2018-10-09T13:34:43Z</time>
      </trkpt>
      <trkpt lat="45.93176" lon="4.72215">
        <ele>170</ele>
        <time>2018-10-09T13:34:45Z</time>
      </trkpt>
      <trkpt lat="45.93173" lon="4.72211">
        <ele>170</ele>
        <time>2018-10-09T13:34:46Z</time>
      </trkpt>
      <trkpt lat="45.93168" lon="4.72201">
        <ele>170</ele>
        <time>2018-10-09T13:34:48Z</time>
      </trkpt>
      <trkpt lat="45.93167" lon="4.72195">
        <ele>170</ele>
        <time>2018-10-09T13:34:49Z</time>
      </trkpt>
      <trkpt lat="45.93167" lon="4.72187">
        <ele>170</ele>
        <time>2018-10-09T13:34:50Z</time>
      </trkpt>
      <trkpt lat="45.93169" lon="4.7218">
        <ele>170</ele>
        <time>2018-10-09T13:34:51Z</time>
      </trkpt>
      <trkpt lat="45.9317" lon="4.72173">
        <ele>169</ele>
        <time>2018-10-09T13:34:52Z</time>
      </trkpt>
      <trkpt lat="45.9317" lon="4.72166">
        <ele>169</ele>
        <time>2018-10-09T13:34:53Z</time>
      </trkpt>
      <trkpt lat="45.93171" lon="4.72159">
        <ele>169</ele>
        <time>2018-10-09T13:34:54Z</time>
      </trkpt>
      <trkpt lat="45.93172" lon="4.72151">
        <ele>169</ele>
        <time>2018-10-09T13:34:55Z</time>
      </trkpt>
      <trkpt lat="45.93173" lon="4.72144">
        <ele>170</ele>
        <time>2018-10-09T13:34:56Z</time>
      </trkpt>
      <trkpt lat="45.93173" lon="4.72137">
        <ele>170</ele>
        <time>2018-10-09T13:34:57Z</time>
      </trkpt>
      <trkpt lat="45.93173" lon="4.7213">
        <ele>170</ele>
        <time>2018-10-09T13:34:58Z</time>
      </trkpt>
      <trkpt lat="45.93174" lon="4.72124">
        <ele>170</ele>
        <time>2018-10-09T13:34:59Z</time>
      </trkpt>
      <trkpt lat="45.93176" lon="4.72112">
        <ele>170</ele>
        <time>2018-10-09T13:35:01Z</time>
      </trkpt>
      <trkpt lat="45.93176" lon="4.72105">
        <ele>170</ele>
        <time>2018-10-09T13:35:02Z</time>
      </trkpt>
      <trkpt lat="45.93178" lon="4.72099">
        <ele>169</ele>
        <time>2018-10-09T13:35:03Z</time>
      </trkpt>
      <trkpt lat="45.93177" lon="4.7209">
        <ele>169</ele>
        <time>2018-10-09T13:35:04Z</time>
      </trkpt>
      <trkpt lat="45.93178" lon="4.72083">
        <ele>169</ele>
        <time>2018-10-09T13:35:05Z</time>
      </trkpt>
      <trkpt lat="45.93178" lon="4.72074">
        <ele>169</ele>
        <time>2018-10-09T13:35:06Z</time>
      </trkpt>
      <trkpt lat="45.9318" lon="4.72062">
        <ele>170</ele>
        <time>2018-10-09T13:35:08Z</time>
      </trkpt>
      <trkpt lat="45.93181" lon="4.72056">
        <ele>170</ele>
        <time>2018-10-09T13:35:09Z</time>
      </trkpt>
      <trkpt lat="45.93182" lon="4.72049">
        <ele>170</ele>
        <time>2018-10-09T13:35:10Z</time>
      </trkpt>
      <trkpt lat="45.93182" lon="4.72042">
        <ele>170</ele>
        <time>2018-10-09T13:35:11Z</time>
      </trkpt>
      <trkpt lat="45.9318" lon="4.72031">
        <ele>170</ele>
        <time>2018-10-09T13:35:13Z</time>
      </trkpt>
      <trkpt lat="45.93178" lon="4.72027">
        <ele>170</ele>
        <time>2018-10-09T13:35:14Z</time>
      </trkpt>
      <trkpt lat="45.93172" lon="4.72025">
        <ele>170</ele>
        <time>2018-10-09T13:35:16Z</time>
      </trkpt>
      <trkpt lat="45.93168" lon="4.72024">
        <ele>170</ele>
        <time>2018-10-09T13:35:17Z</time>
      </trkpt>
      <trkpt lat="45.9316" lon="4.72022">
        <ele>169</ele>
        <time>2018-10-09T13:35:19Z</time>
      </trkpt>
      <trkpt lat="45.93156" lon="4.72021">
        <ele>169</ele>
        <time>2018-10-09T13:35:20Z</time>
      </trkpt>
      <trkpt lat="45.93149" lon="4.72018">
        <ele>169</ele>
        <time>2018-10-09T13:35:22Z</time>
      </trkpt>
      <trkpt lat="45.93145" lon="4.72017">
        <ele>169</ele>
        <time>2018-10-09T13:35:23Z</time>
      </trkpt>
      <trkpt lat="45.93136" lon="4.72015">
        <ele>169</ele>
        <time>2018-10-09T13:35:25Z</time>
      </trkpt>
      <trkpt lat="45.93132" lon="4.72013">
        <ele>169</ele>
        <time>2018-10-09T13:35:26Z</time>
      </trkpt>
      <trkpt lat="45.93127" lon="4.72012">
        <ele>169</ele>
        <time>2018-10-09T13:35:27Z</time>
      </trkpt>
      <trkpt lat="45.93122" lon="4.7201">
        <ele>169</ele>
        <time>2018-10-09T13:35:28Z</time>
      </trkpt>
      <trkpt lat="45.93114" lon="4.72007">
        <ele>169</ele>
        <time>2018-10-09T13:35:30Z</time>
      </trkpt>
      <trkpt lat="45.93111" lon="4.72006">
        <ele>169</ele>
        <time>2018-10-09T13:35:31Z</time>
      </trkpt>
      <trkpt lat="45.93103" lon="4.72003">
        <ele>169</ele>
        <time>2018-10-09T13:35:34Z</time>
      </trkpt>
      <trkpt lat="45.931" lon="4.72002">
        <ele>169</ele>
        <time>2018-10-09T13:35:35Z</time>
      </trkpt>
      <trkpt lat="45.93093" lon="4.72">
        <ele>169</ele>
        <time>2018-10-09T13:35:36Z</time>
      </trkpt>
      <trkpt lat="45.93089" lon="4.71999">
        <ele>169</ele>
        <time>2018-10-09T13:35:37Z</time>
      </trkpt>
      <trkpt lat="45.93082" lon="4.71996">
        <ele>169</ele>
        <time>2018-10-09T13:35:39Z</time>
      </trkpt>
      <trkpt lat="45.93078" lon="4.71995">
        <ele>169</ele>
        <time>2018-10-09T13:35:40Z</time>
      </trkpt>
      <trkpt lat="45.9307" lon="4.71992">
        <ele>169</ele>
        <time>2018-10-09T13:35:42Z</time>
      </trkpt>
      <trkpt lat="45.93066" lon="4.7199">
        <ele>169</ele>
        <time>2018-10-09T13:35:43Z</time>
      </trkpt>
      <trkpt lat="45.93058" lon="4.71986">
        <ele>169</ele>
        <time>2018-10-09T13:35:46Z</time>
      </trkpt>
      <trkpt lat="45.93055" lon="4.71985">
        <ele>169</ele>
        <time>2018-10-09T13:35:47Z</time>
      </trkpt>
      <trkpt lat="45.93049" lon="4.71983">
        <ele>169</ele>
        <time>2018-10-09T13:35:49Z</time>
      </trkpt>
      <trkpt lat="45.93046" lon="4.71982">
        <ele>169</ele>
        <time>2018-10-09T13:35:50Z</time>
      </trkpt>
      <trkpt lat="45.9304" lon="4.7198">
        <ele>169</ele>
        <time>2018-10-09T13:35:51Z</time>
      </trkpt>
      <trkpt lat="45.93036" lon="4.71979">
        <ele>169</ele>
        <time>2018-10-09T13:35:52Z</time>
      </trkpt>
      <trkpt lat="45.93028" lon="4.71976">
        <ele>169</ele>
        <time>2018-10-09T13:35:54Z</time>
      </trkpt>
      <trkpt lat="45.93024" lon="4.71975">
        <ele>169</ele>
        <time>2018-10-09T13:35:55Z</time>
      </trkpt>
      <trkpt lat="45.93016" lon="4.71971">
        <ele>169</ele>
        <time>2018-10-09T13:35:57Z</time>
      </trkpt>
      <trkpt lat="45.93012" lon="4.71969">
        <ele>169</ele>
        <time>2018-10-09T13:35:58Z</time>
      </trkpt>
      <trkpt lat="45.93008" lon="4.71968">
        <ele>169</ele>
        <time>2018-10-09T13:35:59Z</time>
      </trkpt>
      <trkpt lat="45.93003" lon="4.71966">
        <ele>169</ele>
        <time>2018-10-09T13:36:00Z</time>
      </trkpt>
      <trkpt lat="45.92998" lon="4.71965">
        <ele>169</ele>
        <time>2018-10-09T13:36:01Z</time>
      </trkpt>
      <trkpt lat="45.92994" lon="4.71964">
        <ele>169</ele>
        <time>2018-10-09T13:36:02Z</time>
      </trkpt>
      <trkpt lat="45.92986" lon="4.7196">
        <ele>169</ele>
        <time>2018-10-09T13:36:04Z</time>
      </trkpt>
      <trkpt lat="45.92982" lon="4.71959">
        <ele>169</ele>
        <time>2018-10-09T13:36:05Z</time>
      </trkpt>
      <trkpt lat="45.92975" lon="4.71956">
        <ele>169</ele>
        <time>2018-10-09T13:36:07Z</time>
      </trkpt>
      <trkpt lat="45.92971" lon="4.71955">
        <ele>169</ele>
        <time>2018-10-09T13:36:08Z</time>
      </trkpt>
      <trkpt lat="45.92963" lon="4.71953">
        <ele>169</ele>
        <time>2018-10-09T13:36:10Z</time>
      </trkpt>
      <trkpt lat="45.92959" lon="4.71952">
        <ele>169</ele>
        <time>2018-10-09T13:36:11Z</time>
      </trkpt>
      <trkpt lat="45.9295" lon="4.7195">
        <ele>169</ele>
        <time>2018-10-09T13:36:13Z</time>
      </trkpt>
      <trkpt lat="45.92945" lon="4.71948">
        <ele>169</ele>
        <time>2018-10-09T13:36:14Z</time>
      </trkpt>
      <trkpt lat="45.9294" lon="4.71946">
        <ele>170</ele>
        <time>2018-10-09T13:36:15Z</time>
      </trkpt>
      <trkpt lat="45.92935" lon="4.71945">
        <ele>170</ele>
        <time>2018-10-09T13:36:16Z</time>
      </trkpt>
      <trkpt lat="45.9293" lon="4.71943">
        <ele>170</ele>
        <time>2018-10-09T13:36:17Z</time>
      </trkpt>
      <trkpt lat="45.92926" lon="4.71942">
        <ele>170</ele>
        <time>2018-10-09T13:36:18Z</time>
      </trkpt>
      <trkpt lat="45.92918" lon="4.7194">
        <ele>170</ele>
        <time>2018-10-09T13:36:20Z</time>
      </trkpt>
      <trkpt lat="45.92914" lon="4.71937">
        <ele>170</ele>
        <time>2018-10-09T13:36:21Z</time>
      </trkpt>
      <trkpt lat="45.92909" lon="4.71937">
        <ele>170</ele>
        <time>2018-10-09T13:36:22Z</time>
      </trkpt>
      <trkpt lat="45.92905" lon="4.71934">
        <ele>170</ele>
        <time>2018-10-09T13:36:23Z</time>
      </trkpt>
      <trkpt lat="45.929" lon="4.71932">
        <ele>170</ele>
        <time>2018-10-09T13:36:24Z</time>
      </trkpt>
      <trkpt lat="45.92896" lon="4.71929">
        <ele>170</ele>
        <time>2018-10-09T13:36:25Z</time>
      </trkpt>
      <trkpt lat="45.92892" lon="4.71925">
        <ele>170</ele>
        <time>2018-10-09T13:36:26Z</time>
      </trkpt>
      <trkpt lat="45.92887" lon="4.71923">
        <ele>170</ele>
        <time>2018-10-09T13:36:27Z</time>
      </trkpt>
      <trkpt lat="45.92883" lon="4.7192">
        <ele>170</ele>
        <time>2018-10-09T13:36:28Z</time>
      </trkpt>
      <trkpt lat="45.92879" lon="4.71917">
        <ele>170</ele>
        <time>2018-10-09T13:36:29Z</time>
      </trkpt>
      <trkpt lat="45.92872" lon="4.71913">
        <ele>171</ele>
        <time>2018-10-09T13:36:31Z</time>
      </trkpt>
      <trkpt lat="45.92869" lon="4.71911">
        <ele>171</ele>
        <time>2018-10-09T13:36:32Z</time>
      </trkpt>
      <trkpt lat="45.92861" lon="4.71907">
        <ele>171</ele>
        <time>2018-10-09T13:36:34Z</time>
      </trkpt>
      <trkpt lat="45.92857" lon="4.71905">
        <ele>171</ele>
        <time>2018-10-09T13:36:35Z</time>
      </trkpt>
      <trkpt lat="45.9285" lon="4.71899">
        <ele>171</ele>
        <time>2018-10-09T13:36:37Z</time>
      </trkpt>
      <trkpt lat="45.92845" lon="4.71896">
        <ele>171</ele>
        <time>2018-10-09T13:36:38Z</time>
      </trkpt>
      <trkpt lat="45.92841" lon="4.71893">
        <ele>171</ele>
        <time>2018-10-09T13:36:39Z</time>
      </trkpt>
      <trkpt lat="45.92837" lon="4.71891">
        <ele>171</ele>
        <time>2018-10-09T13:36:40Z</time>
      </trkpt>
      <trkpt lat="45.9283" lon="4.71886">
        <ele>171</ele>
        <time>2018-10-09T13:36:42Z</time>
      </trkpt>
      <trkpt lat="45.92827" lon="4.71884">
        <ele>171</ele>
        <time>2018-10-09T13:36:43Z</time>
      </trkpt>
      <trkpt lat="45.9282" lon="4.71878">
        <ele>171</ele>
        <time>2018-10-09T13:36:45Z</time>
      </trkpt>
      <trkpt lat="45.92815" lon="4.71875">
        <ele>172</ele>
        <time>2018-10-09T13:36:46Z</time>
      </trkpt>
      <trkpt lat="45.92809" lon="4.71874">
        <ele>172</ele>
        <time>2018-10-09T13:36:47Z</time>
      </trkpt>
      <trkpt lat="45.92805" lon="4.71871">
        <ele>172</ele>
        <time>2018-10-09T13:36:48Z</time>
      </trkpt>
      <trkpt lat="45.92799" lon="4.71863">
        <ele>172</ele>
        <time>2018-10-09T13:36:50Z</time>
      </trkpt>
      <trkpt lat="45.92797" lon="4.71862">
        <ele>172</ele>
        <time>2018-10-09T13:36:51Z</time>
      </trkpt>
      <trkpt lat="45.92789" lon="4.71859">
        <ele>172</ele>
        <time>2018-10-09T13:36:54Z</time>
      </trkpt>
      <trkpt lat="45.92787" lon="4.71858">
        <ele>172</ele>
        <time>2018-10-09T13:36:55Z</time>
      </trkpt>
      <trkpt lat="45.9278" lon="4.71853">
        <ele>172</ele>
        <time>2018-10-09T13:36:59Z</time>
      </trkpt>
      <trkpt lat="45.92778" lon="4.71852">
        <ele>172</ele>
        <time>2018-10-09T13:37:00Z</time>
      </trkpt>
      <trkpt lat="45.92771" lon="4.71847">
        <ele>172</ele>
        <time>2018-10-09T13:37:03Z</time>
      </trkpt>
      <trkpt lat="45.92769" lon="4.71845">
        <ele>172</ele>
        <time>2018-10-09T13:37:04Z</time>
      </trkpt>
      <trkpt lat="45.9276" lon="4.7184">
        <ele>172</ele>
        <time>2018-10-09T13:37:05Z</time>
      </trkpt>
      <trkpt lat="45.92756" lon="4.71836">
        <ele>173</ele>
        <time>2018-10-09T13:37:06Z</time>
      </trkpt>
      <trkpt lat="45.92751" lon="4.7183">
        <ele>173</ele>
        <time>2018-10-09T13:37:07Z</time>
      </trkpt>
      <trkpt lat="45.92747" lon="4.71827">
        <ele>173</ele>
        <time>2018-10-09T13:37:08Z</time>
      </trkpt>
      <trkpt lat="45.92743" lon="4.71823">
        <ele>173</ele>
        <time>2018-10-09T13:37:09Z</time>
      </trkpt>
      <trkpt lat="45.92737" lon="4.71818">
        <ele>174</ele>
        <time>2018-10-09T13:37:11Z</time>
      </trkpt>
      <trkpt lat="45.92733" lon="4.71816">
        <ele>174</ele>
        <time>2018-10-09T13:37:12Z</time>
      </trkpt>
      <trkpt lat="45.92727" lon="4.71812">
        <ele>174</ele>
        <time>2018-10-09T13:37:15Z</time>
      </trkpt>
      <trkpt lat="45.92724" lon="4.71811">
        <ele>174</ele>
        <time>2018-10-09T13:37:16Z</time>
      </trkpt>
      <trkpt lat="45.92717" lon="4.71808">
        <ele>174</ele>
        <time>2018-10-09T13:37:19Z</time>
      </trkpt>
      <trkpt lat="45.92715" lon="4.71806">
        <ele>174</ele>
        <time>2018-10-09T13:37:20Z</time>
      </trkpt>
      <trkpt lat="45.92711" lon="4.71797">
        <ele>174</ele>
        <time>2018-10-09T13:37:21Z</time>
      </trkpt>
      <trkpt lat="45.92712" lon="4.71792">
        <ele>174</ele>
        <time>2018-10-09T13:37:22Z</time>
      </trkpt>
      <trkpt lat="45.92713" lon="4.7178">
        <ele>174</ele>
        <time>2018-10-09T13:37:24Z</time>
      </trkpt>
      <trkpt lat="45.92714" lon="4.71774">
        <ele>175</ele>
        <time>2018-10-09T13:37:25Z</time>
      </trkpt>
      <trkpt lat="45.92714" lon="4.71766">
        <ele>175</ele>
        <time>2018-10-09T13:37:26Z</time>
      </trkpt>
      <trkpt lat="45.92713" lon="4.71758">
        <ele>175</ele>
        <time>2018-10-09T13:37:27Z</time>
      </trkpt>
      <trkpt lat="45.92711" lon="4.71745">
        <ele>175</ele>
        <time>2018-10-09T13:37:29Z</time>
      </trkpt>
      <trkpt lat="45.92712" lon="4.71739">
        <ele>175</ele>
        <time>2018-10-09T13:37:30Z</time>
      </trkpt>
      <trkpt lat="45.92712" lon="4.71732">
        <ele>175</ele>
        <time>2018-10-09T13:37:31Z</time>
      </trkpt>
      <trkpt lat="45.92712" lon="4.71726">
        <ele>175</ele>
        <time>2018-10-09T13:37:32Z</time>
      </trkpt>
      <trkpt lat="45.92714" lon="4.71717">
        <ele>174</ele>
        <time>2018-10-09T13:37:34Z</time>
      </trkpt>
      <trkpt lat="45.92715" lon="4.7171">
        <ele>174</ele>
        <time>2018-10-09T13:37:35Z</time>
      </trkpt>
      <trkpt lat="45.92718" lon="4.71699">
        <ele>174</ele>
        <time>2018-10-09T13:37:37Z</time>
      </trkpt>
      <trkpt lat="45.9272" lon="4.71693">
        <ele>174</ele>
        <time>2018-10-09T13:37:38Z</time>
      </trkpt>
      <trkpt lat="45.92723" lon="4.71688">
        <ele>174</ele>
        <time>2018-10-09T13:37:39Z</time>
      </trkpt>
      <trkpt lat="45.92726" lon="4.71681">
        <ele>173</ele>
        <time>2018-10-09T13:37:40Z</time>
      </trkpt>
      <trkpt lat="45.9273" lon="4.71671">
        <ele>173</ele>
        <time>2018-10-09T13:37:42Z</time>
      </trkpt>
      <trkpt lat="45.92732" lon="4.71666">
        <ele>172</ele>
        <time>2018-10-09T13:37:43Z</time>
      </trkpt>
      <trkpt lat="45.92736" lon="4.71658">
        <ele>172</ele>
        <time>2018-10-09T13:37:44Z</time>
      </trkpt>
      <trkpt lat="45.92739" lon="4.71651">
        <ele>172</ele>
        <time>2018-10-09T13:37:45Z</time>
      </trkpt>
      <trkpt lat="45.92743" lon="4.71645">
        <ele>172</ele>
        <time>2018-10-09T13:37:46Z</time>
      </trkpt>
      <trkpt lat="45.92746" lon="4.71639">
        <ele>172</ele>
        <time>2018-10-09T13:37:47Z</time>
      </trkpt>
      <trkpt lat="45.92749" lon="4.71633">
        <ele>172</ele>
        <time>2018-10-09T13:37:48Z</time>
      </trkpt>
      <trkpt lat="45.92751" lon="4.71628">
        <ele>171</ele>
        <time>2018-10-09T13:37:49Z</time>
      </trkpt>
      <trkpt lat="45.92757" lon="4.71619">
        <ele>171</ele>
        <time>2018-10-09T13:37:51Z</time>
      </trkpt>
      <trkpt lat="45.9276" lon="4.71613">
        <ele>171</ele>
        <time>2018-10-09T13:37:52Z</time>
      </trkpt>
      <trkpt lat="45.92766" lon="4.71605">
        <ele>171</ele>
        <time>2018-10-09T13:37:54Z</time>
      </trkpt>
      <trkpt lat="45.92769" lon="4.716">
        <ele>171</ele>
        <time>2018-10-09T13:37:55Z</time>
      </trkpt>
      <trkpt lat="45.92773" lon="4.71594">
        <ele>171</ele>
        <time>2018-10-09T13:37:56Z</time>
      </trkpt>
      <trkpt lat="45.92777" lon="4.7159">
        <ele>171</ele>
        <time>2018-10-09T13:37:57Z</time>
      </trkpt>
      <trkpt lat="45.92781" lon="4.71585">
        <ele>171</ele>
        <time>2018-10-09T13:37:58Z</time>
      </trkpt>
      <trkpt lat="45.92784" lon="4.7158">
        <ele>172</ele>
        <time>2018-10-09T13:37:59Z</time>
      </trkpt>
      <trkpt lat="45.9279" lon="4.71571">
        <ele>172</ele>
        <time>2018-10-09T13:38:01Z</time>
      </trkpt>
      <trkpt lat="45.92792" lon="4.71567">
        <ele>172</ele>
        <time>2018-10-09T13:38:02Z</time>
      </trkpt>
      <trkpt lat="45.92796" lon="4.7156">
        <ele>172</ele>
        <time>2018-10-09T13:38:04Z</time>
      </trkpt>
      <trkpt lat="45.92799" lon="4.71554">
        <ele>173</ele>
        <time>2018-10-09T13:38:05Z</time>
      </trkpt>
      <trkpt lat="45.92803" lon="4.71546">
        <ele>173</ele>
        <time>2018-10-09T13:38:08Z</time>
      </trkpt>
      <trkpt lat="45.92804" lon="4.71543">
        <ele>173</ele>
        <time>2018-10-09T13:38:09Z</time>
      </trkpt>
      <trkpt lat="45.92808" lon="4.71532">
        <ele>173</ele>
        <time>2018-10-09T13:38:12Z</time>
      </trkpt>
      <trkpt lat="45.92809" lon="4.71529">
        <ele>173</ele>
        <time>2018-10-09T13:38:13Z</time>
      </trkpt>
      <trkpt lat="45.92813" lon="4.71519">
        <ele>174</ele>
        <time>2018-10-09T13:38:17Z</time>
      </trkpt>
      <trkpt lat="45.92814" lon="4.71517">
        <ele>174</ele>
        <time>2018-10-09T13:38:18Z</time>
      </trkpt>
      <trkpt lat="45.92817" lon="4.71506">
        <ele>174</ele>
        <time>2018-10-09T13:38:24Z</time>
      </trkpt>
      <trkpt lat="45.92817" lon="4.71504">
        <ele>175</ele>
        <time>2018-10-09T13:38:25Z</time>
      </trkpt>
      <trkpt lat="45.92819" lon="4.71492">
        <ele>178</ele>
        <time>2018-10-09T13:38:31Z</time>
      </trkpt>
      <trkpt lat="45.9282" lon="4.71489">
        <ele>178</ele>
        <time>2018-10-09T13:38:32Z</time>
      </trkpt>
      <trkpt lat="45.92821" lon="4.71477">
        <ele>179</ele>
        <time>2018-10-09T13:38:38Z</time>
      </trkpt>
      <trkpt lat="45.92822" lon="4.71475">
        <ele>179</ele>
        <time>2018-10-09T13:38:39Z</time>
      </trkpt>
      <trkpt lat="45.92826" lon="4.71464">
        <ele>180</ele>
        <time>2018-10-09T13:38:45Z</time>
      </trkpt>
      <trkpt lat="45.92827" lon="4.71463">
        <ele>180</ele>
        <time>2018-10-09T13:38:46Z</time>
      </trkpt>
      <trkpt lat="45.9283" lon="4.71453">
        <ele>181</ele>
        <time>2018-10-09T13:38:52Z</time>
      </trkpt>
      <trkpt lat="45.9283" lon="4.71451">
        <ele>181</ele>
        <time>2018-10-09T13:38:53Z</time>
      </trkpt>
      <trkpt lat="45.92832" lon="4.71438">
        <ele>182</ele>
        <time>2018-10-09T13:39:00Z</time>
      </trkpt>
      <trkpt lat="45.92833" lon="4.71437">
        <ele>182</ele>
        <time>2018-10-09T13:39:01Z</time>
      </trkpt>
      <trkpt lat="45.92836" lon="4.71427">
        <ele>184</ele>
        <time>2018-10-09T13:39:07Z</time>
      </trkpt>
      <trkpt lat="45.92836" lon="4.71425">
        <ele>185</ele>
        <time>2018-10-09T13:39:08Z</time>
      </trkpt>
      <trkpt lat="45.9284" lon="4.71414">
        <ele>186</ele>
        <time>2018-10-09T13:39:14Z</time>
      </trkpt>
      <trkpt lat="45.9284" lon="4.71412">
        <ele>187</ele>
        <time>2018-10-09T13:39:15Z</time>
      </trkpt>
      <trkpt lat="45.92842" lon="4.71401">
        <ele>187</ele>
        <time>2018-10-09T13:39:20Z</time>
      </trkpt>
      <trkpt lat="45.92842" lon="4.71399">
        <ele>187</ele>
        <time>2018-10-09T13:39:21Z</time>
      </trkpt>
      <trkpt lat="45.92842" lon="4.71386">
        <ele>188</ele>
        <time>2018-10-09T13:39:27Z</time>
      </trkpt>
      <trkpt lat="45.92841" lon="4.71384">
        <ele>188</ele>
        <time>2018-10-09T13:39:28Z</time>
      </trkpt>
      <trkpt lat="45.92835" lon="4.71375">
        <ele>188</ele>
        <time>2018-10-09T13:39:32Z</time>
      </trkpt>
      <trkpt lat="45.92834" lon="4.71373">
        <ele>188</ele>
        <time>2018-10-09T13:39:33Z</time>
      </trkpt>
      <trkpt lat="45.92831" lon="4.71364">
        <ele>187</ele>
        <time>2018-10-09T13:39:36Z</time>
      </trkpt>
      <trkpt lat="45.9283" lon="4.71361">
        <ele>187</ele>
        <time>2018-10-09T13:39:37Z</time>
      </trkpt>
      <trkpt lat="45.92827" lon="4.71352">
        <ele>188</ele>
        <time>2018-10-09T13:39:40Z</time>
      </trkpt>
      <trkpt lat="45.92826" lon="4.71349">
        <ele>188</ele>
        <time>2018-10-09T13:39:41Z</time>
      </trkpt>
      <trkpt lat="45.92825" lon="4.7134">
        <ele>189</ele>
        <time>2018-10-09T13:39:44Z</time>
      </trkpt>
      <trkpt lat="45.92824" lon="4.71336">
        <ele>189</ele>
        <time>2018-10-09T13:39:45Z</time>
      </trkpt>
      <trkpt lat="45.92823" lon="4.71324">
        <ele>190</ele>
        <time>2018-10-09T13:39:48Z</time>
      </trkpt>
      <trkpt lat="45.92823" lon="4.7132">
        <ele>189</ele>
        <time>2018-10-09T13:39:49Z</time>
      </trkpt>
      <trkpt lat="45.92822" lon="4.71309">
        <ele>189</ele>
        <time>2018-10-09T13:39:52Z</time>
      </trkpt>
      <trkpt lat="45.92821" lon="4.71306">
        <ele>189</ele>
        <time>2018-10-09T13:39:53Z</time>
      </trkpt>
      <trkpt lat="45.92816" lon="4.71297">
        <ele>189</ele>
        <time>2018-10-09T13:39:56Z</time>
      </trkpt>
      <trkpt lat="45.92813" lon="4.71296">
        <ele>189</ele>
        <time>2018-10-09T13:39:57Z</time>
      </trkpt>
      <trkpt lat="45.92805" lon="4.71294">
        <ele>189</ele>
        <time>2018-10-09T13:40:00Z</time>
      </trkpt>
      <trkpt lat="45.92802" lon="4.71294">
        <ele>189</ele>
        <time>2018-10-09T13:40:01Z</time>
      </trkpt>
      <trkpt lat="45.92796" lon="4.71291">
        <ele>189</ele>
        <time>2018-10-09T13:40:04Z</time>
      </trkpt>
      <trkpt lat="45.92793" lon="4.7129">
        <ele>189</ele>
        <time>2018-10-09T13:40:05Z</time>
      </trkpt>
      <trkpt lat="45.92785" lon="4.71287">
        <ele>189</ele>
        <time>2018-10-09T13:40:08Z</time>
      </trkpt>
      <trkpt lat="45.92782" lon="4.71286">
        <ele>189</ele>
        <time>2018-10-09T13:40:09Z</time>
      </trkpt>
      <trkpt lat="45.92776" lon="4.71285">
        <ele>189</ele>
        <time>2018-10-09T13:40:11Z</time>
      </trkpt>
      <trkpt lat="45.92772" lon="4.71285">
        <ele>189</ele>
        <time>2018-10-09T13:40:12Z</time>
      </trkpt>
      <trkpt lat="45.92766" lon="4.71283">
        <ele>189</ele>
        <time>2018-10-09T13:40:13Z</time>
      </trkpt>
      <trkpt lat="45.92762" lon="4.71282">
        <ele>189</ele>
        <time>2018-10-09T13:40:14Z</time>
      </trkpt>
      <trkpt lat="45.92754" lon="4.71279">
        <ele>189</ele>
        <time>2018-10-09T13:40:16Z</time>
      </trkpt>
      <trkpt lat="45.9275" lon="4.71278">
        <ele>189</ele>
        <time>2018-10-09T13:40:17Z</time>
      </trkpt>
      <trkpt lat="45.92742" lon="4.71277">
        <ele>188</ele>
        <time>2018-10-09T13:40:19Z</time>
      </trkpt>
      <trkpt lat="45.92739" lon="4.71276">
        <ele>188</ele>
        <time>2018-10-09T13:40:20Z</time>
      </trkpt>
      <trkpt lat="45.92732" lon="4.71274">
        <ele>188</ele>
        <time>2018-10-09T13:40:23Z</time>
      </trkpt>
      <trkpt lat="45.92729" lon="4.71273">
        <ele>188</ele>
        <time>2018-10-09T13:40:24Z</time>
      </trkpt>
      <trkpt lat="45.92722" lon="4.71271">
        <ele>188</ele>
        <time>2018-10-09T13:40:25Z</time>
      </trkpt>
      <trkpt lat="45.92719" lon="4.71269">
        <ele>188</ele>
        <time>2018-10-09T13:40:26Z</time>
      </trkpt>
      <trkpt lat="45.92711" lon="4.71267">
        <ele>187</ele>
        <time>2018-10-09T13:40:29Z</time>
      </trkpt>
      <trkpt lat="45.92708" lon="4.71267">
        <ele>187</ele>
        <time>2018-10-09T13:40:30Z</time>
      </trkpt>
      <trkpt lat="45.92699" lon="4.71266">
        <ele>187</ele>
        <time>2018-10-09T13:40:33Z</time>
      </trkpt>
      <trkpt lat="45.92696" lon="4.71266">
        <ele>187</ele>
        <time>2018-10-09T13:40:34Z</time>
      </trkpt>
      <trkpt lat="45.92689" lon="4.71264">
        <ele>187</ele>
        <time>2018-10-09T13:40:35Z</time>
      </trkpt>
      <trkpt lat="45.92685" lon="4.71263">
        <ele>187</ele>
        <time>2018-10-09T13:40:36Z</time>
      </trkpt>
      <trkpt lat="45.92677" lon="4.71258">
        <ele>187</ele>
        <time>2018-10-09T13:40:40Z</time>
      </trkpt>
      <trkpt lat="45.92674" lon="4.71257">
        <ele>187</ele>
        <time>2018-10-09T13:40:41Z</time>
      </trkpt>
      <trkpt lat="45.92666" lon="4.71253">
        <ele>187</ele>
        <time>2018-10-09T13:40:44Z</time>
      </trkpt>
      <trkpt lat="45.92662" lon="4.71251">
        <ele>187</ele>
        <time>2018-10-09T13:40:45Z</time>
      </trkpt>
      <trkpt lat="45.92655" lon="4.71248">
        <ele>187</ele>
        <time>2018-10-09T13:40:47Z</time>
      </trkpt>
      <trkpt lat="45.92652" lon="4.71247">
        <ele>187</ele>
        <time>2018-10-09T13:40:48Z</time>
      </trkpt>
      <trkpt lat="45.92647" lon="4.71244">
        <ele>187</ele>
        <time>2018-10-09T13:40:50Z</time>
      </trkpt>
      <trkpt lat="45.92644" lon="4.71243">
        <ele>187</ele>
        <time>2018-10-09T13:40:51Z</time>
      </trkpt>
      <trkpt lat="45.92636" lon="4.71239">
        <ele>186</ele>
        <time>2018-10-09T13:40:54Z</time>
      </trkpt>
      <trkpt lat="45.9263" lon="4.71235">
        <ele>186</ele>
        <time>2018-10-09T13:40:55Z</time>
      </trkpt>
      <trkpt lat="45.92622" lon="4.71231">
        <ele>186</ele>
        <time>2018-10-09T13:40:57Z</time>
      </trkpt>
      <trkpt lat="45.92619" lon="4.71229">
        <ele>186</ele>
        <time>2018-10-09T13:40:58Z</time>
      </trkpt>
      <trkpt lat="45.92612" lon="4.71225">
        <ele>186</ele>
        <time>2018-10-09T13:41:00Z</time>
      </trkpt>
      <trkpt lat="45.92608" lon="4.71223">
        <ele>186</ele>
        <time>2018-10-09T13:41:01Z</time>
      </trkpt>
      <trkpt lat="45.92601" lon="4.71219">
        <ele>186</ele>
        <time>2018-10-09T13:41:04Z</time>
      </trkpt>
      <trkpt lat="45.92598" lon="4.71217">
        <ele>186</ele>
        <time>2018-10-09T13:41:05Z</time>
      </trkpt>
      <trkpt lat="45.92593" lon="4.71215">
        <ele>186</ele>
        <time>2018-10-09T13:41:07Z</time>
      </trkpt>
      <trkpt lat="45.92587" lon="4.71212">
        <ele>186</ele>
        <time>2018-10-09T13:41:08Z</time>
      </trkpt>
      <trkpt lat="45.92579" lon="4.71209">
        <ele>185</ele>
        <time>2018-10-09T13:41:10Z</time>
      </trkpt>
      <trkpt lat="45.92576" lon="4.71208">
        <ele>185</ele>
        <time>2018-10-09T13:41:11Z</time>
      </trkpt>
      <trkpt lat="45.92568" lon="4.71205">
        <ele>185</ele>
        <time>2018-10-09T13:41:14Z</time>
      </trkpt>
      <trkpt lat="45.92566" lon="4.71203">
        <ele>185</ele>
        <time>2018-10-09T13:41:15Z</time>
      </trkpt>
      <trkpt lat="45.92558" lon="4.712">
        <ele>185</ele>
        <time>2018-10-09T13:41:18Z</time>
      </trkpt>
      <trkpt lat="45.92556" lon="4.71199">
        <ele>185</ele>
        <time>2018-10-09T13:41:19Z</time>
      </trkpt>
      <trkpt lat="45.92547" lon="4.71196">
        <ele>185</ele>
        <time>2018-10-09T13:41:22Z</time>
      </trkpt>
      <trkpt lat="45.92539" lon="4.71192">
        <ele>185</ele>
        <time>2018-10-09T13:41:23Z</time>
      </trkpt>
      <trkpt lat="45.92532" lon="4.71189">
        <ele>185</ele>
        <time>2018-10-09T13:41:26Z</time>
      </trkpt>
      <trkpt lat="45.92529" lon="4.71188">
        <ele>185</ele>
        <time>2018-10-09T13:41:27Z</time>
      </trkpt>
      <trkpt lat="45.92522" lon="4.71186">
        <ele>185</ele>
        <time>2018-10-09T13:41:30Z</time>
      </trkpt>
      <trkpt lat="45.92519" lon="4.71185">
        <ele>185</ele>
        <time>2018-10-09T13:41:31Z</time>
      </trkpt>
      <trkpt lat="45.92513" lon="4.71184">
        <ele>185</ele>
        <time>2018-10-09T13:41:34Z</time>
      </trkpt>
      <trkpt lat="45.92509" lon="4.71183">
        <ele>185</ele>
        <time>2018-10-09T13:41:35Z</time>
      </trkpt>
      <trkpt lat="45.92502" lon="4.7118">
        <ele>186</ele>
        <time>2018-10-09T13:41:36Z</time>
      </trkpt>
      <trkpt lat="45.92498" lon="4.71179">
        <ele>185</ele>
        <time>2018-10-09T13:41:37Z</time>
      </trkpt>
      <trkpt lat="45.9249" lon="4.71175">
        <ele>185</ele>
        <time>2018-10-09T13:41:39Z</time>
      </trkpt>
      <trkpt lat="45.92488" lon="4.71174">
        <ele>185</ele>
        <time>2018-10-09T13:41:40Z</time>
      </trkpt>
      <trkpt lat="45.9248" lon="4.7117">
        <ele>185</ele>
        <time>2018-10-09T13:41:43Z</time>
      </trkpt>
      <trkpt lat="45.92477" lon="4.71169">
        <ele>184</ele>
        <time>2018-10-09T13:41:44Z</time>
      </trkpt>
      <trkpt lat="45.92471" lon="4.71166">
        <ele>186</ele>
        <time>2018-10-09T13:41:46Z</time>
      </trkpt>
      <trkpt lat="45.92468" lon="4.71164">
        <ele>186</ele>
        <time>2018-10-09T13:41:47Z</time>
      </trkpt>
      <trkpt lat="45.92465" lon="4.71163">
        <ele>186</ele>
        <time>2018-10-09T13:41:48Z</time>
      </trkpt>
      <trkpt lat="45.92457" lon="4.71159">
        <ele>186</ele>
        <time>2018-10-09T13:41:49Z</time>
      </trkpt>
      <trkpt lat="45.92451" lon="4.71156">
        <ele>186</ele>
        <time>2018-10-09T13:41:52Z</time>
      </trkpt>
      <trkpt lat="45.92448" lon="4.71154">
        <ele>186</ele>
        <time>2018-10-09T13:41:53Z</time>
      </trkpt>
      <trkpt lat="45.92441" lon="4.7115">
        <ele>186</ele>
        <time>2018-10-09T13:41:56Z</time>
      </trkpt>
      <trkpt lat="45.92438" lon="4.71148">
        <ele>186</ele>
        <time>2018-10-09T13:41:57Z</time>
      </trkpt>
      <trkpt lat="45.9243" lon="4.71142">
        <ele>186</ele>
        <time>2018-10-09T13:42:00Z</time>
      </trkpt>
      <trkpt lat="45.92426" lon="4.7114">
        <ele>186</ele>
        <time>2018-10-09T13:42:01Z</time>
      </trkpt>
      <trkpt lat="45.92424" lon="4.71138">
        <ele>186</ele>
        <time>2018-10-09T13:42:02Z</time>
      </trkpt>
      <trkpt lat="45.92417" lon="4.71133">
        <ele>186</ele>
        <time>2018-10-09T13:42:03Z</time>
      </trkpt>
      <trkpt lat="45.92411" lon="4.71129">
        <ele>184</ele>
        <time>2018-10-09T13:42:06Z</time>
      </trkpt>
      <trkpt lat="45.92408" lon="4.71127">
        <ele>184</ele>
        <time>2018-10-09T13:42:07Z</time>
      </trkpt>
      <trkpt lat="45.92402" lon="4.71123">
        <ele>184</ele>
        <time>2018-10-09T13:42:08Z</time>
      </trkpt>
      <trkpt lat="45.92398" lon="4.71121">
        <ele>184</ele>
        <time>2018-10-09T13:42:09Z</time>
      </trkpt>
      <trkpt lat="45.9239" lon="4.71117">
        <ele>184</ele>
        <time>2018-10-09T13:42:11Z</time>
      </trkpt>
      <trkpt lat="45.92388" lon="4.71116">
        <ele>184</ele>
        <time>2018-10-09T13:42:12Z</time>
      </trkpt>
      <trkpt lat="45.9238" lon="4.71112">
        <ele>184</ele>
        <time>2018-10-09T13:42:14Z</time>
      </trkpt>
      <trkpt lat="45.92376" lon="4.7111">
        <ele>184</ele>
        <time>2018-10-09T13:42:15Z</time>
      </trkpt>
      <trkpt lat="45.92368" lon="4.71106">
        <ele>184</ele>
        <time>2018-10-09T13:42:17Z</time>
      </trkpt>
      <trkpt lat="45.92364" lon="4.71104">
        <ele>184</ele>
        <time>2018-10-09T13:42:18Z</time>
      </trkpt>
      <trkpt lat="45.92356" lon="4.711">
        <ele>184</ele>
        <time>2018-10-09T13:42:20Z</time>
      </trkpt>
      <trkpt lat="45.92354" lon="4.71098">
        <ele>184</ele>
        <time>2018-10-09T13:42:21Z</time>
      </trkpt>
      <trkpt lat="45.92347" lon="4.71094">
        <ele>184</ele>
        <time>2018-10-09T13:42:24Z</time>
      </trkpt>
      <trkpt lat="45.92341" lon="4.71091">
        <ele>184</ele>
        <time>2018-10-09T13:42:25Z</time>
      </trkpt>
      <trkpt lat="45.92334" lon="4.71087">
        <ele>184</ele>
        <time>2018-10-09T13:42:27Z</time>
      </trkpt>
      <trkpt lat="45.9233" lon="4.71085">
        <ele>184</ele>
        <time>2018-10-09T13:42:28Z</time>
      </trkpt>
      <trkpt lat="45.92322" lon="4.71081">
        <ele>184</ele>
        <time>2018-10-09T13:42:30Z</time>
      </trkpt>
      <trkpt lat="45.92318" lon="4.71079">
        <ele>184</ele>
        <time>2018-10-09T13:42:31Z</time>
      </trkpt>
      <trkpt lat="45.92311" lon="4.71075">
        <ele>184</ele>
        <time>2018-10-09T13:42:33Z</time>
      </trkpt>
      <trkpt lat="45.92307" lon="4.71073">
        <ele>184</ele>
        <time>2018-10-09T13:42:34Z</time>
      </trkpt>
      <trkpt lat="45.92299" lon="4.7107">
        <ele>183</ele>
        <time>2018-10-09T13:42:36Z</time>
      </trkpt>
      <trkpt lat="45.92295" lon="4.71068">
        <ele>183</ele>
        <time>2018-10-09T13:42:37Z</time>
      </trkpt>
      <trkpt lat="45.92288" lon="4.71064">
        <ele>183</ele>
        <time>2018-10-09T13:42:39Z</time>
      </trkpt>
      <trkpt lat="45.92286" lon="4.71063">
        <ele>183</ele>
        <time>2018-10-09T13:42:40Z</time>
      </trkpt>
      <trkpt lat="45.92278" lon="4.71059">
        <ele>183</ele>
        <time>2018-10-09T13:42:43Z</time>
      </trkpt>
      <trkpt lat="45.92275" lon="4.71058">
        <ele>183</ele>
        <time>2018-10-09T13:42:44Z</time>
      </trkpt>
      <trkpt lat="45.92273" lon="4.71056">
        <ele>183</ele>
        <time>2018-10-09T13:42:45Z</time>
      </trkpt>
      <trkpt lat="45.92266" lon="4.71052">
        <ele>183</ele>
        <time>2018-10-09T13:42:46Z</time>
      </trkpt>
      <trkpt lat="45.92259" lon="4.71047">
        <ele>183</ele>
        <time>2018-10-09T13:42:48Z</time>
      </trkpt>
      <trkpt lat="45.92255" lon="4.71045">
        <ele>183</ele>
        <time>2018-10-09T13:42:49Z</time>
      </trkpt>
      <trkpt lat="45.92248" lon="4.71041">
        <ele>182</ele>
        <time>2018-10-09T13:42:51Z</time>
      </trkpt>
      <trkpt lat="45.92245" lon="4.7104">
        <ele>182</ele>
        <time>2018-10-09T13:42:52Z</time>
      </trkpt>
      <trkpt lat="45.92238" lon="4.71036">
        <ele>182</ele>
        <time>2018-10-09T13:42:55Z</time>
      </trkpt>
      <trkpt lat="45.92236" lon="4.71035">
        <ele>182</ele>
        <time>2018-10-09T13:42:56Z</time>
      </trkpt>
      <trkpt lat="45.92229" lon="4.71032">
        <ele>182</ele>
        <time>2018-10-09T13:42:57Z</time>
      </trkpt>
      <trkpt lat="45.92225" lon="4.7103">
        <ele>182</ele>
        <time>2018-10-09T13:42:58Z</time>
      </trkpt>
      <trkpt lat="45.92217" lon="4.71027">
        <ele>182</ele>
        <time>2018-10-09T13:43:00Z</time>
      </trkpt>
      <trkpt lat="45.92215" lon="4.71026">
        <ele>182</ele>
        <time>2018-10-09T13:43:01Z</time>
      </trkpt>
      <trkpt lat="45.92208" lon="4.71023">
        <ele>182</ele>
        <time>2018-10-09T13:43:04Z</time>
      </trkpt>
      <trkpt lat="45.92206" lon="4.71022">
        <ele>182</ele>
        <time>2018-10-09T13:43:05Z</time>
      </trkpt>
      <trkpt lat="45.92203" lon="4.7102">
        <ele>182</ele>
        <time>2018-10-09T13:43:06Z</time>
      </trkpt>
      <trkpt lat="45.92196" lon="4.71017">
        <ele>181</ele>
        <time>2018-10-09T13:43:07Z</time>
      </trkpt>
      <trkpt lat="45.92188" lon="4.71015">
        <ele>181</ele>
        <time>2018-10-09T13:43:10Z</time>
      </trkpt>
      <trkpt lat="45.92186" lon="4.71015">
        <ele>181</ele>
        <time>2018-10-09T13:43:11Z</time>
      </trkpt>
      <trkpt lat="45.92177" lon="4.71014">
        <ele>181</ele>
        <time>2018-10-09T13:43:14Z</time>
      </trkpt>
      <trkpt lat="45.92171" lon="4.71011">
        <ele>181</ele>
        <time>2018-10-09T13:43:15Z</time>
      </trkpt>
      <trkpt lat="45.92164" lon="4.71007">
        <ele>181</ele>
        <time>2018-10-09T13:43:17Z</time>
      </trkpt>
      <trkpt lat="45.92161" lon="4.71008">
        <ele>181</ele>
        <time>2018-10-09T13:43:18Z</time>
      </trkpt>
      <trkpt lat="45.92157" lon="4.71014">
        <ele>181</ele>
        <time>2018-10-09T13:43:20Z</time>
      </trkpt>
      <trkpt lat="45.92156" lon="4.71019">
        <ele>181</ele>
        <time>2018-10-09T13:43:21Z</time>
      </trkpt>
      <trkpt lat="45.92156" lon="4.71028">
        <ele>181</ele>
        <time>2018-10-09T13:43:23Z</time>
      </trkpt>
      <trkpt lat="45.92155" lon="4.71038">
        <ele>181</ele>
        <time>2018-10-09T13:43:24Z</time>
      </trkpt>
      <trkpt lat="45.92154" lon="4.71049">
        <ele>181</ele>
        <time>2018-10-09T13:43:26Z</time>
      </trkpt>
      <trkpt lat="45.92153" lon="4.71054">
        <ele>181</ele>
        <time>2018-10-09T13:43:27Z</time>
      </trkpt>
      <trkpt lat="45.92151" lon="4.71064">
        <ele>181</ele>
        <time>2018-10-09T13:43:29Z</time>
      </trkpt>
      <trkpt lat="45.92151" lon="4.71071">
        <ele>181</ele>
        <time>2018-10-09T13:43:30Z</time>
      </trkpt>
      <trkpt lat="45.9215" lon="4.71078">
        <ele>181</ele>
        <time>2018-10-09T13:43:31Z</time>
      </trkpt>
      <trkpt lat="45.92149" lon="4.71085">
        <ele>179</ele>
        <time>2018-10-09T13:43:32Z</time>
      </trkpt>
      <trkpt lat="45.92148" lon="4.71092">
        <ele>179</ele>
        <time>2018-10-09T13:43:33Z</time>
      </trkpt>
      <trkpt lat="45.92146" lon="4.71099">
        <ele>179</ele>
        <time>2018-10-09T13:43:34Z</time>
      </trkpt>
      <trkpt lat="45.92144" lon="4.71107">
        <ele>179</ele>
        <time>2018-10-09T13:43:35Z</time>
      </trkpt>
      <trkpt lat="45.92143" lon="4.71114">
        <ele>179</ele>
        <time>2018-10-09T13:43:36Z</time>
      </trkpt>
      <trkpt lat="45.92142" lon="4.71122">
        <ele>178</ele>
        <time>2018-10-09T13:43:37Z</time>
      </trkpt>
      <trkpt lat="45.92141" lon="4.71129">
        <ele>178</ele>
        <time>2018-10-09T13:43:38Z</time>
      </trkpt>
      <trkpt lat="45.9214" lon="4.71136">
        <ele>178</ele>
        <time>2018-10-09T13:43:39Z</time>
      </trkpt>
      <trkpt lat="45.92139" lon="4.71144">
        <ele>178</ele>
        <time>2018-10-09T13:43:40Z</time>
      </trkpt>
      <trkpt lat="45.92138" lon="4.71151">
        <ele>178</ele>
        <time>2018-10-09T13:43:41Z</time>
      </trkpt>
      <trkpt lat="45.92137" lon="4.71159">
        <ele>178</ele>
        <time>2018-10-09T13:43:42Z</time>
      </trkpt>
      <trkpt lat="45.92135" lon="4.71167">
        <ele>176</ele>
        <time>2018-10-09T13:43:43Z</time>
      </trkpt>
      <trkpt lat="45.92134" lon="4.71175">
        <ele>176</ele>
        <time>2018-10-09T13:43:44Z</time>
      </trkpt>
      <trkpt lat="45.92134" lon="4.71184">
        <ele>176</ele>
        <time>2018-10-09T13:43:45Z</time>
      </trkpt>
      <trkpt lat="45.92133" lon="4.71192">
        <ele>175</ele>
        <time>2018-10-09T13:43:46Z</time>
      </trkpt>
      <trkpt lat="45.92132" lon="4.71199">
        <ele>175</ele>
        <time>2018-10-09T13:43:47Z</time>
      </trkpt>
      <trkpt lat="45.92131" lon="4.71207">
        <ele>175</ele>
        <time>2018-10-09T13:43:48Z</time>
      </trkpt>
      <trkpt lat="45.92129" lon="4.71213">
        <ele>175</ele>
        <time>2018-10-09T13:43:49Z</time>
      </trkpt>
      <trkpt lat="45.92128" lon="4.71221">
        <ele>175</ele>
        <time>2018-10-09T13:43:50Z</time>
      </trkpt>
      <trkpt lat="45.92129" lon="4.71229">
        <ele>175</ele>
        <time>2018-10-09T13:43:51Z</time>
      </trkpt>
      <trkpt lat="45.92127" lon="4.71237">
        <ele>175</ele>
        <time>2018-10-09T13:43:52Z</time>
      </trkpt>
      <trkpt lat="45.92127" lon="4.71245">
        <ele>175</ele>
        <time>2018-10-09T13:43:53Z</time>
      </trkpt>
      <trkpt lat="45.92127" lon="4.71253">
        <ele>173</ele>
        <time>2018-10-09T13:43:54Z</time>
      </trkpt>
      <trkpt lat="45.92126" lon="4.71261">
        <ele>173</ele>
        <time>2018-10-09T13:43:55Z</time>
      </trkpt>
      <trkpt lat="45.92125" lon="4.71266">
        <ele>173</ele>
        <time>2018-10-09T13:43:56Z</time>
      </trkpt>
      <trkpt lat="45.92124" lon="4.71274">
        <ele>174</ele>
        <time>2018-10-09T13:43:57Z</time>
      </trkpt>
      <trkpt lat="45.92124" lon="4.71284">
        <ele>174</ele>
        <time>2018-10-09T13:43:58Z</time>
      </trkpt>
      <trkpt lat="45.92122" lon="4.71291">
        <ele>174</ele>
        <time>2018-10-09T13:43:59Z</time>
      </trkpt>
      <trkpt lat="45.92122" lon="4.71297">
        <ele>174</ele>
        <time>2018-10-09T13:44:00Z</time>
      </trkpt>
      <trkpt lat="45.92121" lon="4.71304">
        <ele>174</ele>
        <time>2018-10-09T13:44:01Z</time>
      </trkpt>
      <trkpt lat="45.9212" lon="4.7131">
        <ele>174</ele>
        <time>2018-10-09T13:44:02Z</time>
      </trkpt>
      <trkpt lat="45.92119" lon="4.71317">
        <ele>174</ele>
        <time>2018-10-09T13:44:03Z</time>
      </trkpt>
      <trkpt lat="45.92119" lon="4.71326">
        <ele>174</ele>
        <time>2018-10-09T13:44:04Z</time>
      </trkpt>
      <trkpt lat="45.92118" lon="4.71332">
        <ele>174</ele>
        <time>2018-10-09T13:44:05Z</time>
      </trkpt>
      <trkpt lat="45.92118" lon="4.7134">
        <ele>173</ele>
        <time>2018-10-09T13:44:06Z</time>
      </trkpt>
      <trkpt lat="45.92118" lon="4.71348">
        <ele>173</ele>
        <time>2018-10-09T13:44:07Z</time>
      </trkpt>
      <trkpt lat="45.92116" lon="4.71355">
        <ele>173</ele>
        <time>2018-10-09T13:44:08Z</time>
      </trkpt>
      <trkpt lat="45.92116" lon="4.71364">
        <ele>173</ele>
        <time>2018-10-09T13:44:09Z</time>
      </trkpt>
      <trkpt lat="45.92115" lon="4.71372">
        <ele>173</ele>
        <time>2018-10-09T13:44:10Z</time>
      </trkpt>
      <trkpt lat="45.92115" lon="4.71379">
        <ele>173</ele>
        <time>2018-10-09T13:44:11Z</time>
      </trkpt>
      <trkpt lat="45.92114" lon="4.71386">
        <ele>173</ele>
        <time>2018-10-09T13:44:12Z</time>
      </trkpt>
      <trkpt lat="45.92113" lon="4.71392">
        <ele>173</ele>
        <time>2018-10-09T13:44:13Z</time>
      </trkpt>
      <trkpt lat="45.92112" lon="4.71399">
        <ele>173</ele>
        <time>2018-10-09T13:44:14Z</time>
      </trkpt>
      <trkpt lat="45.92111" lon="4.71406">
        <ele>173</ele>
        <time>2018-10-09T13:44:15Z</time>
      </trkpt>
      <trkpt lat="45.92111" lon="4.71414">
        <ele>173</ele>
        <time>2018-10-09T13:44:16Z</time>
      </trkpt>
      <trkpt lat="45.9211" lon="4.71426">
        <ele>174</ele>
        <time>2018-10-09T13:44:18Z</time>
      </trkpt>
      <trkpt lat="45.92108" lon="4.71432">
        <ele>174</ele>
        <time>2018-10-09T13:44:19Z</time>
      </trkpt>
      <trkpt lat="45.92107" lon="4.71438">
        <ele>174</ele>
        <time>2018-10-09T13:44:20Z</time>
      </trkpt>
      <trkpt lat="45.92105" lon="4.71445">
        <ele>174</ele>
        <time>2018-10-09T13:44:21Z</time>
      </trkpt>
      <trkpt lat="45.92103" lon="4.71451">
        <ele>174</ele>
        <time>2018-10-09T13:44:22Z</time>
      </trkpt>
      <trkpt lat="45.92101" lon="4.7146">
        <ele>174</ele>
        <time>2018-10-09T13:44:23Z</time>
      </trkpt>
      <trkpt lat="45.921" lon="4.71467">
        <ele>174</ele>
        <time>2018-10-09T13:44:24Z</time>
      </trkpt>
      <trkpt lat="45.92097" lon="4.71475">
        <ele>174</ele>
        <time>2018-10-09T13:44:25Z</time>
      </trkpt>
      <trkpt lat="45.92096" lon="4.71483">
        <ele>174</ele>
        <time>2018-10-09T13:44:26Z</time>
      </trkpt>
      <trkpt lat="45.92095" lon="4.7149">
        <ele>174</ele>
        <time>2018-10-09T13:44:27Z</time>
      </trkpt>
      <trkpt lat="45.92094" lon="4.71497">
        <ele>174</ele>
        <time>2018-10-09T13:44:28Z</time>
      </trkpt>
      <trkpt lat="45.92093" lon="4.71503">
        <ele>174</ele>
        <time>2018-10-09T13:44:29Z</time>
      </trkpt>
      <trkpt lat="45.92093" lon="4.71509">
        <ele>174</ele>
        <time>2018-10-09T13:44:30Z</time>
      </trkpt>
      <trkpt lat="45.92092" lon="4.71516">
        <ele>174</ele>
        <time>2018-10-09T13:44:31Z</time>
      </trkpt>
      <trkpt lat="45.9209" lon="4.71528">
        <ele>174</ele>
        <time>2018-10-09T13:44:33Z</time>
      </trkpt>
      <trkpt lat="45.92089" lon="4.71533">
        <ele>173</ele>
        <time>2018-10-09T13:44:34Z</time>
      </trkpt>
      <trkpt lat="45.92088" lon="4.7154">
        <ele>173</ele>
        <time>2018-10-09T13:44:35Z</time>
      </trkpt>
      <trkpt lat="45.92087" lon="4.71547">
        <ele>173</ele>
        <time>2018-10-09T13:44:36Z</time>
      </trkpt>
      <trkpt lat="45.92085" lon="4.71555">
        <ele>173</ele>
        <time>2018-10-09T13:44:37Z</time>
      </trkpt>
      <trkpt lat="45.92083" lon="4.71562">
        <ele>173</ele>
        <time>2018-10-09T13:44:38Z</time>
      </trkpt>
      <trkpt lat="45.92082" lon="4.7157">
        <ele>173</ele>
        <time>2018-10-09T13:44:39Z</time>
      </trkpt>
      <trkpt lat="45.92081" lon="4.71576">
        <ele>172</ele>
        <time>2018-10-09T13:44:40Z</time>
      </trkpt>
      <trkpt lat="45.92079" lon="4.71589">
        <ele>172</ele>
        <time>2018-10-09T13:44:42Z</time>
      </trkpt>
      <trkpt lat="45.92078" lon="4.71594">
        <ele>172</ele>
        <time>2018-10-09T13:44:43Z</time>
      </trkpt>
      <trkpt lat="45.92076" lon="4.71606">
        <ele>172</ele>
        <time>2018-10-09T13:44:45Z</time>
      </trkpt>
      <trkpt lat="45.92075" lon="4.71612">
        <ele>172</ele>
        <time>2018-10-09T13:44:46Z</time>
      </trkpt>
      <trkpt lat="45.92074" lon="4.71619">
        <ele>173</ele>
        <time>2018-10-09T13:44:47Z</time>
      </trkpt>
      <trkpt lat="45.92073" lon="4.71626">
        <ele>173</ele>
        <time>2018-10-09T13:44:48Z</time>
      </trkpt>
      <trkpt lat="45.92072" lon="4.71633">
        <ele>172</ele>
        <time>2018-10-09T13:44:49Z</time>
      </trkpt>
      <trkpt lat="45.9207" lon="4.71639">
        <ele>172</ele>
        <time>2018-10-09T13:44:50Z</time>
      </trkpt>
      <trkpt lat="45.92069" lon="4.71652">
        <ele>172</ele>
        <time>2018-10-09T13:44:52Z</time>
      </trkpt>
      <trkpt lat="45.92067" lon="4.71657">
        <ele>172</ele>
        <time>2018-10-09T13:44:53Z</time>
      </trkpt>
      <trkpt lat="45.92066" lon="4.71669">
        <ele>172</ele>
        <time>2018-10-09T13:44:55Z</time>
      </trkpt>
      <trkpt lat="45.92065" lon="4.71675">
        <ele>173</ele>
        <time>2018-10-09T13:44:56Z</time>
      </trkpt>
      <trkpt lat="45.92064" lon="4.71682">
        <ele>173</ele>
        <time>2018-10-09T13:44:57Z</time>
      </trkpt>
      <trkpt lat="45.92063" lon="4.71688">
        <ele>173</ele>
        <time>2018-10-09T13:44:58Z</time>
      </trkpt>
      <trkpt lat="45.92062" lon="4.71695">
        <ele>173</ele>
        <time>2018-10-09T13:44:59Z</time>
      </trkpt>
      <trkpt lat="45.92061" lon="4.71702">
        <ele>173</ele>
        <time>2018-10-09T13:45:00Z</time>
      </trkpt>
      <trkpt lat="45.9206" lon="4.71709">
        <ele>173</ele>
        <time>2018-10-09T13:45:01Z</time>
      </trkpt>
      <trkpt lat="45.9206" lon="4.71715">
        <ele>173</ele>
        <time>2018-10-09T13:45:02Z</time>
      </trkpt>
      <trkpt lat="45.92058" lon="4.71721">
        <ele>173</ele>
        <time>2018-10-09T13:45:03Z</time>
      </trkpt>
      <trkpt lat="45.92057" lon="4.71728">
        <ele>173</ele>
        <time>2018-10-09T13:45:04Z</time>
      </trkpt>
      <trkpt lat="45.92056" lon="4.71734">
        <ele>173</ele>
        <time>2018-10-09T13:45:05Z</time>
      </trkpt>
      <trkpt lat="45.92056" lon="4.71741">
        <ele>173</ele>
        <time>2018-10-09T13:45:06Z</time>
      </trkpt>
      <trkpt lat="45.92055" lon="4.71748">
        <ele>173</ele>
        <time>2018-10-09T13:45:07Z</time>
      </trkpt>
      <trkpt lat="45.92054" lon="4.71754">
        <ele>173</ele>
        <time>2018-10-09T13:45:08Z</time>
      </trkpt>
      <trkpt lat="45.92052" lon="4.71766">
        <ele>173</ele>
        <time>2018-10-09T13:45:10Z</time>
      </trkpt>
      <trkpt lat="45.92051" lon="4.71772">
        <ele>173</ele>
        <time>2018-10-09T13:45:11Z</time>
      </trkpt>
      <trkpt lat="45.9205" lon="4.71782">
        <ele>173</ele>
        <time>2018-10-09T13:45:13Z</time>
      </trkpt>
      <trkpt lat="45.92048" lon="4.71784">
        <ele>173</ele>
        <time>2018-10-09T13:45:14Z</time>
      </trkpt>
      <trkpt lat="45.92041" lon="4.71789">
        <ele>173</ele>
        <time>2018-10-09T13:45:17Z</time>
      </trkpt>
      <trkpt lat="45.92038" lon="4.71789">
        <ele>173</ele>
        <time>2018-10-09T13:45:18Z</time>
      </trkpt>
      <trkpt lat="45.9203" lon="4.71789">
        <ele>173</ele>
        <time>2018-10-09T13:45:19Z</time>
      </trkpt>
      <trkpt lat="45.92026" lon="4.71788">
        <ele>173</ele>
        <time>2018-10-09T13:45:20Z</time>
      </trkpt>
      <trkpt lat="45.92018" lon="4.71787">
        <ele>173</ele>
        <time>2018-10-09T13:45:22Z</time>
      </trkpt>
      <trkpt lat="45.92014" lon="4.71787">
        <ele>173</ele>
        <time>2018-10-09T13:45:23Z</time>
      </trkpt>
      <trkpt lat="45.92005" lon="4.71789">
        <ele>173</ele>
        <time>2018-10-09T13:45:25Z</time>
      </trkpt>
      <trkpt lat="45.92003" lon="4.71789">
        <ele>173</ele>
        <time>2018-10-09T13:45:26Z</time>
      </trkpt>
      <trkpt lat="45.91994" lon="4.7179">
        <ele>173</ele>
        <time>2018-10-09T13:45:28Z</time>
      </trkpt>
      <trkpt lat="45.91991" lon="4.7179">
        <ele>173</ele>
        <time>2018-10-09T13:45:29Z</time>
      </trkpt>
      <trkpt lat="45.91983" lon="4.7179">
        <ele>173</ele>
        <time>2018-10-09T13:45:31Z</time>
      </trkpt>
      <trkpt lat="45.91979" lon="4.71789">
        <ele>173</ele>
        <time>2018-10-09T13:45:32Z</time>
      </trkpt>
      <trkpt lat="45.9197" lon="4.71789">
        <ele>173</ele>
        <time>2018-10-09T13:45:34Z</time>
      </trkpt>
      <trkpt lat="45.91965" lon="4.71789">
        <ele>173</ele>
        <time>2018-10-09T13:45:35Z</time>
      </trkpt>
      <trkpt lat="45.91957" lon="4.71789">
        <ele>173</ele>
        <time>2018-10-09T13:45:37Z</time>
      </trkpt>
      <trkpt lat="45.91953" lon="4.71788">
        <ele>173</ele>
        <time>2018-10-09T13:45:38Z</time>
      </trkpt>
      <trkpt lat="45.91945" lon="4.71788">
        <ele>173</ele>
        <time>2018-10-09T13:45:41Z</time>
      </trkpt>
      <trkpt lat="45.91939" lon="4.71786">
        <ele>173</ele>
        <time>2018-10-09T13:45:42Z</time>
      </trkpt>
      <trkpt lat="45.9193" lon="4.71786">
        <ele>173</ele>
        <time>2018-10-09T13:45:44Z</time>
      </trkpt>
      <trkpt lat="45.91926" lon="4.71785">
        <ele>173</ele>
        <time>2018-10-09T13:45:45Z</time>
      </trkpt>
      <trkpt lat="45.91917" lon="4.71782">
        <ele>172</ele>
        <time>2018-10-09T13:45:47Z</time>
      </trkpt>
      <trkpt lat="45.91913" lon="4.71781">
        <ele>172</ele>
        <time>2018-10-09T13:45:48Z</time>
      </trkpt>
      <trkpt lat="45.91904" lon="4.71778">
        <ele>172</ele>
        <time>2018-10-09T13:45:50Z</time>
      </trkpt>
      <trkpt lat="45.91901" lon="4.71777">
        <ele>172</ele>
        <time>2018-10-09T13:45:51Z</time>
      </trkpt>
      <trkpt lat="45.91892" lon="4.71777">
        <ele>172</ele>
        <time>2018-10-09T13:45:54Z</time>
      </trkpt>
      <trkpt lat="45.9189" lon="4.71777">
        <ele>172</ele>
        <time>2018-10-09T13:45:55Z</time>
      </trkpt>
      <trkpt lat="45.91884" lon="4.71776">
        <ele>172</ele>
        <time>2018-10-09T13:45:56Z</time>
      </trkpt>
      <trkpt lat="45.9188" lon="4.71775">
        <ele>172</ele>
        <time>2018-10-09T13:45:57Z</time>
      </trkpt>
      <trkpt lat="45.91875" lon="4.71776">
        <ele>172</ele>
        <time>2018-10-09T13:45:59Z</time>
      </trkpt>
      <trkpt lat="45.9187" lon="4.71776">
        <ele>172</ele>
        <time>2018-10-09T13:46:00Z</time>
      </trkpt>
      <trkpt lat="45.91862" lon="4.71776">
        <ele>172</ele>
        <time>2018-10-09T13:46:02Z</time>
      </trkpt>
      <trkpt lat="45.91858" lon="4.71776">
        <ele>172</ele>
        <time>2018-10-09T13:46:03Z</time>
      </trkpt>
      <trkpt lat="45.91849" lon="4.71777">
        <ele>172</ele>
        <time>2018-10-09T13:46:05Z</time>
      </trkpt>
      <trkpt lat="45.91845" lon="4.71778">
        <ele>172</ele>
        <time>2018-10-09T13:46:06Z</time>
      </trkpt>
      <trkpt lat="45.91837" lon="4.71779">
        <ele>172</ele>
        <time>2018-10-09T13:46:08Z</time>
      </trkpt>
      <trkpt lat="45.91832" lon="4.7178">
        <ele>172</ele>
        <time>2018-10-09T13:46:09Z</time>
      </trkpt>
      <trkpt lat="45.91824" lon="4.71781">
        <ele>172</ele>
        <time>2018-10-09T13:46:11Z</time>
      </trkpt>
      <trkpt lat="45.91821" lon="4.71782">
        <ele>172</ele>
        <time>2018-10-09T13:46:12Z</time>
      </trkpt>
      <trkpt lat="45.91814" lon="4.71783">
        <ele>172</ele>
        <time>2018-10-09T13:46:15Z</time>
      </trkpt>
      <trkpt lat="45.91808" lon="4.71783">
        <ele>172</ele>
        <time>2018-10-09T13:46:16Z</time>
      </trkpt>
      <trkpt lat="45.918" lon="4.71783">
        <ele>172</ele>
        <time>2018-10-09T13:46:18Z</time>
      </trkpt>
      <trkpt lat="45.91796" lon="4.71783">
        <ele>172</ele>
        <time>2018-10-09T13:46:19Z</time>
      </trkpt>
      <trkpt lat="45.91788" lon="4.71783">
        <ele>173</ele>
        <time>2018-10-09T13:46:21Z</time>
      </trkpt>
      <trkpt lat="45.91784" lon="4.71783">
        <ele>173</ele>
        <time>2018-10-09T13:46:22Z</time>
      </trkpt>
      <trkpt lat="45.91777" lon="4.71784">
        <ele>173</ele>
        <time>2018-10-09T13:46:25Z</time>
      </trkpt>
      <trkpt lat="45.91774" lon="4.71784">
        <ele>173</ele>
        <time>2018-10-09T13:46:26Z</time>
      </trkpt>
      <trkpt lat="45.91767" lon="4.71783">
        <ele>173</ele>
        <time>2018-10-09T13:46:27Z</time>
      </trkpt>
      <trkpt lat="45.91763" lon="4.71784">
        <ele>173</ele>
        <time>2018-10-09T13:46:28Z</time>
      </trkpt>
      <trkpt lat="45.91755" lon="4.71784">
        <ele>173</ele>
        <time>2018-10-09T13:46:30Z</time>
      </trkpt>
      <trkpt lat="45.91751" lon="4.71784">
        <ele>173</ele>
        <time>2018-10-09T13:46:31Z</time>
      </trkpt>
      <trkpt lat="45.91746" lon="4.71784">
        <ele>173</ele>
        <time>2018-10-09T13:46:33Z</time>
      </trkpt>
      <trkpt lat="45.9174" lon="4.71783">
        <ele>173</ele>
        <time>2018-10-09T13:46:34Z</time>
      </trkpt>
      <trkpt lat="45.91732" lon="4.71782">
        <ele>173</ele>
        <time>2018-10-09T13:46:36Z</time>
      </trkpt>
      <trkpt lat="45.91728" lon="4.71782">
        <ele>173</ele>
        <time>2018-10-09T13:46:37Z</time>
      </trkpt>
      <trkpt lat="45.9172" lon="4.71781">
        <ele>173</ele>
        <time>2018-10-09T13:46:39Z</time>
      </trkpt>
      <trkpt lat="45.91716" lon="4.71781">
        <ele>173</ele>
        <time>2018-10-09T13:46:40Z</time>
      </trkpt>
      <trkpt lat="45.91707" lon="4.7178">
        <ele>173</ele>
        <time>2018-10-09T13:46:42Z</time>
      </trkpt>
      <trkpt lat="45.91703" lon="4.71779">
        <ele>173</ele>
        <time>2018-10-09T13:46:43Z</time>
      </trkpt>
      <trkpt lat="45.91697" lon="4.71778">
        <ele>173</ele>
        <time>2018-10-09T13:46:45Z</time>
      </trkpt>
      <trkpt lat="45.91694" lon="4.71779">
        <ele>173</ele>
        <time>2018-10-09T13:46:46Z</time>
      </trkpt>
      <trkpt lat="45.91688" lon="4.71779">
        <ele>173</ele>
        <time>2018-10-09T13:46:48Z</time>
      </trkpt>
      <trkpt lat="45.9168" lon="4.71779">
        <ele>173</ele>
        <time>2018-10-09T13:46:49Z</time>
      </trkpt>
      <trkpt lat="45.91671" lon="4.71778">
        <ele>173</ele>
        <time>2018-10-09T13:46:51Z</time>
      </trkpt>
      <trkpt lat="45.91668" lon="4.71777">
        <ele>173</ele>
        <time>2018-10-09T13:46:52Z</time>
      </trkpt>
      <trkpt lat="45.9166" lon="4.71774">
        <ele>173</ele>
        <time>2018-10-09T13:46:54Z</time>
      </trkpt>
      <trkpt lat="45.91658" lon="4.71773">
        <ele>173</ele>
        <time>2018-10-09T13:46:55Z</time>
      </trkpt>
      <trkpt lat="45.91651" lon="4.71769">
        <ele>173</ele>
        <time>2018-10-09T13:46:58Z</time>
      </trkpt>
      <trkpt lat="45.91645" lon="4.71764">
        <ele>174</ele>
        <time>2018-10-09T13:46:59Z</time>
      </trkpt>
      <trkpt lat="45.91639" lon="4.71756">
        <ele>174</ele>
        <time>2018-10-09T13:47:02Z</time>
      </trkpt>
      <trkpt lat="45.91637" lon="4.71752">
        <ele>174</ele>
        <time>2018-10-09T13:47:03Z</time>
      </trkpt>
      <trkpt lat="45.91633" lon="4.71741">
        <ele>173</ele>
        <time>2018-10-09T13:47:06Z</time>
      </trkpt>
      <trkpt lat="45.91632" lon="4.71737">
        <ele>173</ele>
        <time>2018-10-09T13:47:07Z</time>
      </trkpt>
      <trkpt lat="45.91627" lon="4.7173">
        <ele>173</ele>
        <time>2018-10-09T13:47:09Z</time>
      </trkpt>
      <trkpt lat="45.91625" lon="4.71727">
        <ele>173</ele>
        <time>2018-10-09T13:47:10Z</time>
      </trkpt>
      <trkpt lat="45.91617" lon="4.71724">
        <ele>173</ele>
        <time>2018-10-09T13:47:13Z</time>
      </trkpt>
      <trkpt lat="45.91614" lon="4.71724">
        <ele>173</ele>
        <time>2018-10-09T13:47:14Z</time>
      </trkpt>
      <trkpt lat="45.91609" lon="4.71726">
        <ele>173</ele>
        <time>2018-10-09T13:47:16Z</time>
      </trkpt>
      <trkpt lat="45.91602" lon="4.71728">
        <ele>173</ele>
        <time>2018-10-09T13:47:17Z</time>
      </trkpt>
      <trkpt lat="45.91594" lon="4.71731">
        <ele>173</ele>
        <time>2018-10-09T13:47:19Z</time>
      </trkpt>
      <trkpt lat="45.91591" lon="4.71734">
        <ele>173</ele>
        <time>2018-10-09T13:47:20Z</time>
      </trkpt>
      <trkpt lat="45.91584" lon="4.7174">
        <ele>174</ele>
        <time>2018-10-09T13:47:23Z</time>
      </trkpt>
      <trkpt lat="45.91582" lon="4.71742">
        <ele>174</ele>
        <time>2018-10-09T13:47:24Z</time>
      </trkpt>
      <trkpt lat="45.91575" lon="4.71748">
        <ele>174</ele>
        <time>2018-10-09T13:47:27Z</time>
      </trkpt>
      <trkpt lat="45.91573" lon="4.71751">
        <ele>174</ele>
        <time>2018-10-09T13:47:28Z</time>
      </trkpt>
      <trkpt lat="45.91568" lon="4.71756">
        <ele>174</ele>
        <time>2018-10-09T13:47:30Z</time>
      </trkpt>
      <trkpt lat="45.91562" lon="4.71763">
        <ele>174</ele>
        <time>2018-10-09T13:47:31Z</time>
      </trkpt>
      <trkpt lat="45.91556" lon="4.71771">
        <ele>174</ele>
        <time>2018-10-09T13:47:33Z</time>
      </trkpt>
      <trkpt lat="45.91554" lon="4.71773">
        <ele>174</ele>
        <time>2018-10-09T13:47:34Z</time>
      </trkpt>
      <trkpt lat="45.91547" lon="4.71781">
        <ele>174</ele>
        <time>2018-10-09T13:47:37Z</time>
      </trkpt>
      <trkpt lat="45.91543" lon="4.71788">
        <ele>174</ele>
        <time>2018-10-09T13:47:38Z</time>
      </trkpt>
      <trkpt lat="45.91539" lon="4.71796">
        <ele>174</ele>
        <time>2018-10-09T13:47:40Z</time>
      </trkpt>
      <trkpt lat="45.91537" lon="4.71801">
        <ele>174</ele>
        <time>2018-10-09T13:47:41Z</time>
      </trkpt>
      <trkpt lat="45.91533" lon="4.71811">
        <ele>174</ele>
        <time>2018-10-09T13:47:43Z</time>
      </trkpt>
      <trkpt lat="45.91531" lon="4.71817">
        <ele>174</ele>
        <time>2018-10-09T13:47:44Z</time>
      </trkpt>
      <trkpt lat="45.91527" lon="4.71827">
        <ele>174</ele>
        <time>2018-10-09T13:47:46Z</time>
      </trkpt>
      <trkpt lat="45.91526" lon="4.71832">
        <ele>174</ele>
        <time>2018-10-09T13:47:47Z</time>
      </trkpt>
      <trkpt lat="45.91522" lon="4.71843">
        <ele>174</ele>
        <time>2018-10-09T13:47:49Z</time>
      </trkpt>
      <trkpt lat="45.91521" lon="4.71848">
        <ele>174</ele>
        <time>2018-10-09T13:47:50Z</time>
      </trkpt>
      <trkpt lat="45.91517" lon="4.71856">
        <ele>174</ele>
        <time>2018-10-09T13:47:52Z</time>
      </trkpt>
      <trkpt lat="45.91516" lon="4.71859">
        <ele>174</ele>
        <time>2018-10-09T13:47:53Z</time>
      </trkpt>
      <trkpt lat="45.91513" lon="4.71865">
        <ele>174</ele>
        <time>2018-10-09T13:47:55Z</time>
      </trkpt>
      <trkpt lat="45.91509" lon="4.71872">
        <ele>174</ele>
        <time>2018-10-09T13:47:56Z</time>
      </trkpt>
      <trkpt lat="45.91504" lon="4.71878">
        <ele>173</ele>
        <time>2018-10-09T13:47:58Z</time>
      </trkpt>
      <trkpt lat="45.91501" lon="4.71881">
        <ele>173</ele>
        <time>2018-10-09T13:47:59Z</time>
      </trkpt>
      <trkpt lat="45.91495" lon="4.71886">
        <ele>173</ele>
        <time>2018-10-09T13:48:02Z</time>
      </trkpt>
      <trkpt lat="45.91492" lon="4.71889">
        <ele>173</ele>
        <time>2018-10-09T13:48:03Z</time>
      </trkpt>
      <trkpt lat="45.9149" lon="4.71891">
        <ele>173</ele>
        <time>2018-10-09T13:48:04Z</time>
      </trkpt>
      <trkpt lat="45.91482" lon="4.71897">
        <ele>173</ele>
        <time>2018-10-09T13:48:05Z</time>
      </trkpt>
      <trkpt lat="45.91474" lon="4.71901">
        <ele>173</ele>
        <time>2018-10-09T13:48:07Z</time>
      </trkpt>
      <trkpt lat="45.9147" lon="4.71904">
        <ele>173</ele>
        <time>2018-10-09T13:48:08Z</time>
      </trkpt>
      <trkpt lat="45.91462" lon="4.71908">
        <ele>173</ele>
        <time>2018-10-09T13:48:10Z</time>
      </trkpt>
      <trkpt lat="45.91459" lon="4.7191">
        <ele>173</ele>
        <time>2018-10-09T13:48:11Z</time>
      </trkpt>
      <trkpt lat="45.91452" lon="4.71914">
        <ele>173</ele>
        <time>2018-10-09T13:48:13Z</time>
      </trkpt>
      <trkpt lat="45.91448" lon="4.71916">
        <ele>173</ele>
        <time>2018-10-09T13:48:14Z</time>
      </trkpt>
      <trkpt lat="45.91442" lon="4.71921">
        <ele>173</ele>
        <time>2018-10-09T13:48:17Z</time>
      </trkpt>
      <trkpt lat="45.9144" lon="4.71922">
        <ele>173</ele>
        <time>2018-10-09T13:48:18Z</time>
      </trkpt>
      <trkpt lat="45.91434" lon="4.71926">
        <ele>173</ele>
        <time>2018-10-09T13:48:19Z</time>
      </trkpt>
      <trkpt lat="45.9143" lon="4.71928">
        <ele>173</ele>
        <time>2018-10-09T13:48:20Z</time>
      </trkpt>
      <trkpt lat="45.91423" lon="4.71934">
        <ele>173</ele>
        <time>2018-10-09T13:48:22Z</time>
      </trkpt>
      <trkpt lat="45.91419" lon="4.71937">
        <ele>173</ele>
        <time>2018-10-09T13:48:23Z</time>
      </trkpt>
      <trkpt lat="45.91413" lon="4.71944">
        <ele>173</ele>
        <time>2018-10-09T13:48:25Z</time>
      </trkpt>
      <trkpt lat="45.91411" lon="4.71946">
        <ele>173</ele>
        <time>2018-10-09T13:48:26Z</time>
      </trkpt>
      <trkpt lat="45.91405" lon="4.71952">
        <ele>173</ele>
        <time>2018-10-09T13:48:29Z</time>
      </trkpt>
      <trkpt lat="45.91399" lon="4.71958">
        <ele>173</ele>
        <time>2018-10-09T13:48:30Z</time>
      </trkpt>
      <trkpt lat="45.91392" lon="4.71962">
        <ele>174</ele>
        <time>2018-10-09T13:48:32Z</time>
      </trkpt>
      <trkpt lat="45.91388" lon="4.71964">
        <ele>174</ele>
        <time>2018-10-09T13:48:33Z</time>
      </trkpt>
      <trkpt lat="45.91383" lon="4.71965">
        <ele>174</ele>
        <time>2018-10-09T13:48:34Z</time>
      </trkpt>
      <trkpt lat="45.91379" lon="4.71966">
        <ele>174</ele>
        <time>2018-10-09T13:48:35Z</time>
      </trkpt>
      <trkpt lat="45.91371" lon="4.71965">
        <ele>173</ele>
        <time>2018-10-09T13:48:37Z</time>
      </trkpt>
      <trkpt lat="45.91367" lon="4.71965">
        <ele>173</ele>
        <time>2018-10-09T13:48:38Z</time>
      </trkpt>
      <trkpt lat="45.91359" lon="4.71965">
        <ele>173</ele>
        <time>2018-10-09T13:48:41Z</time>
      </trkpt>
      <trkpt lat="45.91352" lon="4.71965">
        <ele>173</ele>
        <time>2018-10-09T13:48:42Z</time>
      </trkpt>
      <trkpt lat="45.91343" lon="4.71963">
        <ele>173</ele>
        <time>2018-10-09T13:48:44Z</time>
      </trkpt>
      <trkpt lat="45.91339" lon="4.71962">
        <ele>173</ele>
        <time>2018-10-09T13:48:45Z</time>
      </trkpt>
      <trkpt lat="45.91331" lon="4.71959">
        <ele>174</ele>
        <time>2018-10-09T13:48:47Z</time>
      </trkpt>
      <trkpt lat="45.91327" lon="4.71957">
        <ele>174</ele>
        <time>2018-10-09T13:48:48Z</time>
      </trkpt>
      <trkpt lat="45.91322" lon="4.71955">
        <ele>174</ele>
        <time>2018-10-09T13:48:50Z</time>
      </trkpt>
      <trkpt lat="45.91317" lon="4.71952">
        <ele>174</ele>
        <time>2018-10-09T13:48:51Z</time>
      </trkpt>
      <trkpt lat="45.91313" lon="4.7195">
        <ele>174</ele>
        <time>2018-10-09T13:48:52Z</time>
      </trkpt>
      <trkpt lat="45.91308" lon="4.71947">
        <ele>174</ele>
        <time>2018-10-09T13:48:53Z</time>
      </trkpt>
      <trkpt lat="45.91303" lon="4.71946">
        <ele>174</ele>
        <time>2018-10-09T13:48:54Z</time>
      </trkpt>
      <trkpt lat="45.91299" lon="4.71944">
        <ele>175</ele>
        <time>2018-10-09T13:48:55Z</time>
      </trkpt>
      <trkpt lat="45.91292" lon="4.71941">
        <ele>175</ele>
        <time>2018-10-09T13:48:57Z</time>
      </trkpt>
      <trkpt lat="45.91288" lon="4.7194">
        <ele>175</ele>
        <time>2018-10-09T13:48:58Z</time>
      </trkpt>
      <trkpt lat="45.9128" lon="4.71936">
        <ele>175</ele>
        <time>2018-10-09T13:49:00Z</time>
      </trkpt>
      <trkpt lat="45.91276" lon="4.71935">
        <ele>175</ele>
        <time>2018-10-09T13:49:01Z</time>
      </trkpt>
      <trkpt lat="45.91269" lon="4.71932">
        <ele>175</ele>
        <time>2018-10-09T13:49:04Z</time>
      </trkpt>
      <trkpt lat="45.91262" lon="4.71929">
        <ele>176</ele>
        <time>2018-10-09T13:49:05Z</time>
      </trkpt>
      <trkpt lat="45.91254" lon="4.71927">
        <ele>176</ele>
        <time>2018-10-09T13:49:07Z</time>
      </trkpt>
      <trkpt lat="45.9125" lon="4.71926">
        <ele>176</ele>
        <time>2018-10-09T13:49:08Z</time>
      </trkpt>
      <trkpt lat="45.91242" lon="4.71923">
        <ele>176</ele>
        <time>2018-10-09T13:49:10Z</time>
      </trkpt>
      <trkpt lat="45.91239" lon="4.71922">
        <ele>176</ele>
        <time>2018-10-09T13:49:11Z</time>
      </trkpt>
      <trkpt lat="45.91231" lon="4.71919">
        <ele>176</ele>
        <time>2018-10-09T13:49:13Z</time>
      </trkpt>
      <trkpt lat="45.91227" lon="4.71918">
        <ele>176</ele>
        <time>2018-10-09T13:49:14Z</time>
      </trkpt>
      <trkpt lat="45.91223" lon="4.71916">
        <ele>176</ele>
        <time>2018-10-09T13:49:15Z</time>
      </trkpt>
      <trkpt lat="45.91218" lon="4.71914">
        <ele>176</ele>
        <time>2018-10-09T13:49:16Z</time>
      </trkpt>
      <trkpt lat="45.9121" lon="4.71911">
        <ele>176</ele>
        <time>2018-10-09T13:49:18Z</time>
      </trkpt>
      <trkpt lat="45.91208" lon="4.71911">
        <ele>176</ele>
        <time>2018-10-09T13:49:19Z</time>
      </trkpt>
      <trkpt lat="45.91202" lon="4.7191">
        <ele>176</ele>
        <time>2018-10-09T13:49:22Z</time>
      </trkpt>
      <trkpt lat="45.91193" lon="4.71907">
        <ele>176</ele>
        <time>2018-10-09T13:49:23Z</time>
      </trkpt>
      <trkpt lat="45.91185" lon="4.71904">
        <ele>176</ele>
        <time>2018-10-09T13:49:25Z</time>
      </trkpt>
      <trkpt lat="45.9118" lon="4.71904">
        <ele>176</ele>
        <time>2018-10-09T13:49:26Z</time>
      </trkpt>
      <trkpt lat="45.91172" lon="4.71902">
        <ele>176</ele>
        <time>2018-10-09T13:49:29Z</time>
      </trkpt>
      <trkpt lat="45.9117" lon="4.71901">
        <ele>176</ele>
        <time>2018-10-09T13:49:30Z</time>
      </trkpt>
      <trkpt lat="45.91161" lon="4.71899">
        <ele>175</ele>
        <time>2018-10-09T13:49:32Z</time>
      </trkpt>
      <trkpt lat="45.91159" lon="4.71899">
        <ele>175</ele>
        <time>2018-10-09T13:49:33Z</time>
      </trkpt>
      <trkpt lat="45.91154" lon="4.71899">
        <ele>175</ele>
        <time>2018-10-09T13:49:34Z</time>
      </trkpt>
      <trkpt lat="45.9115" lon="4.71899">
        <ele>175</ele>
        <time>2018-10-09T13:49:35Z</time>
      </trkpt>
      <trkpt lat="45.91144" lon="4.719">
        <ele>175</ele>
        <time>2018-10-09T13:49:37Z</time>
      </trkpt>
      <trkpt lat="45.91139" lon="4.71901">
        <ele>175</ele>
        <time>2018-10-09T13:49:38Z</time>
      </trkpt>
      <trkpt lat="45.91133" lon="4.71904">
        <ele>175</ele>
        <time>2018-10-09T13:49:41Z</time>
      </trkpt>
      <trkpt lat="45.9113" lon="4.71904">
        <ele>175</ele>
        <time>2018-10-09T13:49:42Z</time>
      </trkpt>
      <trkpt lat="45.91128" lon="4.71905">
        <ele>175</ele>
        <time>2018-10-09T13:49:43Z</time>
      </trkpt>
      <trkpt lat="45.91121" lon="4.71907">
        <ele>175</ele>
        <time>2018-10-09T13:49:44Z</time>
      </trkpt>
      <trkpt lat="45.91113" lon="4.71914">
        <ele>175</ele>
        <time>2018-10-09T13:49:46Z</time>
      </trkpt>
      <trkpt lat="45.91109" lon="4.7192">
        <ele>174</ele>
        <time>2018-10-09T13:49:47Z</time>
      </trkpt>
      <trkpt lat="45.91104" lon="4.71923">
        <ele>174</ele>
        <time>2018-10-09T13:49:48Z</time>
      </trkpt>
      <trkpt lat="45.911" lon="4.71925">
        <ele>174</ele>
        <time>2018-10-09T13:49:49Z</time>
      </trkpt>
      <trkpt lat="45.91095" lon="4.71928">
        <ele>174</ele>
        <time>2018-10-09T13:49:50Z</time>
      </trkpt>
      <trkpt lat="45.9109" lon="4.71931">
        <ele>174</ele>
        <time>2018-10-09T13:49:51Z</time>
      </trkpt>
      <trkpt lat="45.91083" lon="4.71934">
        <ele>174</ele>
        <time>2018-10-09T13:49:53Z</time>
      </trkpt>
      <trkpt lat="45.91079" lon="4.71935">
        <ele>174</ele>
        <time>2018-10-09T13:49:54Z</time>
      </trkpt>
      <trkpt lat="45.91072" lon="4.71937">
        <ele>174</ele>
        <time>2018-10-09T13:49:57Z</time>
      </trkpt>
      <trkpt lat="45.9107" lon="4.71938">
        <ele>174</ele>
        <time>2018-10-09T13:49:58Z</time>
      </trkpt>
      <trkpt lat="45.91067" lon="4.71939">
        <ele>174</ele>
        <time>2018-10-09T13:49:59Z</time>
      </trkpt>
      <trkpt lat="45.91059" lon="4.71939">
        <ele>174</ele>
        <time>2018-10-09T13:50:00Z</time>
      </trkpt>
      <trkpt lat="45.91052" lon="4.71939">
        <ele>174</ele>
        <time>2018-10-09T13:50:02Z</time>
      </trkpt>
      <trkpt lat="45.91048" lon="4.71938">
        <ele>174</ele>
        <time>2018-10-09T13:50:03Z</time>
      </trkpt>
      <trkpt lat="45.91043" lon="4.71937">
        <ele>174</ele>
        <time>2018-10-09T13:50:04Z</time>
      </trkpt>
      <trkpt lat="45.91038" lon="4.71936">
        <ele>174</ele>
        <time>2018-10-09T13:50:05Z</time>
      </trkpt>
      <trkpt lat="45.91033" lon="4.71936">
        <ele>174</ele>
        <time>2018-10-09T13:50:06Z</time>
      </trkpt>
      <trkpt lat="45.91028" lon="4.71935">
        <ele>174</ele>
        <time>2018-10-09T13:50:07Z</time>
      </trkpt>
      <trkpt lat="45.91021" lon="4.71934">
        <ele>174</ele>
        <time>2018-10-09T13:50:09Z</time>
      </trkpt>
      <trkpt lat="45.91017" lon="4.71935">
        <ele>173</ele>
        <time>2018-10-09T13:50:10Z</time>
      </trkpt>
      <trkpt lat="45.91012" lon="4.71936">
        <ele>173</ele>
        <time>2018-10-09T13:50:12Z</time>
      </trkpt>
      <trkpt lat="45.91006" lon="4.71937">
        <ele>173</ele>
        <time>2018-10-09T13:50:13Z</time>
      </trkpt>
      <trkpt lat="45.90997" lon="4.7194">
        <ele>173</ele>
        <time>2018-10-09T13:50:15Z</time>
      </trkpt>
      <trkpt lat="45.90993" lon="4.71941">
        <ele>174</ele>
        <time>2018-10-09T13:50:16Z</time>
      </trkpt>
      <trkpt lat="45.90985" lon="4.71945">
        <ele>174</ele>
        <time>2018-10-09T13:50:18Z</time>
      </trkpt>
      <trkpt lat="45.90981" lon="4.71948">
        <ele>174</ele>
        <time>2018-10-09T13:50:19Z</time>
      </trkpt>
      <trkpt lat="45.90973" lon="4.71953">
        <ele>174</ele>
        <time>2018-10-09T13:50:22Z</time>
      </trkpt>
      <trkpt lat="45.9097" lon="4.71954">
        <ele>174</ele>
        <time>2018-10-09T13:50:23Z</time>
      </trkpt>
      <trkpt lat="45.90963" lon="4.71958">
        <ele>174</ele>
        <time>2018-10-09T13:50:26Z</time>
      </trkpt>
      <trkpt lat="45.90961" lon="4.7196">
        <ele>174</ele>
        <time>2018-10-09T13:50:27Z</time>
      </trkpt>
      <trkpt lat="45.90954" lon="4.71964">
        <ele>174</ele>
        <time>2018-10-09T13:50:28Z</time>
      </trkpt>
      <trkpt lat="45.90951" lon="4.71967">
        <ele>174</ele>
        <time>2018-10-09T13:50:29Z</time>
      </trkpt>
      <trkpt lat="45.90943" lon="4.7197">
        <ele>174</ele>
        <time>2018-10-09T13:50:31Z</time>
      </trkpt>
      <trkpt lat="45.90941" lon="4.71972">
        <ele>174</ele>
        <time>2018-10-09T13:50:32Z</time>
      </trkpt>
      <trkpt lat="45.90934" lon="4.71976">
        <ele>174</ele>
        <time>2018-10-09T13:50:35Z</time>
      </trkpt>
      <trkpt lat="45.90931" lon="4.71977">
        <ele>174</ele>
        <time>2018-10-09T13:50:36Z</time>
      </trkpt>
      <trkpt lat="45.90924" lon="4.71982">
        <ele>174</ele>
        <time>2018-10-09T13:50:37Z</time>
      </trkpt>
      <trkpt lat="45.9092" lon="4.71984">
        <ele>174</ele>
        <time>2018-10-09T13:50:38Z</time>
      </trkpt>
      <trkpt lat="45.90916" lon="4.71986">
        <ele>174</ele>
        <time>2018-10-09T13:50:39Z</time>
      </trkpt>
      <trkpt lat="45.90911" lon="4.71988">
        <ele>174</ele>
        <time>2018-10-09T13:50:40Z</time>
      </trkpt>
      <trkpt lat="45.90903" lon="4.71992">
        <ele>174</ele>
        <time>2018-10-09T13:50:42Z</time>
      </trkpt>
      <trkpt lat="45.90899" lon="4.71994">
        <ele>174</ele>
        <time>2018-10-09T13:50:43Z</time>
      </trkpt>
      <trkpt lat="45.90891" lon="4.71996">
        <ele>174</ele>
        <time>2018-10-09T13:50:45Z</time>
      </trkpt>
      <trkpt lat="45.90889" lon="4.71997">
        <ele>174</ele>
        <time>2018-10-09T13:50:46Z</time>
      </trkpt>
      <trkpt lat="45.90882" lon="4.72">
        <ele>174</ele>
        <time>2018-10-09T13:50:49Z</time>
      </trkpt>
      <trkpt lat="45.90875" lon="4.72003">
        <ele>174</ele>
        <time>2018-10-09T13:50:50Z</time>
      </trkpt>
      <trkpt lat="45.90868" lon="4.72007">
        <ele>174</ele>
        <time>2018-10-09T13:50:52Z</time>
      </trkpt>
      <trkpt lat="45.90864" lon="4.72009">
        <ele>174</ele>
        <time>2018-10-09T13:50:53Z</time>
      </trkpt>
      <trkpt lat="45.90856" lon="4.72014">
        <ele>174</ele>
        <time>2018-10-09T13:50:55Z</time>
      </trkpt>
      <trkpt lat="45.90854" lon="4.72015">
        <ele>174</ele>
        <time>2018-10-09T13:50:56Z</time>
      </trkpt>
      <trkpt lat="45.90846" lon="4.72019">
        <ele>174</ele>
        <time>2018-10-09T13:50:58Z</time>
      </trkpt>
      <trkpt lat="45.90842" lon="4.72022">
        <ele>174</ele>
        <time>2018-10-09T13:50:59Z</time>
      </trkpt>
      <trkpt lat="45.90835" lon="4.72026">
        <ele>174</ele>
        <time>2018-10-09T13:51:01Z</time>
      </trkpt>
      <trkpt lat="45.9083" lon="4.72029">
        <ele>175</ele>
        <time>2018-10-09T13:51:02Z</time>
      </trkpt>
      <trkpt lat="45.90822" lon="4.72033">
        <ele>175</ele>
        <time>2018-10-09T13:51:04Z</time>
      </trkpt>
      <trkpt lat="45.90818" lon="4.72034">
        <ele>175</ele>
        <time>2018-10-09T13:51:05Z</time>
      </trkpt>
      <trkpt lat="45.90811" lon="4.72037">
        <ele>175</ele>
        <time>2018-10-09T13:51:07Z</time>
      </trkpt>
      <trkpt lat="45.90808" lon="4.72038">
        <ele>175</ele>
        <time>2018-10-09T13:51:08Z</time>
      </trkpt>
      <trkpt lat="45.90801" lon="4.72042">
        <ele>175</ele>
        <time>2018-10-09T13:51:11Z</time>
      </trkpt>
      <trkpt lat="45.90798" lon="4.72043">
        <ele>175</ele>
        <time>2018-10-09T13:51:12Z</time>
      </trkpt>
      <trkpt lat="45.9079" lon="4.72046">
        <ele>175</ele>
        <time>2018-10-09T13:51:13Z</time>
      </trkpt>
      <trkpt lat="45.90787" lon="4.72048">
        <ele>175</ele>
        <time>2018-10-09T13:51:14Z</time>
      </trkpt>
      <trkpt lat="45.90782" lon="4.7205">
        <ele>175</ele>
        <time>2018-10-09T13:51:15Z</time>
      </trkpt>
      <trkpt lat="45.90778" lon="4.72053">
        <ele>175</ele>
        <time>2018-10-09T13:51:16Z</time>
      </trkpt>
      <trkpt lat="45.90773" lon="4.72056">
        <ele>175</ele>
        <time>2018-10-09T13:51:17Z</time>
      </trkpt>
      <trkpt lat="45.90769" lon="4.72059">
        <ele>175</ele>
        <time>2018-10-09T13:51:18Z</time>
      </trkpt>
      <trkpt lat="45.90761" lon="4.72063">
        <ele>175</ele>
        <time>2018-10-09T13:51:20Z</time>
      </trkpt>
      <trkpt lat="45.90757" lon="4.72066">
        <ele>174</ele>
        <time>2018-10-09T13:51:21Z</time>
      </trkpt>
      <trkpt lat="45.90753" lon="4.72069">
        <ele>174</ele>
        <time>2018-10-09T13:51:22Z</time>
      </trkpt>
      <trkpt lat="45.90749" lon="4.72072">
        <ele>174</ele>
        <time>2018-10-09T13:51:23Z</time>
      </trkpt>
      <trkpt lat="45.90743" lon="4.72077">
        <ele>174</ele>
        <time>2018-10-09T13:51:25Z</time>
      </trkpt>
      <trkpt lat="45.90738" lon="4.7208">
        <ele>174</ele>
        <time>2018-10-09T13:51:26Z</time>
      </trkpt>
      <trkpt lat="45.90734" lon="4.72083">
        <ele>175</ele>
        <time>2018-10-09T13:51:27Z</time>
      </trkpt>
      <trkpt lat="45.9073" lon="4.72086">
        <ele>174</ele>
        <time>2018-10-09T13:51:28Z</time>
      </trkpt>
      <trkpt lat="45.90723" lon="4.72091">
        <ele>174</ele>
        <time>2018-10-09T13:51:30Z</time>
      </trkpt>
      <trkpt lat="45.9072" lon="4.72093">
        <ele>174</ele>
        <time>2018-10-09T13:51:31Z</time>
      </trkpt>
      <trkpt lat="45.90713" lon="4.72099">
        <ele>174</ele>
        <time>2018-10-09T13:51:34Z</time>
      </trkpt>
      <trkpt lat="45.90707" lon="4.72103">
        <ele>174</ele>
        <time>2018-10-09T13:51:35Z</time>
      </trkpt>
      <trkpt lat="45.907" lon="4.72108">
        <ele>174</ele>
        <time>2018-10-09T13:51:37Z</time>
      </trkpt>
      <trkpt lat="45.90697" lon="4.7211">
        <ele>174</ele>
        <time>2018-10-09T13:51:38Z</time>
      </trkpt>
      <trkpt lat="45.90689" lon="4.72113">
        <ele>174</ele>
        <time>2018-10-09T13:51:41Z</time>
      </trkpt>
      <trkpt lat="45.90686" lon="4.72114">
        <ele>174</ele>
        <time>2018-10-09T13:51:42Z</time>
      </trkpt>
      <trkpt lat="45.90678" lon="4.72116">
        <ele>174</ele>
        <time>2018-10-09T13:51:47Z</time>
      </trkpt>
      <trkpt lat="45.90677" lon="4.72116">
        <ele>174</ele>
        <time>2018-10-09T13:51:48Z</time>
      </trkpt>
      <trkpt lat="45.90668" lon="4.72119">
        <ele>174</ele>
        <time>2018-10-09T13:52:07Z</time>
      </trkpt>
      <trkpt lat="45.90667" lon="4.72119">
        <ele>175</ele>
        <time>2018-10-09T13:52:08Z</time>
      </trkpt>
      <trkpt lat="45.9066" lon="4.72122">
        <ele>175</ele>
        <time>2018-10-09T13:52:11Z</time>
      </trkpt>
      <trkpt lat="45.90657" lon="4.72122">
        <ele>175</ele>
        <time>2018-10-09T13:52:12Z</time>
      </trkpt>
      <trkpt lat="45.90649" lon="4.72125">
        <ele>175</ele>
        <time>2018-10-09T13:52:15Z</time>
      </trkpt>
      <trkpt lat="45.90646" lon="4.72126">
        <ele>175</ele>
        <time>2018-10-09T13:52:16Z</time>
      </trkpt>
      <trkpt lat="45.90638" lon="4.7213">
        <ele>175</ele>
        <time>2018-10-09T13:52:19Z</time>
      </trkpt>
      <trkpt lat="45.90635" lon="4.72131">
        <ele>175</ele>
        <time>2018-10-09T13:52:20Z</time>
      </trkpt>
      <trkpt lat="45.90632" lon="4.72132">
        <ele>175</ele>
        <time>2018-10-09T13:52:21Z</time>
      </trkpt>
      <trkpt lat="45.90625" lon="4.72135">
        <ele>175</ele>
        <time>2018-10-09T13:52:22Z</time>
      </trkpt>
      <trkpt lat="45.90618" lon="4.72138">
        <ele>176</ele>
        <time>2018-10-09T13:52:25Z</time>
      </trkpt>
      <trkpt lat="45.90616" lon="4.7214">
        <ele>176</ele>
        <time>2018-10-09T13:52:26Z</time>
      </trkpt>
      <trkpt lat="45.90608" lon="4.72145">
        <ele>176</ele>
        <time>2018-10-09T13:52:29Z</time>
      </trkpt>
      <trkpt lat="45.90605" lon="4.72148">
        <ele>176</ele>
        <time>2018-10-09T13:52:30Z</time>
      </trkpt>
      <trkpt lat="45.90599" lon="4.72153">
        <ele>176</ele>
        <time>2018-10-09T13:52:32Z</time>
      </trkpt>
      <trkpt lat="45.90597" lon="4.72155">
        <ele>176</ele>
        <time>2018-10-09T13:52:33Z</time>
      </trkpt>
      <trkpt lat="45.90588" lon="4.72159">
        <ele>176</ele>
        <time>2018-10-09T13:52:36Z</time>
      </trkpt>
      <trkpt lat="45.90585" lon="4.7216">
        <ele>176</ele>
        <time>2018-10-09T13:52:37Z</time>
      </trkpt>
      <trkpt lat="45.90579" lon="4.72162">
        <ele>177</ele>
        <time>2018-10-09T13:52:39Z</time>
      </trkpt>
      <trkpt lat="45.90576" lon="4.72162">
        <ele>177</ele>
        <time>2018-10-09T13:52:40Z</time>
      </trkpt>
      <trkpt lat="45.90572" lon="4.72163">
        <ele>177</ele>
        <time>2018-10-09T13:52:41Z</time>
      </trkpt>
      <trkpt lat="45.90565" lon="4.72165">
        <ele>177</ele>
        <time>2018-10-09T13:52:42Z</time>
      </trkpt>
      <trkpt lat="45.90558" lon="4.72169">
        <ele>177</ele>
        <time>2018-10-09T13:52:45Z</time>
      </trkpt>
      <trkpt lat="45.90556" lon="4.7217">
        <ele>177</ele>
        <time>2018-10-09T13:52:46Z</time>
      </trkpt>
      <trkpt lat="45.9055" lon="4.72173">
        <ele>177</ele>
        <time>2018-10-09T13:52:48Z</time>
      </trkpt>
      <trkpt lat="45.90544" lon="4.72176">
        <ele>177</ele>
        <time>2018-10-09T13:52:49Z</time>
      </trkpt>
      <trkpt lat="45.90536" lon="4.7218">
        <ele>177</ele>
        <time>2018-10-09T13:52:52Z</time>
      </trkpt>
      <trkpt lat="45.90534" lon="4.72181">
        <ele>177</ele>
        <time>2018-10-09T13:52:53Z</time>
      </trkpt>
      <trkpt lat="45.90527" lon="4.72186">
        <ele>177</ele>
        <time>2018-10-09T13:52:56Z</time>
      </trkpt>
      <trkpt lat="45.90524" lon="4.72188">
        <ele>177</ele>
        <time>2018-10-09T13:52:57Z</time>
      </trkpt>
      <trkpt lat="45.90516" lon="4.72192">
        <ele>177</ele>
        <time>2018-10-09T13:53:00Z</time>
      </trkpt>
      <trkpt lat="45.90508" lon="4.72195">
        <ele>177</ele>
        <time>2018-10-09T13:53:01Z</time>
      </trkpt>
      <trkpt lat="45.90501" lon="4.72198">
        <ele>177</ele>
        <time>2018-10-09T13:53:04Z</time>
      </trkpt>
      <trkpt lat="45.90499" lon="4.72199">
        <ele>178</ele>
        <time>2018-10-09T13:53:05Z</time>
      </trkpt>
      <trkpt lat="45.90492" lon="4.72203">
        <ele>178</ele>
        <time>2018-10-09T13:53:09Z</time>
      </trkpt>
      <trkpt lat="45.90489" lon="4.72205">
        <ele>178</ele>
        <time>2018-10-09T13:53:10Z</time>
      </trkpt>
      <trkpt lat="45.90481" lon="4.7221">
        <ele>178</ele>
        <time>2018-10-09T13:53:13Z</time>
      </trkpt>
      <trkpt lat="45.90478" lon="4.72211">
        <ele>178</ele>
        <time>2018-10-09T13:53:14Z</time>
      </trkpt>
      <trkpt lat="45.90471" lon="4.72215">
        <ele>179</ele>
        <time>2018-10-09T13:53:17Z</time>
      </trkpt>
      <trkpt lat="45.90468" lon="4.72216">
        <ele>179</ele>
        <time>2018-10-09T13:53:18Z</time>
      </trkpt>
      <trkpt lat="45.90461" lon="4.72216">
        <ele>179</ele>
        <time>2018-10-09T13:53:20Z</time>
      </trkpt>
      <trkpt lat="45.90458" lon="4.72217">
        <ele>179</ele>
        <time>2018-10-09T13:53:21Z</time>
      </trkpt>
      <trkpt lat="45.90452" lon="4.72218">
        <ele>179</ele>
        <time>2018-10-09T13:53:23Z</time>
      </trkpt>
      <trkpt lat="45.90445" lon="4.72223">
        <ele>179</ele>
        <time>2018-10-09T13:53:24Z</time>
      </trkpt>
      <trkpt lat="45.90437" lon="4.72229">
        <ele>179</ele>
        <time>2018-10-09T13:53:27Z</time>
      </trkpt>
      <trkpt lat="45.90435" lon="4.7223">
        <ele>179</ele>
        <time>2018-10-09T13:53:28Z</time>
      </trkpt>
      <trkpt lat="45.90428" lon="4.72235">
        <ele>179</ele>
        <time>2018-10-09T13:53:31Z</time>
      </trkpt>
      <trkpt lat="45.90425" lon="4.72236">
        <ele>179</ele>
        <time>2018-10-09T13:53:32Z</time>
      </trkpt>
      <trkpt lat="45.90418" lon="4.72241">
        <ele>179</ele>
        <time>2018-10-09T13:53:35Z</time>
      </trkpt>
      <trkpt lat="45.90416" lon="4.72242">
        <ele>179</ele>
        <time>2018-10-09T13:53:36Z</time>
      </trkpt>
      <trkpt lat="45.90408" lon="4.72248">
        <ele>179</ele>
        <time>2018-10-09T13:53:39Z</time>
      </trkpt>
      <trkpt lat="45.90406" lon="4.72249">
        <ele>179</ele>
        <time>2018-10-09T13:53:40Z</time>
      </trkpt>
      <trkpt lat="45.90398" lon="4.72253">
        <ele>178</ele>
        <time>2018-10-09T13:53:43Z</time>
      </trkpt>
      <trkpt lat="45.90396" lon="4.72253">
        <ele>178</ele>
        <time>2018-10-09T13:53:44Z</time>
      </trkpt>
      <trkpt lat="45.9039" lon="4.72254">
        <ele>178</ele>
        <time>2018-10-09T13:53:46Z</time>
      </trkpt>
      <trkpt lat="45.90387" lon="4.72255">
        <ele>178</ele>
        <time>2018-10-09T13:53:47Z</time>
      </trkpt>
      <trkpt lat="45.9038" lon="4.72257">
        <ele>178</ele>
        <time>2018-10-09T13:53:49Z</time>
      </trkpt>
      <trkpt lat="45.90377" lon="4.72259">
        <ele>178</ele>
        <time>2018-10-09T13:53:50Z</time>
      </trkpt>
      <trkpt lat="45.90371" lon="4.72261">
        <ele>178</ele>
        <time>2018-10-09T13:53:52Z</time>
      </trkpt>
      <trkpt lat="45.90364" lon="4.72263">
        <ele>178</ele>
        <time>2018-10-09T13:53:53Z</time>
      </trkpt>
      <trkpt lat="45.90361" lon="4.72264">
        <ele>178</ele>
        <time>2018-10-09T13:53:55Z</time>
      </trkpt>
      <trkpt lat="45.90354" lon="4.72266">
        <ele>178</ele>
        <time>2018-10-09T13:53:56Z</time>
      </trkpt>
      <trkpt lat="45.90347" lon="4.7227">
        <ele>178</ele>
        <time>2018-10-09T13:53:59Z</time>
      </trkpt>
      <trkpt lat="45.90345" lon="4.72271">
        <ele>178</ele>
        <time>2018-10-09T13:54:00Z</time>
      </trkpt>
      <trkpt lat="45.90338" lon="4.72276">
        <ele>178</ele>
        <time>2018-10-09T13:54:04Z</time>
      </trkpt>
      <trkpt lat="45.90335" lon="4.72279">
        <ele>178</ele>
        <time>2018-10-09T13:54:05Z</time>
      </trkpt>
      <trkpt lat="45.90329" lon="4.72282">
        <ele>177</ele>
        <time>2018-10-09T13:54:07Z</time>
      </trkpt>
      <trkpt lat="45.90327" lon="4.72284">
        <ele>177</ele>
        <time>2018-10-09T13:54:08Z</time>
      </trkpt>
      <trkpt lat="45.90321" lon="4.72286">
        <ele>177</ele>
        <time>2018-10-09T13:54:10Z</time>
      </trkpt>
      <trkpt lat="45.90317" lon="4.72288">
        <ele>177</ele>
        <time>2018-10-09T13:54:11Z</time>
      </trkpt>
      <trkpt lat="45.90309" lon="4.72291">
        <ele>177</ele>
        <time>2018-10-09T13:54:14Z</time>
      </trkpt>
      <trkpt lat="45.90306" lon="4.72292">
        <ele>177</ele>
        <time>2018-10-09T13:54:15Z</time>
      </trkpt>
      <trkpt lat="45.903" lon="4.72293">
        <ele>177</ele>
        <time>2018-10-09T13:54:17Z</time>
      </trkpt>
      <trkpt lat="45.90297" lon="4.72294">
        <ele>177</ele>
        <time>2018-10-09T13:54:18Z</time>
      </trkpt>
      <trkpt lat="45.90291" lon="4.72295">
        <ele>177</ele>
        <time>2018-10-09T13:54:20Z</time>
      </trkpt>
      <trkpt lat="45.90287" lon="4.72296">
        <ele>177</ele>
        <time>2018-10-09T13:54:21Z</time>
      </trkpt>
      <trkpt lat="45.90281" lon="4.72296">
        <ele>177</ele>
        <time>2018-10-09T13:54:23Z</time>
      </trkpt>
      <trkpt lat="45.90278" lon="4.72297">
        <ele>177</ele>
        <time>2018-10-09T13:54:24Z</time>
      </trkpt>
      <trkpt lat="45.9027" lon="4.723">
        <ele>177</ele>
        <time>2018-10-09T13:54:27Z</time>
      </trkpt>
      <trkpt lat="45.90267" lon="4.72301">
        <ele>177</ele>
        <time>2018-10-09T13:54:28Z</time>
      </trkpt>
      <trkpt lat="45.90264" lon="4.72302">
        <ele>177</ele>
        <time>2018-10-09T13:54:29Z</time>
      </trkpt>
      <trkpt lat="45.90256" lon="4.72303">
        <ele>177</ele>
        <time>2018-10-09T13:54:30Z</time>
      </trkpt>
      <trkpt lat="45.90248" lon="4.72303">
        <ele>177</ele>
        <time>2018-10-09T13:54:32Z</time>
      </trkpt>
      <trkpt lat="45.90246" lon="4.72304">
        <ele>177</ele>
        <time>2018-10-09T13:54:33Z</time>
      </trkpt>
      <trkpt lat="45.90238" lon="4.72305">
        <ele>177</ele>
        <time>2018-10-09T13:54:36Z</time>
      </trkpt>
      <trkpt lat="45.90235" lon="4.72306">
        <ele>177</ele>
        <time>2018-10-09T13:54:37Z</time>
      </trkpt>
      <trkpt lat="45.90227" lon="4.72308">
        <ele>177</ele>
        <time>2018-10-09T13:54:40Z</time>
      </trkpt>
      <trkpt lat="45.90224" lon="4.72309">
        <ele>177</ele>
        <time>2018-10-09T13:54:41Z</time>
      </trkpt>
      <trkpt lat="45.90218" lon="4.7231">
        <ele>177</ele>
        <time>2018-10-09T13:54:43Z</time>
      </trkpt>
      <trkpt lat="45.90215" lon="4.7231">
        <ele>177</ele>
        <time>2018-10-09T13:54:44Z</time>
      </trkpt>
      <trkpt lat="45.90208" lon="4.72308">
        <ele>177</ele>
        <time>2018-10-09T13:54:46Z</time>
      </trkpt>
      <trkpt lat="45.90204" lon="4.72305">
        <ele>177</ele>
        <time>2018-10-09T13:54:47Z</time>
      </trkpt>
      <trkpt lat="45.90199" lon="4.72299">
        <ele>177</ele>
        <time>2018-10-09T13:54:48Z</time>
      </trkpt>
      <trkpt lat="45.90197" lon="4.72293">
        <ele>177</ele>
        <time>2018-10-09T13:54:49Z</time>
      </trkpt>
      <trkpt lat="45.90195" lon="4.72282">
        <ele>177</ele>
        <time>2018-10-09T13:54:51Z</time>
      </trkpt>
      <trkpt lat="45.90195" lon="4.72276">
        <ele>177</ele>
        <time>2018-10-09T13:54:52Z</time>
      </trkpt>
      <trkpt lat="45.90194" lon="4.72265">
        <ele>177</ele>
        <time>2018-10-09T13:54:55Z</time>
      </trkpt>
      <trkpt lat="45.90194" lon="4.72261">
        <ele>177</ele>
        <time>2018-10-09T13:54:56Z</time>
      </trkpt>
      <trkpt lat="45.90193" lon="4.7225">
        <ele>177</ele>
        <time>2018-10-09T13:54:59Z</time>
      </trkpt>
      <trkpt lat="45.90192" lon="4.72247">
        <ele>177</ele>
        <time>2018-10-09T13:55:00Z</time>
      </trkpt>
      <trkpt lat="45.90191" lon="4.72237">
        <ele>177</ele>
        <time>2018-10-09T13:55:01Z</time>
      </trkpt>
      <trkpt lat="45.9019" lon="4.72232">
        <ele>177</ele>
        <time>2018-10-09T13:55:02Z</time>
      </trkpt>
      <trkpt lat="45.90189" lon="4.7222">
        <ele>177</ele>
        <time>2018-10-09T13:55:04Z</time>
      </trkpt>
      <trkpt lat="45.90188" lon="4.72214">
        <ele>177</ele>
        <time>2018-10-09T13:55:05Z</time>
      </trkpt>
      <trkpt lat="45.90187" lon="4.72204">
        <ele>177</ele>
        <time>2018-10-09T13:55:07Z</time>
      </trkpt>
      <trkpt lat="45.90187" lon="4.72199">
        <ele>177</ele>
        <time>2018-10-09T13:55:08Z</time>
      </trkpt>
      <trkpt lat="45.90186" lon="4.72193">
        <ele>177</ele>
        <time>2018-10-09T13:55:09Z</time>
      </trkpt>
      <trkpt lat="45.90186" lon="4.72185">
        <ele>177</ele>
        <time>2018-10-09T13:55:10Z</time>
      </trkpt>
      <trkpt lat="45.90185" lon="4.72172">
        <ele>177</ele>
        <time>2018-10-09T13:55:12Z</time>
      </trkpt>
      <trkpt lat="45.90184" lon="4.72167">
        <ele>177</ele>
        <time>2018-10-09T13:55:13Z</time>
      </trkpt>
      <trkpt lat="45.90184" lon="4.72156">
        <ele>178</ele>
        <time>2018-10-09T13:55:15Z</time>
      </trkpt>
      <trkpt lat="45.90185" lon="4.72149">
        <ele>178</ele>
        <time>2018-10-09T13:55:16Z</time>
      </trkpt>
      <trkpt lat="45.90185" lon="4.72143">
        <ele>178</ele>
        <time>2018-10-09T13:55:18Z</time>
      </trkpt>
      <trkpt lat="45.90185" lon="4.72135">
        <ele>178</ele>
        <time>2018-10-09T13:55:19Z</time>
      </trkpt>
      <trkpt lat="45.90185" lon="4.72124">
        <ele>178</ele>
        <time>2018-10-09T13:55:21Z</time>
      </trkpt>
      <trkpt lat="45.90185" lon="4.72117">
        <ele>178</ele>
        <time>2018-10-09T13:55:22Z</time>
      </trkpt>
      <trkpt lat="45.90184" lon="4.72111">
        <ele>178</ele>
        <time>2018-10-09T13:55:23Z</time>
      </trkpt>
      <trkpt lat="45.90184" lon="4.72104">
        <ele>178</ele>
        <time>2018-10-09T13:55:24Z</time>
      </trkpt>
      <trkpt lat="45.90183" lon="4.72097">
        <ele>178</ele>
        <time>2018-10-09T13:55:25Z</time>
      </trkpt>
      <trkpt lat="45.90183" lon="4.7209">
        <ele>178</ele>
        <time>2018-10-09T13:55:26Z</time>
      </trkpt>
      <trkpt lat="45.90183" lon="4.72078">
        <ele>179</ele>
        <time>2018-10-09T13:55:28Z</time>
      </trkpt>
      <trkpt lat="45.90183" lon="4.72071">
        <ele>179</ele>
        <time>2018-10-09T13:55:29Z</time>
      </trkpt>
      <trkpt lat="45.90181" lon="4.72058">
        <ele>179</ele>
        <time>2018-10-09T13:55:31Z</time>
      </trkpt>
      <trkpt lat="45.9018" lon="4.72052">
        <ele>179</ele>
        <time>2018-10-09T13:55:32Z</time>
      </trkpt>
      <trkpt lat="45.90179" lon="4.72045">
        <ele>179</ele>
        <time>2018-10-09T13:55:33Z</time>
      </trkpt>
      <trkpt lat="45.90178" lon="4.72038">
        <ele>179</ele>
        <time>2018-10-09T13:55:34Z</time>
      </trkpt>
      <trkpt lat="45.90177" lon="4.72031">
        <ele>179</ele>
        <time>2018-10-09T13:55:35Z</time>
      </trkpt>
      <trkpt lat="45.90177" lon="4.72025">
        <ele>179</ele>
        <time>2018-10-09T13:55:36Z</time>
      </trkpt>
      <trkpt lat="45.90178" lon="4.72012">
        <ele>179</ele>
        <time>2018-10-09T13:55:38Z</time>
      </trkpt>
      <trkpt lat="45.90179" lon="4.72006">
        <ele>179</ele>
        <time>2018-10-09T13:55:39Z</time>
      </trkpt>
      <trkpt lat="45.90179" lon="4.71995">
        <ele>179</ele>
        <time>2018-10-09T13:55:41Z</time>
      </trkpt>
      <trkpt lat="45.9018" lon="4.71989">
        <ele>179</ele>
        <time>2018-10-09T13:55:42Z</time>
      </trkpt>
      <trkpt lat="45.90181" lon="4.71977">
        <ele>179</ele>
        <time>2018-10-09T13:55:44Z</time>
      </trkpt>
      <trkpt lat="45.90181" lon="4.71971">
        <ele>179</ele>
        <time>2018-10-09T13:55:45Z</time>
      </trkpt>
      <trkpt lat="45.90182" lon="4.71965">
        <ele>179</ele>
        <time>2018-10-09T13:55:46Z</time>
      </trkpt>
      <trkpt lat="45.90182" lon="4.71958">
        <ele>179</ele>
        <time>2018-10-09T13:55:47Z</time>
      </trkpt>
      <trkpt lat="45.90185" lon="4.71946">
        <ele>179</ele>
        <time>2018-10-09T13:55:49Z</time>
      </trkpt>
      <trkpt lat="45.90187" lon="4.7194">
        <ele>179</ele>
        <time>2018-10-09T13:55:50Z</time>
      </trkpt>
      <trkpt lat="45.90189" lon="4.7193">
        <ele>178</ele>
        <time>2018-10-09T13:55:52Z</time>
      </trkpt>
      <trkpt lat="45.90191" lon="4.71925">
        <ele>178</ele>
        <time>2018-10-09T13:55:53Z</time>
      </trkpt>
      <trkpt lat="45.90194" lon="4.71916">
        <ele>179</ele>
        <time>2018-10-09T13:55:55Z</time>
      </trkpt>
      <trkpt lat="45.90196" lon="4.7191">
        <ele>179</ele>
        <time>2018-10-09T13:55:56Z</time>
      </trkpt>
      <trkpt lat="45.902" lon="4.71901">
        <ele>180</ele>
        <time>2018-10-09T13:55:58Z</time>
      </trkpt>
      <trkpt lat="45.90202" lon="4.71896">
        <ele>180</ele>
        <time>2018-10-09T13:55:59Z</time>
      </trkpt>
      <trkpt lat="45.90207" lon="4.71886">
        <ele>180</ele>
        <time>2018-10-09T13:56:01Z</time>
      </trkpt>
      <trkpt lat="45.9021" lon="4.7188">
        <ele>180</ele>
        <time>2018-10-09T13:56:02Z</time>
      </trkpt>
      <trkpt lat="45.90213" lon="4.71875">
        <ele>180</ele>
        <time>2018-10-09T13:56:03Z</time>
      </trkpt>
      <trkpt lat="45.90216" lon="4.71871">
        <ele>180</ele>
        <time>2018-10-09T13:56:04Z</time>
      </trkpt>
      <trkpt lat="45.90222" lon="4.71861">
        <ele>181</ele>
        <time>2018-10-09T13:56:06Z</time>
      </trkpt>
      <trkpt lat="45.90224" lon="4.71857">
        <ele>181</ele>
        <time>2018-10-09T13:56:07Z</time>
      </trkpt>
      <trkpt lat="45.9023" lon="4.71848">
        <ele>181</ele>
        <time>2018-10-09T13:56:10Z</time>
      </trkpt>
      <trkpt lat="45.90232" lon="4.71845">
        <ele>181</ele>
        <time>2018-10-09T13:56:11Z</time>
      </trkpt>
      <trkpt lat="45.90236" lon="4.71838">
        <ele>182</ele>
        <time>2018-10-09T13:56:12Z</time>
      </trkpt>
      <trkpt lat="45.9024" lon="4.71833">
        <ele>183</ele>
        <time>2018-10-09T13:56:13Z</time>
      </trkpt>
      <trkpt lat="45.90245" lon="4.71823">
        <ele>183</ele>
        <time>2018-10-09T13:56:15Z</time>
      </trkpt>
      <trkpt lat="45.90247" lon="4.71819">
        <ele>183</ele>
        <time>2018-10-09T13:56:16Z</time>
      </trkpt>
      <trkpt lat="45.90251" lon="4.7181">
        <ele>182</ele>
        <time>2018-10-09T13:56:19Z</time>
      </trkpt>
      <trkpt lat="45.90252" lon="4.71806">
        <ele>182</ele>
        <time>2018-10-09T13:56:20Z</time>
      </trkpt>
      <trkpt lat="45.90254" lon="4.71794">
        <ele>182</ele>
        <time>2018-10-09T13:56:23Z</time>
      </trkpt>
      <trkpt lat="45.90254" lon="4.7179">
        <ele>182</ele>
        <time>2018-10-09T13:56:24Z</time>
      </trkpt>
      <trkpt lat="45.90255" lon="4.71779">
        <ele>183</ele>
        <time>2018-10-09T13:56:27Z</time>
      </trkpt>
      <trkpt lat="45.90254" lon="4.71775">
        <ele>183</ele>
        <time>2018-10-09T13:56:28Z</time>
      </trkpt>
      <trkpt lat="45.90254" lon="4.71764">
        <ele>183</ele>
        <time>2018-10-09T13:56:31Z</time>
      </trkpt>
      <trkpt lat="45.90254" lon="4.71761">
        <ele>184</ele>
        <time>2018-10-09T13:56:32Z</time>
      </trkpt>
      <trkpt lat="45.90254" lon="4.71749">
        <ele>185</ele>
        <time>2018-10-09T13:56:36Z</time>
      </trkpt>
      <trkpt lat="45.90254" lon="4.71747">
        <ele>185</ele>
        <time>2018-10-09T13:56:37Z</time>
      </trkpt>
      <trkpt lat="45.90253" lon="4.71734">
        <ele>186</ele>
        <time>2018-10-09T13:56:42Z</time>
      </trkpt>
      <trkpt lat="45.90253" lon="4.71732">
        <ele>186</ele>
        <time>2018-10-09T13:56:43Z</time>
      </trkpt>
      <trkpt lat="45.90254" lon="4.71719">
        <ele>187</ele>
        <time>2018-10-09T13:56:48Z</time>
      </trkpt>
      <trkpt lat="45.90255" lon="4.71717">
        <ele>187</ele>
        <time>2018-10-09T13:56:49Z</time>
      </trkpt>
      <trkpt lat="45.90257" lon="4.71707">
        <ele>187</ele>
        <time>2018-10-09T13:56:54Z</time>
      </trkpt>
      <trkpt lat="45.90258" lon="4.71705">
        <ele>187</ele>
        <time>2018-10-09T13:56:55Z</time>
      </trkpt>
      <trkpt lat="45.9026" lon="4.71693">
        <ele>188</ele>
        <time>2018-10-09T13:57:01Z</time>
      </trkpt>
      <trkpt lat="45.90261" lon="4.7169">
        <ele>188</ele>
        <time>2018-10-09T13:57:02Z</time>
      </trkpt>
      <trkpt lat="45.90263" lon="4.71679">
        <ele>189</ele>
        <time>2018-10-09T13:57:06Z</time>
      </trkpt>
      <trkpt lat="45.90264" lon="4.71677">
        <ele>189</ele>
        <time>2018-10-09T13:57:07Z</time>
      </trkpt>
      <trkpt lat="45.90267" lon="4.71667">
        <ele>189</ele>
        <time>2018-10-09T13:57:12Z</time>
      </trkpt>
      <trkpt lat="45.90268" lon="4.71665">
        <ele>192</ele>
        <time>2018-10-09T13:57:13Z</time>
      </trkpt>
      <trkpt lat="45.90269" lon="4.71653">
        <ele>192</ele>
        <time>2018-10-09T13:57:18Z</time>
      </trkpt>
      <trkpt lat="45.90269" lon="4.71651">
        <ele>192</ele>
        <time>2018-10-09T13:57:19Z</time>
      </trkpt>
      <trkpt lat="45.90269" lon="4.71639">
        <ele>192</ele>
        <time>2018-10-09T13:57:24Z</time>
      </trkpt>
      <trkpt lat="45.9027" lon="4.71637">
        <ele>192</ele>
        <time>2018-10-09T13:57:25Z</time>
      </trkpt>
      <trkpt lat="45.90271" lon="4.71625">
        <ele>193</ele>
        <time>2018-10-09T13:57:30Z</time>
      </trkpt>
      <trkpt lat="45.90271" lon="4.71623">
        <ele>193</ele>
        <time>2018-10-09T13:57:31Z</time>
      </trkpt>
      <trkpt lat="45.90271" lon="4.71611">
        <ele>193</ele>
        <time>2018-10-09T13:57:36Z</time>
      </trkpt>
      <trkpt lat="45.90271" lon="4.71609">
        <ele>193</ele>
        <time>2018-10-09T13:57:37Z</time>
      </trkpt>
      <trkpt lat="45.90272" lon="4.71596">
        <ele>194</ele>
        <time>2018-10-09T13:57:41Z</time>
      </trkpt>
      <trkpt lat="45.90272" lon="4.71594">
        <ele>194</ele>
        <time>2018-10-09T13:57:42Z</time>
      </trkpt>
      <trkpt lat="45.90273" lon="4.71582">
        <ele>195</ele>
        <time>2018-10-09T13:57:46Z</time>
      </trkpt>
      <trkpt lat="45.90273" lon="4.71579">
        <ele>195</ele>
        <time>2018-10-09T13:57:47Z</time>
      </trkpt>
      <trkpt lat="45.90273" lon="4.71567">
        <ele>195</ele>
        <time>2018-10-09T13:57:51Z</time>
      </trkpt>
      <trkpt lat="45.90273" lon="4.71564">
        <ele>195</ele>
        <time>2018-10-09T13:57:52Z</time>
      </trkpt>
      <trkpt lat="45.90274" lon="4.71552">
        <ele>195</ele>
        <time>2018-10-09T13:57:56Z</time>
      </trkpt>
      <trkpt lat="45.90274" lon="4.71549">
        <ele>195</ele>
        <time>2018-10-09T13:57:57Z</time>
      </trkpt>
      <trkpt lat="45.90267" lon="4.71542">
        <ele>196</ele>
        <time>2018-10-09T13:58:01Z</time>
      </trkpt>
      <trkpt lat="45.90265" lon="4.71542">
        <ele>196</ele>
        <time>2018-10-09T13:58:02Z</time>
      </trkpt>
      <trkpt lat="45.90258" lon="4.71543">
        <ele>196</ele>
        <time>2018-10-09T13:58:05Z</time>
      </trkpt>
      <trkpt lat="45.90256" lon="4.71544">
        <ele>196</ele>
        <time>2018-10-09T13:58:06Z</time>
      </trkpt>
      <trkpt lat="45.90248" lon="4.71546">
        <ele>198</ele>
        <time>2018-10-09T13:58:10Z</time>
      </trkpt>
      <trkpt lat="45.90246" lon="4.71546">
        <ele>198</ele>
        <time>2018-10-09T13:58:11Z</time>
      </trkpt>
      <trkpt lat="45.90237" lon="4.71548">
        <ele>199</ele>
        <time>2018-10-09T13:58:15Z</time>
      </trkpt>
      <trkpt lat="45.90235" lon="4.71548">
        <ele>199</ele>
        <time>2018-10-09T13:58:16Z</time>
      </trkpt>
      <trkpt lat="45.90228" lon="4.71548">
        <ele>199</ele>
        <time>2018-10-09T13:58:19Z</time>
      </trkpt>
      <trkpt lat="45.90226" lon="4.71548">
        <ele>199</ele>
        <time>2018-10-09T13:58:20Z</time>
      </trkpt>
      <trkpt lat="45.90219" lon="4.71547">
        <ele>199</ele>
        <time>2018-10-09T13:58:23Z</time>
      </trkpt>
      <trkpt lat="45.90217" lon="4.71546">
        <ele>199</ele>
        <time>2018-10-09T13:58:24Z</time>
      </trkpt>
      <trkpt lat="45.90209" lon="4.71544">
        <ele>199</ele>
        <time>2018-10-09T13:58:27Z</time>
      </trkpt>
      <trkpt lat="45.90207" lon="4.71543">
        <ele>199</ele>
        <time>2018-10-09T13:58:28Z</time>
      </trkpt>
      <trkpt lat="45.90199" lon="4.71541">
        <ele>199</ele>
        <time>2018-10-09T13:58:31Z</time>
      </trkpt>
      <trkpt lat="45.90197" lon="4.71541">
        <ele>200</ele>
        <time>2018-10-09T13:58:32Z</time>
      </trkpt>
      <trkpt lat="45.9019" lon="4.71539">
        <ele>200</ele>
        <time>2018-10-09T13:58:35Z</time>
      </trkpt>
      <trkpt lat="45.90187" lon="4.71539">
        <ele>200</ele>
        <time>2018-10-09T13:58:36Z</time>
      </trkpt>
      <trkpt lat="45.90179" lon="4.71537">
        <ele>200</ele>
        <time>2018-10-09T13:58:39Z</time>
      </trkpt>
      <trkpt lat="45.90177" lon="4.71537">
        <ele>200</ele>
        <time>2018-10-09T13:58:40Z</time>
      </trkpt>
      <trkpt lat="45.90174" lon="4.71537">
        <ele>200</ele>
        <time>2018-10-09T13:58:41Z</time>
      </trkpt>
      <trkpt lat="45.90167" lon="4.71538">
        <ele>200</ele>
        <time>2018-10-09T13:58:42Z</time>
      </trkpt>
      <trkpt lat="45.90158" lon="4.71536">
        <ele>201</ele>
        <time>2018-10-09T13:58:46Z</time>
      </trkpt>
      <trkpt lat="45.90151" lon="4.71534">
        <ele>201</ele>
        <time>2018-10-09T13:58:47Z</time>
      </trkpt>
      <trkpt lat="45.90144" lon="4.7153">
        <ele>201</ele>
        <time>2018-10-09T13:58:51Z</time>
      </trkpt>
      <trkpt lat="45.90141" lon="4.71529">
        <ele>201</ele>
        <time>2018-10-09T13:58:52Z</time>
      </trkpt>
      <trkpt lat="45.90132" lon="4.71527">
        <ele>201</ele>
        <time>2018-10-09T13:58:54Z</time>
      </trkpt>
      <trkpt lat="45.9013" lon="4.71527">
        <ele>201</ele>
        <time>2018-10-09T13:58:55Z</time>
      </trkpt>
      <trkpt lat="45.90123" lon="4.71526">
        <ele>201</ele>
        <time>2018-10-09T13:58:58Z</time>
      </trkpt>
      <trkpt lat="45.9012" lon="4.71526">
        <ele>201</ele>
        <time>2018-10-09T13:58:59Z</time>
      </trkpt>
      <trkpt lat="45.90114" lon="4.71526">
        <ele>201</ele>
        <time>2018-10-09T13:59:00Z</time>
      </trkpt>
      <trkpt lat="45.9011" lon="4.71525">
        <ele>201</ele>
        <time>2018-10-09T13:59:01Z</time>
      </trkpt>
      <trkpt lat="45.90104" lon="4.71525">
        <ele>201</ele>
        <time>2018-10-09T13:59:03Z</time>
      </trkpt>
      <trkpt lat="45.90099" lon="4.71525">
        <ele>201</ele>
        <time>2018-10-09T13:59:04Z</time>
      </trkpt>
      <trkpt lat="45.9009" lon="4.71524">
        <ele>201</ele>
        <time>2018-10-09T13:59:06Z</time>
      </trkpt>
      <trkpt lat="45.90083" lon="4.71527">
        <ele>201</ele>
        <time>2018-10-09T13:59:07Z</time>
      </trkpt>
      <trkpt lat="45.90078" lon="4.71527">
        <ele>199</ele>
        <time>2018-10-09T13:59:08Z</time>
      </trkpt>
      <trkpt lat="45.90072" lon="4.71528">
        <ele>198</ele>
        <time>2018-10-09T13:59:09Z</time>
      </trkpt>
      <trkpt lat="45.90066" lon="4.71528">
        <ele>198</ele>
        <time>2018-10-09T13:59:10Z</time>
      </trkpt>
      <trkpt lat="45.9006" lon="4.71529">
        <ele>198</ele>
        <time>2018-10-09T13:59:11Z</time>
      </trkpt>
      <trkpt lat="45.90054" lon="4.71529">
        <ele>198</ele>
        <time>2018-10-09T13:59:12Z</time>
      </trkpt>
      <trkpt lat="45.90047" lon="4.71529">
        <ele>198</ele>
        <time>2018-10-09T13:59:13Z</time>
      </trkpt>
      <trkpt lat="45.9004" lon="4.71527">
        <ele>197</ele>
        <time>2018-10-09T13:59:14Z</time>
      </trkpt>
      <trkpt lat="45.90032" lon="4.71528">
        <ele>197</ele>
        <time>2018-10-09T13:59:15Z</time>
      </trkpt>
      <trkpt lat="45.90024" lon="4.71527">
        <ele>197</ele>
        <time>2018-10-09T13:59:16Z</time>
      </trkpt>
      <trkpt lat="45.90017" lon="4.71528">
        <ele>197</ele>
        <time>2018-10-09T13:59:17Z</time>
      </trkpt>
      <trkpt lat="45.90009" lon="4.71529">
        <ele>196</ele>
        <time>2018-10-09T13:59:18Z</time>
      </trkpt>
      <trkpt lat="45.9" lon="4.71529">
        <ele>196</ele>
        <time>2018-10-09T13:59:19Z</time>
      </trkpt>
      <trkpt lat="45.89991" lon="4.71529">
        <ele>194</ele>
        <time>2018-10-09T13:59:20Z</time>
      </trkpt>
      <trkpt lat="45.89982" lon="4.71529">
        <ele>194</ele>
        <time>2018-10-09T13:59:21Z</time>
      </trkpt>
      <trkpt lat="45.89973" lon="4.71531">
        <ele>194</ele>
        <time>2018-10-09T13:59:22Z</time>
      </trkpt>
      <trkpt lat="45.89964" lon="4.71531">
        <ele>194</ele>
        <time>2018-10-09T13:59:23Z</time>
      </trkpt>
      <trkpt lat="45.89955" lon="4.71531">
        <ele>194</ele>
        <time>2018-10-09T13:59:24Z</time>
      </trkpt>
      <trkpt lat="45.89945" lon="4.71534">
        <ele>193</ele>
        <time>2018-10-09T13:59:25Z</time>
      </trkpt>
      <trkpt lat="45.89935" lon="4.71535">
        <ele>193</ele>
        <time>2018-10-09T13:59:26Z</time>
      </trkpt>
      <trkpt lat="45.89926" lon="4.71536">
        <ele>193</ele>
        <time>2018-10-09T13:59:27Z</time>
      </trkpt>
      <trkpt lat="45.89918" lon="4.71537">
        <ele>193</ele>
        <time>2018-10-09T13:59:28Z</time>
      </trkpt>
      <trkpt lat="45.89909" lon="4.71538">
        <ele>193</ele>
        <time>2018-10-09T13:59:29Z</time>
      </trkpt>
      <trkpt lat="45.89899" lon="4.7154">
        <ele>193</ele>
        <time>2018-10-09T13:59:30Z</time>
      </trkpt>
      <trkpt lat="45.8989" lon="4.71543">
        <ele>192</ele>
        <time>2018-10-09T13:59:31Z</time>
      </trkpt>
      <trkpt lat="45.89881" lon="4.71545">
        <ele>192</ele>
        <time>2018-10-09T13:59:32Z</time>
      </trkpt>
      <trkpt lat="45.89873" lon="4.71545">
        <ele>192</ele>
        <time>2018-10-09T13:59:33Z</time>
      </trkpt>
      <trkpt lat="45.89864" lon="4.71546">
        <ele>192</ele>
        <time>2018-10-09T13:59:34Z</time>
      </trkpt>
      <trkpt lat="45.89856" lon="4.71546">
        <ele>192</ele>
        <time>2018-10-09T13:59:35Z</time>
      </trkpt>
      <trkpt lat="45.89849" lon="4.71545">
        <ele>192</ele>
        <time>2018-10-09T13:59:36Z</time>
      </trkpt>
      <trkpt lat="45.89842" lon="4.71545">
        <ele>192</ele>
        <time>2018-10-09T13:59:37Z</time>
      </trkpt>
      <trkpt lat="45.89836" lon="4.71545">
        <ele>192</ele>
        <time>2018-10-09T13:59:38Z</time>
      </trkpt>
      <trkpt lat="45.8983" lon="4.71544">
        <ele>192</ele>
        <time>2018-10-09T13:59:39Z</time>
      </trkpt>
      <trkpt lat="45.89825" lon="4.71543">
        <ele>192</ele>
        <time>2018-10-09T13:59:40Z</time>
      </trkpt>
      <trkpt lat="45.8982" lon="4.71542">
        <ele>192</ele>
        <time>2018-10-09T13:59:41Z</time>
      </trkpt>
      <trkpt lat="45.89812" lon="4.71539">
        <ele>192</ele>
        <time>2018-10-09T13:59:43Z</time>
      </trkpt>
      <trkpt lat="45.89809" lon="4.71537">
        <ele>192</ele>
        <time>2018-10-09T13:59:44Z</time>
      </trkpt>
      <trkpt lat="45.898" lon="4.71535">
        <ele>192</ele>
        <time>2018-10-09T13:59:46Z</time>
      </trkpt>
      <trkpt lat="45.89796" lon="4.71534">
        <ele>192</ele>
        <time>2018-10-09T13:59:47Z</time>
      </trkpt>
      <trkpt lat="45.89789" lon="4.71536">
        <ele>192</ele>
        <time>2018-10-09T13:59:49Z</time>
      </trkpt>
      <trkpt lat="45.89785" lon="4.71535">
        <ele>192</ele>
        <time>2018-10-09T13:59:50Z</time>
      </trkpt>
      <trkpt lat="45.89776" lon="4.71536">
        <ele>192</ele>
        <time>2018-10-09T13:59:52Z</time>
      </trkpt>
      <trkpt lat="45.89772" lon="4.71536">
        <ele>192</ele>
        <time>2018-10-09T13:59:53Z</time>
      </trkpt>
      <trkpt lat="45.89765" lon="4.71537">
        <ele>192</ele>
        <time>2018-10-09T13:59:55Z</time>
      </trkpt>
      <trkpt lat="45.89761" lon="4.71538">
        <ele>192</ele>
        <time>2018-10-09T13:59:56Z</time>
      </trkpt>
      <trkpt lat="45.89753" lon="4.7154">
        <ele>192</ele>
        <time>2018-10-09T13:59:58Z</time>
      </trkpt>
      <trkpt lat="45.89748" lon="4.71541">
        <ele>192</ele>
        <time>2018-10-09T13:59:59Z</time>
      </trkpt>
      <trkpt lat="45.89739" lon="4.71541">
        <ele>192</ele>
        <time>2018-10-09T14:00:01Z</time>
      </trkpt>
      <trkpt lat="45.89735" lon="4.71542">
        <ele>192</ele>
        <time>2018-10-09T14:00:02Z</time>
      </trkpt>
      <trkpt lat="45.89728" lon="4.71541">
        <ele>192</ele>
        <time>2018-10-09T14:00:05Z</time>
      </trkpt>
      <trkpt lat="45.89726" lon="4.71541">
        <ele>192</ele>
        <time>2018-10-09T14:00:06Z</time>
      </trkpt>
      <trkpt lat="45.89722" lon="4.71541">
        <ele>192</ele>
        <time>2018-10-09T14:00:07Z</time>
      </trkpt>
      <trkpt lat="45.89716" lon="4.71542">
        <ele>192</ele>
        <time>2018-10-09T14:00:08Z</time>
      </trkpt>
      <trkpt lat="45.89707" lon="4.71543">
        <ele>192</ele>
        <time>2018-10-09T14:00:11Z</time>
      </trkpt>
      <trkpt lat="45.89704" lon="4.71543">
        <ele>193</ele>
        <time>2018-10-09T14:00:12Z</time>
      </trkpt>
      <trkpt lat="45.89695" lon="4.71543">
        <ele>193</ele>
        <time>2018-10-09T14:00:15Z</time>
      </trkpt>
      <trkpt lat="45.89692" lon="4.71542">
        <ele>193</ele>
        <time>2018-10-09T14:00:16Z</time>
      </trkpt>
      <trkpt lat="45.89685" lon="4.7154">
        <ele>193</ele>
        <time>2018-10-09T14:00:17Z</time>
      </trkpt>
      <trkpt lat="45.89681" lon="4.71539">
        <ele>193</ele>
        <time>2018-10-09T14:00:18Z</time>
      </trkpt>
      <trkpt lat="45.89673" lon="4.7154">
        <ele>193</ele>
        <time>2018-10-09T14:00:21Z</time>
      </trkpt>
      <trkpt lat="45.8967" lon="4.7154">
        <ele>193</ele>
        <time>2018-10-09T14:00:22Z</time>
      </trkpt>
      <trkpt lat="45.89662" lon="4.71542">
        <ele>193</ele>
        <time>2018-10-09T14:00:25Z</time>
      </trkpt>
      <trkpt lat="45.89654" lon="4.71545">
        <ele>193</ele>
        <time>2018-10-09T14:00:26Z</time>
      </trkpt>
      <trkpt lat="45.89646" lon="4.7155">
        <ele>193</ele>
        <time>2018-10-09T14:00:28Z</time>
      </trkpt>
      <trkpt lat="45.89644" lon="4.71552">
        <ele>193</ele>
        <time>2018-10-09T14:00:29Z</time>
      </trkpt>
      <trkpt lat="45.89639" lon="4.71559">
        <ele>193</ele>
        <time>2018-10-09T14:00:32Z</time>
      </trkpt>
      <trkpt lat="45.89638" lon="4.71564">
        <ele>193</ele>
        <time>2018-10-09T14:00:33Z</time>
      </trkpt>
      <trkpt lat="45.89637" lon="4.71569">
        <ele>193</ele>
        <time>2018-10-09T14:00:34Z</time>
      </trkpt>
      <trkpt lat="45.89637" lon="4.71578">
        <ele>193</ele>
        <time>2018-10-09T14:00:35Z</time>
      </trkpt>
      <trkpt lat="45.89639" lon="4.7159">
        <ele>191</ele>
        <time>2018-10-09T14:00:37Z</time>
      </trkpt>
      <trkpt lat="45.89642" lon="4.71598">
        <ele>191</ele>
        <time>2018-10-09T14:00:38Z</time>
      </trkpt>
      <trkpt lat="45.89643" lon="4.71604">
        <ele>191</ele>
        <time>2018-10-09T14:00:39Z</time>
      </trkpt>
      <trkpt lat="45.89643" lon="4.7161">
        <ele>190</ele>
        <time>2018-10-09T14:00:40Z</time>
      </trkpt>
      <trkpt lat="45.89644" lon="4.71617">
        <ele>190</ele>
        <time>2018-10-09T14:00:41Z</time>
      </trkpt>
      <trkpt lat="45.89644" lon="4.71623">
        <ele>190</ele>
        <time>2018-10-09T14:00:42Z</time>
      </trkpt>
      <trkpt lat="45.89646" lon="4.71631">
        <ele>190</ele>
        <time>2018-10-09T14:00:43Z</time>
      </trkpt>
      <trkpt lat="45.89647" lon="4.71638">
        <ele>189</ele>
        <time>2018-10-09T14:00:44Z</time>
      </trkpt>
      <trkpt lat="45.89649" lon="4.71647">
        <ele>189</ele>
        <time>2018-10-09T14:00:45Z</time>
      </trkpt>
      <trkpt lat="45.8965" lon="4.71656">
        <ele>189</ele>
        <time>2018-10-09T14:00:46Z</time>
      </trkpt>
      <trkpt lat="45.89652" lon="4.71665">
        <ele>188</ele>
        <time>2018-10-09T14:00:47Z</time>
      </trkpt>
      <trkpt lat="45.89652" lon="4.71675">
        <ele>186</ele>
        <time>2018-10-09T14:00:48Z</time>
      </trkpt>
      <trkpt lat="45.89652" lon="4.71684">
        <ele>186</ele>
        <time>2018-10-09T14:00:49Z</time>
      </trkpt>
      <trkpt lat="45.89654" lon="4.71695">
        <ele>186</ele>
        <time>2018-10-09T14:00:50Z</time>
      </trkpt>
      <trkpt lat="45.89655" lon="4.71705">
        <ele>185</ele>
        <time>2018-10-09T14:00:51Z</time>
      </trkpt>
      <trkpt lat="45.89657" lon="4.71716">
        <ele>185</ele>
        <time>2018-10-09T14:00:52Z</time>
      </trkpt>
      <trkpt lat="45.89659" lon="4.71726">
        <ele>185</ele>
        <time>2018-10-09T14:00:53Z</time>
      </trkpt>
      <trkpt lat="45.8966" lon="4.71735">
        <ele>184</ele>
        <time>2018-10-09T14:00:54Z</time>
      </trkpt>
      <trkpt lat="45.89661" lon="4.71744">
        <ele>184</ele>
        <time>2018-10-09T14:00:55Z</time>
      </trkpt>
      <trkpt lat="45.89662" lon="4.71753">
        <ele>183</ele>
        <time>2018-10-09T14:00:56Z</time>
      </trkpt>
      <trkpt lat="45.89663" lon="4.71762">
        <ele>183</ele>
        <time>2018-10-09T14:00:57Z</time>
      </trkpt>
      <trkpt lat="45.89664" lon="4.71771">
        <ele>182</ele>
        <time>2018-10-09T14:00:58Z</time>
      </trkpt>
      <trkpt lat="45.89665" lon="4.71782">
        <ele>182</ele>
        <time>2018-10-09T14:00:59Z</time>
      </trkpt>
      <trkpt lat="45.89666" lon="4.71791">
        <ele>182</ele>
        <time>2018-10-09T14:01:00Z</time>
      </trkpt>
      <trkpt lat="45.89667" lon="4.71801">
        <ele>182</ele>
        <time>2018-10-09T14:01:01Z</time>
      </trkpt>
      <trkpt lat="45.89667" lon="4.7181">
        <ele>182</ele>
        <time>2018-10-09T14:01:02Z</time>
      </trkpt>
      <trkpt lat="45.89667" lon="4.7182">
        <ele>182</ele>
        <time>2018-10-09T14:01:03Z</time>
      </trkpt>
      <trkpt lat="45.89667" lon="4.71829">
        <ele>181</ele>
        <time>2018-10-09T14:01:04Z</time>
      </trkpt>
      <trkpt lat="45.89668" lon="4.71838">
        <ele>181</ele>
        <time>2018-10-09T14:01:05Z</time>
      </trkpt>
      <trkpt lat="45.89668" lon="4.71848">
        <ele>181</ele>
        <time>2018-10-09T14:01:06Z</time>
      </trkpt>
      <trkpt lat="45.89669" lon="4.71856">
        <ele>181</ele>
        <time>2018-10-09T14:01:07Z</time>
      </trkpt>
      <trkpt lat="45.89669" lon="4.71865">
        <ele>181</ele>
        <time>2018-10-09T14:01:08Z</time>
      </trkpt>
      <trkpt lat="45.89669" lon="4.71874">
        <ele>181</ele>
        <time>2018-10-09T14:01:09Z</time>
      </trkpt>
      <trkpt lat="45.89669" lon="4.71883">
        <ele>181</ele>
        <time>2018-10-09T14:01:10Z</time>
      </trkpt>
      <trkpt lat="45.89669" lon="4.71891">
        <ele>181</ele>
        <time>2018-10-09T14:01:11Z</time>
      </trkpt>
      <trkpt lat="45.89669" lon="4.71899">
        <ele>181</ele>
        <time>2018-10-09T14:01:12Z</time>
      </trkpt>
      <trkpt lat="45.89668" lon="4.71907">
        <ele>181</ele>
        <time>2018-10-09T14:01:13Z</time>
      </trkpt>
      <trkpt lat="45.89667" lon="4.71914">
        <ele>181</ele>
        <time>2018-10-09T14:01:14Z</time>
      </trkpt>
      <trkpt lat="45.89666" lon="4.71921">
        <ele>181</ele>
        <time>2018-10-09T14:01:15Z</time>
      </trkpt>
      <trkpt lat="45.89666" lon="4.71929">
        <ele>181</ele>
        <time>2018-10-09T14:01:16Z</time>
      </trkpt>
      <trkpt lat="45.89665" lon="4.71935">
        <ele>181</ele>
        <time>2018-10-09T14:01:17Z</time>
      </trkpt>
      <trkpt lat="45.89663" lon="4.71942">
        <ele>181</ele>
        <time>2018-10-09T14:01:18Z</time>
      </trkpt>
      <trkpt lat="45.89663" lon="4.71953">
        <ele>181</ele>
        <time>2018-10-09T14:01:20Z</time>
      </trkpt>
      <trkpt lat="45.89662" lon="4.71959">
        <ele>181</ele>
        <time>2018-10-09T14:01:21Z</time>
      </trkpt>
      <trkpt lat="45.89663" lon="4.7197">
        <ele>181</ele>
        <time>2018-10-09T14:01:23Z</time>
      </trkpt>
      <trkpt lat="45.89663" lon="4.71976">
        <ele>181</ele>
        <time>2018-10-09T14:01:24Z</time>
      </trkpt>
      <trkpt lat="45.89661" lon="4.71988">
        <ele>181</ele>
        <time>2018-10-09T14:01:26Z</time>
      </trkpt>
      <trkpt lat="45.8966" lon="4.71994">
        <ele>181</ele>
        <time>2018-10-09T14:01:27Z</time>
      </trkpt>
      <trkpt lat="45.89662" lon="4.72005">
        <ele>181</ele>
        <time>2018-10-09T14:01:30Z</time>
      </trkpt>
      <trkpt lat="45.89662" lon="4.72014">
        <ele>181</ele>
        <time>2018-10-09T14:01:31Z</time>
      </trkpt>
      <trkpt lat="45.89662" lon="4.72025">
        <ele>180</ele>
        <time>2018-10-09T14:01:33Z</time>
      </trkpt>
      <trkpt lat="45.89662" lon="4.72031">
        <ele>180</ele>
        <time>2018-10-09T14:01:34Z</time>
      </trkpt>
      <trkpt lat="45.89661" lon="4.7204">
        <ele>180</ele>
        <time>2018-10-09T14:01:37Z</time>
      </trkpt>
      <trkpt lat="45.89661" lon="4.72044">
        <ele>180</ele>
        <time>2018-10-09T14:01:38Z</time>
      </trkpt>
      <trkpt lat="45.89661" lon="4.72052">
        <ele>180</ele>
        <time>2018-10-09T14:01:40Z</time>
      </trkpt>
      <trkpt lat="45.89662" lon="4.72063">
        <ele>180</ele>
        <time>2018-10-09T14:01:41Z</time>
      </trkpt>
      <trkpt lat="45.89662" lon="4.72074">
        <ele>180</ele>
        <time>2018-10-09T14:01:43Z</time>
      </trkpt>
      <trkpt lat="45.89663" lon="4.72077">
        <ele>180</ele>
        <time>2018-10-09T14:01:44Z</time>
      </trkpt>
      <trkpt lat="45.89664" lon="4.72089">
        <ele>180</ele>
        <time>2018-10-09T14:01:47Z</time>
      </trkpt>
      <trkpt lat="45.89664" lon="4.72093">
        <ele>180</ele>
        <time>2018-10-09T14:01:48Z</time>
      </trkpt>
      <trkpt lat="45.89664" lon="4.72104">
        <ele>180</ele>
        <time>2018-10-09T14:01:49Z</time>
      </trkpt>
      <trkpt lat="45.89664" lon="4.72109">
        <ele>179</ele>
        <time>2018-10-09T14:01:50Z</time>
      </trkpt>
      <trkpt lat="45.89663" lon="4.72121">
        <ele>179</ele>
        <time>2018-10-09T14:01:52Z</time>
      </trkpt>
      <trkpt lat="45.89663" lon="4.72128">
        <ele>179</ele>
        <time>2018-10-09T14:01:53Z</time>
      </trkpt>
      <trkpt lat="45.89663" lon="4.72139">
        <ele>179</ele>
        <time>2018-10-09T14:01:55Z</time>
      </trkpt>
      <trkpt lat="45.89663" lon="4.72145">
        <ele>179</ele>
        <time>2018-10-09T14:01:56Z</time>
      </trkpt>
      <trkpt lat="45.89663" lon="4.72155">
        <ele>179</ele>
        <time>2018-10-09T14:01:59Z</time>
      </trkpt>
      <trkpt lat="45.89662" lon="4.72159">
        <ele>179</ele>
        <time>2018-10-09T14:02:00Z</time>
      </trkpt>
      <trkpt lat="45.89662" lon="4.72169">
        <ele>179</ele>
        <time>2018-10-09T14:02:01Z</time>
      </trkpt>
      <trkpt lat="45.89662" lon="4.72175">
        <ele>179</ele>
        <time>2018-10-09T14:02:02Z</time>
      </trkpt>
      <trkpt lat="45.89662" lon="4.72186">
        <ele>179</ele>
        <time>2018-10-09T14:02:04Z</time>
      </trkpt>
      <trkpt lat="45.89662" lon="4.72192">
        <ele>179</ele>
        <time>2018-10-09T14:02:05Z</time>
      </trkpt>
      <trkpt lat="45.89662" lon="4.72204">
        <ele>179</ele>
        <time>2018-10-09T14:02:08Z</time>
      </trkpt>
      <trkpt lat="45.89662" lon="4.72208">
        <ele>179</ele>
        <time>2018-10-09T14:02:09Z</time>
      </trkpt>
      <trkpt lat="45.89662" lon="4.72217">
        <ele>179</ele>
        <time>2018-10-09T14:02:10Z</time>
      </trkpt>
      <trkpt lat="45.89662" lon="4.72222">
        <ele>179</ele>
        <time>2018-10-09T14:02:11Z</time>
      </trkpt>
      <trkpt lat="45.89662" lon="4.72233">
        <ele>179</ele>
        <time>2018-10-09T14:02:13Z</time>
      </trkpt>
      <trkpt lat="45.89662" lon="4.72236">
        <ele>179</ele>
        <time>2018-10-09T14:02:14Z</time>
      </trkpt>
      <trkpt lat="45.89662" lon="4.72246">
        <ele>179</ele>
        <time>2018-10-09T14:02:17Z</time>
      </trkpt>
      <trkpt lat="45.89662" lon="4.7225">
        <ele>179</ele>
        <time>2018-10-09T14:02:18Z</time>
      </trkpt>
      <trkpt lat="45.89661" lon="4.72262">
        <ele>179</ele>
        <time>2018-10-09T14:02:21Z</time>
      </trkpt>
      <trkpt lat="45.8966" lon="4.72266">
        <ele>179</ele>
        <time>2018-10-09T14:02:22Z</time>
      </trkpt>
      <trkpt lat="45.89659" lon="4.7227">
        <ele>179</ele>
        <time>2018-10-09T14:02:23Z</time>
      </trkpt>
      <trkpt lat="45.89654" lon="4.72277">
        <ele>179</ele>
        <time>2018-10-09T14:02:24Z</time>
      </trkpt>
      <trkpt lat="45.89646" lon="4.7228">
        <ele>179</ele>
        <time>2018-10-09T14:02:26Z</time>
      </trkpt>
      <trkpt lat="45.89642" lon="4.7228">
        <ele>179</ele>
        <time>2018-10-09T14:02:27Z</time>
      </trkpt>
      <trkpt lat="45.89634" lon="4.7228">
        <ele>179</ele>
        <time>2018-10-09T14:02:30Z</time>
      </trkpt>
      <trkpt lat="45.89632" lon="4.7228">
        <ele>179</ele>
        <time>2018-10-09T14:02:31Z</time>
      </trkpt>
      <trkpt lat="45.89623" lon="4.72279">
        <ele>179</ele>
        <time>2018-10-09T14:02:34Z</time>
      </trkpt>
      <trkpt lat="45.8962" lon="4.72279">
        <ele>179</ele>
        <time>2018-10-09T14:02:35Z</time>
      </trkpt>
      <trkpt lat="45.89612" lon="4.72279">
        <ele>179</ele>
        <time>2018-10-09T14:02:36Z</time>
      </trkpt>
      <trkpt lat="45.89608" lon="4.72279">
        <ele>179</ele>
        <time>2018-10-09T14:02:37Z</time>
      </trkpt>
      <trkpt lat="45.896" lon="4.7228">
        <ele>179</ele>
        <time>2018-10-09T14:02:40Z</time>
      </trkpt>
      <trkpt lat="45.89597" lon="4.7228">
        <ele>179</ele>
        <time>2018-10-09T14:02:41Z</time>
      </trkpt>
      <trkpt lat="45.89592" lon="4.7228">
        <ele>179</ele>
        <time>2018-10-09T14:02:43Z</time>
      </trkpt>
      <trkpt lat="45.89585" lon="4.7228">
        <ele>179</ele>
        <time>2018-10-09T14:02:44Z</time>
      </trkpt>
      <trkpt lat="45.89577" lon="4.7228">
        <ele>179</ele>
        <time>2018-10-09T14:02:46Z</time>
      </trkpt>
      <trkpt lat="45.89572" lon="4.7228">
        <ele>179</ele>
        <time>2018-10-09T14:02:47Z</time>
      </trkpt>
      <trkpt lat="45.89565" lon="4.7228">
        <ele>179</ele>
        <time>2018-10-09T14:02:49Z</time>
      </trkpt>
      <trkpt lat="45.89562" lon="4.7228">
        <ele>179</ele>
        <time>2018-10-09T14:02:50Z</time>
      </trkpt>
      <trkpt lat="45.89555" lon="4.72279">
        <ele>179</ele>
        <time>2018-10-09T14:02:53Z</time>
      </trkpt>
      <trkpt lat="45.89553" lon="4.72278">
        <ele>179</ele>
        <time>2018-10-09T14:02:54Z</time>
      </trkpt>
      <trkpt lat="45.89544" lon="4.72278">
        <ele>179</ele>
        <time>2018-10-09T14:02:57Z</time>
      </trkpt>
      <trkpt lat="45.89541" lon="4.72278">
        <ele>179</ele>
        <time>2018-10-09T14:02:58Z</time>
      </trkpt>
      <trkpt lat="45.89533" lon="4.7228">
        <ele>179</ele>
        <time>2018-10-09T14:02:59Z</time>
      </trkpt>
      <trkpt lat="45.89529" lon="4.72279">
        <ele>179</ele>
        <time>2018-10-09T14:03:00Z</time>
      </trkpt>
      <trkpt lat="45.89522" lon="4.72278">
        <ele>179</ele>
        <time>2018-10-09T14:03:03Z</time>
      </trkpt>
      <trkpt lat="45.89519" lon="4.72278">
        <ele>179</ele>
        <time>2018-10-09T14:03:04Z</time>
      </trkpt>
      <trkpt lat="45.89517" lon="4.72278">
        <ele>179</ele>
        <time>2018-10-09T14:03:05Z</time>
      </trkpt>
      <trkpt lat="45.89509" lon="4.72279">
        <ele>179</ele>
        <time>2018-10-09T14:03:06Z</time>
      </trkpt>
      <trkpt lat="45.89502" lon="4.72279">
        <ele>179</ele>
        <time>2018-10-09T14:03:08Z</time>
      </trkpt>
      <trkpt lat="45.89498" lon="4.72279">
        <ele>179</ele>
        <time>2018-10-09T14:03:09Z</time>
      </trkpt>
      <trkpt lat="45.8949" lon="4.7228">
        <ele>179</ele>
        <time>2018-10-09T14:03:12Z</time>
      </trkpt>
      <trkpt lat="45.89487" lon="4.72281">
        <ele>179</ele>
        <time>2018-10-09T14:03:13Z</time>
      </trkpt>
      <trkpt lat="45.8948" lon="4.72283">
        <ele>179</ele>
        <time>2018-10-09T14:03:16Z</time>
      </trkpt>
      <trkpt lat="45.89477" lon="4.72283">
        <ele>179</ele>
        <time>2018-10-09T14:03:17Z</time>
      </trkpt>
      <trkpt lat="45.89475" lon="4.72284">
        <ele>179</ele>
        <time>2018-10-09T14:03:18Z</time>
      </trkpt>
      <trkpt lat="45.89468" lon="4.72285">
        <ele>179</ele>
        <time>2018-10-09T14:03:19Z</time>
      </trkpt>
      <trkpt lat="45.8946" lon="4.72287">
        <ele>179</ele>
        <time>2018-10-09T14:03:21Z</time>
      </trkpt>
      <trkpt lat="45.89456" lon="4.72288">
        <ele>179</ele>
        <time>2018-10-09T14:03:22Z</time>
      </trkpt>
      <trkpt lat="45.89448" lon="4.72289">
        <ele>179</ele>
        <time>2018-10-09T14:03:24Z</time>
      </trkpt>
      <trkpt lat="45.89445" lon="4.72289">
        <ele>179</ele>
        <time>2018-10-09T14:03:25Z</time>
      </trkpt>
      <trkpt lat="45.89437" lon="4.7229">
        <ele>179</ele>
        <time>2018-10-09T14:03:28Z</time>
      </trkpt>
      <trkpt lat="45.89434" lon="4.72291">
        <ele>179</ele>
        <time>2018-10-09T14:03:29Z</time>
      </trkpt>
      <trkpt lat="45.89431" lon="4.72292">
        <ele>179</ele>
        <time>2018-10-09T14:03:30Z</time>
      </trkpt>
      <trkpt lat="45.89424" lon="4.72293">
        <ele>180</ele>
        <time>2018-10-09T14:03:31Z</time>
      </trkpt>
      <trkpt lat="45.89416" lon="4.72294">
        <ele>180</ele>
        <time>2018-10-09T14:03:33Z</time>
      </trkpt>
      <trkpt lat="45.89412" lon="4.72294">
        <ele>180</ele>
        <time>2018-10-09T14:03:34Z</time>
      </trkpt>
      <trkpt lat="45.89405" lon="4.72293">
        <ele>180</ele>
        <time>2018-10-09T14:03:37Z</time>
      </trkpt>
      <trkpt lat="45.89402" lon="4.72293">
        <ele>180</ele>
        <time>2018-10-09T14:03:38Z</time>
      </trkpt>
      <trkpt lat="45.89395" lon="4.72294">
        <ele>180</ele>
        <time>2018-10-09T14:03:41Z</time>
      </trkpt>
      <trkpt lat="45.89393" lon="4.72294">
        <ele>180</ele>
        <time>2018-10-09T14:03:42Z</time>
      </trkpt>
      <trkpt lat="45.8939" lon="4.72294">
        <ele>180</ele>
        <time>2018-10-09T14:03:43Z</time>
      </trkpt>
      <trkpt lat="45.89383" lon="4.72296">
        <ele>180</ele>
        <time>2018-10-09T14:03:44Z</time>
      </trkpt>
      <trkpt lat="45.89377" lon="4.72299">
        <ele>181</ele>
        <time>2018-10-09T14:03:46Z</time>
      </trkpt>
      <trkpt lat="45.89372" lon="4.723">
        <ele>181</ele>
        <time>2018-10-09T14:03:47Z</time>
      </trkpt>
      <trkpt lat="45.89363" lon="4.72301">
        <ele>181</ele>
        <time>2018-10-09T14:03:49Z</time>
      </trkpt>
      <trkpt lat="45.89359" lon="4.72302">
        <ele>181</ele>
        <time>2018-10-09T14:03:50Z</time>
      </trkpt>
      <trkpt lat="45.89351" lon="4.72303">
        <ele>181</ele>
        <time>2018-10-09T14:03:53Z</time>
      </trkpt>
      <trkpt lat="45.89348" lon="4.72303">
        <ele>181</ele>
        <time>2018-10-09T14:03:54Z</time>
      </trkpt>
      <trkpt lat="45.89345" lon="4.72303">
        <ele>181</ele>
        <time>2018-10-09T14:03:55Z</time>
      </trkpt>
      <trkpt lat="45.89338" lon="4.72303">
        <ele>181</ele>
        <time>2018-10-09T14:03:56Z</time>
      </trkpt>
      <trkpt lat="45.8933" lon="4.72304">
        <ele>181</ele>
        <time>2018-10-09T14:03:58Z</time>
      </trkpt>
      <trkpt lat="45.89326" lon="4.72304">
        <ele>181</ele>
        <time>2018-10-09T14:03:59Z</time>
      </trkpt>
      <trkpt lat="45.89317" lon="4.72305">
        <ele>181</ele>
        <time>2018-10-09T14:04:02Z</time>
      </trkpt>
      <trkpt lat="45.89314" lon="4.72305">
        <ele>181</ele>
        <time>2018-10-09T14:04:03Z</time>
      </trkpt>
      <trkpt lat="45.89309" lon="4.72305">
        <ele>181</ele>
        <time>2018-10-09T14:04:05Z</time>
      </trkpt>
      <trkpt lat="45.89302" lon="4.72303">
        <ele>181</ele>
        <time>2018-10-09T14:04:06Z</time>
      </trkpt>
      <trkpt lat="45.89295" lon="4.723">
        <ele>181</ele>
        <time>2018-10-09T14:04:08Z</time>
      </trkpt>
      <trkpt lat="45.89291" lon="4.72298">
        <ele>181</ele>
        <time>2018-10-09T14:04:09Z</time>
      </trkpt>
      <trkpt lat="45.89284" lon="4.72294">
        <ele>181</ele>
        <time>2018-10-09T14:04:11Z</time>
      </trkpt>
      <trkpt lat="45.89282" lon="4.72293">
        <ele>181</ele>
        <time>2018-10-09T14:04:12Z</time>
      </trkpt>
      <trkpt lat="45.89274" lon="4.7229">
        <ele>181</ele>
        <time>2018-10-09T14:04:15Z</time>
      </trkpt>
      <trkpt lat="45.89272" lon="4.72289">
        <ele>181</ele>
        <time>2018-10-09T14:04:16Z</time>
      </trkpt>
      <trkpt lat="45.89269" lon="4.72287">
        <ele>181</ele>
        <time>2018-10-09T14:04:17Z</time>
      </trkpt>
      <trkpt lat="45.89263" lon="4.72284">
        <ele>181</ele>
        <time>2018-10-09T14:04:18Z</time>
      </trkpt>
      <trkpt lat="45.89256" lon="4.7228">
        <ele>181</ele>
        <time>2018-10-09T14:04:21Z</time>
      </trkpt>
      <trkpt lat="45.89254" lon="4.72279">
        <ele>181</ele>
        <time>2018-10-09T14:04:22Z</time>
      </trkpt>
      <trkpt lat="45.89248" lon="4.72277">
        <ele>181</ele>
        <time>2018-10-09T14:04:24Z</time>
      </trkpt>
      <trkpt lat="45.89245" lon="4.72276">
        <ele>181</ele>
        <time>2018-10-09T14:04:25Z</time>
      </trkpt>
      <trkpt lat="45.89237" lon="4.72271">
        <ele>181</ele>
        <time>2018-10-09T14:04:28Z</time>
      </trkpt>
      <trkpt lat="45.89234" lon="4.7227">
        <ele>181</ele>
        <time>2018-10-09T14:04:29Z</time>
      </trkpt>
      <trkpt lat="45.89227" lon="4.72266">
        <ele>181</ele>
        <time>2018-10-09T14:04:32Z</time>
      </trkpt>
      <trkpt lat="45.89224" lon="4.72264">
        <ele>181</ele>
        <time>2018-10-09T14:04:33Z</time>
      </trkpt>
      <trkpt lat="45.89219" lon="4.72261">
        <ele>181</ele>
        <time>2018-10-09T14:04:35Z</time>
      </trkpt>
      <trkpt lat="45.89211" lon="4.72258">
        <ele>181</ele>
        <time>2018-10-09T14:04:36Z</time>
      </trkpt>
      <trkpt lat="45.89204" lon="4.72257">
        <ele>181</ele>
        <time>2018-10-09T14:04:38Z</time>
      </trkpt>
      <trkpt lat="45.89202" lon="4.72256">
        <ele>181</ele>
        <time>2018-10-09T14:04:39Z</time>
      </trkpt>
      <trkpt lat="45.89193" lon="4.72252">
        <ele>181</ele>
        <time>2018-10-09T14:04:42Z</time>
      </trkpt>
      <trkpt lat="45.8919" lon="4.72251">
        <ele>180</ele>
        <time>2018-10-09T14:04:43Z</time>
      </trkpt>
      <trkpt lat="45.89185" lon="4.72248">
        <ele>180</ele>
        <time>2018-10-09T14:04:44Z</time>
      </trkpt>
      <trkpt lat="45.89182" lon="4.72246">
        <ele>180</ele>
        <time>2018-10-09T14:04:45Z</time>
      </trkpt>
      <trkpt lat="45.89175" lon="4.72242">
        <ele>180</ele>
        <time>2018-10-09T14:04:47Z</time>
      </trkpt>
      <trkpt lat="45.89171" lon="4.7224">
        <ele>180</ele>
        <time>2018-10-09T14:04:48Z</time>
      </trkpt>
      <trkpt lat="45.89163" lon="4.72236">
        <ele>180</ele>
        <time>2018-10-09T14:04:51Z</time>
      </trkpt>
      <trkpt lat="45.8916" lon="4.72235">
        <ele>180</ele>
        <time>2018-10-09T14:04:52Z</time>
      </trkpt>
      <trkpt lat="45.89154" lon="4.72232">
        <ele>180</ele>
        <time>2018-10-09T14:04:54Z</time>
      </trkpt>
      <trkpt lat="45.89147" lon="4.72229">
        <ele>180</ele>
        <time>2018-10-09T14:04:55Z</time>
      </trkpt>
      <trkpt lat="45.89139" lon="4.72225">
        <ele>180</ele>
        <time>2018-10-09T14:04:57Z</time>
      </trkpt>
      <trkpt lat="45.89135" lon="4.72224">
        <ele>180</ele>
        <time>2018-10-09T14:04:58Z</time>
      </trkpt>
      <trkpt lat="45.89128" lon="4.7222">
        <ele>180</ele>
        <time>2018-10-09T14:05:00Z</time>
      </trkpt>
      <trkpt lat="45.89126" lon="4.72219">
        <ele>180</ele>
        <time>2018-10-09T14:05:01Z</time>
      </trkpt>
      <trkpt lat="45.8912" lon="4.72215">
        <ele>180</ele>
        <time>2018-10-09T14:05:04Z</time>
      </trkpt>
      <trkpt lat="45.89118" lon="4.72214">
        <ele>180</ele>
        <time>2018-10-09T14:05:05Z</time>
      </trkpt>
      <trkpt lat="45.89111" lon="4.7221">
        <ele>180</ele>
        <time>2018-10-09T14:05:08Z</time>
      </trkpt>
      <trkpt lat="45.89105" lon="4.72207">
        <ele>180</ele>
        <time>2018-10-09T14:05:09Z</time>
      </trkpt>
      <trkpt lat="45.89098" lon="4.72203">
        <ele>180</ele>
        <time>2018-10-09T14:05:11Z</time>
      </trkpt>
      <trkpt lat="45.89093" lon="4.72202">
        <ele>180</ele>
        <time>2018-10-09T14:05:12Z</time>
      </trkpt>
      <trkpt lat="45.89086" lon="4.72197">
        <ele>180</ele>
        <time>2018-10-09T14:05:14Z</time>
      </trkpt>
      <trkpt lat="45.89082" lon="4.72196">
        <ele>180</ele>
        <time>2018-10-09T14:05:15Z</time>
      </trkpt>
      <trkpt lat="45.89078" lon="4.72194">
        <ele>180</ele>
        <time>2018-10-09T14:05:17Z</time>
      </trkpt>
      <trkpt lat="45.89073" lon="4.72189">
        <ele>180</ele>
        <time>2018-10-09T14:05:18Z</time>
      </trkpt>
      <trkpt lat="45.89066" lon="4.72183">
        <ele>180</ele>
        <time>2018-10-09T14:05:20Z</time>
      </trkpt>
      <trkpt lat="45.89062" lon="4.7218">
        <ele>180</ele>
        <time>2018-10-09T14:05:21Z</time>
      </trkpt>
      <trkpt lat="45.89055" lon="4.72174">
        <ele>180</ele>
        <time>2018-10-09T14:05:23Z</time>
      </trkpt>
      <trkpt lat="45.89053" lon="4.72173">
        <ele>180</ele>
        <time>2018-10-09T14:05:24Z</time>
      </trkpt>
      <trkpt lat="45.89046" lon="4.72169">
        <ele>180</ele>
        <time>2018-10-09T14:05:27Z</time>
      </trkpt>
      <trkpt lat="45.89045" lon="4.72168">
        <ele>180</ele>
        <time>2018-10-09T14:05:28Z</time>
      </trkpt>
      <trkpt lat="45.89037" lon="4.72165">
        <ele>180</ele>
        <time>2018-10-09T14:05:31Z</time>
      </trkpt>
      <trkpt lat="45.89029" lon="4.72162">
        <ele>180</ele>
        <time>2018-10-09T14:05:32Z</time>
      </trkpt>
      <trkpt lat="45.89021" lon="4.72158">
        <ele>180</ele>
        <time>2018-10-09T14:05:34Z</time>
      </trkpt>
      <trkpt lat="45.89019" lon="4.72157">
        <ele>180</ele>
        <time>2018-10-09T14:05:35Z</time>
      </trkpt>
      <trkpt lat="45.8901" lon="4.72154">
        <ele>180</ele>
        <time>2018-10-09T14:05:37Z</time>
      </trkpt>
      <trkpt lat="45.89006" lon="4.72152">
        <ele>180</ele>
        <time>2018-10-09T14:05:38Z</time>
      </trkpt>
      <trkpt lat="45.89002" lon="4.72151">
        <ele>180</ele>
        <time>2018-10-09T14:05:39Z</time>
      </trkpt>
      <trkpt lat="45.88997" lon="4.72149">
        <ele>180</ele>
        <time>2018-10-09T14:05:40Z</time>
      </trkpt>
      <trkpt lat="45.88992" lon="4.72147">
        <ele>180</ele>
        <time>2018-10-09T14:05:41Z</time>
      </trkpt>
      <trkpt lat="45.88987" lon="4.72145">
        <ele>180</ele>
        <time>2018-10-09T14:05:42Z</time>
      </trkpt>
      <trkpt lat="45.88979" lon="4.72142">
        <ele>180</ele>
        <time>2018-10-09T14:05:44Z</time>
      </trkpt>
      <trkpt lat="45.88974" lon="4.72141">
        <ele>180</ele>
        <time>2018-10-09T14:05:45Z</time>
      </trkpt>
      <trkpt lat="45.88966" lon="4.72139">
        <ele>180</ele>
        <time>2018-10-09T14:05:47Z</time>
      </trkpt>
      <trkpt lat="45.88964" lon="4.72138">
        <ele>180</ele>
        <time>2018-10-09T14:05:48Z</time>
      </trkpt>
      <trkpt lat="45.88957" lon="4.72135">
        <ele>181</ele>
        <time>2018-10-09T14:05:51Z</time>
      </trkpt>
      <trkpt lat="45.88951" lon="4.72132">
        <ele>181</ele>
        <time>2018-10-09T14:05:52Z</time>
      </trkpt>
      <trkpt lat="45.88943" lon="4.7213">
        <ele>181</ele>
        <time>2018-10-09T14:05:54Z</time>
      </trkpt>
      <trkpt lat="45.88939" lon="4.72129">
        <ele>181</ele>
        <time>2018-10-09T14:05:55Z</time>
      </trkpt>
      <trkpt lat="45.88932" lon="4.72127">
        <ele>181</ele>
        <time>2018-10-09T14:05:58Z</time>
      </trkpt>
      <trkpt lat="45.88929" lon="4.72127">
        <ele>181</ele>
        <time>2018-10-09T14:05:59Z</time>
      </trkpt>
      <trkpt lat="45.88922" lon="4.72125">
        <ele>181</ele>
        <time>2018-10-09T14:06:00Z</time>
      </trkpt>
      <trkpt lat="45.88918" lon="4.72124">
        <ele>181</ele>
        <time>2018-10-09T14:06:01Z</time>
      </trkpt>
      <trkpt lat="45.88909" lon="4.72122">
        <ele>181</ele>
        <time>2018-10-09T14:06:03Z</time>
      </trkpt>
      <trkpt lat="45.88905" lon="4.7212">
        <ele>181</ele>
        <time>2018-10-09T14:06:04Z</time>
      </trkpt>
      <trkpt lat="45.88897" lon="4.72117">
        <ele>181</ele>
        <time>2018-10-09T14:06:07Z</time>
      </trkpt>
      <trkpt lat="45.88894" lon="4.72115">
        <ele>181</ele>
        <time>2018-10-09T14:06:08Z</time>
      </trkpt>
      <trkpt lat="45.88886" lon="4.72111">
        <ele>181</ele>
        <time>2018-10-09T14:06:11Z</time>
      </trkpt>
      <trkpt lat="45.88883" lon="4.7211">
        <ele>181</ele>
        <time>2018-10-09T14:06:12Z</time>
      </trkpt>
      <trkpt lat="45.88875" lon="4.72108">
        <ele>181</ele>
        <time>2018-10-09T14:06:13Z</time>
      </trkpt>
      <trkpt lat="45.88872" lon="4.72107">
        <ele>181</ele>
        <time>2018-10-09T14:06:14Z</time>
      </trkpt>
      <trkpt lat="45.88864" lon="4.72105">
        <ele>181</ele>
        <time>2018-10-09T14:06:16Z</time>
      </trkpt>
      <trkpt lat="45.8886" lon="4.72103">
        <ele>181</ele>
        <time>2018-10-09T14:06:17Z</time>
      </trkpt>
      <trkpt lat="45.88851" lon="4.72099">
        <ele>181</ele>
        <time>2018-10-09T14:06:20Z</time>
      </trkpt>
      <trkpt lat="45.88849" lon="4.72098">
        <ele>181</ele>
        <time>2018-10-09T14:06:21Z</time>
      </trkpt>
      <trkpt lat="45.88841" lon="4.72097">
        <ele>181</ele>
        <time>2018-10-09T14:06:24Z</time>
      </trkpt>
      <trkpt lat="45.88838" lon="4.72098">
        <ele>181</ele>
        <time>2018-10-09T14:06:25Z</time>
      </trkpt>
      <trkpt lat="45.88836" lon="4.721">
        <ele>181</ele>
        <time>2018-10-09T14:06:26Z</time>
      </trkpt>
      <trkpt lat="45.88831" lon="4.72106">
        <ele>181</ele>
        <time>2018-10-09T14:06:27Z</time>
      </trkpt>
      <trkpt lat="45.88827" lon="4.72116">
        <ele>181</ele>
        <time>2018-10-09T14:06:29Z</time>
      </trkpt>
      <trkpt lat="45.88825" lon="4.72122">
        <ele>181</ele>
        <time>2018-10-09T14:06:30Z</time>
      </trkpt>
      <trkpt lat="45.88824" lon="4.72133">
        <ele>182</ele>
        <time>2018-10-09T14:06:32Z</time>
      </trkpt>
      <trkpt lat="45.88823" lon="4.72139">
        <ele>182</ele>
        <time>2018-10-09T14:06:33Z</time>
      </trkpt>
      <trkpt lat="45.88822" lon="4.72145">
        <ele>182</ele>
        <time>2018-10-09T14:06:35Z</time>
      </trkpt>
      <trkpt lat="45.88821" lon="4.72154">
        <ele>182</ele>
        <time>2018-10-09T14:06:36Z</time>
      </trkpt>
      <trkpt lat="45.8882" lon="4.72166">
        <ele>182</ele>
        <time>2018-10-09T14:06:38Z</time>
      </trkpt>
      <trkpt lat="45.88819" lon="4.72172">
        <ele>182</ele>
        <time>2018-10-09T14:06:39Z</time>
      </trkpt>
      <trkpt lat="45.88817" lon="4.72183">
        <ele>182</ele>
        <time>2018-10-09T14:06:41Z</time>
      </trkpt>
      <trkpt lat="45.88817" lon="4.72186">
        <ele>182</ele>
        <time>2018-10-09T14:06:42Z</time>
      </trkpt>
      <trkpt lat="45.88816" lon="4.72196">
        <ele>182</ele>
        <time>2018-10-09T14:06:44Z</time>
      </trkpt>
      <trkpt lat="45.88815" lon="4.722">
        <ele>182</ele>
        <time>2018-10-09T14:06:45Z</time>
      </trkpt>
      <trkpt lat="45.88815" lon="4.72204">
        <ele>182</ele>
        <time>2018-10-09T14:06:46Z</time>
      </trkpt>
      <trkpt lat="45.88813" lon="4.72213">
        <ele>182</ele>
        <time>2018-10-09T14:06:47Z</time>
      </trkpt>
      <trkpt lat="45.88811" lon="4.72225">
        <ele>182</ele>
        <time>2018-10-09T14:06:49Z</time>
      </trkpt>
      <trkpt lat="45.8881" lon="4.72232">
        <ele>182</ele>
        <time>2018-10-09T14:06:50Z</time>
      </trkpt>
      <trkpt lat="45.88808" lon="4.72239">
        <ele>182</ele>
        <time>2018-10-09T14:06:51Z</time>
      </trkpt>
      <trkpt lat="45.88807" lon="4.72247">
        <ele>182</ele>
        <time>2018-10-09T14:06:52Z</time>
      </trkpt>
      <trkpt lat="45.88806" lon="4.72253">
        <ele>182</ele>
        <time>2018-10-09T14:06:53Z</time>
      </trkpt>
      <trkpt lat="45.88805" lon="4.72259">
        <ele>182</ele>
        <time>2018-10-09T14:06:54Z</time>
      </trkpt>
      <trkpt lat="45.88804" lon="4.7227">
        <ele>182</ele>
        <time>2018-10-09T14:06:56Z</time>
      </trkpt>
      <trkpt lat="45.88802" lon="4.72275">
        <ele>182</ele>
        <time>2018-10-09T14:06:57Z</time>
      </trkpt>
      <trkpt lat="45.88802" lon="4.72286">
        <ele>182</ele>
        <time>2018-10-09T14:06:59Z</time>
      </trkpt>
      <trkpt lat="45.888" lon="4.72292">
        <ele>182</ele>
        <time>2018-10-09T14:07:00Z</time>
      </trkpt>
      <trkpt lat="45.88798" lon="4.72299">
        <ele>182</ele>
        <time>2018-10-09T14:07:01Z</time>
      </trkpt>
      <trkpt lat="45.88796" lon="4.72305">
        <ele>182</ele>
        <time>2018-10-09T14:07:02Z</time>
      </trkpt>
      <trkpt lat="45.88794" lon="4.72312">
        <ele>182</ele>
        <time>2018-10-09T14:07:03Z</time>
      </trkpt>
      <trkpt lat="45.88791" lon="4.72317">
        <ele>182</ele>
        <time>2018-10-09T14:07:04Z</time>
      </trkpt>
      <trkpt lat="45.88787" lon="4.72327">
        <ele>182</ele>
        <time>2018-10-09T14:07:06Z</time>
      </trkpt>
      <trkpt lat="45.88785" lon="4.72332">
        <ele>182</ele>
        <time>2018-10-09T14:07:07Z</time>
      </trkpt>
      <trkpt lat="45.88781" lon="4.72342">
        <ele>182</ele>
        <time>2018-10-09T14:07:09Z</time>
      </trkpt>
      <trkpt lat="45.88778" lon="4.72347">
        <ele>182</ele>
        <time>2018-10-09T14:07:10Z</time>
      </trkpt>
      <trkpt lat="45.88776" lon="4.72353">
        <ele>182</ele>
        <time>2018-10-09T14:07:11Z</time>
      </trkpt>
      <trkpt lat="45.88773" lon="4.72358">
        <ele>182</ele>
        <time>2018-10-09T14:07:12Z</time>
      </trkpt>
      <trkpt lat="45.8877" lon="4.72365">
        <ele>182</ele>
        <time>2018-10-09T14:07:13Z</time>
      </trkpt>
      <trkpt lat="45.88767" lon="4.72371">
        <ele>182</ele>
        <time>2018-10-09T14:07:14Z</time>
      </trkpt>
      <trkpt lat="45.88761" lon="4.7238">
        <ele>182</ele>
        <time>2018-10-09T14:07:16Z</time>
      </trkpt>
      <trkpt lat="45.88759" lon="4.72384">
        <ele>182</ele>
        <time>2018-10-09T14:07:17Z</time>
      </trkpt>
      <trkpt lat="45.88757" lon="4.7239">
        <ele>182</ele>
        <time>2018-10-09T14:07:19Z</time>
      </trkpt>
      <trkpt lat="45.88753" lon="4.72398">
        <ele>182</ele>
        <time>2018-10-09T14:07:20Z</time>
      </trkpt>
      <trkpt lat="45.88748" lon="4.72406">
        <ele>182</ele>
        <time>2018-10-09T14:07:22Z</time>
      </trkpt>
      <trkpt lat="45.88747" lon="4.72412">
        <ele>182</ele>
        <time>2018-10-09T14:07:23Z</time>
      </trkpt>
      <trkpt lat="45.88742" lon="4.72422">
        <ele>182</ele>
        <time>2018-10-09T14:07:25Z</time>
      </trkpt>
      <trkpt lat="45.8874" lon="4.72427">
        <ele>182</ele>
        <time>2018-10-09T14:07:26Z</time>
      </trkpt>
      <trkpt lat="45.88735" lon="4.72436">
        <ele>182</ele>
        <time>2018-10-09T14:07:28Z</time>
      </trkpt>
      <trkpt lat="45.88733" lon="4.7244">
        <ele>182</ele>
        <time>2018-10-09T14:07:29Z</time>
      </trkpt>
      <trkpt lat="45.88729" lon="4.7245">
        <ele>182</ele>
        <time>2018-10-09T14:07:31Z</time>
      </trkpt>
      <trkpt lat="45.88727" lon="4.72455">
        <ele>182</ele>
        <time>2018-10-09T14:07:32Z</time>
      </trkpt>
      <trkpt lat="45.88726" lon="4.72462">
        <ele>182</ele>
        <time>2018-10-09T14:07:33Z</time>
      </trkpt>
      <trkpt lat="45.88725" lon="4.72469">
        <ele>182</ele>
        <time>2018-10-09T14:07:34Z</time>
      </trkpt>
      <trkpt lat="45.88723" lon="4.72475">
        <ele>182</ele>
        <time>2018-10-09T14:07:35Z</time>
      </trkpt>
      <trkpt lat="45.88724" lon="4.72483">
        <ele>182</ele>
        <time>2018-10-09T14:07:36Z</time>
      </trkpt>
      <trkpt lat="45.88723" lon="4.72491">
        <ele>182</ele>
        <time>2018-10-09T14:07:37Z</time>
      </trkpt>
      <trkpt lat="45.88723" lon="4.72499">
        <ele>182</ele>
        <time>2018-10-09T14:07:38Z</time>
      </trkpt>
      <trkpt lat="45.88724" lon="4.72506">
        <ele>183</ele>
        <time>2018-10-09T14:07:39Z</time>
      </trkpt>
      <trkpt lat="45.88725" lon="4.72512">
        <ele>183</ele>
        <time>2018-10-09T14:07:40Z</time>
      </trkpt>
      <trkpt lat="45.88727" lon="4.72523">
        <ele>183</ele>
        <time>2018-10-09T14:07:42Z</time>
      </trkpt>
      <trkpt lat="45.88729" lon="4.7253">
        <ele>183</ele>
        <time>2018-10-09T14:07:43Z</time>
      </trkpt>
      <trkpt lat="45.88731" lon="4.72538">
        <ele>183</ele>
        <time>2018-10-09T14:07:45Z</time>
      </trkpt>
      <trkpt lat="45.88731" lon="4.72545">
        <ele>183</ele>
        <time>2018-10-09T14:07:46Z</time>
      </trkpt>
      <trkpt lat="45.88733" lon="4.72555">
        <ele>183</ele>
        <time>2018-10-09T14:07:48Z</time>
      </trkpt>
      <trkpt lat="45.88734" lon="4.72561">
        <ele>183</ele>
        <time>2018-10-09T14:07:49Z</time>
      </trkpt>
      <trkpt lat="45.88737" lon="4.72573">
        <ele>184</ele>
        <time>2018-10-09T14:07:51Z</time>
      </trkpt>
      <trkpt lat="45.88739" lon="4.72578">
        <ele>184</ele>
        <time>2018-10-09T14:07:52Z</time>
      </trkpt>
      <trkpt lat="45.8874" lon="4.72586">
        <ele>184</ele>
        <time>2018-10-09T14:07:53Z</time>
      </trkpt>
      <trkpt lat="45.88739" lon="4.72592">
        <ele>184</ele>
        <time>2018-10-09T14:07:54Z</time>
      </trkpt>
      <trkpt lat="45.88741" lon="4.72604">
        <ele>184</ele>
        <time>2018-10-09T14:07:56Z</time>
      </trkpt>
      <trkpt lat="45.88742" lon="4.7261">
        <ele>183</ele>
        <time>2018-10-09T14:07:57Z</time>
      </trkpt>
      <trkpt lat="45.88743" lon="4.72621">
        <ele>183</ele>
        <time>2018-10-09T14:07:59Z</time>
      </trkpt>
      <trkpt lat="45.88744" lon="4.72628">
        <ele>183</ele>
        <time>2018-10-09T14:08:00Z</time>
      </trkpt>
      <trkpt lat="45.88745" lon="4.72634">
        <ele>183</ele>
        <time>2018-10-09T14:08:01Z</time>
      </trkpt>
      <trkpt lat="45.88746" lon="4.72641">
        <ele>183</ele>
        <time>2018-10-09T14:08:02Z</time>
      </trkpt>
      <trkpt lat="45.88746" lon="4.72648">
        <ele>183</ele>
        <time>2018-10-09T14:08:03Z</time>
      </trkpt>
      <trkpt lat="45.88748" lon="4.72655">
        <ele>182</ele>
        <time>2018-10-09T14:08:04Z</time>
      </trkpt>
      <trkpt lat="45.88748" lon="4.72662">
        <ele>182</ele>
        <time>2018-10-09T14:08:05Z</time>
      </trkpt>
      <trkpt lat="45.88749" lon="4.72669">
        <ele>182</ele>
        <time>2018-10-09T14:08:06Z</time>
      </trkpt>
      <trkpt lat="45.8875" lon="4.72675">
        <ele>182</ele>
        <time>2018-10-09T14:08:07Z</time>
      </trkpt>
      <trkpt lat="45.88751" lon="4.72683">
        <ele>182</ele>
        <time>2018-10-09T14:08:08Z</time>
      </trkpt>
      <trkpt lat="45.88752" lon="4.7269">
        <ele>182</ele>
        <time>2018-10-09T14:08:09Z</time>
      </trkpt>
      <trkpt lat="45.88752" lon="4.72697">
        <ele>182</ele>
        <time>2018-10-09T14:08:10Z</time>
      </trkpt>
      <trkpt lat="45.88752" lon="4.72708">
        <ele>182</ele>
        <time>2018-10-09T14:08:12Z</time>
      </trkpt>
      <trkpt lat="45.88752" lon="4.72714">
        <ele>183</ele>
        <time>2018-10-09T14:08:13Z</time>
      </trkpt>
      <trkpt lat="45.88753" lon="4.72725">
        <ele>183</ele>
        <time>2018-10-09T14:08:15Z</time>
      </trkpt>
      <trkpt lat="45.88754" lon="4.72731">
        <ele>183</ele>
        <time>2018-10-09T14:08:16Z</time>
      </trkpt>
      <trkpt lat="45.88755" lon="4.72742">
        <ele>183</ele>
        <time>2018-10-09T14:08:18Z</time>
      </trkpt>
      <trkpt lat="45.88755" lon="4.72748">
        <ele>183</ele>
        <time>2018-10-09T14:08:19Z</time>
      </trkpt>
      <trkpt lat="45.88755" lon="4.72755">
        <ele>183</ele>
        <time>2018-10-09T14:08:20Z</time>
      </trkpt>
      <trkpt lat="45.88756" lon="4.72762">
        <ele>183</ele>
        <time>2018-10-09T14:08:21Z</time>
      </trkpt>
      <trkpt lat="45.88756" lon="4.72769">
        <ele>184</ele>
        <time>2018-10-09T14:08:22Z</time>
      </trkpt>
      <trkpt lat="45.88757" lon="4.72777">
        <ele>184</ele>
        <time>2018-10-09T14:08:23Z</time>
      </trkpt>
      <trkpt lat="45.88757" lon="4.72784">
        <ele>184</ele>
        <time>2018-10-09T14:08:24Z</time>
      </trkpt>
      <trkpt lat="45.88757" lon="4.72791">
        <ele>184</ele>
        <time>2018-10-09T14:08:25Z</time>
      </trkpt>
      <trkpt lat="45.88757" lon="4.72797">
        <ele>184</ele>
        <time>2018-10-09T14:08:26Z</time>
      </trkpt>
      <trkpt lat="45.88758" lon="4.72804">
        <ele>184</ele>
        <time>2018-10-09T14:08:27Z</time>
      </trkpt>
      <trkpt lat="45.88758" lon="4.72816">
        <ele>185</ele>
        <time>2018-10-09T14:08:29Z</time>
      </trkpt>
      <trkpt lat="45.88759" lon="4.72823">
        <ele>185</ele>
        <time>2018-10-09T14:08:30Z</time>
      </trkpt>
      <trkpt lat="45.88759" lon="4.72836">
        <ele>186</ele>
        <time>2018-10-09T14:08:32Z</time>
      </trkpt>
      <trkpt lat="45.8876" lon="4.72841">
        <ele>186</ele>
        <time>2018-10-09T14:08:33Z</time>
      </trkpt>
      <trkpt lat="45.88761" lon="4.72848">
        <ele>185</ele>
        <time>2018-10-09T14:08:34Z</time>
      </trkpt>
      <trkpt lat="45.88761" lon="4.72855">
        <ele>185</ele>
        <time>2018-10-09T14:08:35Z</time>
      </trkpt>
      <trkpt lat="45.88761" lon="4.72866">
        <ele>185</ele>
        <time>2018-10-09T14:08:37Z</time>
      </trkpt>
      <trkpt lat="45.88762" lon="4.72868">
        <ele>185</ele>
        <time>2018-10-09T14:08:38Z</time>
      </trkpt>
      <trkpt lat="45.88763" lon="4.72881">
        <ele>185</ele>
        <time>2018-10-09T14:08:40Z</time>
      </trkpt>
      <trkpt lat="45.88764" lon="4.72886">
        <ele>185</ele>
        <time>2018-10-09T14:08:41Z</time>
      </trkpt>
      <trkpt lat="45.88766" lon="4.72897">
        <ele>185</ele>
        <time>2018-10-09T14:08:43Z</time>
      </trkpt>
      <trkpt lat="45.88766" lon="4.72903">
        <ele>185</ele>
        <time>2018-10-09T14:08:44Z</time>
      </trkpt>
      <trkpt lat="45.88766" lon="4.7291">
        <ele>186</ele>
        <time>2018-10-09T14:08:45Z</time>
      </trkpt>
      <trkpt lat="45.88766" lon="4.72916">
        <ele>186</ele>
        <time>2018-10-09T14:08:46Z</time>
      </trkpt>
      <trkpt lat="45.88767" lon="4.72923">
        <ele>185</ele>
        <time>2018-10-09T14:08:47Z</time>
      </trkpt>
      <trkpt lat="45.88767" lon="4.72929">
        <ele>185</ele>
        <time>2018-10-09T14:08:48Z</time>
      </trkpt>
      <trkpt lat="45.88768" lon="4.72942">
        <ele>185</ele>
        <time>2018-10-09T14:08:50Z</time>
      </trkpt>
      <trkpt lat="45.88769" lon="4.72949">
        <ele>185</ele>
        <time>2018-10-09T14:08:51Z</time>
      </trkpt>
      <trkpt lat="45.8877" lon="4.7296">
        <ele>185</ele>
        <time>2018-10-09T14:08:53Z</time>
      </trkpt>
      <trkpt lat="45.8877" lon="4.72967">
        <ele>185</ele>
        <time>2018-10-09T14:08:54Z</time>
      </trkpt>
      <trkpt lat="45.8877" lon="4.72974">
        <ele>185</ele>
        <time>2018-10-09T14:08:55Z</time>
      </trkpt>
      <trkpt lat="45.88771" lon="4.72981">
        <ele>185</ele>
        <time>2018-10-09T14:08:56Z</time>
      </trkpt>
      <trkpt lat="45.8877" lon="4.72993">
        <ele>185</ele>
        <time>2018-10-09T14:08:58Z</time>
      </trkpt>
      <trkpt lat="45.88771" lon="4.72998">
        <ele>185</ele>
        <time>2018-10-09T14:08:59Z</time>
      </trkpt>
      <trkpt lat="45.88771" lon="4.73005">
        <ele>184</ele>
        <time>2018-10-09T14:09:00Z</time>
      </trkpt>
      <trkpt lat="45.88773" lon="4.73011">
        <ele>184</ele>
        <time>2018-10-09T14:09:01Z</time>
      </trkpt>
      <trkpt lat="45.88774" lon="4.73022">
        <ele>184</ele>
        <time>2018-10-09T14:09:03Z</time>
      </trkpt>
      <trkpt lat="45.88774" lon="4.73028">
        <ele>184</ele>
        <time>2018-10-09T14:09:04Z</time>
      </trkpt>
      <trkpt lat="45.88776" lon="4.73039">
        <ele>184</ele>
        <time>2018-10-09T14:09:06Z</time>
      </trkpt>
      <trkpt lat="45.88776" lon="4.73046">
        <ele>184</ele>
        <time>2018-10-09T14:09:07Z</time>
      </trkpt>
      <trkpt lat="45.88777" lon="4.73053">
        <ele>184</ele>
        <time>2018-10-09T14:09:08Z</time>
      </trkpt>
      <trkpt lat="45.88777" lon="4.7306">
        <ele>184</ele>
        <time>2018-10-09T14:09:09Z</time>
      </trkpt>
      <trkpt lat="45.88778" lon="4.73072">
        <ele>184</ele>
        <time>2018-10-09T14:09:11Z</time>
      </trkpt>
      <trkpt lat="45.88779" lon="4.73077">
        <ele>184</ele>
        <time>2018-10-09T14:09:12Z</time>
      </trkpt>
      <trkpt lat="45.8878" lon="4.73084">
        <ele>183</ele>
        <time>2018-10-09T14:09:13Z</time>
      </trkpt>
      <trkpt lat="45.8878" lon="4.7309">
        <ele>183</ele>
        <time>2018-10-09T14:09:14Z</time>
      </trkpt>
      <trkpt lat="45.8878" lon="4.73097">
        <ele>183</ele>
        <time>2018-10-09T14:09:15Z</time>
      </trkpt>
      <trkpt lat="45.88781" lon="4.73103">
        <ele>182</ele>
        <time>2018-10-09T14:09:16Z</time>
      </trkpt>
      <trkpt lat="45.88785" lon="4.73114">
        <ele>182</ele>
        <time>2018-10-09T14:09:18Z</time>
      </trkpt>
      <trkpt lat="45.88788" lon="4.73116">
        <ele>182</ele>
        <time>2018-10-09T14:09:19Z</time>
      </trkpt>
      <trkpt lat="45.88796" lon="4.73116">
        <ele>182</ele>
        <time>2018-10-09T14:09:21Z</time>
      </trkpt>
      <trkpt lat="45.888" lon="4.73114">
        <ele>182</ele>
        <time>2018-10-09T14:09:22Z</time>
      </trkpt>
      <trkpt lat="45.88808" lon="4.7311">
        <ele>182</ele>
        <time>2018-10-09T14:09:24Z</time>
      </trkpt>
      <trkpt lat="45.88812" lon="4.73107">
        <ele>182</ele>
        <time>2018-10-09T14:09:25Z</time>
      </trkpt>
      <trkpt lat="45.88817" lon="4.73106">
        <ele>182</ele>
        <time>2018-10-09T14:09:26Z</time>
      </trkpt>
      <trkpt lat="45.88821" lon="4.73104">
        <ele>182</ele>
        <time>2018-10-09T14:09:27Z</time>
      </trkpt>
      <trkpt lat="45.8883" lon="4.73104">
        <ele>182</ele>
        <time>2018-10-09T14:09:29Z</time>
      </trkpt>
      <trkpt lat="45.88833" lon="4.73103">
        <ele>182</ele>
        <time>2018-10-09T14:09:30Z</time>
      </trkpt>
      <trkpt lat="45.88841" lon="4.73101">
        <ele>182</ele>
        <time>2018-10-09T14:09:32Z</time>
      </trkpt>
      <trkpt lat="45.88846" lon="4.731">
        <ele>182</ele>
        <time>2018-10-09T14:09:33Z</time>
      </trkpt>
      <trkpt lat="45.8885" lon="4.73099">
        <ele>182</ele>
        <time>2018-10-09T14:09:34Z</time>
      </trkpt>
      <trkpt lat="45.88856" lon="4.73099">
        <ele>182</ele>
        <time>2018-10-09T14:09:35Z</time>
      </trkpt>
      <trkpt lat="45.88861" lon="4.73098">
        <ele>182</ele>
        <time>2018-10-09T14:09:36Z</time>
      </trkpt>
      <trkpt lat="45.88865" lon="4.73097">
        <ele>182</ele>
        <time>2018-10-09T14:09:37Z</time>
      </trkpt>
      <trkpt lat="45.8887" lon="4.73096">
        <ele>182</ele>
        <time>2018-10-09T14:09:38Z</time>
      </trkpt>
      <trkpt lat="45.88874" lon="4.73095">
        <ele>182</ele>
        <time>2018-10-09T14:09:39Z</time>
      </trkpt>
      <trkpt lat="45.88879" lon="4.73095">
        <ele>182</ele>
        <time>2018-10-09T14:09:40Z</time>
      </trkpt>
      <trkpt lat="45.88883" lon="4.73095">
        <ele>182</ele>
        <time>2018-10-09T14:09:41Z</time>
      </trkpt>
      <trkpt lat="45.88888" lon="4.73094">
        <ele>182</ele>
        <time>2018-10-09T14:09:42Z</time>
      </trkpt>
      <trkpt lat="45.88892" lon="4.73092">
        <ele>182</ele>
        <time>2018-10-09T14:09:43Z</time>
      </trkpt>
      <trkpt lat="45.88897" lon="4.73089">
        <ele>182</ele>
        <time>2018-10-09T14:09:44Z</time>
      </trkpt>
      <trkpt lat="45.88901" lon="4.73088">
        <ele>182</ele>
        <time>2018-10-09T14:09:45Z</time>
      </trkpt>
      <trkpt lat="45.88909" lon="4.73086">
        <ele>183</ele>
        <time>2018-10-09T14:09:47Z</time>
      </trkpt>
      <trkpt lat="45.88913" lon="4.73086">
        <ele>183</ele>
        <time>2018-10-09T14:09:48Z</time>
      </trkpt>
      <trkpt lat="45.88918" lon="4.73086">
        <ele>183</ele>
        <time>2018-10-09T14:09:49Z</time>
      </trkpt>
      <trkpt lat="45.88922" lon="4.73084">
        <ele>183</ele>
        <time>2018-10-09T14:09:50Z</time>
      </trkpt>
      <trkpt lat="45.88927" lon="4.73083">
        <ele>183</ele>
        <time>2018-10-09T14:09:51Z</time>
      </trkpt>
      <trkpt lat="45.88931" lon="4.73083">
        <ele>183</ele>
        <time>2018-10-09T14:09:52Z</time>
      </trkpt>
      <trkpt lat="45.88937" lon="4.73082">
        <ele>183</ele>
        <time>2018-10-09T14:09:53Z</time>
      </trkpt>
      <trkpt lat="45.88942" lon="4.73081">
        <ele>183</ele>
        <time>2018-10-09T14:09:54Z</time>
      </trkpt>
      <trkpt lat="45.88946" lon="4.7308">
        <ele>183</ele>
        <time>2018-10-09T14:09:55Z</time>
      </trkpt>
      <trkpt lat="45.88951" lon="4.73081">
        <ele>183</ele>
        <time>2018-10-09T14:09:56Z</time>
      </trkpt>
      <trkpt lat="45.88959" lon="4.73079">
        <ele>183</ele>
        <time>2018-10-09T14:09:58Z</time>
      </trkpt>
      <trkpt lat="45.88964" lon="4.73077">
        <ele>183</ele>
        <time>2018-10-09T14:09:59Z</time>
      </trkpt>
      <trkpt lat="45.88972" lon="4.73075">
        <ele>183</ele>
        <time>2018-10-09T14:10:01Z</time>
      </trkpt>
      <trkpt lat="45.88977" lon="4.73073">
        <ele>183</ele>
        <time>2018-10-09T14:10:02Z</time>
      </trkpt>
      <trkpt lat="45.88982" lon="4.73071">
        <ele>183</ele>
        <time>2018-10-09T14:10:03Z</time>
      </trkpt>
      <trkpt lat="45.88987" lon="4.73069">
        <ele>183</ele>
        <time>2018-10-09T14:10:04Z</time>
      </trkpt>
      <trkpt lat="45.88992" lon="4.73068">
        <ele>183</ele>
        <time>2018-10-09T14:10:05Z</time>
      </trkpt>
      <trkpt lat="45.88996" lon="4.73067">
        <ele>183</ele>
        <time>2018-10-09T14:10:06Z</time>
      </trkpt>
      <trkpt lat="45.89001" lon="4.73065">
        <ele>182</ele>
        <time>2018-10-09T14:10:07Z</time>
      </trkpt>
      <trkpt lat="45.89005" lon="4.73064">
        <ele>182</ele>
        <time>2018-10-09T14:10:08Z</time>
      </trkpt>
      <trkpt lat="45.89014" lon="4.73062">
        <ele>182</ele>
        <time>2018-10-09T14:10:10Z</time>
      </trkpt>
      <trkpt lat="45.89019" lon="4.7306">
        <ele>182</ele>
        <time>2018-10-09T14:10:11Z</time>
      </trkpt>
      <trkpt lat="45.89027" lon="4.73059">
        <ele>182</ele>
        <time>2018-10-09T14:10:13Z</time>
      </trkpt>
      <trkpt lat="45.89033" lon="4.73057">
        <ele>182</ele>
        <time>2018-10-09T14:10:14Z</time>
      </trkpt>
      <trkpt lat="45.8904" lon="4.73056">
        <ele>182</ele>
        <time>2018-10-09T14:10:16Z</time>
      </trkpt>
      <trkpt lat="45.89044" lon="4.73054">
        <ele>182</ele>
        <time>2018-10-09T14:10:17Z</time>
      </trkpt>
      <trkpt lat="45.89051" lon="4.73051">
        <ele>182</ele>
        <time>2018-10-09T14:10:19Z</time>
      </trkpt>
      <trkpt lat="45.89053" lon="4.73052">
        <ele>182</ele>
        <time>2018-10-09T14:10:20Z</time>
      </trkpt>
      <trkpt lat="45.8906" lon="4.73058">
        <ele>182</ele>
        <time>2018-10-09T14:10:23Z</time>
      </trkpt>
      <trkpt lat="45.89061" lon="4.73061">
        <ele>182</ele>
        <time>2018-10-09T14:10:24Z</time>
      </trkpt>
      <trkpt lat="45.89063" lon="4.73072">
        <ele>182</ele>
        <time>2018-10-09T14:10:27Z</time>
      </trkpt>
      <trkpt lat="45.89063" lon="4.73076">
        <ele>182</ele>
        <time>2018-10-09T14:10:28Z</time>
      </trkpt>
      <trkpt lat="45.8906" lon="4.73088">
        <ele>182</ele>
        <time>2018-10-09T14:10:31Z</time>
      </trkpt>
      <trkpt lat="45.89059" lon="4.73092">
        <ele>182</ele>
        <time>2018-10-09T14:10:32Z</time>
      </trkpt>
      <trkpt lat="45.89058" lon="4.731">
        <ele>182</ele>
        <time>2018-10-09T14:10:34Z</time>
      </trkpt>
      <trkpt lat="45.89057" lon="4.7311">
        <ele>182</ele>
        <time>2018-10-09T14:10:35Z</time>
      </trkpt>
      <trkpt lat="45.89057" lon="4.73121">
        <ele>182</ele>
        <time>2018-10-09T14:10:37Z</time>
      </trkpt>
      <trkpt lat="45.89056" lon="4.73124">
        <ele>182</ele>
        <time>2018-10-09T14:10:38Z</time>
      </trkpt>
      <trkpt lat="45.89056" lon="4.73132">
        <ele>182</ele>
        <time>2018-10-09T14:10:39Z</time>
      </trkpt>
      <trkpt lat="45.89055" lon="4.73139">
        <ele>181</ele>
        <time>2018-10-09T14:10:40Z</time>
      </trkpt>
      <trkpt lat="45.89056" lon="4.73151">
        <ele>181</ele>
        <time>2018-10-09T14:10:42Z</time>
      </trkpt>
      <trkpt lat="45.89057" lon="4.73158">
        <ele>181</ele>
        <time>2018-10-09T14:10:43Z</time>
      </trkpt>
      <trkpt lat="45.89058" lon="4.73166">
        <ele>181</ele>
        <time>2018-10-09T14:10:45Z</time>
      </trkpt>
      <trkpt lat="45.89058" lon="4.73171">
        <ele>180</ele>
        <time>2018-10-09T14:10:46Z</time>
      </trkpt>
      <trkpt lat="45.89059" lon="4.73182">
        <ele>180</ele>
        <time>2018-10-09T14:10:49Z</time>
      </trkpt>
      <trkpt lat="45.89059" lon="4.73186">
        <ele>180</ele>
        <time>2018-10-09T14:10:50Z</time>
      </trkpt>
      <trkpt lat="45.8906" lon="4.73195">
        <ele>180</ele>
        <time>2018-10-09T14:10:52Z</time>
      </trkpt>
      <trkpt lat="45.89061" lon="4.732">
        <ele>180</ele>
        <time>2018-10-09T14:10:53Z</time>
      </trkpt>
      <trkpt lat="45.89062" lon="4.7321">
        <ele>180</ele>
        <time>2018-10-09T14:10:55Z</time>
      </trkpt>
      <trkpt lat="45.89063" lon="4.73215">
        <ele>180</ele>
        <time>2018-10-09T14:10:56Z</time>
      </trkpt>
      <trkpt lat="45.89064" lon="4.73225">
        <ele>180</ele>
        <time>2018-10-09T14:10:58Z</time>
      </trkpt>
      <trkpt lat="45.89064" lon="4.73228">
        <ele>180</ele>
        <time>2018-10-09T14:10:59Z</time>
      </trkpt>
      <trkpt lat="45.89065" lon="4.73237">
        <ele>180</ele>
        <time>2018-10-09T14:11:01Z</time>
      </trkpt>
      <trkpt lat="45.89065" lon="4.73243">
        <ele>180</ele>
        <time>2018-10-09T14:11:02Z</time>
      </trkpt>
      <trkpt lat="45.89065" lon="4.73252">
        <ele>179</ele>
        <time>2018-10-09T14:11:04Z</time>
      </trkpt>
      <trkpt lat="45.89066" lon="4.73263">
        <ele>179</ele>
        <time>2018-10-09T14:11:05Z</time>
      </trkpt>
      <trkpt lat="45.89068" lon="4.73273">
        <ele>179</ele>
        <time>2018-10-09T14:11:07Z</time>
      </trkpt>
      <trkpt lat="45.89069" lon="4.73279">
        <ele>179</ele>
        <time>2018-10-09T14:11:08Z</time>
      </trkpt>
      <trkpt lat="45.89072" lon="4.7329">
        <ele>179</ele>
        <time>2018-10-09T14:11:10Z</time>
      </trkpt>
      <trkpt lat="45.89073" lon="4.73293">
        <ele>179</ele>
        <time>2018-10-09T14:11:11Z</time>
      </trkpt>
      <trkpt lat="45.89076" lon="4.73304">
        <ele>179</ele>
        <time>2018-10-09T14:11:14Z</time>
      </trkpt>
      <trkpt lat="45.89077" lon="4.73308">
        <ele>179</ele>
        <time>2018-10-09T14:11:15Z</time>
      </trkpt>
      <trkpt lat="45.89079" lon="4.73319">
        <ele>179</ele>
        <time>2018-10-09T14:11:18Z</time>
      </trkpt>
      <trkpt lat="45.8908" lon="4.73323">
        <ele>179</ele>
        <time>2018-10-09T14:11:19Z</time>
      </trkpt>
      <trkpt lat="45.89081" lon="4.73332">
        <ele>179</ele>
        <time>2018-10-09T14:11:21Z</time>
      </trkpt>
      <trkpt lat="45.89081" lon="4.73337">
        <ele>179</ele>
        <time>2018-10-09T14:11:22Z</time>
      </trkpt>
      <trkpt lat="45.89082" lon="4.73349">
        <ele>180</ele>
        <time>2018-10-09T14:11:25Z</time>
      </trkpt>
      <trkpt lat="45.89082" lon="4.73353">
        <ele>180</ele>
        <time>2018-10-09T14:11:26Z</time>
      </trkpt>
      <trkpt lat="45.89083" lon="4.73361">
        <ele>180</ele>
        <time>2018-10-09T14:11:28Z</time>
      </trkpt>
      <trkpt lat="45.89084" lon="4.73371">
        <ele>179</ele>
        <time>2018-10-09T14:11:29Z</time>
      </trkpt>
      <trkpt lat="45.89086" lon="4.73383">
        <ele>179</ele>
        <time>2018-10-09T14:11:31Z</time>
      </trkpt>
      <trkpt lat="45.89086" lon="4.73388">
        <ele>179</ele>
        <time>2018-10-09T14:11:32Z</time>
      </trkpt>
      <trkpt lat="45.89087" lon="4.73398">
        <ele>179</ele>
        <time>2018-10-09T14:11:35Z</time>
      </trkpt>
      <trkpt lat="45.89087" lon="4.73402">
        <ele>180</ele>
        <time>2018-10-09T14:11:36Z</time>
      </trkpt>
      <trkpt lat="45.89088" lon="4.73415">
        <ele>180</ele>
        <time>2018-10-09T14:11:39Z</time>
      </trkpt>
      <trkpt lat="45.89089" lon="4.73425">
        <ele>180</ele>
        <time>2018-10-09T14:11:40Z</time>
      </trkpt>
      <trkpt lat="45.89089" lon="4.73425">
        <ele>180</ele>
        <time>2018-10-09T14:11:41Z</time>
      </trkpt>
      <trkpt lat="45.8909" lon="4.73485">
        <ele>180</ele>
        <time>2018-10-09T14:11:55Z</time>
      </trkpt>
      <trkpt lat="45.89091" lon="4.73496">
        <ele>181</ele>
        <time>2018-10-09T14:12:02Z</time>
      </trkpt>
      <trkpt lat="45.89091" lon="4.73504">
        <ele>181</ele>
        <time>2018-10-09T14:12:03Z</time>
      </trkpt>
      <trkpt lat="45.89092" lon="4.73515">
        <ele>181</ele>
        <time>2018-10-09T14:12:06Z</time>
      </trkpt>
      <trkpt lat="45.89093" lon="4.73519">
        <ele>181</ele>
        <time>2018-10-09T14:12:07Z</time>
      </trkpt>
      <trkpt lat="45.89093" lon="4.73523">
        <ele>181</ele>
        <time>2018-10-09T14:12:08Z</time>
      </trkpt>
      <trkpt lat="45.89093" lon="4.73533">
        <ele>181</ele>
        <time>2018-10-09T14:12:09Z</time>
      </trkpt>
      <trkpt lat="45.89093" lon="4.73544">
        <ele>181</ele>
        <time>2018-10-09T14:12:11Z</time>
      </trkpt>
      <trkpt lat="45.89093" lon="4.7355">
        <ele>181</ele>
        <time>2018-10-09T14:12:12Z</time>
      </trkpt>
      <trkpt lat="45.89094" lon="4.73561">
        <ele>181</ele>
        <time>2018-10-09T14:12:14Z</time>
      </trkpt>
      <trkpt lat="45.89094" lon="4.73567">
        <ele>181</ele>
        <time>2018-10-09T14:12:15Z</time>
      </trkpt>
      <trkpt lat="45.89095" lon="4.73576">
        <ele>181</ele>
        <time>2018-10-09T14:12:18Z</time>
      </trkpt>
      <trkpt lat="45.89097" lon="4.73585">
        <ele>181</ele>
        <time>2018-10-09T14:12:19Z</time>
      </trkpt>
      <trkpt lat="45.89101" lon="4.73594">
        <ele>181</ele>
        <time>2018-10-09T14:12:21Z</time>
      </trkpt>
      <trkpt lat="45.89104" lon="4.73598">
        <ele>181</ele>
        <time>2018-10-09T14:12:22Z</time>
      </trkpt>
      <trkpt lat="45.89109" lon="4.73608">
        <ele>181</ele>
        <time>2018-10-09T14:12:24Z</time>
      </trkpt>
      <trkpt lat="45.89113" lon="4.73612">
        <ele>181</ele>
        <time>2018-10-09T14:12:25Z</time>
      </trkpt>
      <trkpt lat="45.89114" lon="4.73621">
        <ele>181</ele>
        <time>2018-10-09T14:12:27Z</time>
      </trkpt>
      <trkpt lat="45.89115" lon="4.73625">
        <ele>181</ele>
        <time>2018-10-09T14:12:28Z</time>
      </trkpt>
      <trkpt lat="45.89118" lon="4.73636">
        <ele>181</ele>
        <time>2018-10-09T14:12:31Z</time>
      </trkpt>
      <trkpt lat="45.89118" lon="4.73646">
        <ele>182</ele>
        <time>2018-10-09T14:12:32Z</time>
      </trkpt>
      <trkpt lat="45.89117" lon="4.73657">
        <ele>182</ele>
        <time>2018-10-09T14:12:34Z</time>
      </trkpt>
      <trkpt lat="45.89116" lon="4.73661">
        <ele>182</ele>
        <time>2018-10-09T14:12:35Z</time>
      </trkpt>
      <trkpt lat="45.89114" lon="4.73673">
        <ele>182</ele>
        <time>2018-10-09T14:12:39Z</time>
      </trkpt>
      <trkpt lat="45.89113" lon="4.73677">
        <ele>182</ele>
        <time>2018-10-09T14:12:40Z</time>
      </trkpt>
      <trkpt lat="45.89111" lon="4.73685">
        <ele>182</ele>
        <time>2018-10-09T14:12:43Z</time>
      </trkpt>
      <trkpt lat="45.8911" lon="4.73689">
        <ele>182</ele>
        <time>2018-10-09T14:12:44Z</time>
      </trkpt>
      <trkpt lat="45.8911" lon="4.73699">
        <ele>182</ele>
        <time>2018-10-09T14:12:48Z</time>
      </trkpt>
      <trkpt lat="45.8911" lon="4.73704">
        <ele>182</ele>
        <time>2018-10-09T14:12:49Z</time>
      </trkpt>
      <trkpt lat="45.89109" lon="4.73719">
        <ele>182</ele>
        <time>2018-10-09T14:12:50Z</time>
      </trkpt>
      <trkpt lat="45.89109" lon="4.73731">
        <ele>181</ele>
        <time>2018-10-09T14:12:53Z</time>
      </trkpt>
      <trkpt lat="45.89109" lon="4.73735">
        <ele>181</ele>
        <time>2018-10-09T14:12:54Z</time>
      </trkpt>
      <trkpt lat="45.89109" lon="4.73745">
        <ele>181</ele>
        <time>2018-10-09T14:12:56Z</time>
      </trkpt>
      <trkpt lat="45.89109" lon="4.73756">
        <ele>181</ele>
        <time>2018-10-09T14:12:57Z</time>
      </trkpt>
      <trkpt lat="45.89109" lon="4.73768">
        <ele>181</ele>
        <time>2018-10-09T14:13:00Z</time>
      </trkpt>
      <trkpt lat="45.89108" lon="4.73772">
        <ele>181</ele>
        <time>2018-10-09T14:13:01Z</time>
      </trkpt>
      <trkpt lat="45.89108" lon="4.73782">
        <ele>181</ele>
        <time>2018-10-09T14:13:02Z</time>
      </trkpt>
      <trkpt lat="45.89109" lon="4.73788">
        <ele>181</ele>
        <time>2018-10-09T14:13:03Z</time>
      </trkpt>
      <trkpt lat="45.8911" lon="4.73801">
        <ele>181</ele>
        <time>2018-10-09T14:13:05Z</time>
      </trkpt>
      <trkpt lat="45.8911" lon="4.73806">
        <ele>181</ele>
        <time>2018-10-09T14:13:06Z</time>
      </trkpt>
      <trkpt lat="45.89111" lon="4.73813">
        <ele>181</ele>
        <time>2018-10-09T14:13:08Z</time>
      </trkpt>
      <trkpt lat="45.89112" lon="4.73822">
        <ele>181</ele>
        <time>2018-10-09T14:13:09Z</time>
      </trkpt>
      <trkpt lat="45.89113" lon="4.73833">
        <ele>181</ele>
        <time>2018-10-09T14:13:11Z</time>
      </trkpt>
      <trkpt lat="45.89114" lon="4.73839">
        <ele>182</ele>
        <time>2018-10-09T14:13:12Z</time>
      </trkpt>
      <trkpt lat="45.89117" lon="4.73846">
        <ele>182</ele>
        <time>2018-10-09T14:13:13Z</time>
      </trkpt>
      <trkpt lat="45.89119" lon="4.73853">
        <ele>182</ele>
        <time>2018-10-09T14:13:14Z</time>
      </trkpt>
      <trkpt lat="45.89119" lon="4.73859">
        <ele>182</ele>
        <time>2018-10-09T14:13:15Z</time>
      </trkpt>
      <trkpt lat="45.8912" lon="4.73866">
        <ele>182</ele>
        <time>2018-10-09T14:13:16Z</time>
      </trkpt>
      <trkpt lat="45.8912" lon="4.73877">
        <ele>182</ele>
        <time>2018-10-09T14:13:18Z</time>
      </trkpt>
      <trkpt lat="45.8912" lon="4.73883">
        <ele>182</ele>
        <time>2018-10-09T14:13:19Z</time>
      </trkpt>
      <trkpt lat="45.8912" lon="4.73895">
        <ele>182</ele>
        <time>2018-10-09T14:13:21Z</time>
      </trkpt>
      <trkpt lat="45.8912" lon="4.73902">
        <ele>182</ele>
        <time>2018-10-09T14:13:22Z</time>
      </trkpt>
      <trkpt lat="45.89119" lon="4.73913">
        <ele>182</ele>
        <time>2018-10-09T14:13:24Z</time>
      </trkpt>
      <trkpt lat="45.89118" lon="4.73918">
        <ele>183</ele>
        <time>2018-10-09T14:13:25Z</time>
      </trkpt>
      <trkpt lat="45.89117" lon="4.7393">
        <ele>183</ele>
        <time>2018-10-09T14:13:27Z</time>
      </trkpt>
      <trkpt lat="45.89116" lon="4.73933">
        <ele>183</ele>
        <time>2018-10-09T14:13:28Z</time>
      </trkpt>
      <trkpt lat="45.89117" lon="4.73941">
        <ele>183</ele>
        <time>2018-10-09T14:13:30Z</time>
      </trkpt>
      <trkpt lat="45.89117" lon="4.7395">
        <ele>183</ele>
        <time>2018-10-09T14:13:31Z</time>
      </trkpt>
      <trkpt lat="45.89118" lon="4.7396">
        <ele>183</ele>
        <time>2018-10-09T14:13:33Z</time>
      </trkpt>
      <trkpt lat="45.89119" lon="4.73966">
        <ele>183</ele>
        <time>2018-10-09T14:13:34Z</time>
      </trkpt>
      <trkpt lat="45.89118" lon="4.73977">
        <ele>183</ele>
        <time>2018-10-09T14:13:36Z</time>
      </trkpt>
      <trkpt lat="45.89117" lon="4.7398">
        <ele>183</ele>
        <time>2018-10-09T14:13:37Z</time>
      </trkpt>
      <trkpt lat="45.89111" lon="4.73988">
        <ele>183</ele>
        <time>2018-10-09T14:13:40Z</time>
      </trkpt>
      <trkpt lat="45.89105" lon="4.73991">
        <ele>183</ele>
        <time>2018-10-09T14:13:41Z</time>
      </trkpt>
      <trkpt lat="45.89097" lon="4.73993">
        <ele>183</ele>
        <time>2018-10-09T14:13:43Z</time>
      </trkpt>
      <trkpt lat="45.89093" lon="4.73994">
        <ele>183</ele>
        <time>2018-10-09T14:13:44Z</time>
      </trkpt>
      <trkpt lat="45.89085" lon="4.73995">
        <ele>183</ele>
        <time>2018-10-09T14:13:46Z</time>
      </trkpt>
      <trkpt lat="45.89081" lon="4.73996">
        <ele>183</ele>
        <time>2018-10-09T14:13:47Z</time>
      </trkpt>
      <trkpt lat="45.89073" lon="4.73998">
        <ele>183</ele>
        <time>2018-10-09T14:13:50Z</time>
      </trkpt>
      <trkpt lat="45.89067" lon="4.73999">
        <ele>184</ele>
        <time>2018-10-09T14:13:51Z</time>
      </trkpt>
      <trkpt lat="45.89059" lon="4.74002">
        <ele>184</ele>
        <time>2018-10-09T14:13:53Z</time>
      </trkpt>
      <trkpt lat="45.89055" lon="4.74003">
        <ele>184</ele>
        <time>2018-10-09T14:13:54Z</time>
      </trkpt>
      <trkpt lat="45.89047" lon="4.74008">
        <ele>184</ele>
        <time>2018-10-09T14:13:57Z</time>
      </trkpt>
      <trkpt lat="45.89044" lon="4.74009">
        <ele>184</ele>
        <time>2018-10-09T14:13:58Z</time>
      </trkpt>
      <trkpt lat="45.89041" lon="4.74013">
        <ele>184</ele>
        <time>2018-10-09T14:14:00Z</time>
      </trkpt>
      <trkpt lat="45.89037" lon="4.74022">
        <ele>184</ele>
        <time>2018-10-09T14:14:01Z</time>
      </trkpt>
      <trkpt lat="45.89036" lon="4.74029">
        <ele>184</ele>
        <time>2018-10-09T14:14:02Z</time>
      </trkpt>
      <trkpt lat="45.89036" lon="4.74035">
        <ele>184</ele>
        <time>2018-10-09T14:14:03Z</time>
      </trkpt>
      <trkpt lat="45.89036" lon="4.74047">
        <ele>184</ele>
        <time>2018-10-09T14:14:05Z</time>
      </trkpt>
      <trkpt lat="45.89037" lon="4.74052">
        <ele>184</ele>
        <time>2018-10-09T14:14:06Z</time>
      </trkpt>
      <trkpt lat="45.89037" lon="4.74063">
        <ele>184</ele>
        <time>2018-10-09T14:14:09Z</time>
      </trkpt>
      <trkpt lat="45.89037" lon="4.74067">
        <ele>184</ele>
        <time>2018-10-09T14:14:10Z</time>
      </trkpt>
      <trkpt lat="45.89037" lon="4.74076">
        <ele>184</ele>
        <time>2018-10-09T14:14:12Z</time>
      </trkpt>
      <trkpt lat="45.89037" lon="4.74081">
        <ele>184</ele>
        <time>2018-10-09T14:14:13Z</time>
      </trkpt>
      <trkpt lat="45.89037" lon="4.74086">
        <ele>185</ele>
        <time>2018-10-09T14:14:14Z</time>
      </trkpt>
      <trkpt lat="45.89037" lon="4.74097">
        <ele>185</ele>
        <time>2018-10-09T14:14:15Z</time>
      </trkpt>
      <trkpt lat="45.89037" lon="4.74108">
        <ele>185</ele>
        <time>2018-10-09T14:14:17Z</time>
      </trkpt>
      <trkpt lat="45.89037" lon="4.74114">
        <ele>185</ele>
        <time>2018-10-09T14:14:18Z</time>
      </trkpt>
      <trkpt lat="45.89037" lon="4.74123">
        <ele>185</ele>
        <time>2018-10-09T14:14:21Z</time>
      </trkpt>
      <trkpt lat="45.89036" lon="4.74126">
        <ele>185</ele>
        <time>2018-10-09T14:14:22Z</time>
      </trkpt>
      <trkpt lat="45.89034" lon="4.74135">
        <ele>185</ele>
        <time>2018-10-09T14:14:24Z</time>
      </trkpt>
      <trkpt lat="45.89033" lon="4.74139">
        <ele>185</ele>
        <time>2018-10-09T14:14:25Z</time>
      </trkpt>
      <trkpt lat="45.8903" lon="4.74149">
        <ele>185</ele>
        <time>2018-10-09T14:14:26Z</time>
      </trkpt>
      <trkpt lat="45.89029" lon="4.74155">
        <ele>185</ele>
        <time>2018-10-09T14:14:27Z</time>
      </trkpt>
      <trkpt lat="45.89024" lon="4.74164">
        <ele>185</ele>
        <time>2018-10-09T14:14:29Z</time>
      </trkpt>
      <trkpt lat="45.89022" lon="4.74168">
        <ele>185</ele>
        <time>2018-10-09T14:14:30Z</time>
      </trkpt>
      <trkpt lat="45.89019" lon="4.74179">
        <ele>185</ele>
        <time>2018-10-09T14:14:33Z</time>
      </trkpt>
      <trkpt lat="45.89017" lon="4.74183">
        <ele>185</ele>
        <time>2018-10-09T14:14:34Z</time>
      </trkpt>
      <trkpt lat="45.89014" lon="4.74195">
        <ele>186</ele>
        <time>2018-10-09T14:14:37Z</time>
      </trkpt>
      <trkpt lat="45.89013" lon="4.74198">
        <ele>186</ele>
        <time>2018-10-09T14:14:38Z</time>
      </trkpt>
      <trkpt lat="45.89011" lon="4.74207">
        <ele>186</ele>
        <time>2018-10-09T14:14:40Z</time>
      </trkpt>
      <trkpt lat="45.8901" lon="4.74211">
        <ele>186</ele>
        <time>2018-10-09T14:14:41Z</time>
      </trkpt>
      <trkpt lat="45.89008" lon="4.7422">
        <ele>186</ele>
        <time>2018-10-09T14:14:43Z</time>
      </trkpt>
      <trkpt lat="45.89007" lon="4.74225">
        <ele>186</ele>
        <time>2018-10-09T14:14:44Z</time>
      </trkpt>
      <trkpt lat="45.89012" lon="4.74236">
        <ele>186</ele>
        <time>2018-10-09T14:14:48Z</time>
      </trkpt>
      <trkpt lat="45.89015" lon="4.74238">
        <ele>186</ele>
        <time>2018-10-09T14:14:49Z</time>
      </trkpt>
      <trkpt lat="45.89021" lon="4.74245">
        <ele>186</ele>
        <time>2018-10-09T14:14:52Z</time>
      </trkpt>
      <trkpt lat="45.89023" lon="4.74248">
        <ele>186</ele>
        <time>2018-10-09T14:14:53Z</time>
      </trkpt>
      <trkpt lat="45.89026" lon="4.74257">
        <ele>187</ele>
        <time>2018-10-09T14:14:56Z</time>
      </trkpt>
      <trkpt lat="45.89027" lon="4.7426">
        <ele>187</ele>
        <time>2018-10-09T14:14:57Z</time>
      </trkpt>
      <trkpt lat="45.89028" lon="4.74271">
        <ele>187</ele>
        <time>2018-10-09T14:15:13Z</time>
      </trkpt>
      <trkpt lat="45.89028" lon="4.74273">
        <ele>187</ele>
        <time>2018-10-09T14:15:14Z</time>
      </trkpt>
      <trkpt lat="45.89023" lon="4.74283">
        <ele>187</ele>
        <time>2018-10-09T14:15:21Z</time>
      </trkpt>
      <trkpt lat="45.89022" lon="4.74284">
        <ele>187</ele>
        <time>2018-10-09T14:15:22Z</time>
      </trkpt>
      <trkpt lat="45.89014" lon="4.74288">
        <ele>187</ele>
        <time>2018-10-09T14:15:28Z</time>
      </trkpt>
      <trkpt lat="45.8901" lon="4.74288">
        <ele>187</ele>
        <time>2018-10-09T14:15:29Z</time>
      </trkpt>
      <trkpt lat="45.89002" lon="4.74288">
        <ele>187</ele>
        <time>2018-10-09T14:15:31Z</time>
      </trkpt>
      <trkpt lat="45.88998" lon="4.74288">
        <ele>187</ele>
        <time>2018-10-09T14:15:32Z</time>
      </trkpt>
      <trkpt lat="45.88991" lon="4.74288">
        <ele>187</ele>
        <time>2018-10-09T14:15:34Z</time>
      </trkpt>
      <trkpt lat="45.88988" lon="4.74289">
        <ele>187</ele>
        <time>2018-10-09T14:15:35Z</time>
      </trkpt>
      <trkpt lat="45.88982" lon="4.74294">
        <ele>187</ele>
        <time>2018-10-09T14:15:38Z</time>
      </trkpt>
      <trkpt lat="45.8898" lon="4.74298">
        <ele>187</ele>
        <time>2018-10-09T14:15:39Z</time>
      </trkpt>
      <trkpt lat="45.88977" lon="4.74306">
        <ele>187</ele>
        <time>2018-10-09T14:15:41Z</time>
      </trkpt>
      <trkpt lat="45.88975" lon="4.74309">
        <ele>187</ele>
        <time>2018-10-09T14:15:42Z</time>
      </trkpt>
      <trkpt lat="45.88971" lon="4.74319">
        <ele>187</ele>
        <time>2018-10-09T14:15:45Z</time>
      </trkpt>
      <trkpt lat="45.88969" lon="4.74322">
        <ele>187</ele>
        <time>2018-10-09T14:15:46Z</time>
      </trkpt>
      <trkpt lat="45.88964" lon="4.74333">
        <ele>187</ele>
        <time>2018-10-09T14:15:49Z</time>
      </trkpt>
      <trkpt lat="45.88963" lon="4.74336">
        <ele>188</ele>
        <time>2018-10-09T14:15:50Z</time>
      </trkpt>
      <trkpt lat="45.88959" lon="4.74346">
        <ele>188</ele>
        <time>2018-10-09T14:15:53Z</time>
      </trkpt>
      <trkpt lat="45.88958" lon="4.74349">
        <ele>188</ele>
        <time>2018-10-09T14:15:54Z</time>
      </trkpt>
      <trkpt lat="45.88954" lon="4.74359">
        <ele>188</ele>
        <time>2018-10-09T14:15:59Z</time>
      </trkpt>
      <trkpt lat="45.88953" lon="4.74362">
        <ele>188</ele>
        <time>2018-10-09T14:16:00Z</time>
      </trkpt>
      <trkpt lat="45.8895" lon="4.74373">
        <ele>188</ele>
        <time>2018-10-09T14:16:04Z</time>
      </trkpt>
      <trkpt lat="45.88948" lon="4.74377">
        <ele>188</ele>
        <time>2018-10-09T14:16:05Z</time>
      </trkpt>
      <trkpt lat="45.88945" lon="4.74384">
        <ele>188</ele>
        <time>2018-10-09T14:16:07Z</time>
      </trkpt>
      <trkpt lat="45.88943" lon="4.74388">
        <ele>188</ele>
        <time>2018-10-09T14:16:08Z</time>
      </trkpt>
      <trkpt lat="45.8894" lon="4.74397">
        <ele>188</ele>
        <time>2018-10-09T14:16:11Z</time>
      </trkpt>
      <trkpt lat="45.88939" lon="4.744">
        <ele>188</ele>
        <time>2018-10-09T14:16:12Z</time>
      </trkpt>
      <trkpt lat="45.88937" lon="4.74409">
        <ele>188</ele>
        <time>2018-10-09T14:16:14Z</time>
      </trkpt>
      <trkpt lat="45.88938" lon="4.74413">
        <ele>188</ele>
        <time>2018-10-09T14:16:15Z</time>
      </trkpt>
      <trkpt lat="45.88941" lon="4.74422">
        <ele>188</ele>
        <time>2018-10-09T14:16:16Z</time>
      </trkpt>
      <trkpt lat="45.88944" lon="4.74424">
        <ele>188</ele>
        <time>2018-10-09T14:16:17Z</time>
      </trkpt>
      <trkpt lat="45.88951" lon="4.74429">
        <ele>188</ele>
        <time>2018-10-09T14:16:20Z</time>
      </trkpt>
      <trkpt lat="45.88953" lon="4.74431">
        <ele>188</ele>
        <time>2018-10-09T14:16:21Z</time>
      </trkpt>
      <trkpt lat="45.88956" lon="4.74433">
        <ele>188</ele>
        <time>2018-10-09T14:16:22Z</time>
      </trkpt>
      <trkpt lat="45.88963" lon="4.74438">
        <ele>188</ele>
        <time>2018-10-09T14:16:23Z</time>
      </trkpt>
      <trkpt lat="45.88972" lon="4.7444">
        <ele>188</ele>
        <time>2018-10-09T14:16:25Z</time>
      </trkpt>
      <trkpt lat="45.88976" lon="4.7444">
        <ele>188</ele>
        <time>2018-10-09T14:16:26Z</time>
      </trkpt>
      <trkpt lat="45.88983" lon="4.74443">
        <ele>188</ele>
        <time>2018-10-09T14:16:28Z</time>
      </trkpt>
      <trkpt lat="45.88985" lon="4.74444">
        <ele>188</ele>
        <time>2018-10-09T14:16:29Z</time>
      </trkpt>
      <trkpt lat="45.88991" lon="4.74451">
        <ele>188</ele>
        <time>2018-10-09T14:16:32Z</time>
      </trkpt>
      <trkpt lat="45.88992" lon="4.74454">
        <ele>188</ele>
        <time>2018-10-09T14:16:33Z</time>
      </trkpt>
      <trkpt lat="45.88998" lon="4.74463">
        <ele>189</ele>
        <time>2018-10-09T14:16:36Z</time>
      </trkpt>
      <trkpt lat="45.89" lon="4.74465">
        <ele>189</ele>
        <time>2018-10-09T14:16:37Z</time>
      </trkpt>
      <trkpt lat="45.89005" lon="4.74471">
        <ele>188</ele>
        <time>2018-10-09T14:16:39Z</time>
      </trkpt>
      <trkpt lat="45.89006" lon="4.74475">
        <ele>188</ele>
        <time>2018-10-09T14:16:40Z</time>
      </trkpt>
      <trkpt lat="45.89006" lon="4.74487">
        <ele>189</ele>
        <time>2018-10-09T14:16:43Z</time>
      </trkpt>
      <trkpt lat="45.89005" lon="4.74491">
        <ele>189</ele>
        <time>2018-10-09T14:16:44Z</time>
      </trkpt>
      <trkpt lat="45.89009" lon="4.74502">
        <ele>189</ele>
        <time>2018-10-09T14:16:52Z</time>
      </trkpt>
      <trkpt lat="45.89011" lon="4.74503">
        <ele>189</ele>
        <time>2018-10-09T14:16:53Z</time>
      </trkpt>
      <trkpt lat="45.89018" lon="4.74506">
        <ele>189</ele>
        <time>2018-10-09T14:16:56Z</time>
      </trkpt>
      <trkpt lat="45.89019" lon="4.74507">
        <ele>189</ele>
        <time>2018-10-09T14:16:57Z</time>
      </trkpt>
      <trkpt lat="45.89025" lon="4.74517">
        <ele>189</ele>
        <time>2018-10-09T14:17:05Z</time>
      </trkpt>
      <trkpt lat="45.89024" lon="4.74519">
        <ele>189</ele>
        <time>2018-10-09T14:17:06Z</time>
      </trkpt>
      <trkpt lat="45.89021" lon="4.74529">
        <ele>189</ele>
        <time>2018-10-09T14:17:09Z</time>
      </trkpt>
      <trkpt lat="45.8902" lon="4.74533">
        <ele>189</ele>
        <time>2018-10-09T14:17:10Z</time>
      </trkpt>
      <trkpt lat="45.89018" lon="4.74541">
        <ele>189</ele>
        <time>2018-10-09T14:17:12Z</time>
      </trkpt>
      <trkpt lat="45.89017" lon="4.74545">
        <ele>190</ele>
        <time>2018-10-09T14:17:13Z</time>
      </trkpt>
      <trkpt lat="45.89015" lon="4.74554">
        <ele>190</ele>
        <time>2018-10-09T14:17:15Z</time>
      </trkpt>
      <trkpt lat="45.89014" lon="4.74558">
        <ele>190</ele>
        <time>2018-10-09T14:17:16Z</time>
      </trkpt>
      <trkpt lat="45.89013" lon="4.74569">
        <ele>190</ele>
        <time>2018-10-09T14:17:19Z</time>
      </trkpt>
      <trkpt lat="45.89013" lon="4.74571">
        <ele>190</ele>
        <time>2018-10-09T14:17:20Z</time>
      </trkpt>
      <trkpt lat="45.89015" lon="4.74581">
        <ele>190</ele>
        <time>2018-10-09T14:17:25Z</time>
      </trkpt>
      <trkpt lat="45.89015" lon="4.74584">
        <ele>191</ele>
        <time>2018-10-09T14:17:26Z</time>
      </trkpt>
      <trkpt lat="45.89013" lon="4.74594">
        <ele>191</ele>
        <time>2018-10-09T14:17:30Z</time>
      </trkpt>
      <trkpt lat="45.89012" lon="4.74597">
        <ele>191</ele>
        <time>2018-10-09T14:17:31Z</time>
      </trkpt>
      <trkpt lat="45.8901" lon="4.74607">
        <ele>191</ele>
        <time>2018-10-09T14:17:35Z</time>
      </trkpt>
      <trkpt lat="45.8901" lon="4.7461">
        <ele>191</ele>
        <time>2018-10-09T14:17:36Z</time>
      </trkpt>
      <trkpt lat="45.89008" lon="4.74621">
        <ele>192</ele>
        <time>2018-10-09T14:17:40Z</time>
      </trkpt>
      <trkpt lat="45.89008" lon="4.74624">
        <ele>192</ele>
        <time>2018-10-09T14:17:41Z</time>
      </trkpt>
      <trkpt lat="45.89007" lon="4.74634">
        <ele>192</ele>
        <time>2018-10-09T14:17:45Z</time>
      </trkpt>
      <trkpt lat="45.89007" lon="4.74637">
        <ele>192</ele>
        <time>2018-10-09T14:17:46Z</time>
      </trkpt>
      <trkpt lat="45.8901" lon="4.74648">
        <ele>192</ele>
        <time>2018-10-09T14:17:51Z</time>
      </trkpt>
      <trkpt lat="45.8901" lon="4.74651">
        <ele>193</ele>
        <time>2018-10-09T14:17:52Z</time>
      </trkpt>
      <trkpt lat="45.8901" lon="4.74662">
        <ele>193</ele>
        <time>2018-10-09T14:18:28Z</time>
      </trkpt>
      <trkpt lat="45.8901" lon="4.74662">
        <ele>193</ele>
        <time>2018-10-09T14:18:29Z</time>
      </trkpt>
      <trkpt lat="45.8901" lon="4.74662">
        <ele>193</ele>
        <time>2018-10-09T14:18:30Z</time>
      </trkpt>
      <trkpt lat="45.89003" lon="4.74663">
        <ele>194</ele>
        <time>2018-10-09T14:24:05Z</time>
      </trkpt>
      <trkpt lat="45.89003" lon="4.74662">
        <ele>193</ele>
        <time>2018-10-09T14:24:06Z</time>
      </trkpt>
      <trkpt lat="45.89003" lon="4.74662">
        <ele>193</ele>
        <time>2018-10-09T14:24:07Z</time>
      </trkpt>
      <trkpt lat="45.89005" lon="4.74656">
        <ele>193</ele>
        <time>2018-10-09T14:25:15Z</time>
      </trkpt>
      <trkpt lat="45.89005" lon="4.74656">
        <ele>193</ele>
        <time>2018-10-09T14:25:16Z</time>
      </trkpt>
      <trkpt lat="45.89005" lon="4.74656">
        <ele>193</ele>
        <time>2018-10-09T14:25:17Z</time>
      </trkpt>
      <trkpt lat="45.89005" lon="4.74656">
        <ele>193</ele>
        <time>2018-10-09T14:25:18Z</time>
      </trkpt>
      <trkpt lat="45.89005" lon="4.74656">
        <ele>193</ele>
        <time>2018-10-09T14:25:19Z</time>
      </trkpt>
      <trkpt lat="45.89008" lon="4.74659">
        <ele>193</ele>
        <time>2018-10-09T14:25:33Z</time>
      </trkpt>
      <trkpt lat="45.89008" lon="4.7466">
        <ele>193</ele>
        <time>2018-10-09T14:25:34Z</time>
      </trkpt>
      <trkpt lat="45.89002" lon="4.74666">
        <ele>194</ele>
        <time>2018-10-09T14:25:42Z</time>
      </trkpt>
      <trkpt lat="45.89" lon="4.74668">
        <ele>194</ele>
        <time>2018-10-09T14:25:43Z</time>
      </trkpt>
      <trkpt lat="45.88998" lon="4.74679">
        <ele>195</ele>
        <time>2018-10-09T14:25:49Z</time>
      </trkpt>
      <trkpt lat="45.88998" lon="4.74682">
        <ele>195</ele>
        <time>2018-10-09T14:25:50Z</time>
      </trkpt>
      <trkpt lat="45.88998" lon="4.74692">
        <ele>195</ele>
        <time>2018-10-09T14:25:54Z</time>
      </trkpt>
      <trkpt lat="45.88998" lon="4.74695">
        <ele>196</ele>
        <time>2018-10-09T14:25:55Z</time>
      </trkpt>
      <trkpt lat="45.88997" lon="4.74707">
        <ele>196</ele>
        <time>2018-10-09T14:26:00Z</time>
      </trkpt>
      <trkpt lat="45.88996" lon="4.74709">
        <ele>196</ele>
        <time>2018-10-09T14:26:01Z</time>
      </trkpt>
      <trkpt lat="45.88994" lon="4.74721">
        <ele>196</ele>
        <time>2018-10-09T14:26:06Z</time>
      </trkpt>
      <trkpt lat="45.88994" lon="4.74723">
        <ele>196</ele>
        <time>2018-10-09T14:26:07Z</time>
      </trkpt>
      <trkpt lat="45.88999" lon="4.7473">
        <ele>197</ele>
        <time>2018-10-09T14:26:11Z</time>
      </trkpt>
      <trkpt lat="45.89002" lon="4.74731">
        <ele>196</ele>
        <time>2018-10-09T14:26:12Z</time>
      </trkpt>
      <trkpt lat="45.89009" lon="4.74731">
        <ele>196</ele>
        <time>2018-10-09T14:26:15Z</time>
      </trkpt>
      <trkpt lat="45.89013" lon="4.7473">
        <ele>196</ele>
        <time>2018-10-09T14:26:16Z</time>
      </trkpt>
      <trkpt lat="45.8902" lon="4.7473">
        <ele>196</ele>
        <time>2018-10-09T14:26:19Z</time>
      </trkpt>
      <trkpt lat="45.89022" lon="4.74732">
        <ele>196</ele>
        <time>2018-10-09T14:26:20Z</time>
      </trkpt>
      <trkpt lat="45.89025" lon="4.74742">
        <ele>196</ele>
        <time>2018-10-09T14:26:23Z</time>
      </trkpt>
      <trkpt lat="45.89025" lon="4.74746">
        <ele>196</ele>
        <time>2018-10-09T14:26:24Z</time>
      </trkpt>
      <trkpt lat="45.89026" lon="4.74758">
        <ele>198</ele>
        <time>2018-10-09T14:26:27Z</time>
      </trkpt>
      <trkpt lat="45.89027" lon="4.74762">
        <ele>198</ele>
        <time>2018-10-09T14:26:28Z</time>
      </trkpt>
      <trkpt lat="45.89027" lon="4.74773">
        <ele>198</ele>
        <time>2018-10-09T14:26:31Z</time>
      </trkpt>
      <trkpt lat="45.89028" lon="4.74777">
        <ele>198</ele>
        <time>2018-10-09T14:26:32Z</time>
      </trkpt>
      <trkpt lat="45.89029" lon="4.74787">
        <ele>198</ele>
        <time>2018-10-09T14:26:35Z</time>
      </trkpt>
      <trkpt lat="45.8903" lon="4.74791">
        <ele>198</ele>
        <time>2018-10-09T14:26:36Z</time>
      </trkpt>
      <trkpt lat="45.89031" lon="4.74801">
        <ele>198</ele>
        <time>2018-10-09T14:26:39Z</time>
      </trkpt>
      <trkpt lat="45.89032" lon="4.74805">
        <ele>199</ele>
        <time>2018-10-09T14:26:40Z</time>
      </trkpt>
      <trkpt lat="45.89033" lon="4.74817">
        <ele>199</ele>
        <time>2018-10-09T14:26:43Z</time>
      </trkpt>
      <trkpt lat="45.89033" lon="4.7482">
        <ele>199</ele>
        <time>2018-10-09T14:26:44Z</time>
      </trkpt>
      <trkpt lat="45.89034" lon="4.74831">
        <ele>199</ele>
        <time>2018-10-09T14:26:47Z</time>
      </trkpt>
      <trkpt lat="45.89035" lon="4.74835">
        <ele>199</ele>
        <time>2018-10-09T14:26:48Z</time>
      </trkpt>
      <trkpt lat="45.89036" lon="4.74847">
        <ele>199</ele>
        <time>2018-10-09T14:26:51Z</time>
      </trkpt>
      <trkpt lat="45.89037" lon="4.74851">
        <ele>199</ele>
        <time>2018-10-09T14:26:52Z</time>
      </trkpt>
      <trkpt lat="45.89039" lon="4.74861">
        <ele>199</ele>
        <time>2018-10-09T14:26:55Z</time>
      </trkpt>
      <trkpt lat="45.89039" lon="4.74865">
        <ele>199</ele>
        <time>2018-10-09T14:26:56Z</time>
      </trkpt>
      <trkpt lat="45.89042" lon="4.74875">
        <ele>199</ele>
        <time>2018-10-09T14:27:00Z</time>
      </trkpt>
      <trkpt lat="45.89041" lon="4.74878">
        <ele>199</ele>
        <time>2018-10-09T14:27:01Z</time>
      </trkpt>
      <trkpt lat="45.89037" lon="4.74886">
        <ele>199</ele>
        <time>2018-10-09T14:27:04Z</time>
      </trkpt>
      <trkpt lat="45.89035" lon="4.74888">
        <ele>199</ele>
        <time>2018-10-09T14:27:05Z</time>
      </trkpt>
      <trkpt lat="45.89029" lon="4.74896">
        <ele>199</ele>
        <time>2018-10-09T14:27:08Z</time>
      </trkpt>
      <trkpt lat="45.89028" lon="4.74899">
        <ele>199</ele>
        <time>2018-10-09T14:27:09Z</time>
      </trkpt>
      <trkpt lat="45.89024" lon="4.7491">
        <ele>199</ele>
        <time>2018-10-09T14:27:12Z</time>
      </trkpt>
      <trkpt lat="45.89023" lon="4.74914">
        <ele>199</ele>
        <time>2018-10-09T14:27:13Z</time>
      </trkpt>
      <trkpt lat="45.89021" lon="4.74925">
        <ele>199</ele>
        <time>2018-10-09T14:27:15Z</time>
      </trkpt>
      <trkpt lat="45.8902" lon="4.74929">
        <ele>199</ele>
        <time>2018-10-09T14:27:16Z</time>
      </trkpt>
      <trkpt lat="45.89017" lon="4.74938">
        <ele>199</ele>
        <time>2018-10-09T14:27:18Z</time>
      </trkpt>
      <trkpt lat="45.89016" lon="4.74942">
        <ele>199</ele>
        <time>2018-10-09T14:27:19Z</time>
      </trkpt>
      <trkpt lat="45.89014" lon="4.74951">
        <ele>199</ele>
        <time>2018-10-09T14:27:21Z</time>
      </trkpt>
      <trkpt lat="45.89013" lon="4.74955">
        <ele>199</ele>
        <time>2018-10-09T14:27:22Z</time>
      </trkpt>
      <trkpt lat="45.89012" lon="4.74966">
        <ele>199</ele>
        <time>2018-10-09T14:27:25Z</time>
      </trkpt>
      <trkpt lat="45.89012" lon="4.74969">
        <ele>199</ele>
        <time>2018-10-09T14:27:26Z</time>
      </trkpt>
      <trkpt lat="45.89013" lon="4.74982">
        <ele>199</ele>
        <time>2018-10-09T14:27:29Z</time>
      </trkpt>
      <trkpt lat="45.89013" lon="4.74986">
        <ele>199</ele>
        <time>2018-10-09T14:27:30Z</time>
      </trkpt>
      <trkpt lat="45.89015" lon="4.74997">
        <ele>199</ele>
        <time>2018-10-09T14:27:31Z</time>
      </trkpt>
      <trkpt lat="45.89015" lon="4.75">
        <ele>199</ele>
        <time>2018-10-09T14:27:32Z</time>
      </trkpt>
      <trkpt lat="45.89015" lon="4.75012">
        <ele>199</ele>
        <time>2018-10-09T14:27:35Z</time>
      </trkpt>
      <trkpt lat="45.89015" lon="4.75016">
        <ele>199</ele>
        <time>2018-10-09T14:27:36Z</time>
      </trkpt>
      <trkpt lat="45.89016" lon="4.75025">
        <ele>199</ele>
        <time>2018-10-09T14:27:38Z</time>
      </trkpt>
      <trkpt lat="45.89016" lon="4.75035">
        <ele>199</ele>
        <time>2018-10-09T14:27:39Z</time>
      </trkpt>
      <trkpt lat="45.89017" lon="4.75045">
        <ele>199</ele>
        <time>2018-10-09T14:27:42Z</time>
      </trkpt>
      <trkpt lat="45.89017" lon="4.75049">
        <ele>199</ele>
        <time>2018-10-09T14:27:43Z</time>
      </trkpt>
      <trkpt lat="45.8902" lon="4.75061">
        <ele>199</ele>
        <time>2018-10-09T14:27:46Z</time>
      </trkpt>
      <trkpt lat="45.89022" lon="4.75065">
        <ele>199</ele>
        <time>2018-10-09T14:27:47Z</time>
      </trkpt>
      <trkpt lat="45.89026" lon="4.75073">
        <ele>199</ele>
        <time>2018-10-09T14:27:49Z</time>
      </trkpt>
      <trkpt lat="45.89028" lon="4.75076">
        <ele>199</ele>
        <time>2018-10-09T14:27:50Z</time>
      </trkpt>
      <trkpt lat="45.89031" lon="4.75083">
        <ele>199</ele>
        <time>2018-10-09T14:27:52Z</time>
      </trkpt>
      <trkpt lat="45.89036" lon="4.75091">
        <ele>199</ele>
        <time>2018-10-09T14:27:53Z</time>
      </trkpt>
      <trkpt lat="45.8904" lon="4.75099">
        <ele>199</ele>
        <time>2018-10-09T14:27:55Z</time>
      </trkpt>
      <trkpt lat="45.89042" lon="4.75102">
        <ele>199</ele>
        <time>2018-10-09T14:27:56Z</time>
      </trkpt>
      <trkpt lat="45.89047" lon="4.7511">
        <ele>199</ele>
        <time>2018-10-09T14:27:59Z</time>
      </trkpt>
      <trkpt lat="45.89048" lon="4.75113">
        <ele>199</ele>
        <time>2018-10-09T14:28:00Z</time>
      </trkpt>
      <trkpt lat="45.89053" lon="4.75123">
        <ele>199</ele>
        <time>2018-10-09T14:28:03Z</time>
      </trkpt>
      <trkpt lat="45.89054" lon="4.75127">
        <ele>199</ele>
        <time>2018-10-09T14:28:04Z</time>
      </trkpt>
      <trkpt lat="45.89057" lon="4.75135">
        <ele>199</ele>
        <time>2018-10-09T14:28:06Z</time>
      </trkpt>
      <trkpt lat="45.89058" lon="4.7514">
        <ele>199</ele>
        <time>2018-10-09T14:28:07Z</time>
      </trkpt>
      <trkpt lat="45.8906" lon="4.75149">
        <ele>199</ele>
        <time>2018-10-09T14:28:09Z</time>
      </trkpt>
      <trkpt lat="45.89061" lon="4.75159">
        <ele>199</ele>
        <time>2018-10-09T14:28:10Z</time>
      </trkpt>
      <trkpt lat="45.89063" lon="4.7517">
        <ele>199</ele>
        <time>2018-10-09T14:28:12Z</time>
      </trkpt>
      <trkpt lat="45.89064" lon="4.75173">
        <ele>199</ele>
        <time>2018-10-09T14:28:13Z</time>
      </trkpt>
      <trkpt lat="45.89065" lon="4.75183">
        <ele>199</ele>
        <time>2018-10-09T14:28:16Z</time>
      </trkpt>
      <trkpt lat="45.89066" lon="4.75187">
        <ele>199</ele>
        <time>2018-10-09T14:28:17Z</time>
      </trkpt>
      <trkpt lat="45.89066" lon="4.75191">
        <ele>199</ele>
        <time>2018-10-09T14:28:18Z</time>
      </trkpt>
      <trkpt lat="45.89066" lon="4.75201">
        <ele>199</ele>
        <time>2018-10-09T14:28:19Z</time>
      </trkpt>
      <trkpt lat="45.89064" lon="4.75212">
        <ele>199</ele>
        <time>2018-10-09T14:28:21Z</time>
      </trkpt>
      <trkpt lat="45.89063" lon="4.75215">
        <ele>199</ele>
        <time>2018-10-09T14:28:22Z</time>
      </trkpt>
      <trkpt lat="45.8906" lon="4.75225">
        <ele>199</ele>
        <time>2018-10-09T14:28:25Z</time>
      </trkpt>
      <trkpt lat="45.89059" lon="4.75235">
        <ele>199</ele>
        <time>2018-10-09T14:28:26Z</time>
      </trkpt>
      <trkpt lat="45.89057" lon="4.75247">
        <ele>199</ele>
        <time>2018-10-09T14:28:28Z</time>
      </trkpt>
      <trkpt lat="45.89056" lon="4.75253">
        <ele>199</ele>
        <time>2018-10-09T14:28:29Z</time>
      </trkpt>
      <trkpt lat="45.89054" lon="4.75265">
        <ele>199</ele>
        <time>2018-10-09T14:28:31Z</time>
      </trkpt>
      <trkpt lat="45.89054" lon="4.75269">
        <ele>199</ele>
        <time>2018-10-09T14:28:32Z</time>
      </trkpt>
      <trkpt lat="45.89053" lon="4.7528">
        <ele>199</ele>
        <time>2018-10-09T14:28:35Z</time>
      </trkpt>
      <trkpt lat="45.89053" lon="4.75284">
        <ele>199</ele>
        <time>2018-10-09T14:28:36Z</time>
      </trkpt>
      <trkpt lat="45.89051" lon="4.75295">
        <ele>199</ele>
        <time>2018-10-09T14:28:39Z</time>
      </trkpt>
      <trkpt lat="45.8905" lon="4.753">
        <ele>199</ele>
        <time>2018-10-09T14:28:40Z</time>
      </trkpt>
      <trkpt lat="45.89049" lon="4.75309">
        <ele>199</ele>
        <time>2018-10-09T14:28:41Z</time>
      </trkpt>
      <trkpt lat="45.89048" lon="4.75315">
        <ele>199</ele>
        <time>2018-10-09T14:28:42Z</time>
      </trkpt>
      <trkpt lat="45.89047" lon="4.75326">
        <ele>199</ele>
        <time>2018-10-09T14:28:44Z</time>
      </trkpt>
      <trkpt lat="45.89046" lon="4.75332">
        <ele>199</ele>
        <time>2018-10-09T14:28:45Z</time>
      </trkpt>
      <trkpt lat="45.89045" lon="4.75343">
        <ele>199</ele>
        <time>2018-10-09T14:28:48Z</time>
      </trkpt>
      <trkpt lat="45.89045" lon="4.75347">
        <ele>199</ele>
        <time>2018-10-09T14:28:49Z</time>
      </trkpt>
      <trkpt lat="45.89044" lon="4.75357">
        <ele>199</ele>
        <time>2018-10-09T14:28:50Z</time>
      </trkpt>
      <trkpt lat="45.89044" lon="4.75363">
        <ele>199</ele>
        <time>2018-10-09T14:28:51Z</time>
      </trkpt>
      <trkpt lat="45.89043" lon="4.75375">
        <ele>199</ele>
        <time>2018-10-09T14:28:54Z</time>
      </trkpt>
      <trkpt lat="45.89043" lon="4.75379">
        <ele>199</ele>
        <time>2018-10-09T14:28:55Z</time>
      </trkpt>
      <trkpt lat="45.89042" lon="4.7539">
        <ele>199</ele>
        <time>2018-10-09T14:28:58Z</time>
      </trkpt>
      <trkpt lat="45.89042" lon="4.75393">
        <ele>199</ele>
        <time>2018-10-09T14:28:59Z</time>
      </trkpt>
      <trkpt lat="45.89038" lon="4.75402">
        <ele>199</ele>
        <time>2018-10-09T14:29:02Z</time>
      </trkpt>
      <trkpt lat="45.89032" lon="4.75408">
        <ele>199</ele>
        <time>2018-10-09T14:29:03Z</time>
      </trkpt>
      <trkpt lat="45.89023" lon="4.7541">
        <ele>199</ele>
        <time>2018-10-09T14:29:05Z</time>
      </trkpt>
      <trkpt lat="45.89018" lon="4.7541">
        <ele>199</ele>
        <time>2018-10-09T14:29:06Z</time>
      </trkpt>
      <trkpt lat="45.89014" lon="4.75412">
        <ele>199</ele>
        <time>2018-10-09T14:29:07Z</time>
      </trkpt>
      <trkpt lat="45.8901" lon="4.75414">
        <ele>199</ele>
        <time>2018-10-09T14:29:08Z</time>
      </trkpt>
      <trkpt lat="45.89002" lon="4.75419">
        <ele>199</ele>
        <time>2018-10-09T14:29:10Z</time>
      </trkpt>
      <trkpt lat="45.88999" lon="4.7542">
        <ele>199</ele>
        <time>2018-10-09T14:29:11Z</time>
      </trkpt>
      <trkpt lat="45.88991" lon="4.75424">
        <ele>199</ele>
        <time>2018-10-09T14:29:13Z</time>
      </trkpt>
      <trkpt lat="45.88987" lon="4.75424">
        <ele>199</ele>
        <time>2018-10-09T14:29:14Z</time>
      </trkpt>
      <trkpt lat="45.88979" lon="4.75425">
        <ele>199</ele>
        <time>2018-10-09T14:29:16Z</time>
      </trkpt>
      <trkpt lat="45.88975" lon="4.75425">
        <ele>199</ele>
        <time>2018-10-09T14:29:17Z</time>
      </trkpt>
      <trkpt lat="45.88966" lon="4.75425">
        <ele>199</ele>
        <time>2018-10-09T14:29:20Z</time>
      </trkpt>
      <trkpt lat="45.88963" lon="4.75425">
        <ele>199</ele>
        <time>2018-10-09T14:29:21Z</time>
      </trkpt>
      <trkpt lat="45.88956" lon="4.75432">
        <ele>199</ele>
        <time>2018-10-09T14:29:24Z</time>
      </trkpt>
      <trkpt lat="45.88953" lon="4.75441">
        <ele>199</ele>
        <time>2018-10-09T14:29:25Z</time>
      </trkpt>
      <trkpt lat="45.88954" lon="4.75454">
        <ele>199</ele>
        <time>2018-10-09T14:29:27Z</time>
      </trkpt>
      <trkpt lat="45.88954" lon="4.7546">
        <ele>199</ele>
        <time>2018-10-09T14:29:28Z</time>
      </trkpt>
      <trkpt lat="45.88955" lon="4.75472">
        <ele>199</ele>
        <time>2018-10-09T14:29:30Z</time>
      </trkpt>
      <trkpt lat="45.88955" lon="4.75477">
        <ele>199</ele>
        <time>2018-10-09T14:29:31Z</time>
      </trkpt>
      <trkpt lat="45.88955" lon="4.75489">
        <ele>199</ele>
        <time>2018-10-09T14:29:33Z</time>
      </trkpt>
      <trkpt lat="45.88956" lon="4.75496">
        <ele>198</ele>
        <time>2018-10-09T14:29:34Z</time>
      </trkpt>
      <trkpt lat="45.88956" lon="4.75508">
        <ele>198</ele>
        <time>2018-10-09T14:29:36Z</time>
      </trkpt>
      <trkpt lat="45.88957" lon="4.75515">
        <ele>198</ele>
        <time>2018-10-09T14:29:37Z</time>
      </trkpt>
      <trkpt lat="45.88958" lon="4.75525">
        <ele>198</ele>
        <time>2018-10-09T14:29:39Z</time>
      </trkpt>
      <trkpt lat="45.88959" lon="4.75528">
        <ele>198</ele>
        <time>2018-10-09T14:29:40Z</time>
      </trkpt>
      <trkpt lat="45.88959" lon="4.75537">
        <ele>198</ele>
        <time>2018-10-09T14:29:42Z</time>
      </trkpt>
      <trkpt lat="45.88959" lon="4.75546">
        <ele>198</ele>
        <time>2018-10-09T14:29:43Z</time>
      </trkpt>
      <trkpt lat="45.8896" lon="4.75558">
        <ele>198</ele>
        <time>2018-10-09T14:29:45Z</time>
      </trkpt>
      <trkpt lat="45.8896" lon="4.75565">
        <ele>198</ele>
        <time>2018-10-09T14:29:46Z</time>
      </trkpt>
      <trkpt lat="45.88961" lon="4.75572">
        <ele>198</ele>
        <time>2018-10-09T14:29:47Z</time>
      </trkpt>
      <trkpt lat="45.88962" lon="4.75579">
        <ele>198</ele>
        <time>2018-10-09T14:29:48Z</time>
      </trkpt>
      <trkpt lat="45.88962" lon="4.75586">
        <ele>198</ele>
        <time>2018-10-09T14:29:49Z</time>
      </trkpt>
      <trkpt lat="45.88963" lon="4.75592">
        <ele>198</ele>
        <time>2018-10-09T14:29:50Z</time>
      </trkpt>
      <trkpt lat="45.88965" lon="4.75604">
        <ele>198</ele>
        <time>2018-10-09T14:29:52Z</time>
      </trkpt>
      <trkpt lat="45.88967" lon="4.75609">
        <ele>198</ele>
        <time>2018-10-09T14:29:53Z</time>
      </trkpt>
      <trkpt lat="45.88969" lon="4.75619">
        <ele>198</ele>
        <time>2018-10-09T14:29:55Z</time>
      </trkpt>
      <trkpt lat="45.88969" lon="4.75624">
        <ele>198</ele>
        <time>2018-10-09T14:29:56Z</time>
      </trkpt>
      <trkpt lat="45.88972" lon="4.75635">
        <ele>198</ele>
        <time>2018-10-09T14:29:58Z</time>
      </trkpt>
      <trkpt lat="45.88973" lon="4.75641">
        <ele>198</ele>
        <time>2018-10-09T14:29:59Z</time>
      </trkpt>
      <trkpt lat="45.88976" lon="4.75651">
        <ele>198</ele>
        <time>2018-10-09T14:30:01Z</time>
      </trkpt>
      <trkpt lat="45.88977" lon="4.75657">
        <ele>198</ele>
        <time>2018-10-09T14:30:02Z</time>
      </trkpt>
      <trkpt lat="45.88978" lon="4.75666">
        <ele>198</ele>
        <time>2018-10-09T14:30:04Z</time>
      </trkpt>
      <trkpt lat="45.88979" lon="4.7567">
        <ele>198</ele>
        <time>2018-10-09T14:30:05Z</time>
      </trkpt>
      <trkpt lat="45.8898" lon="4.75674">
        <ele>198</ele>
        <time>2018-10-09T14:30:06Z</time>
      </trkpt>
      <trkpt lat="45.88981" lon="4.75683">
        <ele>199</ele>
        <time>2018-10-09T14:30:07Z</time>
      </trkpt>
      <trkpt lat="45.88983" lon="4.75694">
        <ele>199</ele>
        <time>2018-10-09T14:30:09Z</time>
      </trkpt>
      <trkpt lat="45.88985" lon="4.757">
        <ele>199</ele>
        <time>2018-10-09T14:30:10Z</time>
      </trkpt>
      <trkpt lat="45.88986" lon="4.75705">
        <ele>199</ele>
        <time>2018-10-09T14:30:11Z</time>
      </trkpt>
      <trkpt lat="45.88987" lon="4.75712">
        <ele>199</ele>
        <time>2018-10-09T14:30:12Z</time>
      </trkpt>
      <trkpt lat="45.88989" lon="4.75724">
        <ele>198</ele>
        <time>2018-10-09T14:30:14Z</time>
      </trkpt>
      <trkpt lat="45.88989" lon="4.7573">
        <ele>198</ele>
        <time>2018-10-09T14:30:15Z</time>
      </trkpt>
      <trkpt lat="45.88991" lon="4.75741">
        <ele>198</ele>
        <time>2018-10-09T14:30:17Z</time>
      </trkpt>
      <trkpt lat="45.88992" lon="4.75747">
        <ele>198</ele>
        <time>2018-10-09T14:30:18Z</time>
      </trkpt>
      <trkpt lat="45.88995" lon="4.75758">
        <ele>198</ele>
        <time>2018-10-09T14:30:20Z</time>
      </trkpt>
      <trkpt lat="45.88997" lon="4.75763">
        <ele>198</ele>
        <time>2018-10-09T14:30:21Z</time>
      </trkpt>
      <trkpt lat="45.89" lon="4.75775">
        <ele>199</ele>
        <time>2018-10-09T14:30:23Z</time>
      </trkpt>
      <trkpt lat="45.89002" lon="4.75781">
        <ele>199</ele>
        <time>2018-10-09T14:30:24Z</time>
      </trkpt>
      <trkpt lat="45.89005" lon="4.75793">
        <ele>199</ele>
        <time>2018-10-09T14:30:26Z</time>
      </trkpt>
      <trkpt lat="45.89006" lon="4.75799">
        <ele>199</ele>
        <time>2018-10-09T14:30:27Z</time>
      </trkpt>
      <trkpt lat="45.8901" lon="4.7581">
        <ele>199</ele>
        <time>2018-10-09T14:30:29Z</time>
      </trkpt>
      <trkpt lat="45.89011" lon="4.75815">
        <ele>199</ele>
        <time>2018-10-09T14:30:30Z</time>
      </trkpt>
      <trkpt lat="45.89014" lon="4.75825">
        <ele>199</ele>
        <time>2018-10-09T14:30:32Z</time>
      </trkpt>
      <trkpt lat="45.89014" lon="4.75828">
        <ele>199</ele>
        <time>2018-10-09T14:30:33Z</time>
      </trkpt>
      <trkpt lat="45.89015" lon="4.75836">
        <ele>200</ele>
        <time>2018-10-09T14:30:34Z</time>
      </trkpt>
      <trkpt lat="45.89016" lon="4.75841">
        <ele>200</ele>
        <time>2018-10-09T14:30:35Z</time>
      </trkpt>
      <trkpt lat="45.89015" lon="4.75854">
        <ele>200</ele>
        <time>2018-10-09T14:30:37Z</time>
      </trkpt>
      <trkpt lat="45.89013" lon="4.7586">
        <ele>200</ele>
        <time>2018-10-09T14:30:38Z</time>
      </trkpt>
      <trkpt lat="45.89012" lon="4.75866">
        <ele>200</ele>
        <time>2018-10-09T14:30:39Z</time>
      </trkpt>
      <trkpt lat="45.89009" lon="4.75872">
        <ele>200</ele>
        <time>2018-10-09T14:30:40Z</time>
      </trkpt>
      <trkpt lat="45.89005" lon="4.75884">
        <ele>200</ele>
        <time>2018-10-09T14:30:42Z</time>
      </trkpt>
      <trkpt lat="45.89003" lon="4.75889">
        <ele>200</ele>
        <time>2018-10-09T14:30:43Z</time>
      </trkpt>
      <trkpt lat="45.88999" lon="4.75899">
        <ele>199</ele>
        <time>2018-10-09T14:30:45Z</time>
      </trkpt>
      <trkpt lat="45.88998" lon="4.75904">
        <ele>199</ele>
        <time>2018-10-09T14:30:46Z</time>
      </trkpt>
      <trkpt lat="45.88994" lon="4.75915">
        <ele>200</ele>
        <time>2018-10-09T14:30:48Z</time>
      </trkpt>
      <trkpt lat="45.88993" lon="4.7592">
        <ele>200</ele>
        <time>2018-10-09T14:30:49Z</time>
      </trkpt>
      <trkpt lat="45.88989" lon="4.7593">
        <ele>199</ele>
        <time>2018-10-09T14:30:51Z</time>
      </trkpt>
      <trkpt lat="45.88988" lon="4.75933">
        <ele>199</ele>
        <time>2018-10-09T14:30:52Z</time>
      </trkpt>
      <trkpt lat="45.88985" lon="4.75942">
        <ele>199</ele>
        <time>2018-10-09T14:30:55Z</time>
      </trkpt>
      <trkpt lat="45.88985" lon="4.75946">
        <ele>199</ele>
        <time>2018-10-09T14:30:56Z</time>
      </trkpt>
      <trkpt lat="45.88986" lon="4.75954">
        <ele>199</ele>
        <time>2018-10-09T14:30:58Z</time>
      </trkpt>
      <trkpt lat="45.88989" lon="4.75963">
        <ele>199</ele>
        <time>2018-10-09T14:30:59Z</time>
      </trkpt>
      <trkpt lat="45.88993" lon="4.75974">
        <ele>199</ele>
        <time>2018-10-09T14:31:01Z</time>
      </trkpt>
      <trkpt lat="45.88996" lon="4.75979">
        <ele>200</ele>
        <time>2018-10-09T14:31:02Z</time>
      </trkpt>
      <trkpt lat="45.89" lon="4.75988">
        <ele>200</ele>
        <time>2018-10-09T14:31:04Z</time>
      </trkpt>
      <trkpt lat="45.89001" lon="4.75993">
        <ele>200</ele>
        <time>2018-10-09T14:31:05Z</time>
      </trkpt>
      <trkpt lat="45.89005" lon="4.76003">
        <ele>200</ele>
        <time>2018-10-09T14:31:08Z</time>
      </trkpt>
      <trkpt lat="45.89007" lon="4.76007">
        <ele>200</ele>
        <time>2018-10-09T14:31:09Z</time>
      </trkpt>
      <trkpt lat="45.89008" lon="4.7601">
        <ele>200</ele>
        <time>2018-10-09T14:31:10Z</time>
      </trkpt>
      <trkpt lat="45.89012" lon="4.7602">
        <ele>199</ele>
        <time>2018-10-09T14:31:11Z</time>
      </trkpt>
      <trkpt lat="45.89017" lon="4.76029">
        <ele>199</ele>
        <time>2018-10-09T14:31:13Z</time>
      </trkpt>
      <trkpt lat="45.89021" lon="4.76033">
        <ele>199</ele>
        <time>2018-10-09T14:31:14Z</time>
      </trkpt>
      <trkpt lat="45.89026" lon="4.76042">
        <ele>199</ele>
        <time>2018-10-09T14:31:16Z</time>
      </trkpt>
      <trkpt lat="45.89028" lon="4.76046">
        <ele>199</ele>
        <time>2018-10-09T14:31:17Z</time>
      </trkpt>
      <trkpt lat="45.89033" lon="4.76055">
        <ele>199</ele>
        <time>2018-10-09T14:31:19Z</time>
      </trkpt>
      <trkpt lat="45.89036" lon="4.76059">
        <ele>199</ele>
        <time>2018-10-09T14:31:20Z</time>
      </trkpt>
      <trkpt lat="45.8904" lon="4.76066">
        <ele>199</ele>
        <time>2018-10-09T14:31:22Z</time>
      </trkpt>
      <trkpt lat="45.89042" lon="4.76073">
        <ele>199</ele>
        <time>2018-10-09T14:31:23Z</time>
      </trkpt>
      <trkpt lat="45.89046" lon="4.76083">
        <ele>198</ele>
        <time>2018-10-09T14:31:25Z</time>
      </trkpt>
      <trkpt lat="45.89047" lon="4.76089">
        <ele>197</ele>
        <time>2018-10-09T14:31:26Z</time>
      </trkpt>
      <trkpt lat="45.89051" lon="4.76099">
        <ele>197</ele>
        <time>2018-10-09T14:31:28Z</time>
      </trkpt>
      <trkpt lat="45.89053" lon="4.76104">
        <ele>197</ele>
        <time>2018-10-09T14:31:29Z</time>
      </trkpt>
      <trkpt lat="45.89058" lon="4.76113">
        <ele>197</ele>
        <time>2018-10-09T14:31:32Z</time>
      </trkpt>
      <trkpt lat="45.89062" lon="4.7612">
        <ele>197</ele>
        <time>2018-10-09T14:31:33Z</time>
      </trkpt>
      <trkpt lat="45.89066" lon="4.76129">
        <ele>197</ele>
        <time>2018-10-09T14:31:36Z</time>
      </trkpt>
      <trkpt lat="45.89069" lon="4.76137">
        <ele>197</ele>
        <time>2018-10-09T14:31:37Z</time>
      </trkpt>
      <trkpt lat="45.89074" lon="4.76147">
        <ele>196</ele>
        <time>2018-10-09T14:31:39Z</time>
      </trkpt>
      <trkpt lat="45.89077" lon="4.76152">
        <ele>196</ele>
        <time>2018-10-09T14:31:40Z</time>
      </trkpt>
      <trkpt lat="45.89082" lon="4.76159">
        <ele>196</ele>
        <time>2018-10-09T14:31:43Z</time>
      </trkpt>
      <trkpt lat="45.89083" lon="4.76162">
        <ele>195</ele>
        <time>2018-10-09T14:31:44Z</time>
      </trkpt>
      <trkpt lat="45.89085" lon="4.76166">
        <ele>195</ele>
        <time>2018-10-09T14:31:45Z</time>
      </trkpt>
      <trkpt lat="45.8909" lon="4.76175">
        <ele>195</ele>
        <time>2018-10-09T14:31:46Z</time>
      </trkpt>
      <trkpt lat="45.89095" lon="4.76184">
        <ele>196</ele>
        <time>2018-10-09T14:31:48Z</time>
      </trkpt>
      <trkpt lat="45.89097" lon="4.76188">
        <ele>196</ele>
        <time>2018-10-09T14:31:49Z</time>
      </trkpt>
      <trkpt lat="45.89102" lon="4.76196">
        <ele>196</ele>
        <time>2018-10-09T14:31:52Z</time>
      </trkpt>
      <trkpt lat="45.89103" lon="4.76199">
        <ele>196</ele>
        <time>2018-10-09T14:31:53Z</time>
      </trkpt>
      <trkpt lat="45.89105" lon="4.76204">
        <ele>196</ele>
        <time>2018-10-09T14:31:54Z</time>
      </trkpt>
      <trkpt lat="45.89109" lon="4.76213">
        <ele>196</ele>
        <time>2018-10-09T14:31:55Z</time>
      </trkpt>
      <trkpt lat="45.89114" lon="4.76223">
        <ele>196</ele>
        <time>2018-10-09T14:31:57Z</time>
      </trkpt>
      <trkpt lat="45.89117" lon="4.76228">
        <ele>196</ele>
        <time>2018-10-09T14:31:58Z</time>
      </trkpt>
      <trkpt lat="45.89122" lon="4.76237">
        <ele>196</ele>
        <time>2018-10-09T14:32:00Z</time>
      </trkpt>
      <trkpt lat="45.89123" lon="4.7624">
        <ele>196</ele>
        <time>2018-10-09T14:32:01Z</time>
      </trkpt>
      <trkpt lat="45.89127" lon="4.7625">
        <ele>197</ele>
        <time>2018-10-09T14:32:04Z</time>
      </trkpt>
      <trkpt lat="45.89129" lon="4.76255">
        <ele>197</ele>
        <time>2018-10-09T14:32:05Z</time>
      </trkpt>
      <trkpt lat="45.89132" lon="4.76264">
        <ele>197</ele>
        <time>2018-10-09T14:32:06Z</time>
      </trkpt>
      <trkpt lat="45.89133" lon="4.76268">
        <ele>197</ele>
        <time>2018-10-09T14:32:07Z</time>
      </trkpt>
      <trkpt lat="45.89138" lon="4.76278">
        <ele>196</ele>
        <time>2018-10-09T14:32:10Z</time>
      </trkpt>
      <trkpt lat="45.89139" lon="4.76281">
        <ele>196</ele>
        <time>2018-10-09T14:32:11Z</time>
      </trkpt>
      <trkpt lat="45.89143" lon="4.76287">
        <ele>196</ele>
        <time>2018-10-09T14:32:13Z</time>
      </trkpt>
      <trkpt lat="45.89146" lon="4.76296">
        <ele>196</ele>
        <time>2018-10-09T14:32:14Z</time>
      </trkpt>
      <trkpt lat="45.89151" lon="4.76305">
        <ele>196</ele>
        <time>2018-10-09T14:32:16Z</time>
      </trkpt>
      <trkpt lat="45.89153" lon="4.76309">
        <ele>196</ele>
        <time>2018-10-09T14:32:17Z</time>
      </trkpt>
      <trkpt lat="45.89157" lon="4.76318">
        <ele>196</ele>
        <time>2018-10-09T14:32:20Z</time>
      </trkpt>
      <trkpt lat="45.89159" lon="4.76321">
        <ele>196</ele>
        <time>2018-10-09T14:32:21Z</time>
      </trkpt>
      <trkpt lat="45.89163" lon="4.76327">
        <ele>195</ele>
        <time>2018-10-09T14:32:23Z</time>
      </trkpt>
      <trkpt lat="45.89165" lon="4.76331">
        <ele>195</ele>
        <time>2018-10-09T14:32:24Z</time>
      </trkpt>
      <trkpt lat="45.89169" lon="4.76339">
        <ele>195</ele>
        <time>2018-10-09T14:32:25Z</time>
      </trkpt>
      <trkpt lat="45.89171" lon="4.76344">
        <ele>195</ele>
        <time>2018-10-09T14:32:26Z</time>
      </trkpt>
      <trkpt lat="45.89175" lon="4.76355">
        <ele>194</ele>
        <time>2018-10-09T14:32:29Z</time>
      </trkpt>
      <trkpt lat="45.89176" lon="4.76358">
        <ele>194</ele>
        <time>2018-10-09T14:32:30Z</time>
      </trkpt>
      <trkpt lat="45.89178" lon="4.76365">
        <ele>194</ele>
        <time>2018-10-09T14:32:32Z</time>
      </trkpt>
      <trkpt lat="45.89182" lon="4.76373">
        <ele>194</ele>
        <time>2018-10-09T14:32:33Z</time>
      </trkpt>
      <trkpt lat="45.89187" lon="4.76383">
        <ele>194</ele>
        <time>2018-10-09T14:32:36Z</time>
      </trkpt>
      <trkpt lat="45.89189" lon="4.76386">
        <ele>194</ele>
        <time>2018-10-09T14:32:37Z</time>
      </trkpt>
      <trkpt lat="45.89193" lon="4.76394">
        <ele>194</ele>
        <time>2018-10-09T14:32:40Z</time>
      </trkpt>
      <trkpt lat="45.89195" lon="4.76398">
        <ele>194</ele>
        <time>2018-10-09T14:32:41Z</time>
      </trkpt>
      <trkpt lat="45.89198" lon="4.76407">
        <ele>194</ele>
        <time>2018-10-09T14:32:43Z</time>
      </trkpt>
      <trkpt lat="45.892" lon="4.76411">
        <ele>194</ele>
        <time>2018-10-09T14:32:44Z</time>
      </trkpt>
      <trkpt lat="45.89205" lon="4.7642">
        <ele>193</ele>
        <time>2018-10-09T14:32:47Z</time>
      </trkpt>
      <trkpt lat="45.89206" lon="4.76423">
        <ele>193</ele>
        <time>2018-10-09T14:32:48Z</time>
      </trkpt>
      <trkpt lat="45.8921" lon="4.76431">
        <ele>194</ele>
        <time>2018-10-09T14:32:50Z</time>
      </trkpt>
      <trkpt lat="45.89215" lon="4.7644">
        <ele>194</ele>
        <time>2018-10-09T14:32:51Z</time>
      </trkpt>
      <trkpt lat="45.8922" lon="4.76448">
        <ele>194</ele>
        <time>2018-10-09T14:32:54Z</time>
      </trkpt>
      <trkpt lat="45.89221" lon="4.76451">
        <ele>194</ele>
        <time>2018-10-09T14:32:55Z</time>
      </trkpt>
      <trkpt lat="45.89226" lon="4.76457">
        <ele>194</ele>
        <time>2018-10-09T14:32:57Z</time>
      </trkpt>
      <trkpt lat="45.89228" lon="4.76461">
        <ele>193</ele>
        <time>2018-10-09T14:32:58Z</time>
      </trkpt>
      <trkpt lat="45.89235" lon="4.76469">
        <ele>193</ele>
        <time>2018-10-09T14:33:01Z</time>
      </trkpt>
      <trkpt lat="45.89237" lon="4.76472">
        <ele>193</ele>
        <time>2018-10-09T14:33:02Z</time>
      </trkpt>
      <trkpt lat="45.89239" lon="4.76474">
        <ele>193</ele>
        <time>2018-10-09T14:33:03Z</time>
      </trkpt>
      <trkpt lat="45.89245" lon="4.7648">
        <ele>193</ele>
        <time>2018-10-09T14:33:04Z</time>
      </trkpt>
      <trkpt lat="45.89252" lon="4.76486">
        <ele>193</ele>
        <time>2018-10-09T14:33:07Z</time>
      </trkpt>
      <trkpt lat="45.89254" lon="4.76488">
        <ele>193</ele>
        <time>2018-10-09T14:33:08Z</time>
      </trkpt>
      <trkpt lat="45.89261" lon="4.76491">
        <ele>193</ele>
        <time>2018-10-09T14:33:11Z</time>
      </trkpt>
      <trkpt lat="45.89264" lon="4.76492">
        <ele>193</ele>
        <time>2018-10-09T14:33:12Z</time>
      </trkpt>
      <trkpt lat="45.89271" lon="4.76494">
        <ele>193</ele>
        <time>2018-10-09T14:33:15Z</time>
      </trkpt>
      <trkpt lat="45.89274" lon="4.76495">
        <ele>193</ele>
        <time>2018-10-09T14:33:16Z</time>
      </trkpt>
      <trkpt lat="45.8928" lon="4.76497">
        <ele>193</ele>
        <time>2018-10-09T14:33:18Z</time>
      </trkpt>
      <trkpt lat="45.89288" lon="4.76499">
        <ele>193</ele>
        <time>2018-10-09T14:33:19Z</time>
      </trkpt>
      <trkpt lat="45.89296" lon="4.765">
        <ele>194</ele>
        <time>2018-10-09T14:33:21Z</time>
      </trkpt>
      <trkpt lat="45.893" lon="4.76501">
        <ele>194</ele>
        <time>2018-10-09T14:33:22Z</time>
      </trkpt>
      <trkpt lat="45.89307" lon="4.76503">
        <ele>194</ele>
        <time>2018-10-09T14:33:25Z</time>
      </trkpt>
      <trkpt lat="45.8931" lon="4.76504">
        <ele>194</ele>
        <time>2018-10-09T14:33:26Z</time>
      </trkpt>
      <trkpt lat="45.89317" lon="4.76506">
        <ele>194</ele>
        <time>2018-10-09T14:33:29Z</time>
      </trkpt>
      <trkpt lat="45.8932" lon="4.76507">
        <ele>194</ele>
        <time>2018-10-09T14:33:30Z</time>
      </trkpt>
      <trkpt lat="45.89328" lon="4.76509">
        <ele>194</ele>
        <time>2018-10-09T14:33:33Z</time>
      </trkpt>
      <trkpt lat="45.89331" lon="4.7651">
        <ele>194</ele>
        <time>2018-10-09T14:33:34Z</time>
      </trkpt>
      <trkpt lat="45.89337" lon="4.76512">
        <ele>194</ele>
        <time>2018-10-09T14:33:36Z</time>
      </trkpt>
      <trkpt lat="45.8934" lon="4.76513">
        <ele>194</ele>
        <time>2018-10-09T14:33:37Z</time>
      </trkpt>
      <trkpt lat="45.89348" lon="4.76517">
        <ele>194</ele>
        <time>2018-10-09T14:33:40Z</time>
      </trkpt>
      <trkpt lat="45.8935" lon="4.76518">
        <ele>194</ele>
        <time>2018-10-09T14:33:41Z</time>
      </trkpt>
      <trkpt lat="45.89357" lon="4.76522">
        <ele>194</ele>
        <time>2018-10-09T14:33:44Z</time>
      </trkpt>
      <trkpt lat="45.89359" lon="4.76523">
        <ele>194</ele>
        <time>2018-10-09T14:33:45Z</time>
      </trkpt>
      <trkpt lat="45.89368" lon="4.76525">
        <ele>194</ele>
        <time>2018-10-09T14:33:48Z</time>
      </trkpt>
      <trkpt lat="45.8937" lon="4.76525">
        <ele>194</ele>
        <time>2018-10-09T14:33:49Z</time>
      </trkpt>
      <trkpt lat="45.89379" lon="4.76526">
        <ele>194</ele>
        <time>2018-10-09T14:33:52Z</time>
      </trkpt>
      <trkpt lat="45.89382" lon="4.76527">
        <ele>194</ele>
        <time>2018-10-09T14:33:53Z</time>
      </trkpt>
      <trkpt lat="45.89389" lon="4.76531">
        <ele>194</ele>
        <time>2018-10-09T14:33:56Z</time>
      </trkpt>
      <trkpt lat="45.89392" lon="4.76532">
        <ele>194</ele>
        <time>2018-10-09T14:33:57Z</time>
      </trkpt>
      <trkpt lat="45.89399" lon="4.76536">
        <ele>194</ele>
        <time>2018-10-09T14:34:00Z</time>
      </trkpt>
      <trkpt lat="45.89402" lon="4.76537">
        <ele>194</ele>
        <time>2018-10-09T14:34:01Z</time>
      </trkpt>
      <trkpt lat="45.89409" lon="4.7654">
        <ele>194</ele>
        <time>2018-10-09T14:34:04Z</time>
      </trkpt>
      <trkpt lat="45.89411" lon="4.76541">
        <ele>194</ele>
        <time>2018-10-09T14:34:05Z</time>
      </trkpt>
      <trkpt lat="45.89418" lon="4.76545">
        <ele>194</ele>
        <time>2018-10-09T14:34:08Z</time>
      </trkpt>
      <trkpt lat="45.8942" lon="4.76547">
        <ele>194</ele>
        <time>2018-10-09T14:34:09Z</time>
      </trkpt>
      <trkpt lat="45.89426" lon="4.76553">
        <ele>194</ele>
        <time>2018-10-09T14:34:12Z</time>
      </trkpt>
      <trkpt lat="45.89428" lon="4.76555">
        <ele>194</ele>
        <time>2018-10-09T14:34:13Z</time>
      </trkpt>
      <trkpt lat="45.89435" lon="4.76561">
        <ele>194</ele>
        <time>2018-10-09T14:34:17Z</time>
      </trkpt>
      <trkpt lat="45.89436" lon="4.76562">
        <ele>194</ele>
        <time>2018-10-09T14:34:18Z</time>
      </trkpt>
      <trkpt lat="45.89444" lon="4.76563">
        <ele>194</ele>
        <time>2018-10-09T14:34:22Z</time>
      </trkpt>
      <trkpt lat="45.89447" lon="4.76563">
        <ele>194</ele>
        <time>2018-10-09T14:34:23Z</time>
      </trkpt>
      <trkpt lat="45.89455" lon="4.76562">
        <ele>194</ele>
        <time>2018-10-09T14:34:27Z</time>
      </trkpt>
      <trkpt lat="45.89457" lon="4.76561">
        <ele>194</ele>
        <time>2018-10-09T14:34:28Z</time>
      </trkpt>
      <trkpt lat="45.89466" lon="4.76559">
        <ele>194</ele>
        <time>2018-10-09T14:34:32Z</time>
      </trkpt>
      <trkpt lat="45.89468" lon="4.76558">
        <ele>194</ele>
        <time>2018-10-09T14:34:33Z</time>
      </trkpt>
      <trkpt lat="45.89475" lon="4.76555">
        <ele>194</ele>
        <time>2018-10-09T14:34:37Z</time>
      </trkpt>
      <trkpt lat="45.89477" lon="4.76555">
        <ele>194</ele>
        <time>2018-10-09T14:34:38Z</time>
      </trkpt>
      <trkpt lat="45.89485" lon="4.76554">
        <ele>194</ele>
        <time>2018-10-09T14:34:42Z</time>
      </trkpt>
      <trkpt lat="45.89487" lon="4.76553">
        <ele>194</ele>
        <time>2018-10-09T14:34:43Z</time>
      </trkpt>
      <trkpt lat="45.89494" lon="4.76552">
        <ele>194</ele>
        <time>2018-10-09T14:34:46Z</time>
      </trkpt>
      <trkpt lat="45.89498" lon="4.76551">
        <ele>194</ele>
        <time>2018-10-09T14:34:47Z</time>
      </trkpt>
      <trkpt lat="45.89504" lon="4.7655">
        <ele>194</ele>
        <time>2018-10-09T14:34:49Z</time>
      </trkpt>
      <trkpt lat="45.89507" lon="4.76549">
        <ele>194</ele>
        <time>2018-10-09T14:34:50Z</time>
      </trkpt>
      <trkpt lat="45.89515" lon="4.76546">
        <ele>194</ele>
        <time>2018-10-09T14:34:53Z</time>
      </trkpt>
      <trkpt lat="45.89518" lon="4.76545">
        <ele>194</ele>
        <time>2018-10-09T14:34:54Z</time>
      </trkpt>
      <trkpt lat="45.89525" lon="4.76541">
        <ele>194</ele>
        <time>2018-10-09T14:34:57Z</time>
      </trkpt>
      <trkpt lat="45.89528" lon="4.76539">
        <ele>194</ele>
        <time>2018-10-09T14:34:58Z</time>
      </trkpt>
      <trkpt lat="45.89535" lon="4.76537">
        <ele>194</ele>
        <time>2018-10-09T14:35:01Z</time>
      </trkpt>
      <trkpt lat="45.89538" lon="4.76536">
        <ele>194</ele>
        <time>2018-10-09T14:35:02Z</time>
      </trkpt>
      <trkpt lat="45.89547" lon="4.76535">
        <ele>194</ele>
        <time>2018-10-09T14:35:05Z</time>
      </trkpt>
      <trkpt lat="45.8955" lon="4.76535">
        <ele>194</ele>
        <time>2018-10-09T14:35:06Z</time>
      </trkpt>
      <trkpt lat="45.89558" lon="4.76535">
        <ele>194</ele>
        <time>2018-10-09T14:35:09Z</time>
      </trkpt>
      <trkpt lat="45.8956" lon="4.76536">
        <ele>194</ele>
        <time>2018-10-09T14:35:10Z</time>
      </trkpt>
      <trkpt lat="45.89566" lon="4.76536">
        <ele>194</ele>
        <time>2018-10-09T14:35:12Z</time>
      </trkpt>
      <trkpt lat="45.89573" lon="4.76537">
        <ele>194</ele>
        <time>2018-10-09T14:35:13Z</time>
      </trkpt>
      <trkpt lat="45.89581" lon="4.76538">
        <ele>194</ele>
        <time>2018-10-09T14:35:17Z</time>
      </trkpt>
      <trkpt lat="45.89583" lon="4.76538">
        <ele>194</ele>
        <time>2018-10-09T14:35:18Z</time>
      </trkpt>
      <trkpt lat="45.8959" lon="4.76531">
        <ele>194</ele>
        <time>2018-10-09T14:35:22Z</time>
      </trkpt>
      <trkpt lat="45.89591" lon="4.76528">
        <ele>194</ele>
        <time>2018-10-09T14:35:23Z</time>
      </trkpt>
      <trkpt lat="45.89595" lon="4.76519">
        <ele>194</ele>
        <time>2018-10-09T14:35:25Z</time>
      </trkpt>
      <trkpt lat="45.89596" lon="4.76515">
        <ele>194</ele>
        <time>2018-10-09T14:35:26Z</time>
      </trkpt>
      <trkpt lat="45.89601" lon="4.76506">
        <ele>194</ele>
        <time>2018-10-09T14:35:29Z</time>
      </trkpt>
      <trkpt lat="45.89602" lon="4.76504">
        <ele>194</ele>
        <time>2018-10-09T14:35:30Z</time>
      </trkpt>
      <trkpt lat="45.89605" lon="4.76494">
        <ele>194</ele>
        <time>2018-10-09T14:35:34Z</time>
      </trkpt>
      <trkpt lat="45.89606" lon="4.76491">
        <ele>194</ele>
        <time>2018-10-09T14:35:35Z</time>
      </trkpt>
      <trkpt lat="45.89608" lon="4.76481">
        <ele>194</ele>
        <time>2018-10-09T14:35:38Z</time>
      </trkpt>
      <trkpt lat="45.89609" lon="4.76478">
        <ele>194</ele>
        <time>2018-10-09T14:35:39Z</time>
      </trkpt>
      <trkpt lat="45.89612" lon="4.76468">
        <ele>194</ele>
        <time>2018-10-09T14:35:42Z</time>
      </trkpt>
      <trkpt lat="45.89613" lon="4.76464">
        <ele>194</ele>
        <time>2018-10-09T14:35:43Z</time>
      </trkpt>
      <trkpt lat="45.89616" lon="4.76455">
        <ele>195</ele>
        <time>2018-10-09T14:35:46Z</time>
      </trkpt>
      <trkpt lat="45.89617" lon="4.76452">
        <ele>195</ele>
        <time>2018-10-09T14:35:47Z</time>
      </trkpt>
      <trkpt lat="45.8962" lon="4.76441">
        <ele>195</ele>
        <time>2018-10-09T14:35:51Z</time>
      </trkpt>
      <trkpt lat="45.8962" lon="4.76439">
        <ele>195</ele>
        <time>2018-10-09T14:35:52Z</time>
      </trkpt>
      <trkpt lat="45.89623" lon="4.76428">
        <ele>195</ele>
        <time>2018-10-09T14:35:57Z</time>
      </trkpt>
      <trkpt lat="45.89624" lon="4.76425">
        <ele>195</ele>
        <time>2018-10-09T14:35:58Z</time>
      </trkpt>
      <trkpt lat="45.89629" lon="4.76415">
        <ele>195</ele>
        <time>2018-10-09T14:36:07Z</time>
      </trkpt>
      <trkpt lat="45.8963" lon="4.76414">
        <ele>195</ele>
        <time>2018-10-09T14:36:08Z</time>
      </trkpt>
      <trkpt lat="45.89637" lon="4.76407">
        <ele>195</ele>
        <time>2018-10-09T14:36:17Z</time>
      </trkpt>
      <trkpt lat="45.89638" lon="4.76406">
        <ele>195</ele>
        <time>2018-10-09T14:36:18Z</time>
      </trkpt>
      <trkpt lat="45.89642" lon="4.76399">
        <ele>195</ele>
        <time>2018-10-09T14:36:27Z</time>
      </trkpt>
      <trkpt lat="45.89643" lon="4.76396">
        <ele>195</ele>
        <time>2018-10-09T14:36:28Z</time>
      </trkpt>
      <trkpt lat="45.89648" lon="4.76387">
        <ele>195</ele>
        <time>2018-10-09T14:36:31Z</time>
      </trkpt>
      <trkpt lat="45.89649" lon="4.76383">
        <ele>195</ele>
        <time>2018-10-09T14:36:32Z</time>
      </trkpt>
      <trkpt lat="45.89652" lon="4.76373">
        <ele>195</ele>
        <time>2018-10-09T14:36:35Z</time>
      </trkpt>
      <trkpt lat="45.89653" lon="4.7637">
        <ele>195</ele>
        <time>2018-10-09T14:36:36Z</time>
      </trkpt>
      <trkpt lat="45.89655" lon="4.76361">
        <ele>195</ele>
        <time>2018-10-09T14:36:38Z</time>
      </trkpt>
      <trkpt lat="45.89656" lon="4.76357">
        <ele>195</ele>
        <time>2018-10-09T14:36:39Z</time>
      </trkpt>
      <trkpt lat="45.89658" lon="4.76348">
        <ele>195</ele>
        <time>2018-10-09T14:36:41Z</time>
      </trkpt>
      <trkpt lat="45.8966" lon="4.76344">
        <ele>195</ele>
        <time>2018-10-09T14:36:42Z</time>
      </trkpt>
      <trkpt lat="45.89663" lon="4.76334">
        <ele>195</ele>
        <time>2018-10-09T14:36:45Z</time>
      </trkpt>
      <trkpt lat="45.89664" lon="4.7633">
        <ele>195</ele>
        <time>2018-10-09T14:36:46Z</time>
      </trkpt>
      <trkpt lat="45.89666" lon="4.76326">
        <ele>195</ele>
        <time>2018-10-09T14:36:47Z</time>
      </trkpt>
      <trkpt lat="45.89669" lon="4.76316">
        <ele>195</ele>
        <time>2018-10-09T14:36:48Z</time>
      </trkpt>
      <trkpt lat="45.89672" lon="4.76306">
        <ele>195</ele>
        <time>2018-10-09T14:36:51Z</time>
      </trkpt>
      <trkpt lat="45.89673" lon="4.76302">
        <ele>195</ele>
        <time>2018-10-09T14:36:52Z</time>
      </trkpt>
      <trkpt lat="45.89677" lon="4.76291">
        <ele>195</ele>
        <time>2018-10-09T14:36:55Z</time>
      </trkpt>
      <trkpt lat="45.89678" lon="4.76288">
        <ele>195</ele>
        <time>2018-10-09T14:36:56Z</time>
      </trkpt>
      <trkpt lat="45.89681" lon="4.76279">
        <ele>195</ele>
        <time>2018-10-09T14:36:58Z</time>
      </trkpt>
      <trkpt lat="45.89682" lon="4.76275">
        <ele>195</ele>
        <time>2018-10-09T14:36:59Z</time>
      </trkpt>
      <trkpt lat="45.89685" lon="4.76266">
        <ele>195</ele>
        <time>2018-10-09T14:37:01Z</time>
      </trkpt>
      <trkpt lat="45.89688" lon="4.76258">
        <ele>195</ele>
        <time>2018-10-09T14:37:02Z</time>
      </trkpt>
      <trkpt lat="45.89691" lon="4.76248">
        <ele>195</ele>
        <time>2018-10-09T14:37:04Z</time>
      </trkpt>
      <trkpt lat="45.89692" lon="4.76245">
        <ele>195</ele>
        <time>2018-10-09T14:37:05Z</time>
      </trkpt>
      <trkpt lat="45.89695" lon="4.76234">
        <ele>195</ele>
        <time>2018-10-09T14:37:08Z</time>
      </trkpt>
      <trkpt lat="45.89696" lon="4.7623">
        <ele>195</ele>
        <time>2018-10-09T14:37:09Z</time>
      </trkpt>
      <trkpt lat="45.89699" lon="4.76223">
        <ele>195</ele>
        <time>2018-10-09T14:37:11Z</time>
      </trkpt>
      <trkpt lat="45.89702" lon="4.76213">
        <ele>195</ele>
        <time>2018-10-09T14:37:12Z</time>
      </trkpt>
      <trkpt lat="45.89705" lon="4.76202">
        <ele>195</ele>
        <time>2018-10-09T14:37:14Z</time>
      </trkpt>
      <trkpt lat="45.89707" lon="4.76197">
        <ele>195</ele>
        <time>2018-10-09T14:37:15Z</time>
      </trkpt>
      <trkpt lat="45.8971" lon="4.76187">
        <ele>195</ele>
        <time>2018-10-09T14:37:18Z</time>
      </trkpt>
      <trkpt lat="45.89711" lon="4.76183">
        <ele>195</ele>
        <time>2018-10-09T14:37:19Z</time>
      </trkpt>
      <trkpt lat="45.89714" lon="4.76171">
        <ele>195</ele>
        <time>2018-10-09T14:37:22Z</time>
      </trkpt>
      <trkpt lat="45.89715" lon="4.76167">
        <ele>195</ele>
        <time>2018-10-09T14:37:23Z</time>
      </trkpt>
      <trkpt lat="45.89716" lon="4.76163">
        <ele>195</ele>
        <time>2018-10-09T14:37:24Z</time>
      </trkpt>
      <trkpt lat="45.89719" lon="4.76153">
        <ele>195</ele>
        <time>2018-10-09T14:37:25Z</time>
      </trkpt>
      <trkpt lat="45.89723" lon="4.76143">
        <ele>195</ele>
        <time>2018-10-09T14:37:27Z</time>
      </trkpt>
      <trkpt lat="45.89725" lon="4.76138">
        <ele>195</ele>
        <time>2018-10-09T14:37:28Z</time>
      </trkpt>
      <trkpt lat="45.89727" lon="4.76132">
        <ele>195</ele>
        <time>2018-10-09T14:37:29Z</time>
      </trkpt>
      <trkpt lat="45.89729" lon="4.76125">
        <ele>195</ele>
        <time>2018-10-09T14:37:30Z</time>
      </trkpt>
      <trkpt lat="45.89731" lon="4.76119">
        <ele>195</ele>
        <time>2018-10-09T14:37:31Z</time>
      </trkpt>
      <trkpt lat="45.89734" lon="4.76113">
        <ele>195</ele>
        <time>2018-10-09T14:37:32Z</time>
      </trkpt>
      <trkpt lat="45.89738" lon="4.76102">
        <ele>195</ele>
        <time>2018-10-09T14:37:34Z</time>
      </trkpt>
      <trkpt lat="45.8974" lon="4.76097">
        <ele>195</ele>
        <time>2018-10-09T14:37:35Z</time>
      </trkpt>
      <trkpt lat="45.89742" lon="4.76088">
        <ele>195</ele>
        <time>2018-10-09T14:37:37Z</time>
      </trkpt>
      <trkpt lat="45.89744" lon="4.76085">
        <ele>195</ele>
        <time>2018-10-09T14:37:38Z</time>
      </trkpt>
      <trkpt lat="45.89747" lon="4.76074">
        <ele>195</ele>
        <time>2018-10-09T14:37:41Z</time>
      </trkpt>
      <trkpt lat="45.89751" lon="4.76065">
        <ele>195</ele>
        <time>2018-10-09T14:37:42Z</time>
      </trkpt>
      <trkpt lat="45.89755" lon="4.76055">
        <ele>195</ele>
        <time>2018-10-09T14:37:44Z</time>
      </trkpt>
      <trkpt lat="45.89758" lon="4.7605">
        <ele>195</ele>
        <time>2018-10-09T14:37:45Z</time>
      </trkpt>
      <trkpt lat="45.8976" lon="4.76045">
        <ele>195</ele>
        <time>2018-10-09T14:37:46Z</time>
      </trkpt>
      <trkpt lat="45.89763" lon="4.76039">
        <ele>195</ele>
        <time>2018-10-09T14:37:47Z</time>
      </trkpt>
      <trkpt lat="45.89767" lon="4.76029">
        <ele>195</ele>
        <time>2018-10-09T14:37:49Z</time>
      </trkpt>
      <trkpt lat="45.89768" lon="4.76026">
        <ele>195</ele>
        <time>2018-10-09T14:37:50Z</time>
      </trkpt>
      <trkpt lat="45.8977" lon="4.76019">
        <ele>195</ele>
        <time>2018-10-09T14:37:52Z</time>
      </trkpt>
      <trkpt lat="45.89772" lon="4.76015">
        <ele>195</ele>
        <time>2018-10-09T14:37:53Z</time>
      </trkpt>
      <trkpt lat="45.89775" lon="4.76008">
        <ele>195</ele>
        <time>2018-10-09T14:37:54Z</time>
      </trkpt>
      <trkpt lat="45.89777" lon="4.76003">
        <ele>195</ele>
        <time>2018-10-09T14:37:55Z</time>
      </trkpt>
      <trkpt lat="45.89781" lon="4.75993">
        <ele>195</ele>
        <time>2018-10-09T14:37:57Z</time>
      </trkpt>
      <trkpt lat="45.89782" lon="4.7599">
        <ele>195</ele>
        <time>2018-10-09T14:37:58Z</time>
      </trkpt>
      <trkpt lat="45.89786" lon="4.75979">
        <ele>195</ele>
        <time>2018-10-09T14:38:00Z</time>
      </trkpt>
      <trkpt lat="45.89787" lon="4.75974">
        <ele>195</ele>
        <time>2018-10-09T14:38:01Z</time>
      </trkpt>
      <trkpt lat="45.89789" lon="4.75967">
        <ele>195</ele>
        <time>2018-10-09T14:38:03Z</time>
      </trkpt>
      <trkpt lat="45.89791" lon="4.7596">
        <ele>195</ele>
        <time>2018-10-09T14:38:04Z</time>
      </trkpt>
      <trkpt lat="45.89794" lon="4.75949">
        <ele>195</ele>
        <time>2018-10-09T14:38:07Z</time>
      </trkpt>
      <trkpt lat="45.89797" lon="4.75941">
        <ele>195</ele>
        <time>2018-10-09T14:38:08Z</time>
      </trkpt>
      <trkpt lat="45.898" lon="4.7593">
        <ele>195</ele>
        <time>2018-10-09T14:38:10Z</time>
      </trkpt>
      <trkpt lat="45.89801" lon="4.75924">
        <ele>195</ele>
        <time>2018-10-09T14:38:11Z</time>
      </trkpt>
      <trkpt lat="45.89805" lon="4.75914">
        <ele>194</ele>
        <time>2018-10-09T14:38:13Z</time>
      </trkpt>
      <trkpt lat="45.89806" lon="4.75909">
        <ele>194</ele>
        <time>2018-10-09T14:38:14Z</time>
      </trkpt>
      <trkpt lat="45.89809" lon="4.759">
        <ele>194</ele>
        <time>2018-10-09T14:38:17Z</time>
      </trkpt>
      <trkpt lat="45.8981" lon="4.75897">
        <ele>194</ele>
        <time>2018-10-09T14:38:18Z</time>
      </trkpt>
      <trkpt lat="45.89813" lon="4.75887">
        <ele>194</ele>
        <time>2018-10-09T14:38:19Z</time>
      </trkpt>
      <trkpt lat="45.89814" lon="4.75882">
        <ele>194</ele>
        <time>2018-10-09T14:38:20Z</time>
      </trkpt>
      <trkpt lat="45.89818" lon="4.75872">
        <ele>194</ele>
        <time>2018-10-09T14:38:22Z</time>
      </trkpt>
      <trkpt lat="45.89821" lon="4.75867">
        <ele>194</ele>
        <time>2018-10-09T14:38:23Z</time>
      </trkpt>
      <trkpt lat="45.89827" lon="4.75859">
        <ele>193</ele>
        <time>2018-10-09T14:38:25Z</time>
      </trkpt>
      <trkpt lat="45.89829" lon="4.75854">
        <ele>193</ele>
        <time>2018-10-09T14:38:26Z</time>
      </trkpt>
      <trkpt lat="45.89832" lon="4.75849">
        <ele>193</ele>
        <time>2018-10-09T14:38:27Z</time>
      </trkpt>
      <trkpt lat="45.89836" lon="4.75844">
        <ele>192</ele>
        <time>2018-10-09T14:38:28Z</time>
      </trkpt>
      <trkpt lat="45.8984" lon="4.75838">
        <ele>192</ele>
        <time>2018-10-09T14:38:29Z</time>
      </trkpt>
      <trkpt lat="45.89843" lon="4.75834">
        <ele>192</ele>
        <time>2018-10-09T14:38:30Z</time>
      </trkpt>
      <trkpt lat="45.89845" lon="4.75829">
        <ele>192</ele>
        <time>2018-10-09T14:38:31Z</time>
      </trkpt>
      <trkpt lat="45.89849" lon="4.75825">
        <ele>192</ele>
        <time>2018-10-09T14:38:32Z</time>
      </trkpt>
      <trkpt lat="45.89852" lon="4.7582">
        <ele>192</ele>
        <time>2018-10-09T14:38:33Z</time>
      </trkpt>
      <trkpt lat="45.89856" lon="4.75816">
        <ele>192</ele>
        <time>2018-10-09T14:38:34Z</time>
      </trkpt>
      <trkpt lat="45.89863" lon="4.75809">
        <ele>192</ele>
        <time>2018-10-09T14:38:36Z</time>
      </trkpt>
      <trkpt lat="45.89866" lon="4.75806">
        <ele>192</ele>
        <time>2018-10-09T14:38:37Z</time>
      </trkpt>
      <trkpt lat="45.89871" lon="4.75803">
        <ele>192</ele>
        <time>2018-10-09T14:38:38Z</time>
      </trkpt>
      <trkpt lat="45.89875" lon="4.75801">
        <ele>192</ele>
        <time>2018-10-09T14:38:39Z</time>
      </trkpt>
      <trkpt lat="45.8988" lon="4.75798">
        <ele>192</ele>
        <time>2018-10-09T14:38:40Z</time>
      </trkpt>
      <trkpt lat="45.89884" lon="4.75795">
        <ele>192</ele>
        <time>2018-10-09T14:38:41Z</time>
      </trkpt>
      <trkpt lat="45.8989" lon="4.75791">
        <ele>192</ele>
        <time>2018-10-09T14:38:42Z</time>
      </trkpt>
      <trkpt lat="45.89895" lon="4.75788">
        <ele>192</ele>
        <time>2018-10-09T14:38:43Z</time>
      </trkpt>
      <trkpt lat="45.899" lon="4.75786">
        <ele>192</ele>
        <time>2018-10-09T14:38:44Z</time>
      </trkpt>
      <trkpt lat="45.89905" lon="4.75784">
        <ele>192</ele>
        <time>2018-10-09T14:38:45Z</time>
      </trkpt>
      <trkpt lat="45.89912" lon="4.75779">
        <ele>192</ele>
        <time>2018-10-09T14:38:47Z</time>
      </trkpt>
      <trkpt lat="45.89916" lon="4.75778">
        <ele>192</ele>
        <time>2018-10-09T14:38:48Z</time>
      </trkpt>
      <trkpt lat="45.89923" lon="4.75775">
        <ele>192</ele>
        <time>2018-10-09T14:38:50Z</time>
      </trkpt>
      <trkpt lat="45.89929" lon="4.75772">
        <ele>192</ele>
        <time>2018-10-09T14:38:51Z</time>
      </trkpt>
      <trkpt lat="45.89936" lon="4.75767">
        <ele>192</ele>
        <time>2018-10-09T14:38:53Z</time>
      </trkpt>
      <trkpt lat="45.89939" lon="4.75766">
        <ele>192</ele>
        <time>2018-10-09T14:38:54Z</time>
      </trkpt>
      <trkpt lat="45.89944" lon="4.75763">
        <ele>192</ele>
        <time>2018-10-09T14:38:55Z</time>
      </trkpt>
      <trkpt lat="45.8995" lon="4.7576">
        <ele>192</ele>
        <time>2018-10-09T14:38:56Z</time>
      </trkpt>
      <trkpt lat="45.89955" lon="4.75759">
        <ele>192</ele>
        <time>2018-10-09T14:38:57Z</time>
      </trkpt>
      <trkpt lat="45.89959" lon="4.75756">
        <ele>192</ele>
        <time>2018-10-09T14:38:58Z</time>
      </trkpt>
      <trkpt lat="45.89963" lon="4.75754">
        <ele>192</ele>
        <time>2018-10-09T14:38:59Z</time>
      </trkpt>
      <trkpt lat="45.89968" lon="4.75751">
        <ele>192</ele>
        <time>2018-10-09T14:39:00Z</time>
      </trkpt>
      <trkpt lat="45.89975" lon="4.75748">
        <ele>192</ele>
        <time>2018-10-09T14:39:02Z</time>
      </trkpt>
      <trkpt lat="45.8998" lon="4.75746">
        <ele>192</ele>
        <time>2018-10-09T14:39:03Z</time>
      </trkpt>
      <trkpt lat="45.89984" lon="4.75743">
        <ele>192</ele>
        <time>2018-10-09T14:39:04Z</time>
      </trkpt>
      <trkpt lat="45.89988" lon="4.75741">
        <ele>193</ele>
        <time>2018-10-09T14:39:05Z</time>
      </trkpt>
      <trkpt lat="45.89992" lon="4.75739">
        <ele>193</ele>
        <time>2018-10-09T14:39:06Z</time>
      </trkpt>
      <trkpt lat="45.89997" lon="4.75737">
        <ele>193</ele>
        <time>2018-10-09T14:39:07Z</time>
      </trkpt>
      <trkpt lat="45.90002" lon="4.75735">
        <ele>193</ele>
        <time>2018-10-09T14:39:08Z</time>
      </trkpt>
      <trkpt lat="45.90007" lon="4.75733">
        <ele>193</ele>
        <time>2018-10-09T14:39:09Z</time>
      </trkpt>
      <trkpt lat="45.90015" lon="4.75732">
        <ele>193</ele>
        <time>2018-10-09T14:39:11Z</time>
      </trkpt>
      <trkpt lat="45.90019" lon="4.75733">
        <ele>193</ele>
        <time>2018-10-09T14:39:12Z</time>
      </trkpt>
      <trkpt lat="45.90027" lon="4.75735">
        <ele>193</ele>
        <time>2018-10-09T14:39:14Z</time>
      </trkpt>
      <trkpt lat="45.90031" lon="4.75736">
        <ele>193</ele>
        <time>2018-10-09T14:39:15Z</time>
      </trkpt>
      <trkpt lat="45.90039" lon="4.75739">
        <ele>193</ele>
        <time>2018-10-09T14:39:18Z</time>
      </trkpt>
      <trkpt lat="45.90042" lon="4.75741">
        <ele>192</ele>
        <time>2018-10-09T14:39:19Z</time>
      </trkpt>
      <trkpt lat="45.90048" lon="4.75743">
        <ele>192</ele>
        <time>2018-10-09T14:39:21Z</time>
      </trkpt>
      <trkpt lat="45.90055" lon="4.75746">
        <ele>192</ele>
        <time>2018-10-09T14:39:22Z</time>
      </trkpt>
      <trkpt lat="45.90063" lon="4.75751">
        <ele>192</ele>
        <time>2018-10-09T14:39:24Z</time>
      </trkpt>
      <trkpt lat="45.90067" lon="4.75753">
        <ele>192</ele>
        <time>2018-10-09T14:39:25Z</time>
      </trkpt>
      <trkpt lat="45.90071" lon="4.75756">
        <ele>192</ele>
        <time>2018-10-09T14:39:26Z</time>
      </trkpt>
      <trkpt lat="45.90076" lon="4.75758">
        <ele>192</ele>
        <time>2018-10-09T14:39:27Z</time>
      </trkpt>
      <trkpt lat="45.90083" lon="4.75762">
        <ele>192</ele>
        <time>2018-10-09T14:39:29Z</time>
      </trkpt>
      <trkpt lat="45.90087" lon="4.75764">
        <ele>192</ele>
        <time>2018-10-09T14:39:30Z</time>
      </trkpt>
      <trkpt lat="45.90094" lon="4.7577">
        <ele>191</ele>
        <time>2018-10-09T14:39:32Z</time>
      </trkpt>
      <trkpt lat="45.90098" lon="4.75772">
        <ele>191</ele>
        <time>2018-10-09T14:39:33Z</time>
      </trkpt>
      <trkpt lat="45.90106" lon="4.75778">
        <ele>191</ele>
        <time>2018-10-09T14:39:35Z</time>
      </trkpt>
      <trkpt lat="45.90111" lon="4.7578">
        <ele>191</ele>
        <time>2018-10-09T14:39:36Z</time>
      </trkpt>
      <trkpt lat="45.90115" lon="4.75783">
        <ele>191</ele>
        <time>2018-10-09T14:39:37Z</time>
      </trkpt>
      <trkpt lat="45.9012" lon="4.75786">
        <ele>191</ele>
        <time>2018-10-09T14:39:38Z</time>
      </trkpt>
      <trkpt lat="45.90126" lon="4.75789">
        <ele>191</ele>
        <time>2018-10-09T14:39:39Z</time>
      </trkpt>
      <trkpt lat="45.90131" lon="4.75791">
        <ele>191</ele>
        <time>2018-10-09T14:39:40Z</time>
      </trkpt>
      <trkpt lat="45.90136" lon="4.75793">
        <ele>191</ele>
        <time>2018-10-09T14:39:41Z</time>
      </trkpt>
      <trkpt lat="45.9014" lon="4.75795">
        <ele>191</ele>
        <time>2018-10-09T14:39:42Z</time>
      </trkpt>
      <trkpt lat="45.90148" lon="4.75799">
        <ele>191</ele>
        <time>2018-10-09T14:39:44Z</time>
      </trkpt>
      <trkpt lat="45.90152" lon="4.75801">
        <ele>191</ele>
        <time>2018-10-09T14:39:45Z</time>
      </trkpt>
      <trkpt lat="45.9016" lon="4.75803">
        <ele>191</ele>
        <time>2018-10-09T14:39:47Z</time>
      </trkpt>
      <trkpt lat="45.90164" lon="4.75804">
        <ele>191</ele>
        <time>2018-10-09T14:39:48Z</time>
      </trkpt>
      <trkpt lat="45.9017" lon="4.75804">
        <ele>190</ele>
        <time>2018-10-09T14:39:49Z</time>
      </trkpt>
      <trkpt lat="45.90175" lon="4.75804">
        <ele>190</ele>
        <time>2018-10-09T14:39:50Z</time>
      </trkpt>
      <trkpt lat="45.90181" lon="4.75805">
        <ele>190</ele>
        <time>2018-10-09T14:39:51Z</time>
      </trkpt>
      <trkpt lat="45.90187" lon="4.75805">
        <ele>190</ele>
        <time>2018-10-09T14:39:52Z</time>
      </trkpt>
      <trkpt lat="45.90192" lon="4.75805">
        <ele>190</ele>
        <time>2018-10-09T14:39:53Z</time>
      </trkpt>
      <trkpt lat="45.90197" lon="4.75806">
        <ele>190</ele>
        <time>2018-10-09T14:39:54Z</time>
      </trkpt>
      <trkpt lat="45.90202" lon="4.75806">
        <ele>190</ele>
        <time>2018-10-09T14:39:55Z</time>
      </trkpt>
      <trkpt lat="45.90207" lon="4.75807">
        <ele>190</ele>
        <time>2018-10-09T14:39:56Z</time>
      </trkpt>
      <trkpt lat="45.90212" lon="4.75808">
        <ele>190</ele>
        <time>2018-10-09T14:39:57Z</time>
      </trkpt>
      <trkpt lat="45.90217" lon="4.75809">
        <ele>190</ele>
        <time>2018-10-09T14:39:58Z</time>
      </trkpt>
      <trkpt lat="45.90225" lon="4.75812">
        <ele>190</ele>
        <time>2018-10-09T14:40:00Z</time>
      </trkpt>
      <trkpt lat="45.90229" lon="4.75813">
        <ele>190</ele>
        <time>2018-10-09T14:40:01Z</time>
      </trkpt>
      <trkpt lat="45.90233" lon="4.75815">
        <ele>190</ele>
        <time>2018-10-09T14:40:02Z</time>
      </trkpt>
      <trkpt lat="45.90238" lon="4.75816">
        <ele>190</ele>
        <time>2018-10-09T14:40:03Z</time>
      </trkpt>
      <trkpt lat="45.90242" lon="4.75819">
        <ele>190</ele>
        <time>2018-10-09T14:40:04Z</time>
      </trkpt>
      <trkpt lat="45.90247" lon="4.7582">
        <ele>190</ele>
        <time>2018-10-09T14:40:05Z</time>
      </trkpt>
      <trkpt lat="45.90252" lon="4.75823">
        <ele>190</ele>
        <time>2018-10-09T14:40:06Z</time>
      </trkpt>
      <trkpt lat="45.90257" lon="4.75823">
        <ele>190</ele>
        <time>2018-10-09T14:40:07Z</time>
      </trkpt>
      <trkpt lat="45.90262" lon="4.75825">
        <ele>190</ele>
        <time>2018-10-09T14:40:08Z</time>
      </trkpt>
      <trkpt lat="45.90266" lon="4.75827">
        <ele>190</ele>
        <time>2018-10-09T14:40:09Z</time>
      </trkpt>
      <trkpt lat="45.90275" lon="4.75829">
        <ele>189</ele>
        <time>2018-10-09T14:40:11Z</time>
      </trkpt>
      <trkpt lat="45.9028" lon="4.7583">
        <ele>189</ele>
        <time>2018-10-09T14:40:12Z</time>
      </trkpt>
      <trkpt lat="45.90288" lon="4.75831">
        <ele>189</ele>
        <time>2018-10-09T14:40:14Z</time>
      </trkpt>
      <trkpt lat="45.90292" lon="4.75832">
        <ele>189</ele>
        <time>2018-10-09T14:40:15Z</time>
      </trkpt>
      <trkpt lat="45.90299" lon="4.75832">
        <ele>189</ele>
        <time>2018-10-09T14:40:17Z</time>
      </trkpt>
      <trkpt lat="45.90303" lon="4.75834">
        <ele>189</ele>
        <time>2018-10-09T14:40:18Z</time>
      </trkpt>
      <trkpt lat="45.90307" lon="4.75836">
        <ele>189</ele>
        <time>2018-10-09T14:40:19Z</time>
      </trkpt>
      <trkpt lat="45.90312" lon="4.75839">
        <ele>189</ele>
        <time>2018-10-09T14:40:20Z</time>
      </trkpt>
      <trkpt lat="45.90316" lon="4.75844">
        <ele>189</ele>
        <time>2018-10-09T14:40:21Z</time>
      </trkpt>
      <trkpt lat="45.9032" lon="4.75849">
        <ele>189</ele>
        <time>2018-10-09T14:40:22Z</time>
      </trkpt>
      <trkpt lat="45.90323" lon="4.75855">
        <ele>189</ele>
        <time>2018-10-09T14:40:23Z</time>
      </trkpt>
      <trkpt lat="45.90326" lon="4.75861">
        <ele>189</ele>
        <time>2018-10-09T14:40:24Z</time>
      </trkpt>
      <trkpt lat="45.90328" lon="4.75868">
        <ele>189</ele>
        <time>2018-10-09T14:40:25Z</time>
      </trkpt>
      <trkpt lat="45.90331" lon="4.75874">
        <ele>189</ele>
        <time>2018-10-09T14:40:26Z</time>
      </trkpt>
      <trkpt lat="45.90333" lon="4.7588">
        <ele>189</ele>
        <time>2018-10-09T14:40:27Z</time>
      </trkpt>
      <trkpt lat="45.90335" lon="4.75886">
        <ele>188</ele>
        <time>2018-10-09T14:40:28Z</time>
      </trkpt>
      <trkpt lat="45.90338" lon="4.75892">
        <ele>188</ele>
        <time>2018-10-09T14:40:29Z</time>
      </trkpt>
      <trkpt lat="45.9034" lon="4.75897">
        <ele>188</ele>
        <time>2018-10-09T14:40:30Z</time>
      </trkpt>
      <trkpt lat="45.90344" lon="4.75908">
        <ele>188</ele>
        <time>2018-10-09T14:40:32Z</time>
      </trkpt>
      <trkpt lat="45.90347" lon="4.75914">
        <ele>188</ele>
        <time>2018-10-09T14:40:33Z</time>
      </trkpt>
      <trkpt lat="45.90349" lon="4.7592">
        <ele>188</ele>
        <time>2018-10-09T14:40:34Z</time>
      </trkpt>
      <trkpt lat="45.90352" lon="4.75926">
        <ele>187</ele>
        <time>2018-10-09T14:40:35Z</time>
      </trkpt>
      <trkpt lat="45.90355" lon="4.75932">
        <ele>187</ele>
        <time>2018-10-09T14:40:36Z</time>
      </trkpt>
      <trkpt lat="45.90358" lon="4.75937">
        <ele>187</ele>
        <time>2018-10-09T14:40:37Z</time>
      </trkpt>
      <trkpt lat="45.90363" lon="4.75941">
        <ele>187</ele>
        <time>2018-10-09T14:40:38Z</time>
      </trkpt>
      <trkpt lat="45.90367" lon="4.75943">
        <ele>187</ele>
        <time>2018-10-09T14:40:39Z</time>
      </trkpt>
      <trkpt lat="45.90375" lon="4.75945">
        <ele>187</ele>
        <time>2018-10-09T14:40:41Z</time>
      </trkpt>
      <trkpt lat="45.9038" lon="4.75944">
        <ele>187</ele>
        <time>2018-10-09T14:40:42Z</time>
      </trkpt>
      <trkpt lat="45.90385" lon="4.75943">
        <ele>187</ele>
        <time>2018-10-09T14:40:43Z</time>
      </trkpt>
      <trkpt lat="45.90389" lon="4.75942">
        <ele>187</ele>
        <time>2018-10-09T14:40:44Z</time>
      </trkpt>
      <trkpt lat="45.90394" lon="4.75942">
        <ele>187</ele>
        <time>2018-10-09T14:40:45Z</time>
      </trkpt>
      <trkpt lat="45.904" lon="4.75941">
        <ele>187</ele>
        <time>2018-10-09T14:40:46Z</time>
      </trkpt>
      <trkpt lat="45.90405" lon="4.7594">
        <ele>187</ele>
        <time>2018-10-09T14:40:47Z</time>
      </trkpt>
      <trkpt lat="45.90411" lon="4.75939">
        <ele>187</ele>
        <time>2018-10-09T14:40:48Z</time>
      </trkpt>
      <trkpt lat="45.90417" lon="4.75938">
        <ele>187</ele>
        <time>2018-10-09T14:40:49Z</time>
      </trkpt>
      <trkpt lat="45.90423" lon="4.75936">
        <ele>187</ele>
        <time>2018-10-09T14:40:50Z</time>
      </trkpt>
      <trkpt lat="45.90427" lon="4.75935">
        <ele>187</ele>
        <time>2018-10-09T14:40:51Z</time>
      </trkpt>
      <trkpt lat="45.90433" lon="4.75934">
        <ele>187</ele>
        <time>2018-10-09T14:40:52Z</time>
      </trkpt>
      <trkpt lat="45.90438" lon="4.75934">
        <ele>187</ele>
        <time>2018-10-09T14:40:53Z</time>
      </trkpt>
      <trkpt lat="45.90443" lon="4.75933">
        <ele>187</ele>
        <time>2018-10-09T14:40:54Z</time>
      </trkpt>
      <trkpt lat="45.90451" lon="4.75932">
        <ele>187</ele>
        <time>2018-10-09T14:40:56Z</time>
      </trkpt>
      <trkpt lat="45.90456" lon="4.75931">
        <ele>187</ele>
        <time>2018-10-09T14:40:57Z</time>
      </trkpt>
      <trkpt lat="45.9046" lon="4.7593">
        <ele>187</ele>
        <time>2018-10-09T14:40:58Z</time>
      </trkpt>
      <trkpt lat="45.90465" lon="4.75929">
        <ele>187</ele>
        <time>2018-10-09T14:40:59Z</time>
      </trkpt>
      <trkpt lat="45.90469" lon="4.75928">
        <ele>187</ele>
        <time>2018-10-09T14:41:00Z</time>
      </trkpt>
      <trkpt lat="45.90474" lon="4.75928">
        <ele>187</ele>
        <time>2018-10-09T14:41:01Z</time>
      </trkpt>
      <trkpt lat="45.9048" lon="4.75926">
        <ele>187</ele>
        <time>2018-10-09T14:41:02Z</time>
      </trkpt>
      <trkpt lat="45.90486" lon="4.75924">
        <ele>187</ele>
        <time>2018-10-09T14:41:03Z</time>
      </trkpt>
      <trkpt lat="45.9049" lon="4.75923">
        <ele>187</ele>
        <time>2018-10-09T14:41:04Z</time>
      </trkpt>
      <trkpt lat="45.90495" lon="4.75922">
        <ele>187</ele>
        <time>2018-10-09T14:41:05Z</time>
      </trkpt>
      <trkpt lat="45.90501" lon="4.75922">
        <ele>187</ele>
        <time>2018-10-09T14:41:06Z</time>
      </trkpt>
      <trkpt lat="45.90506" lon="4.75921">
        <ele>187</ele>
        <time>2018-10-09T14:41:07Z</time>
      </trkpt>
      <trkpt lat="45.90511" lon="4.75921">
        <ele>187</ele>
        <time>2018-10-09T14:41:08Z</time>
      </trkpt>
      <trkpt lat="45.90517" lon="4.7592">
        <ele>187</ele>
        <time>2018-10-09T14:41:09Z</time>
      </trkpt>
      <trkpt lat="45.90522" lon="4.75922">
        <ele>187</ele>
        <time>2018-10-09T14:41:10Z</time>
      </trkpt>
      <trkpt lat="45.90527" lon="4.75924">
        <ele>186</ele>
        <time>2018-10-09T14:41:11Z</time>
      </trkpt>
      <trkpt lat="45.90532" lon="4.75926">
        <ele>186</ele>
        <time>2018-10-09T14:41:12Z</time>
      </trkpt>
      <trkpt lat="45.90536" lon="4.7593">
        <ele>186</ele>
        <time>2018-10-09T14:41:13Z</time>
      </trkpt>
      <trkpt lat="45.90541" lon="4.75933">
        <ele>186</ele>
        <time>2018-10-09T14:41:14Z</time>
      </trkpt>
      <trkpt lat="45.90545" lon="4.75938">
        <ele>186</ele>
        <time>2018-10-09T14:41:15Z</time>
      </trkpt>
      <trkpt lat="45.90549" lon="4.75943">
        <ele>186</ele>
        <time>2018-10-09T14:41:16Z</time>
      </trkpt>
      <trkpt lat="45.90554" lon="4.75946">
        <ele>186</ele>
        <time>2018-10-09T14:41:17Z</time>
      </trkpt>
      <trkpt lat="45.90558" lon="4.7595">
        <ele>186</ele>
        <time>2018-10-09T14:41:18Z</time>
      </trkpt>
      <trkpt lat="45.90562" lon="4.75955">
        <ele>186</ele>
        <time>2018-10-09T14:41:19Z</time>
      </trkpt>
      <trkpt lat="45.90568" lon="4.75958">
        <ele>186</ele>
        <time>2018-10-09T14:41:20Z</time>
      </trkpt>
      <trkpt lat="45.90572" lon="4.75963">
        <ele>186</ele>
        <time>2018-10-09T14:41:21Z</time>
      </trkpt>
      <trkpt lat="45.90576" lon="4.75967">
        <ele>186</ele>
        <time>2018-10-09T14:41:22Z</time>
      </trkpt>
      <trkpt lat="45.9058" lon="4.75972">
        <ele>186</ele>
        <time>2018-10-09T14:41:23Z</time>
      </trkpt>
      <trkpt lat="45.90584" lon="4.75975">
        <ele>186</ele>
        <time>2018-10-09T14:41:24Z</time>
      </trkpt>
      <trkpt lat="45.90587" lon="4.75978">
        <ele>186</ele>
        <time>2018-10-09T14:41:25Z</time>
      </trkpt>
      <trkpt lat="45.90594" lon="4.75983">
        <ele>186</ele>
        <time>2018-10-09T14:41:27Z</time>
      </trkpt>
      <trkpt lat="45.90598" lon="4.75983">
        <ele>186</ele>
        <time>2018-10-09T14:41:28Z</time>
      </trkpt>
      <trkpt lat="45.90606" lon="4.75979">
        <ele>186</ele>
        <time>2018-10-09T14:41:30Z</time>
      </trkpt>
      <trkpt lat="45.90606" lon="4.75976">
        <ele>186</ele>
        <time>2018-10-09T14:41:31Z</time>
      </trkpt>
      <trkpt lat="45.9061" lon="4.75971">
        <ele>186</ele>
        <time>2018-10-09T14:41:32Z</time>
      </trkpt>
      <trkpt lat="45.90614" lon="4.75968">
        <ele>186</ele>
        <time>2018-10-09T14:41:33Z</time>
      </trkpt>
      <trkpt lat="45.90617" lon="4.75962">
        <ele>186</ele>
        <time>2018-10-09T14:41:34Z</time>
      </trkpt>
      <trkpt lat="45.9062" lon="4.75957">
        <ele>186</ele>
        <time>2018-10-09T14:41:35Z</time>
      </trkpt>
      <trkpt lat="45.90623" lon="4.75951">
        <ele>186</ele>
        <time>2018-10-09T14:41:36Z</time>
      </trkpt>
      <trkpt lat="45.90626" lon="4.75946">
        <ele>186</ele>
        <time>2018-10-09T14:41:37Z</time>
      </trkpt>
      <trkpt lat="45.90629" lon="4.75941">
        <ele>186</ele>
        <time>2018-10-09T14:41:38Z</time>
      </trkpt>
      <trkpt lat="45.90632" lon="4.75936">
        <ele>186</ele>
        <time>2018-10-09T14:41:39Z</time>
      </trkpt>
      <trkpt lat="45.90636" lon="4.75931">
        <ele>186</ele>
        <time>2018-10-09T14:41:40Z</time>
      </trkpt>
      <trkpt lat="45.90639" lon="4.75927">
        <ele>186</ele>
        <time>2018-10-09T14:41:41Z</time>
      </trkpt>
      <trkpt lat="45.90643" lon="4.75922">
        <ele>187</ele>
        <time>2018-10-09T14:41:42Z</time>
      </trkpt>
      <trkpt lat="45.90647" lon="4.75918">
        <ele>187</ele>
        <time>2018-10-09T14:41:43Z</time>
      </trkpt>
      <trkpt lat="45.90652" lon="4.75909">
        <ele>187</ele>
        <time>2018-10-09T14:41:45Z</time>
      </trkpt>
      <trkpt lat="45.90654" lon="4.75907">
        <ele>187</ele>
        <time>2018-10-09T14:41:46Z</time>
      </trkpt>
      <trkpt lat="45.90659" lon="4.75899">
        <ele>187</ele>
        <time>2018-10-09T14:41:49Z</time>
      </trkpt>
      <trkpt lat="45.90662" lon="4.75895">
        <ele>187</ele>
        <time>2018-10-09T14:41:50Z</time>
      </trkpt>
      <trkpt lat="45.90663" lon="4.75891">
        <ele>187</ele>
        <time>2018-10-09T14:41:51Z</time>
      </trkpt>
      <trkpt lat="45.90667" lon="4.75883">
        <ele>187</ele>
        <time>2018-10-09T14:41:52Z</time>
      </trkpt>
      <trkpt lat="45.90672" lon="4.75879">
        <ele>187</ele>
        <time>2018-10-09T14:41:54Z</time>
      </trkpt>
      <trkpt lat="45.90676" lon="4.75874">
        <ele>187</ele>
        <time>2018-10-09T14:41:55Z</time>
      </trkpt>
      <trkpt lat="45.90682" lon="4.75868">
        <ele>187</ele>
        <time>2018-10-09T14:41:57Z</time>
      </trkpt>
      <trkpt lat="45.90686" lon="4.75865">
        <ele>187</ele>
        <time>2018-10-09T14:41:58Z</time>
      </trkpt>
      <trkpt lat="45.9069" lon="4.75863">
        <ele>187</ele>
        <time>2018-10-09T14:41:59Z</time>
      </trkpt>
      <trkpt lat="45.90695" lon="4.75864">
        <ele>187</ele>
        <time>2018-10-09T14:42:00Z</time>
      </trkpt>
      <trkpt lat="45.907" lon="4.75863">
        <ele>187</ele>
        <time>2018-10-09T14:42:01Z</time>
      </trkpt>
      <trkpt lat="45.90705" lon="4.75863">
        <ele>187</ele>
        <time>2018-10-09T14:42:02Z</time>
      </trkpt>
      <trkpt lat="45.90711" lon="4.75863">
        <ele>187</ele>
        <time>2018-10-09T14:42:03Z</time>
      </trkpt>
      <trkpt lat="45.90717" lon="4.75862">
        <ele>186</ele>
        <time>2018-10-09T14:42:04Z</time>
      </trkpt>
      <trkpt lat="45.90722" lon="4.75862">
        <ele>186</ele>
        <time>2018-10-09T14:42:05Z</time>
      </trkpt>
      <trkpt lat="45.90727" lon="4.75862">
        <ele>186</ele>
        <time>2018-10-09T14:42:06Z</time>
      </trkpt>
      <trkpt lat="45.90734" lon="4.75862">
        <ele>186</ele>
        <time>2018-10-09T14:42:07Z</time>
      </trkpt>
      <trkpt lat="45.90739" lon="4.75863">
        <ele>186</ele>
        <time>2018-10-09T14:42:08Z</time>
      </trkpt>
      <trkpt lat="45.90744" lon="4.75864">
        <ele>186</ele>
        <time>2018-10-09T14:42:09Z</time>
      </trkpt>
      <trkpt lat="45.90749" lon="4.75864">
        <ele>186</ele>
        <time>2018-10-09T14:42:10Z</time>
      </trkpt>
      <trkpt lat="45.90753" lon="4.75861">
        <ele>185</ele>
        <time>2018-10-09T14:42:11Z</time>
      </trkpt>
      <trkpt lat="45.90758" lon="4.75861">
        <ele>185</ele>
        <time>2018-10-09T14:42:12Z</time>
      </trkpt>
      <trkpt lat="45.90763" lon="4.75862">
        <ele>185</ele>
        <time>2018-10-09T14:42:13Z</time>
      </trkpt>
      <trkpt lat="45.90767" lon="4.75862">
        <ele>185</ele>
        <time>2018-10-09T14:42:14Z</time>
      </trkpt>
      <trkpt lat="45.90776" lon="4.75861">
        <ele>185</ele>
        <time>2018-10-09T14:42:16Z</time>
      </trkpt>
      <trkpt lat="45.9078" lon="4.75862">
        <ele>185</ele>
        <time>2018-10-09T14:42:17Z</time>
      </trkpt>
      <trkpt lat="45.90785" lon="4.75863">
        <ele>185</ele>
        <time>2018-10-09T14:42:18Z</time>
      </trkpt>
      <trkpt lat="45.9079" lon="4.75863">
        <ele>185</ele>
        <time>2018-10-09T14:42:19Z</time>
      </trkpt>
      <trkpt lat="45.90799" lon="4.75863">
        <ele>185</ele>
        <time>2018-10-09T14:42:21Z</time>
      </trkpt>
      <trkpt lat="45.90805" lon="4.75863">
        <ele>185</ele>
        <time>2018-10-09T14:42:22Z</time>
      </trkpt>
      <trkpt lat="45.90809" lon="4.75864">
        <ele>185</ele>
        <time>2018-10-09T14:42:23Z</time>
      </trkpt>
      <trkpt lat="45.90814" lon="4.75864">
        <ele>185</ele>
        <time>2018-10-09T14:42:24Z</time>
      </trkpt>
      <trkpt lat="45.90819" lon="4.75864">
        <ele>185</ele>
        <time>2018-10-09T14:42:25Z</time>
      </trkpt>
      <trkpt lat="45.90826" lon="4.75864">
        <ele>185</ele>
        <time>2018-10-09T14:42:26Z</time>
      </trkpt>
      <trkpt lat="45.9083" lon="4.75865">
        <ele>185</ele>
        <time>2018-10-09T14:42:27Z</time>
      </trkpt>
      <trkpt lat="45.90835" lon="4.75866">
        <ele>184</ele>
        <time>2018-10-09T14:42:28Z</time>
      </trkpt>
      <trkpt lat="45.90842" lon="4.75867">
        <ele>184</ele>
        <time>2018-10-09T14:42:30Z</time>
      </trkpt>
      <trkpt lat="45.90846" lon="4.75867">
        <ele>184</ele>
        <time>2018-10-09T14:42:31Z</time>
      </trkpt>
      <trkpt lat="45.90854" lon="4.75867">
        <ele>184</ele>
        <time>2018-10-09T14:42:33Z</time>
      </trkpt>
      <trkpt lat="45.90857" lon="4.75868">
        <ele>184</ele>
        <time>2018-10-09T14:42:34Z</time>
      </trkpt>
      <trkpt lat="45.90863" lon="4.75868">
        <ele>184</ele>
        <time>2018-10-09T14:42:36Z</time>
      </trkpt>
      <trkpt lat="45.90868" lon="4.75869">
        <ele>184</ele>
        <time>2018-10-09T14:42:37Z</time>
      </trkpt>
      <trkpt lat="45.90876" lon="4.75871">
        <ele>184</ele>
        <time>2018-10-09T14:42:40Z</time>
      </trkpt>
      <trkpt lat="45.90879" lon="4.75873">
        <ele>184</ele>
        <time>2018-10-09T14:42:41Z</time>
      </trkpt>
      <trkpt lat="45.90884" lon="4.75878">
        <ele>184</ele>
        <time>2018-10-09T14:42:43Z</time>
      </trkpt>
      <trkpt lat="45.90886" lon="4.75882">
        <ele>184</ele>
        <time>2018-10-09T14:42:44Z</time>
      </trkpt>
      <trkpt lat="45.90889" lon="4.75889">
        <ele>183</ele>
        <time>2018-10-09T14:42:46Z</time>
      </trkpt>
      <trkpt lat="45.90891" lon="4.75893">
        <ele>183</ele>
        <time>2018-10-09T14:42:47Z</time>
      </trkpt>
      <trkpt lat="45.90895" lon="4.75901">
        <ele>183</ele>
        <time>2018-10-09T14:42:49Z</time>
      </trkpt>
      <trkpt lat="45.90897" lon="4.75904">
        <ele>183</ele>
        <time>2018-10-09T14:42:50Z</time>
      </trkpt>
      <trkpt lat="45.90904" lon="4.75906">
        <ele>183</ele>
        <time>2018-10-09T14:42:53Z</time>
      </trkpt>
      <trkpt lat="45.90907" lon="4.75903">
        <ele>183</ele>
        <time>2018-10-09T14:42:54Z</time>
      </trkpt>
      <trkpt lat="45.90909" lon="4.75894">
        <ele>183</ele>
        <time>2018-10-09T14:42:57Z</time>
      </trkpt>
      <trkpt lat="45.9091" lon="4.7589">
        <ele>183</ele>
        <time>2018-10-09T14:42:58Z</time>
      </trkpt>
      <trkpt lat="45.9091" lon="4.75879">
        <ele>183</ele>
        <time>2018-10-09T14:42:59Z</time>
      </trkpt>
      <trkpt lat="45.90908" lon="4.75876">
        <ele>183</ele>
        <time>2018-10-09T14:43:00Z</time>
      </trkpt>
      <trkpt lat="45.90905" lon="4.75868">
        <ele>183</ele>
        <time>2018-10-09T14:43:03Z</time>
      </trkpt>
      <trkpt lat="45.90902" lon="4.75864">
        <ele>183</ele>
        <time>2018-10-09T14:43:04Z</time>
      </trkpt>
      <trkpt lat="45.90897" lon="4.75858">
        <ele>184</ele>
        <time>2018-10-09T14:43:06Z</time>
      </trkpt>
      <trkpt lat="45.90895" lon="4.75854">
        <ele>184</ele>
        <time>2018-10-09T14:43:07Z</time>
      </trkpt>
      <trkpt lat="45.90893" lon="4.75847">
        <ele>184</ele>
        <time>2018-10-09T14:43:09Z</time>
      </trkpt>
      <trkpt lat="45.90892" lon="4.75836">
        <ele>184</ele>
        <time>2018-10-09T14:43:10Z</time>
      </trkpt>
      <trkpt lat="45.90893" lon="4.75826">
        <ele>184</ele>
        <time>2018-10-09T14:43:12Z</time>
      </trkpt>
      <trkpt lat="45.90893" lon="4.7582">
        <ele>184</ele>
        <time>2018-10-09T14:43:13Z</time>
      </trkpt>
      <trkpt lat="45.90893" lon="4.75812">
        <ele>184</ele>
        <time>2018-10-09T14:43:15Z</time>
      </trkpt>
      <trkpt lat="45.90894" lon="4.75804">
        <ele>184</ele>
        <time>2018-10-09T14:43:16Z</time>
      </trkpt>
      <trkpt lat="45.90894" lon="4.75792">
        <ele>184</ele>
        <time>2018-10-09T14:43:18Z</time>
      </trkpt>
      <trkpt lat="45.90894" lon="4.75786">
        <ele>185</ele>
        <time>2018-10-09T14:43:19Z</time>
      </trkpt>
      <trkpt lat="45.90894" lon="4.75774">
        <ele>185</ele>
        <time>2018-10-09T14:43:21Z</time>
      </trkpt>
      <trkpt lat="45.90894" lon="4.75769">
        <ele>185</ele>
        <time>2018-10-09T14:43:22Z</time>
      </trkpt>
      <trkpt lat="45.90894" lon="4.75757">
        <ele>184</ele>
        <time>2018-10-09T14:43:24Z</time>
      </trkpt>
      <trkpt lat="45.90895" lon="4.7575">
        <ele>184</ele>
        <time>2018-10-09T14:43:25Z</time>
      </trkpt>
      <trkpt lat="45.90896" lon="4.75738">
        <ele>184</ele>
        <time>2018-10-09T14:43:27Z</time>
      </trkpt>
      <trkpt lat="45.90897" lon="4.75731">
        <ele>184</ele>
        <time>2018-10-09T14:43:28Z</time>
      </trkpt>
      <trkpt lat="45.90898" lon="4.75719">
        <ele>184</ele>
        <time>2018-10-09T14:43:30Z</time>
      </trkpt>
      <trkpt lat="45.90898" lon="4.75713">
        <ele>184</ele>
        <time>2018-10-09T14:43:31Z</time>
      </trkpt>
      <trkpt lat="45.90899" lon="4.757">
        <ele>184</ele>
        <time>2018-10-09T14:43:35Z</time>
      </trkpt>
      <trkpt lat="45.909" lon="4.75697">
        <ele>184</ele>
        <time>2018-10-09T14:43:36Z</time>
      </trkpt>
      <trkpt lat="45.90903" lon="4.75687">
        <ele>184</ele>
        <time>2018-10-09T14:43:39Z</time>
      </trkpt>
      <trkpt lat="45.90903" lon="4.75684">
        <ele>184</ele>
        <time>2018-10-09T14:43:40Z</time>
      </trkpt>
      <trkpt lat="45.90899" lon="4.75673">
        <ele>184</ele>
        <time>2018-10-09T14:47:23Z</time>
      </trkpt>
      <trkpt lat="45.90899" lon="4.75672">
        <ele>184</ele>
        <time>2018-10-09T14:47:24Z</time>
      </trkpt>
      <trkpt lat="45.90901" lon="4.75662">
        <ele>184</ele>
        <time>2018-10-09T14:47:28Z</time>
      </trkpt>
      <trkpt lat="45.90901" lon="4.75659">
        <ele>184</ele>
        <time>2018-10-09T14:47:29Z</time>
      </trkpt>
      <trkpt lat="45.90902" lon="4.75646">
        <ele>184</ele>
        <time>2018-10-09T14:47:33Z</time>
      </trkpt>
      <trkpt lat="45.90902" lon="4.75643">
        <ele>185</ele>
        <time>2018-10-09T14:47:34Z</time>
      </trkpt>
      <trkpt lat="45.90903" lon="4.75633">
        <ele>185</ele>
        <time>2018-10-09T14:47:37Z</time>
      </trkpt>
      <trkpt lat="45.90903" lon="4.75628">
        <ele>185</ele>
        <time>2018-10-09T14:47:38Z</time>
      </trkpt>
      <trkpt lat="45.90905" lon="4.75619">
        <ele>185</ele>
        <time>2018-10-09T14:47:40Z</time>
      </trkpt>
      <trkpt lat="45.90905" lon="4.75615">
        <ele>185</ele>
        <time>2018-10-09T14:47:41Z</time>
      </trkpt>
      <trkpt lat="45.90906" lon="4.75606">
        <ele>185</ele>
        <time>2018-10-09T14:47:43Z</time>
      </trkpt>
      <trkpt lat="45.90907" lon="4.75601">
        <ele>185</ele>
        <time>2018-10-09T14:47:44Z</time>
      </trkpt>
      <trkpt lat="45.90908" lon="4.75591">
        <ele>185</ele>
        <time>2018-10-09T14:47:46Z</time>
      </trkpt>
      <trkpt lat="45.90908" lon="4.75585">
        <ele>185</ele>
        <time>2018-10-09T14:47:47Z</time>
      </trkpt>
      <trkpt lat="45.90909" lon="4.75574">
        <ele>185</ele>
        <time>2018-10-09T14:47:48Z</time>
      </trkpt>
      <trkpt lat="45.90909" lon="4.7557">
        <ele>185</ele>
        <time>2018-10-09T14:47:49Z</time>
      </trkpt>
      <trkpt lat="45.9091" lon="4.7556">
        <ele>186</ele>
        <time>2018-10-09T14:47:51Z</time>
      </trkpt>
      <trkpt lat="45.9091" lon="4.75556">
        <ele>186</ele>
        <time>2018-10-09T14:47:52Z</time>
      </trkpt>
      <trkpt lat="45.90911" lon="4.75545">
        <ele>186</ele>
        <time>2018-10-09T14:47:55Z</time>
      </trkpt>
      <trkpt lat="45.90911" lon="4.75541">
        <ele>186</ele>
        <time>2018-10-09T14:47:56Z</time>
      </trkpt>
      <trkpt lat="45.90911" lon="4.75532">
        <ele>186</ele>
        <time>2018-10-09T14:47:58Z</time>
      </trkpt>
      <trkpt lat="45.90912" lon="4.75521">
        <ele>186</ele>
        <time>2018-10-09T14:47:59Z</time>
      </trkpt>
      <trkpt lat="45.90913" lon="4.75511">
        <ele>186</ele>
        <time>2018-10-09T14:48:01Z</time>
      </trkpt>
      <trkpt lat="45.90913" lon="4.75508">
        <ele>186</ele>
        <time>2018-10-09T14:48:02Z</time>
      </trkpt>
      <trkpt lat="45.90914" lon="4.75497">
        <ele>186</ele>
        <time>2018-10-09T14:48:05Z</time>
      </trkpt>
      <trkpt lat="45.90914" lon="4.75494">
        <ele>186</ele>
        <time>2018-10-09T14:48:06Z</time>
      </trkpt>
      <trkpt lat="45.90915" lon="4.75483">
        <ele>186</ele>
        <time>2018-10-09T14:48:09Z</time>
      </trkpt>
      <trkpt lat="45.90915" lon="4.75478">
        <ele>186</ele>
        <time>2018-10-09T14:48:10Z</time>
      </trkpt>
      <trkpt lat="45.90915" lon="4.75474">
        <ele>186</ele>
        <time>2018-10-09T14:48:11Z</time>
      </trkpt>
      <trkpt lat="45.90916" lon="4.75465">
        <ele>186</ele>
        <time>2018-10-09T14:48:12Z</time>
      </trkpt>
      <trkpt lat="45.90917" lon="4.75453">
        <ele>185</ele>
        <time>2018-10-09T14:48:14Z</time>
      </trkpt>
      <trkpt lat="45.90918" lon="4.7545">
        <ele>185</ele>
        <time>2018-10-09T14:48:15Z</time>
      </trkpt>
      <trkpt lat="45.9092" lon="4.75438">
        <ele>185</ele>
        <time>2018-10-09T14:48:18Z</time>
      </trkpt>
      <trkpt lat="45.9092" lon="4.75434">
        <ele>185</ele>
        <time>2018-10-09T14:48:19Z</time>
      </trkpt>
      <trkpt lat="45.90921" lon="4.75424">
        <ele>185</ele>
        <time>2018-10-09T14:48:21Z</time>
      </trkpt>
      <trkpt lat="45.90923" lon="4.75414">
        <ele>185</ele>
        <time>2018-10-09T14:48:22Z</time>
      </trkpt>
      <trkpt lat="45.90924" lon="4.75402">
        <ele>185</ele>
        <time>2018-10-09T14:48:24Z</time>
      </trkpt>
      <trkpt lat="45.90925" lon="4.75397">
        <ele>185</ele>
        <time>2018-10-09T14:48:25Z</time>
      </trkpt>
      <trkpt lat="45.90926" lon="4.75384">
        <ele>185</ele>
        <time>2018-10-09T14:48:28Z</time>
      </trkpt>
      <trkpt lat="45.90926" lon="4.7538">
        <ele>185</ele>
        <time>2018-10-09T14:48:29Z</time>
      </trkpt>
      <trkpt lat="45.90926" lon="4.75376">
        <ele>185</ele>
        <time>2018-10-09T14:48:30Z</time>
      </trkpt>
      <trkpt lat="45.90927" lon="4.75367">
        <ele>185</ele>
        <time>2018-10-09T14:48:31Z</time>
      </trkpt>
      <trkpt lat="45.90929" lon="4.75357">
        <ele>185</ele>
        <time>2018-10-09T14:48:33Z</time>
      </trkpt>
      <trkpt lat="45.9093" lon="4.75351">
        <ele>185</ele>
        <time>2018-10-09T14:48:34Z</time>
      </trkpt>
      <trkpt lat="45.90932" lon="4.75339">
        <ele>185</ele>
        <time>2018-10-09T14:48:37Z</time>
      </trkpt>
      <trkpt lat="45.90932" lon="4.75336">
        <ele>185</ele>
        <time>2018-10-09T14:48:38Z</time>
      </trkpt>
      <trkpt lat="45.90933" lon="4.75327">
        <ele>185</ele>
        <time>2018-10-09T14:48:39Z</time>
      </trkpt>
      <trkpt lat="45.90933" lon="4.75321">
        <ele>185</ele>
        <time>2018-10-09T14:48:40Z</time>
      </trkpt>
      <trkpt lat="45.90934" lon="4.75309">
        <ele>185</ele>
        <time>2018-10-09T14:48:43Z</time>
      </trkpt>
      <trkpt lat="45.90934" lon="4.75305">
        <ele>185</ele>
        <time>2018-10-09T14:48:44Z</time>
      </trkpt>
      <trkpt lat="45.90935" lon="4.75292">
        <ele>185</ele>
        <time>2018-10-09T14:48:47Z</time>
      </trkpt>
      <trkpt lat="45.90936" lon="4.75288">
        <ele>185</ele>
        <time>2018-10-09T14:48:48Z</time>
      </trkpt>
      <trkpt lat="45.90937" lon="4.75279">
        <ele>185</ele>
        <time>2018-10-09T14:48:50Z</time>
      </trkpt>
      <trkpt lat="45.90937" lon="4.75274">
        <ele>185</ele>
        <time>2018-10-09T14:48:51Z</time>
      </trkpt>
      <trkpt lat="45.90938" lon="4.75266">
        <ele>185</ele>
        <time>2018-10-09T14:48:53Z</time>
      </trkpt>
      <trkpt lat="45.90938" lon="4.75261">
        <ele>185</ele>
        <time>2018-10-09T14:48:54Z</time>
      </trkpt>
      <trkpt lat="45.9094" lon="4.7525">
        <ele>185</ele>
        <time>2018-10-09T14:48:56Z</time>
      </trkpt>
      <trkpt lat="45.9094" lon="4.75246">
        <ele>184</ele>
        <time>2018-10-09T14:48:57Z</time>
      </trkpt>
      <trkpt lat="45.90941" lon="4.75234">
        <ele>184</ele>
        <time>2018-10-09T14:49:00Z</time>
      </trkpt>
      <trkpt lat="45.90942" lon="4.75229">
        <ele>184</ele>
        <time>2018-10-09T14:49:01Z</time>
      </trkpt>
      <trkpt lat="45.90942" lon="4.75221">
        <ele>184</ele>
        <time>2018-10-09T14:49:03Z</time>
      </trkpt>
      <trkpt lat="45.90943" lon="4.75211">
        <ele>184</ele>
        <time>2018-10-09T14:49:04Z</time>
      </trkpt>
      <trkpt lat="45.90944" lon="4.75201">
        <ele>183</ele>
        <time>2018-10-09T14:49:06Z</time>
      </trkpt>
      <trkpt lat="45.90945" lon="4.75195">
        <ele>183</ele>
        <time>2018-10-09T14:49:07Z</time>
      </trkpt>
      <trkpt lat="45.90946" lon="4.75185">
        <ele>183</ele>
        <time>2018-10-09T14:49:09Z</time>
      </trkpt>
      <trkpt lat="45.90946" lon="4.75179">
        <ele>183</ele>
        <time>2018-10-09T14:49:10Z</time>
      </trkpt>
      <trkpt lat="45.90947" lon="4.75169">
        <ele>183</ele>
        <time>2018-10-09T14:49:12Z</time>
      </trkpt>
      <trkpt lat="45.90948" lon="4.75165">
        <ele>182</ele>
        <time>2018-10-09T14:49:13Z</time>
      </trkpt>
      <trkpt lat="45.90949" lon="4.75153">
        <ele>182</ele>
        <time>2018-10-09T14:49:15Z</time>
      </trkpt>
      <trkpt lat="45.90949" lon="4.7515">
        <ele>182</ele>
        <time>2018-10-09T14:49:16Z</time>
      </trkpt>
      <trkpt lat="45.90951" lon="4.75137">
        <ele>181</ele>
        <time>2018-10-09T14:49:18Z</time>
      </trkpt>
      <trkpt lat="45.90951" lon="4.75134">
        <ele>181</ele>
        <time>2018-10-09T14:49:19Z</time>
      </trkpt>
      <trkpt lat="45.90952" lon="4.75121">
        <ele>181</ele>
        <time>2018-10-09T14:49:21Z</time>
      </trkpt>
      <trkpt lat="45.90953" lon="4.75118">
        <ele>181</ele>
        <time>2018-10-09T14:49:22Z</time>
      </trkpt>
      <trkpt lat="45.90954" lon="4.75106">
        <ele>181</ele>
        <time>2018-10-09T14:49:25Z</time>
      </trkpt>
      <trkpt lat="45.90955" lon="4.75102">
        <ele>181</ele>
        <time>2018-10-09T14:49:26Z</time>
      </trkpt>
      <trkpt lat="45.90956" lon="4.75092">
        <ele>181</ele>
        <time>2018-10-09T14:49:28Z</time>
      </trkpt>
      <trkpt lat="45.90956" lon="4.75088">
        <ele>181</ele>
        <time>2018-10-09T14:49:29Z</time>
      </trkpt>
      <trkpt lat="45.90957" lon="4.75079">
        <ele>179</ele>
        <time>2018-10-09T14:49:31Z</time>
      </trkpt>
      <trkpt lat="45.90957" lon="4.75074">
        <ele>179</ele>
        <time>2018-10-09T14:49:32Z</time>
      </trkpt>
      <trkpt lat="45.90958" lon="4.75064">
        <ele>179</ele>
        <time>2018-10-09T14:49:34Z</time>
      </trkpt>
      <trkpt lat="45.90959" lon="4.75059">
        <ele>179</ele>
        <time>2018-10-09T14:49:35Z</time>
      </trkpt>
      <trkpt lat="45.90961" lon="4.75047">
        <ele>179</ele>
        <time>2018-10-09T14:49:38Z</time>
      </trkpt>
      <trkpt lat="45.90961" lon="4.75042">
        <ele>179</ele>
        <time>2018-10-09T14:49:39Z</time>
      </trkpt>
      <trkpt lat="45.90963" lon="4.75034">
        <ele>179</ele>
        <time>2018-10-09T14:49:41Z</time>
      </trkpt>
      <trkpt lat="45.90964" lon="4.7503">
        <ele>179</ele>
        <time>2018-10-09T14:49:42Z</time>
      </trkpt>
      <trkpt lat="45.90967" lon="4.75027">
        <ele>178</ele>
        <time>2018-10-09T14:49:43Z</time>
      </trkpt>
      <trkpt lat="45.90973" lon="4.75025">
        <ele>178</ele>
        <time>2018-10-09T14:49:44Z</time>
      </trkpt>
      <trkpt lat="45.90978" lon="4.75028">
        <ele>178</ele>
        <time>2018-10-09T14:49:45Z</time>
      </trkpt>
      <trkpt lat="45.90983" lon="4.75034">
        <ele>178</ele>
        <time>2018-10-09T14:49:46Z</time>
      </trkpt>
      <trkpt lat="45.90992" lon="4.75037">
        <ele>178</ele>
        <time>2018-10-09T14:49:48Z</time>
      </trkpt>
      <trkpt lat="45.90997" lon="4.75039">
        <ele>178</ele>
        <time>2018-10-09T14:49:49Z</time>
      </trkpt>
      <trkpt lat="45.91005" lon="4.75043">
        <ele>178</ele>
        <time>2018-10-09T14:49:51Z</time>
      </trkpt>
      <trkpt lat="45.91009" lon="4.75044">
        <ele>178</ele>
        <time>2018-10-09T14:49:52Z</time>
      </trkpt>
      <trkpt lat="45.91014" lon="4.75046">
        <ele>178</ele>
        <time>2018-10-09T14:49:53Z</time>
      </trkpt>
      <trkpt lat="45.91019" lon="4.75048">
        <ele>178</ele>
        <time>2018-10-09T14:49:54Z</time>
      </trkpt>
      <trkpt lat="45.91023" lon="4.7505">
        <ele>179</ele>
        <time>2018-10-09T14:49:55Z</time>
      </trkpt>
      <trkpt lat="45.91028" lon="4.75052">
        <ele>179</ele>
        <time>2018-10-09T14:49:56Z</time>
      </trkpt>
      <trkpt lat="45.91032" lon="4.75054">
        <ele>179</ele>
        <time>2018-10-09T14:49:57Z</time>
      </trkpt>
      <trkpt lat="45.91037" lon="4.75055">
        <ele>179</ele>
        <time>2018-10-09T14:49:58Z</time>
      </trkpt>
      <trkpt lat="45.91041" lon="4.75057">
        <ele>179</ele>
        <time>2018-10-09T14:49:59Z</time>
      </trkpt>
      <trkpt lat="45.91045" lon="4.75058">
        <ele>179</ele>
        <time>2018-10-09T14:50:00Z</time>
      </trkpt>
      <trkpt lat="45.91054" lon="4.75062">
        <ele>179</ele>
        <time>2018-10-09T14:50:02Z</time>
      </trkpt>
      <trkpt lat="45.91057" lon="4.75064">
        <ele>179</ele>
        <time>2018-10-09T14:50:03Z</time>
      </trkpt>
      <trkpt lat="45.91065" lon="4.75068">
        <ele>179</ele>
        <time>2018-10-09T14:50:05Z</time>
      </trkpt>
      <trkpt lat="45.9107" lon="4.7507">
        <ele>179</ele>
        <time>2018-10-09T14:50:06Z</time>
      </trkpt>
      <trkpt lat="45.91075" lon="4.75071">
        <ele>179</ele>
        <time>2018-10-09T14:50:07Z</time>
      </trkpt>
      <trkpt lat="45.9108" lon="4.75073">
        <ele>179</ele>
        <time>2018-10-09T14:50:08Z</time>
      </trkpt>
      <trkpt lat="45.91084" lon="4.75076">
        <ele>180</ele>
        <time>2018-10-09T14:50:09Z</time>
      </trkpt>
      <trkpt lat="45.9109" lon="4.75078">
        <ele>179</ele>
        <time>2018-10-09T14:50:10Z</time>
      </trkpt>
      <trkpt lat="45.91096" lon="4.7508">
        <ele>179</ele>
        <time>2018-10-09T14:50:11Z</time>
      </trkpt>
      <trkpt lat="45.911" lon="4.75082">
        <ele>179</ele>
        <time>2018-10-09T14:50:12Z</time>
      </trkpt>
      <trkpt lat="45.91109" lon="4.75085">
        <ele>180</ele>
        <time>2018-10-09T14:50:14Z</time>
      </trkpt>
      <trkpt lat="45.91113" lon="4.75086">
        <ele>179</ele>
        <time>2018-10-09T14:50:15Z</time>
      </trkpt>
      <trkpt lat="45.91119" lon="4.75088">
        <ele>179</ele>
        <time>2018-10-09T14:50:16Z</time>
      </trkpt>
      <trkpt lat="45.91124" lon="4.7509">
        <ele>179</ele>
        <time>2018-10-09T14:50:17Z</time>
      </trkpt>
      <trkpt lat="45.91129" lon="4.75092">
        <ele>179</ele>
        <time>2018-10-09T14:50:18Z</time>
      </trkpt>
      <trkpt lat="45.91133" lon="4.75095">
        <ele>179</ele>
        <time>2018-10-09T14:50:19Z</time>
      </trkpt>
      <trkpt lat="45.91139" lon="4.75097">
        <ele>179</ele>
        <time>2018-10-09T14:50:20Z</time>
      </trkpt>
      <trkpt lat="45.91144" lon="4.75098">
        <ele>179</ele>
        <time>2018-10-09T14:50:21Z</time>
      </trkpt>
      <trkpt lat="45.91148" lon="4.751">
        <ele>179</ele>
        <time>2018-10-09T14:50:22Z</time>
      </trkpt>
      <trkpt lat="45.91153" lon="4.751">
        <ele>179</ele>
        <time>2018-10-09T14:50:23Z</time>
      </trkpt>
      <trkpt lat="45.91158" lon="4.75102">
        <ele>179</ele>
        <time>2018-10-09T14:50:24Z</time>
      </trkpt>
      <trkpt lat="45.91162" lon="4.75104">
        <ele>179</ele>
        <time>2018-10-09T14:50:25Z</time>
      </trkpt>
      <trkpt lat="45.9117" lon="4.75107">
        <ele>178</ele>
        <time>2018-10-09T14:50:27Z</time>
      </trkpt>
      <trkpt lat="45.91174" lon="4.75108">
        <ele>178</ele>
        <time>2018-10-09T14:50:28Z</time>
      </trkpt>
      <trkpt lat="45.91179" lon="4.75109">
        <ele>178</ele>
        <time>2018-10-09T14:50:29Z</time>
      </trkpt>
      <trkpt lat="45.91183" lon="4.75109">
        <ele>178</ele>
        <time>2018-10-09T14:50:30Z</time>
      </trkpt>
      <trkpt lat="45.91188" lon="4.7511">
        <ele>178</ele>
        <time>2018-10-09T14:50:31Z</time>
      </trkpt>
      <trkpt lat="45.91193" lon="4.75111">
        <ele>178</ele>
        <time>2018-10-09T14:50:32Z</time>
      </trkpt>
      <trkpt lat="45.91198" lon="4.75112">
        <ele>178</ele>
        <time>2018-10-09T14:50:33Z</time>
      </trkpt>
      <trkpt lat="45.91205" lon="4.75114">
        <ele>178</ele>
        <time>2018-10-09T14:50:34Z</time>
      </trkpt>
      <trkpt lat="45.9121" lon="4.75115">
        <ele>177</ele>
        <time>2018-10-09T14:50:35Z</time>
      </trkpt>
      <trkpt lat="45.91216" lon="4.75116">
        <ele>177</ele>
        <time>2018-10-09T14:50:36Z</time>
      </trkpt>
      <trkpt lat="45.9122" lon="4.75118">
        <ele>177</ele>
        <time>2018-10-09T14:50:37Z</time>
      </trkpt>
      <trkpt lat="45.91225" lon="4.7512">
        <ele>177</ele>
        <time>2018-10-09T14:50:38Z</time>
      </trkpt>
      <trkpt lat="45.9123" lon="4.75122">
        <ele>177</ele>
        <time>2018-10-09T14:50:39Z</time>
      </trkpt>
      <trkpt lat="45.91235" lon="4.75124">
        <ele>177</ele>
        <time>2018-10-09T14:50:40Z</time>
      </trkpt>
      <trkpt lat="45.91243" lon="4.75127">
        <ele>177</ele>
        <time>2018-10-09T14:50:42Z</time>
      </trkpt>
      <trkpt lat="45.91247" lon="4.7513">
        <ele>177</ele>
        <time>2018-10-09T14:50:43Z</time>
      </trkpt>
      <trkpt lat="45.91252" lon="4.75131">
        <ele>177</ele>
        <time>2018-10-09T14:50:44Z</time>
      </trkpt>
      <trkpt lat="45.91258" lon="4.75134">
        <ele>177</ele>
        <time>2018-10-09T14:50:45Z</time>
      </trkpt>
      <trkpt lat="45.91263" lon="4.75137">
        <ele>177</ele>
        <time>2018-10-09T14:50:46Z</time>
      </trkpt>
      <trkpt lat="45.91267" lon="4.75139">
        <ele>177</ele>
        <time>2018-10-09T14:50:47Z</time>
      </trkpt>
      <trkpt lat="45.91272" lon="4.7514">
        <ele>177</ele>
        <time>2018-10-09T14:50:48Z</time>
      </trkpt>
      <trkpt lat="45.91276" lon="4.75142">
        <ele>177</ele>
        <time>2018-10-09T14:50:49Z</time>
      </trkpt>
      <trkpt lat="45.91283" lon="4.75147">
        <ele>177</ele>
        <time>2018-10-09T14:50:51Z</time>
      </trkpt>
      <trkpt lat="45.91287" lon="4.75148">
        <ele>177</ele>
        <time>2018-10-09T14:50:52Z</time>
      </trkpt>
      <trkpt lat="45.91295" lon="4.7515">
        <ele>177</ele>
        <time>2018-10-09T14:50:54Z</time>
      </trkpt>
      <trkpt lat="45.91299" lon="4.7515">
        <ele>177</ele>
        <time>2018-10-09T14:50:55Z</time>
      </trkpt>
      <trkpt lat="45.91307" lon="4.75152">
        <ele>177</ele>
        <time>2018-10-09T14:50:58Z</time>
      </trkpt>
      <trkpt lat="45.91309" lon="4.75152">
        <ele>177</ele>
        <time>2018-10-09T14:50:59Z</time>
      </trkpt>
      <trkpt lat="45.91315" lon="4.7515">
        <ele>177</ele>
        <time>2018-10-09T14:51:02Z</time>
      </trkpt>
      <trkpt lat="45.91317" lon="4.7514">
        <ele>177</ele>
        <time>2018-10-09T14:51:03Z</time>
      </trkpt>
      <trkpt lat="45.91314" lon="4.7513">
        <ele>177</ele>
        <time>2018-10-09T14:51:05Z</time>
      </trkpt>
      <trkpt lat="45.91311" lon="4.75124">
        <ele>177</ele>
        <time>2018-10-09T14:51:06Z</time>
      </trkpt>
      <trkpt lat="45.91311" lon="4.75112">
        <ele>177</ele>
        <time>2018-10-09T14:51:08Z</time>
      </trkpt>
      <trkpt lat="45.9131" lon="4.75106">
        <ele>177</ele>
        <time>2018-10-09T14:51:09Z</time>
      </trkpt>
      <trkpt lat="45.91308" lon="4.75095">
        <ele>177</ele>
        <time>2018-10-09T14:51:11Z</time>
      </trkpt>
      <trkpt lat="45.91307" lon="4.75089">
        <ele>177</ele>
        <time>2018-10-09T14:51:12Z</time>
      </trkpt>
      <trkpt lat="45.91306" lon="4.75079">
        <ele>177</ele>
        <time>2018-10-09T14:51:14Z</time>
      </trkpt>
      <trkpt lat="45.91306" lon="4.75072">
        <ele>177</ele>
        <time>2018-10-09T14:51:15Z</time>
      </trkpt>
      <trkpt lat="45.91305" lon="4.75066">
        <ele>177</ele>
        <time>2018-10-09T14:51:16Z</time>
      </trkpt>
      <trkpt lat="45.91303" lon="4.75058">
        <ele>177</ele>
        <time>2018-10-09T14:51:17Z</time>
      </trkpt>
      <trkpt lat="45.91302" lon="4.7505">
        <ele>177</ele>
        <time>2018-10-09T14:51:18Z</time>
      </trkpt>
      <trkpt lat="45.91301" lon="4.75043">
        <ele>177</ele>
        <time>2018-10-09T14:51:19Z</time>
      </trkpt>
      <trkpt lat="45.91301" lon="4.75037">
        <ele>177</ele>
        <time>2018-10-09T14:51:20Z</time>
      </trkpt>
      <trkpt lat="45.91301" lon="4.7503">
        <ele>177</ele>
        <time>2018-10-09T14:51:21Z</time>
      </trkpt>
      <trkpt lat="45.91302" lon="4.75017">
        <ele>177</ele>
        <time>2018-10-09T14:51:23Z</time>
      </trkpt>
      <trkpt lat="45.91302" lon="4.7501">
        <ele>177</ele>
        <time>2018-10-09T14:51:24Z</time>
      </trkpt>
      <trkpt lat="45.91302" lon="4.74997">
        <ele>177</ele>
        <time>2018-10-09T14:51:26Z</time>
      </trkpt>
      <trkpt lat="45.91302" lon="4.7499">
        <ele>177</ele>
        <time>2018-10-09T14:51:27Z</time>
      </trkpt>
      <trkpt lat="45.91302" lon="4.74983">
        <ele>177</ele>
        <time>2018-10-09T14:51:28Z</time>
      </trkpt>
      <trkpt lat="45.91303" lon="4.74975">
        <ele>177</ele>
        <time>2018-10-09T14:51:29Z</time>
      </trkpt>
      <trkpt lat="45.91303" lon="4.74969">
        <ele>177</ele>
        <time>2018-10-09T14:51:30Z</time>
      </trkpt>
      <trkpt lat="45.91304" lon="4.74961">
        <ele>177</ele>
        <time>2018-10-09T14:51:31Z</time>
      </trkpt>
      <trkpt lat="45.91306" lon="4.74949">
        <ele>177</ele>
        <time>2018-10-09T14:51:33Z</time>
      </trkpt>
      <trkpt lat="45.91309" lon="4.74944">
        <ele>177</ele>
        <time>2018-10-09T14:51:34Z</time>
      </trkpt>
      <trkpt lat="45.91311" lon="4.74934">
        <ele>177</ele>
        <time>2018-10-09T14:51:36Z</time>
      </trkpt>
      <trkpt lat="45.91312" lon="4.74928">
        <ele>177</ele>
        <time>2018-10-09T14:51:37Z</time>
      </trkpt>
      <trkpt lat="45.91313" lon="4.74916">
        <ele>176</ele>
        <time>2018-10-09T14:51:39Z</time>
      </trkpt>
      <trkpt lat="45.91314" lon="4.74911">
        <ele>176</ele>
        <time>2018-10-09T14:51:40Z</time>
      </trkpt>
      <trkpt lat="45.91315" lon="4.74902">
        <ele>176</ele>
        <time>2018-10-09T14:51:42Z</time>
      </trkpt>
      <trkpt lat="45.91316" lon="4.74896">
        <ele>176</ele>
        <time>2018-10-09T14:51:43Z</time>
      </trkpt>
      <trkpt lat="45.91318" lon="4.74884">
        <ele>176</ele>
        <time>2018-10-09T14:51:47Z</time>
      </trkpt>
      <trkpt lat="45.91323" lon="4.74877">
        <ele>176</ele>
        <time>2018-10-09T14:51:48Z</time>
      </trkpt>
      <trkpt lat="45.91332" lon="4.74878">
        <ele>176</ele>
        <time>2018-10-09T14:51:50Z</time>
      </trkpt>
      <trkpt lat="45.91336" lon="4.7488">
        <ele>176</ele>
        <time>2018-10-09T14:51:51Z</time>
      </trkpt>
      <trkpt lat="45.91344" lon="4.74886">
        <ele>176</ele>
        <time>2018-10-09T14:51:53Z</time>
      </trkpt>
      <trkpt lat="45.91346" lon="4.74888">
        <ele>176</ele>
        <time>2018-10-09T14:51:54Z</time>
      </trkpt>
      <trkpt lat="45.91353" lon="4.74893">
        <ele>176</ele>
        <time>2018-10-09T14:51:56Z</time>
      </trkpt>
      <trkpt lat="45.91358" lon="4.74896">
        <ele>176</ele>
        <time>2018-10-09T14:51:57Z</time>
      </trkpt>
      <trkpt lat="45.91366" lon="4.74899">
        <ele>177</ele>
        <time>2018-10-09T14:51:59Z</time>
      </trkpt>
      <trkpt lat="45.91371" lon="4.749">
        <ele>177</ele>
        <time>2018-10-09T14:52:00Z</time>
      </trkpt>
      <trkpt lat="45.91375" lon="4.74902">
        <ele>177</ele>
        <time>2018-10-09T14:52:01Z</time>
      </trkpt>
      <trkpt lat="45.9138" lon="4.74903">
        <ele>177</ele>
        <time>2018-10-09T14:52:02Z</time>
      </trkpt>
      <trkpt lat="45.91388" lon="4.74906">
        <ele>177</ele>
        <time>2018-10-09T14:52:04Z</time>
      </trkpt>
      <trkpt lat="45.91393" lon="4.74906">
        <ele>177</ele>
        <time>2018-10-09T14:52:05Z</time>
      </trkpt>
      <trkpt lat="45.91399" lon="4.74908">
        <ele>177</ele>
        <time>2018-10-09T14:52:07Z</time>
      </trkpt>
      <trkpt lat="45.91403" lon="4.74909">
        <ele>177</ele>
        <time>2018-10-09T14:52:08Z</time>
      </trkpt>
      <trkpt lat="45.9141" lon="4.74912">
        <ele>177</ele>
        <time>2018-10-09T14:52:10Z</time>
      </trkpt>
      <trkpt lat="45.91414" lon="4.74912">
        <ele>178</ele>
        <time>2018-10-09T14:52:11Z</time>
      </trkpt>
      <trkpt lat="45.91421" lon="4.74915">
        <ele>178</ele>
        <time>2018-10-09T14:52:13Z</time>
      </trkpt>
      <trkpt lat="45.91426" lon="4.74916">
        <ele>177</ele>
        <time>2018-10-09T14:52:14Z</time>
      </trkpt>
      <trkpt lat="45.91432" lon="4.74919">
        <ele>178</ele>
        <time>2018-10-09T14:52:16Z</time>
      </trkpt>
      <trkpt lat="45.91436" lon="4.7492">
        <ele>178</ele>
        <time>2018-10-09T14:52:17Z</time>
      </trkpt>
      <trkpt lat="45.91442" lon="4.74921">
        <ele>178</ele>
        <time>2018-10-09T14:52:19Z</time>
      </trkpt>
      <trkpt lat="45.91448" lon="4.74921">
        <ele>178</ele>
        <time>2018-10-09T14:52:20Z</time>
      </trkpt>
      <trkpt lat="45.91456" lon="4.74922">
        <ele>178</ele>
        <time>2018-10-09T14:52:22Z</time>
      </trkpt>
      <trkpt lat="45.91461" lon="4.74923">
        <ele>178</ele>
        <time>2018-10-09T14:52:23Z</time>
      </trkpt>
      <trkpt lat="45.91467" lon="4.74923">
        <ele>178</ele>
        <time>2018-10-09T14:52:25Z</time>
      </trkpt>
      <trkpt lat="45.91473" lon="4.74925">
        <ele>178</ele>
        <time>2018-10-09T14:52:26Z</time>
      </trkpt>
      <trkpt lat="45.91481" lon="4.74926">
        <ele>178</ele>
        <time>2018-10-09T14:52:28Z</time>
      </trkpt>
      <trkpt lat="45.91485" lon="4.74927">
        <ele>178</ele>
        <time>2018-10-09T14:52:29Z</time>
      </trkpt>
      <trkpt lat="45.91494" lon="4.7493">
        <ele>178</ele>
        <time>2018-10-09T14:52:31Z</time>
      </trkpt>
      <trkpt lat="45.91499" lon="4.74931">
        <ele>178</ele>
        <time>2018-10-09T14:52:32Z</time>
      </trkpt>
      <trkpt lat="45.91507" lon="4.74933">
        <ele>177</ele>
        <time>2018-10-09T14:52:36Z</time>
      </trkpt>
      <trkpt lat="45.91516" lon="4.74936">
        <ele>177</ele>
        <time>2018-10-09T14:52:37Z</time>
      </trkpt>
      <trkpt lat="45.91522" lon="4.74936">
        <ele>177</ele>
        <time>2018-10-09T14:52:40Z</time>
      </trkpt>
      <trkpt lat="45.91528" lon="4.74937">
        <ele>178</ele>
        <time>2018-10-09T14:52:41Z</time>
      </trkpt>
      <trkpt lat="45.91536" lon="4.74936">
        <ele>178</ele>
        <time>2018-10-09T14:52:43Z</time>
      </trkpt>
      <trkpt lat="45.91538" lon="4.74936">
        <ele>178</ele>
        <time>2018-10-09T14:52:44Z</time>
      </trkpt>
      <trkpt lat="45.91543" lon="4.74936">
        <ele>178</ele>
        <time>2018-10-09T14:52:45Z</time>
      </trkpt>
      <trkpt lat="45.91547" lon="4.74937">
        <ele>178</ele>
        <time>2018-10-09T14:52:46Z</time>
      </trkpt>
      <trkpt lat="45.91554" lon="4.74934">
        <ele>178</ele>
        <time>2018-10-09T14:52:48Z</time>
      </trkpt>
      <trkpt lat="45.91559" lon="4.74934">
        <ele>178</ele>
        <time>2018-10-09T14:52:49Z</time>
      </trkpt>
      <trkpt lat="45.91567" lon="4.74934">
        <ele>177</ele>
        <time>2018-10-09T14:52:51Z</time>
      </trkpt>
      <trkpt lat="45.91569" lon="4.74934">
        <ele>177</ele>
        <time>2018-10-09T14:52:52Z</time>
      </trkpt>
      <trkpt lat="45.91577" lon="4.74937">
        <ele>177</ele>
        <time>2018-10-09T14:52:55Z</time>
      </trkpt>
      <trkpt lat="45.9158" lon="4.74939">
        <ele>178</ele>
        <time>2018-10-09T14:52:56Z</time>
      </trkpt>
      <trkpt lat="45.91588" lon="4.74944">
        <ele>177</ele>
        <time>2018-10-09T14:52:58Z</time>
      </trkpt>
      <trkpt lat="45.91591" lon="4.74945">
        <ele>177</ele>
        <time>2018-10-09T14:52:59Z</time>
      </trkpt>
      <trkpt lat="45.91596" lon="4.74946">
        <ele>177</ele>
        <time>2018-10-09T14:53:00Z</time>
      </trkpt>
      <trkpt lat="45.916" lon="4.74948">
        <ele>177</ele>
        <time>2018-10-09T14:53:01Z</time>
      </trkpt>
      <trkpt lat="45.91609" lon="4.74952">
        <ele>177</ele>
        <time>2018-10-09T14:53:03Z</time>
      </trkpt>
      <trkpt lat="45.91614" lon="4.74953">
        <ele>177</ele>
        <time>2018-10-09T14:53:04Z</time>
      </trkpt>
      <trkpt lat="45.91622" lon="4.74958">
        <ele>177</ele>
        <time>2018-10-09T14:53:07Z</time>
      </trkpt>
      <trkpt lat="45.91625" lon="4.7496">
        <ele>177</ele>
        <time>2018-10-09T14:53:08Z</time>
      </trkpt>
      <trkpt lat="45.91627" lon="4.74961">
        <ele>176</ele>
        <time>2018-10-09T14:53:09Z</time>
      </trkpt>
      <trkpt lat="45.91635" lon="4.74965">
        <ele>176</ele>
        <time>2018-10-09T14:53:10Z</time>
      </trkpt>
      <trkpt lat="45.91638" lon="4.74967">
        <ele>176</ele>
        <time>2018-10-09T14:53:11Z</time>
      </trkpt>
      <trkpt lat="45.91643" lon="4.74968">
        <ele>176</ele>
        <time>2018-10-09T14:53:12Z</time>
      </trkpt>
      <trkpt lat="45.91652" lon="4.74972">
        <ele>176</ele>
        <time>2018-10-09T14:53:14Z</time>
      </trkpt>
      <trkpt lat="45.91655" lon="4.74973">
        <ele>176</ele>
        <time>2018-10-09T14:53:15Z</time>
      </trkpt>
      <trkpt lat="45.91663" lon="4.74975">
        <ele>176</ele>
        <time>2018-10-09T14:53:17Z</time>
      </trkpt>
      <trkpt lat="45.91664" lon="4.74975">
        <ele>176</ele>
        <time>2018-10-09T14:53:18Z</time>
      </trkpt>
      <trkpt lat="45.91673" lon="4.74978">
        <ele>175</ele>
        <time>2018-10-09T14:53:21Z</time>
      </trkpt>
      <trkpt lat="45.91678" lon="4.74981">
        <ele>175</ele>
        <time>2018-10-09T14:53:22Z</time>
      </trkpt>
      <trkpt lat="45.91687" lon="4.74983">
        <ele>175</ele>
        <time>2018-10-09T14:53:24Z</time>
      </trkpt>
      <trkpt lat="45.91691" lon="4.74984">
        <ele>175</ele>
        <time>2018-10-09T14:53:25Z</time>
      </trkpt>
      <trkpt lat="45.91699" lon="4.74983">
        <ele>175</ele>
        <time>2018-10-09T14:53:27Z</time>
      </trkpt>
      <trkpt lat="45.91703" lon="4.74981">
        <ele>175</ele>
        <time>2018-10-09T14:53:28Z</time>
      </trkpt>
      <trkpt lat="45.91711" lon="4.74976">
        <ele>175</ele>
        <time>2018-10-09T14:53:30Z</time>
      </trkpt>
      <trkpt lat="45.91714" lon="4.74973">
        <ele>175</ele>
        <time>2018-10-09T14:53:31Z</time>
      </trkpt>
      <trkpt lat="45.9172" lon="4.74969">
        <ele>175</ele>
        <time>2018-10-09T14:53:33Z</time>
      </trkpt>
      <trkpt lat="45.91724" lon="4.74965">
        <ele>175</ele>
        <time>2018-10-09T14:53:34Z</time>
      </trkpt>
      <trkpt lat="45.91731" lon="4.74958">
        <ele>175</ele>
        <time>2018-10-09T14:53:36Z</time>
      </trkpt>
      <trkpt lat="45.91735" lon="4.74955">
        <ele>175</ele>
        <time>2018-10-09T14:53:37Z</time>
      </trkpt>
      <trkpt lat="45.91738" lon="4.74951">
        <ele>174</ele>
        <time>2018-10-09T14:53:38Z</time>
      </trkpt>
      <trkpt lat="45.91744" lon="4.74947">
        <ele>174</ele>
        <time>2018-10-09T14:53:39Z</time>
      </trkpt>
      <trkpt lat="45.9175" lon="4.7494">
        <ele>174</ele>
        <time>2018-10-09T14:53:41Z</time>
      </trkpt>
      <trkpt lat="45.91755" lon="4.74935">
        <ele>174</ele>
        <time>2018-10-09T14:53:42Z</time>
      </trkpt>
      <trkpt lat="45.91759" lon="4.7493">
        <ele>174</ele>
        <time>2018-10-09T14:53:43Z</time>
      </trkpt>
      <trkpt lat="45.91763" lon="4.74925">
        <ele>174</ele>
        <time>2018-10-09T14:53:44Z</time>
      </trkpt>
      <trkpt lat="45.91767" lon="4.74919">
        <ele>174</ele>
        <time>2018-10-09T14:53:45Z</time>
      </trkpt>
      <trkpt lat="45.91771" lon="4.74913">
        <ele>173</ele>
        <time>2018-10-09T14:53:46Z</time>
      </trkpt>
      <trkpt lat="45.91775" lon="4.74906">
        <ele>173</ele>
        <time>2018-10-09T14:53:47Z</time>
      </trkpt>
      <trkpt lat="45.91778" lon="4.749">
        <ele>173</ele>
        <time>2018-10-09T14:53:48Z</time>
      </trkpt>
      <trkpt lat="45.91781" lon="4.74893">
        <ele>173</ele>
        <time>2018-10-09T14:53:49Z</time>
      </trkpt>
      <trkpt lat="45.91785" lon="4.74885">
        <ele>173</ele>
        <time>2018-10-09T14:53:50Z</time>
      </trkpt>
      <trkpt lat="45.91788" lon="4.74878">
        <ele>173</ele>
        <time>2018-10-09T14:53:51Z</time>
      </trkpt>
      <trkpt lat="45.91792" lon="4.7487">
        <ele>173</ele>
        <time>2018-10-09T14:53:52Z</time>
      </trkpt>
      <trkpt lat="45.91795" lon="4.74863">
        <ele>173</ele>
        <time>2018-10-09T14:53:53Z</time>
      </trkpt>
      <trkpt lat="45.91799" lon="4.74856">
        <ele>173</ele>
        <time>2018-10-09T14:53:54Z</time>
      </trkpt>
      <trkpt lat="45.91803" lon="4.74849">
        <ele>173</ele>
        <time>2018-10-09T14:53:55Z</time>
      </trkpt>
      <trkpt lat="45.91806" lon="4.74842">
        <ele>172</ele>
        <time>2018-10-09T14:53:56Z</time>
      </trkpt>
      <trkpt lat="45.9181" lon="4.74835">
        <ele>172</ele>
        <time>2018-10-09T14:53:57Z</time>
      </trkpt>
      <trkpt lat="45.91814" lon="4.74829">
        <ele>172</ele>
        <time>2018-10-09T14:53:58Z</time>
      </trkpt>
      <trkpt lat="45.91818" lon="4.74821">
        <ele>172</ele>
        <time>2018-10-09T14:53:59Z</time>
      </trkpt>
      <trkpt lat="45.91822" lon="4.74815">
        <ele>172</ele>
        <time>2018-10-09T14:54:00Z</time>
      </trkpt>
      <trkpt lat="45.91826" lon="4.7481">
        <ele>172</ele>
        <time>2018-10-09T14:54:01Z</time>
      </trkpt>
      <trkpt lat="45.9183" lon="4.74804">
        <ele>172</ele>
        <time>2018-10-09T14:54:02Z</time>
      </trkpt>
      <trkpt lat="45.91833" lon="4.74799">
        <ele>172</ele>
        <time>2018-10-09T14:54:03Z</time>
      </trkpt>
      <trkpt lat="45.91838" lon="4.74792">
        <ele>172</ele>
        <time>2018-10-09T14:54:04Z</time>
      </trkpt>
      <trkpt lat="45.91841" lon="4.74788">
        <ele>171</ele>
        <time>2018-10-09T14:54:05Z</time>
      </trkpt>
      <trkpt lat="45.91845" lon="4.74783">
        <ele>171</ele>
        <time>2018-10-09T14:54:06Z</time>
      </trkpt>
      <trkpt lat="45.91848" lon="4.74778">
        <ele>171</ele>
        <time>2018-10-09T14:54:07Z</time>
      </trkpt>
      <trkpt lat="45.91852" lon="4.74774">
        <ele>171</ele>
        <time>2018-10-09T14:54:08Z</time>
      </trkpt>
      <trkpt lat="45.91856" lon="4.7477">
        <ele>171</ele>
        <time>2018-10-09T14:54:09Z</time>
      </trkpt>
      <trkpt lat="45.9186" lon="4.74766">
        <ele>171</ele>
        <time>2018-10-09T14:54:10Z</time>
      </trkpt>
      <trkpt lat="45.91864" lon="4.74763">
        <ele>171</ele>
        <time>2018-10-09T14:54:11Z</time>
      </trkpt>
      <trkpt lat="45.9187" lon="4.74762">
        <ele>171</ele>
        <time>2018-10-09T14:54:12Z</time>
      </trkpt>
      <trkpt lat="45.91879" lon="4.74766">
        <ele>172</ele>
        <time>2018-10-09T14:54:14Z</time>
      </trkpt>
      <trkpt lat="45.91884" lon="4.74768">
        <ele>172</ele>
        <time>2018-10-09T14:54:15Z</time>
      </trkpt>
      <trkpt lat="45.9189" lon="4.74771">
        <ele>172</ele>
        <time>2018-10-09T14:54:16Z</time>
      </trkpt>
      <trkpt lat="45.91895" lon="4.74773">
        <ele>172</ele>
        <time>2018-10-09T14:54:17Z</time>
      </trkpt>
      <trkpt lat="45.919" lon="4.74776">
        <ele>172</ele>
        <time>2018-10-09T14:54:18Z</time>
      </trkpt>
      <trkpt lat="45.91904" lon="4.74778">
        <ele>172</ele>
        <time>2018-10-09T14:54:19Z</time>
      </trkpt>
      <trkpt lat="45.91911" lon="4.74782">
        <ele>172</ele>
        <time>2018-10-09T14:54:20Z</time>
      </trkpt>
      <trkpt lat="45.91915" lon="4.74784">
        <ele>172</ele>
        <time>2018-10-09T14:54:21Z</time>
      </trkpt>
      <trkpt lat="45.91922" lon="4.74789">
        <ele>171</ele>
        <time>2018-10-09T14:54:23Z</time>
      </trkpt>
      <trkpt lat="45.91925" lon="4.7479">
        <ele>171</ele>
        <time>2018-10-09T14:54:24Z</time>
      </trkpt>
      <trkpt lat="45.91932" lon="4.74795">
        <ele>170</ele>
        <time>2018-10-09T14:54:26Z</time>
      </trkpt>
      <trkpt lat="45.91937" lon="4.74797">
        <ele>170</ele>
        <time>2018-10-09T14:54:27Z</time>
      </trkpt>
      <trkpt lat="45.91941" lon="4.74799">
        <ele>170</ele>
        <time>2018-10-09T14:54:28Z</time>
      </trkpt>
      <trkpt lat="45.91946" lon="4.74802">
        <ele>170</ele>
        <time>2018-10-09T14:54:29Z</time>
      </trkpt>
      <trkpt lat="45.9195" lon="4.74804">
        <ele>170</ele>
        <time>2018-10-09T14:54:30Z</time>
      </trkpt>
      <trkpt lat="45.91955" lon="4.74807">
        <ele>170</ele>
        <time>2018-10-09T14:54:31Z</time>
      </trkpt>
      <trkpt lat="45.91959" lon="4.7481">
        <ele>170</ele>
        <time>2018-10-09T14:54:32Z</time>
      </trkpt>
      <trkpt lat="45.91964" lon="4.74812">
        <ele>170</ele>
        <time>2018-10-09T14:54:33Z</time>
      </trkpt>
      <trkpt lat="45.91969" lon="4.74815">
        <ele>170</ele>
        <time>2018-10-09T14:54:34Z</time>
      </trkpt>
      <trkpt lat="45.91974" lon="4.74818">
        <ele>169</ele>
        <time>2018-10-09T14:54:35Z</time>
      </trkpt>
      <trkpt lat="45.9198" lon="4.74821">
        <ele>169</ele>
        <time>2018-10-09T14:54:36Z</time>
      </trkpt>
      <trkpt lat="45.91987" lon="4.74824">
        <ele>169</ele>
        <time>2018-10-09T14:54:37Z</time>
      </trkpt>
      <trkpt lat="45.91992" lon="4.74826">
        <ele>169</ele>
        <time>2018-10-09T14:54:38Z</time>
      </trkpt>
      <trkpt lat="45.91997" lon="4.74829">
        <ele>168</ele>
        <time>2018-10-09T14:54:39Z</time>
      </trkpt>
      <trkpt lat="45.92003" lon="4.7483">
        <ele>168</ele>
        <time>2018-10-09T14:54:40Z</time>
      </trkpt>
      <trkpt lat="45.92007" lon="4.74832">
        <ele>168</ele>
        <time>2018-10-09T14:54:41Z</time>
      </trkpt>
      <trkpt lat="45.92012" lon="4.74835">
        <ele>168</ele>
        <time>2018-10-09T14:54:42Z</time>
      </trkpt>
      <trkpt lat="45.92018" lon="4.74838">
        <ele>169</ele>
        <time>2018-10-09T14:54:43Z</time>
      </trkpt>
      <trkpt lat="45.92023" lon="4.74841">
        <ele>169</ele>
        <time>2018-10-09T14:54:44Z</time>
      </trkpt>
      <trkpt lat="45.9203" lon="4.74845">
        <ele>169</ele>
        <time>2018-10-09T14:54:45Z</time>
      </trkpt>
      <trkpt lat="45.92036" lon="4.74848">
        <ele>169</ele>
        <time>2018-10-09T14:54:46Z</time>
      </trkpt>
      <trkpt lat="45.92041" lon="4.74851">
        <ele>169</ele>
        <time>2018-10-09T14:54:47Z</time>
      </trkpt>
      <trkpt lat="45.92045" lon="4.74853">
        <ele>169</ele>
        <time>2018-10-09T14:54:48Z</time>
      </trkpt>
      <trkpt lat="45.9205" lon="4.74856">
        <ele>169</ele>
        <time>2018-10-09T14:54:49Z</time>
      </trkpt>
      <trkpt lat="45.92054" lon="4.74858">
        <ele>169</ele>
        <time>2018-10-09T14:54:50Z</time>
      </trkpt>
      <trkpt lat="45.92059" lon="4.74861">
        <ele>169</ele>
        <time>2018-10-09T14:54:51Z</time>
      </trkpt>
      <trkpt lat="45.92065" lon="4.74864">
        <ele>169</ele>
        <time>2018-10-09T14:54:52Z</time>
      </trkpt>
      <trkpt lat="45.9207" lon="4.74865">
        <ele>169</ele>
        <time>2018-10-09T14:54:53Z</time>
      </trkpt>
      <trkpt lat="45.92075" lon="4.74869">
        <ele>169</ele>
        <time>2018-10-09T14:54:54Z</time>
      </trkpt>
      <trkpt lat="45.9208" lon="4.74872">
        <ele>169</ele>
        <time>2018-10-09T14:54:55Z</time>
      </trkpt>
      <trkpt lat="45.92084" lon="4.74875">
        <ele>170</ele>
        <time>2018-10-09T14:54:56Z</time>
      </trkpt>
      <trkpt lat="45.92088" lon="4.74877">
        <ele>170</ele>
        <time>2018-10-09T14:54:57Z</time>
      </trkpt>
      <trkpt lat="45.92095" lon="4.7488">
        <ele>170</ele>
        <time>2018-10-09T14:54:58Z</time>
      </trkpt>
      <trkpt lat="45.92099" lon="4.74883">
        <ele>170</ele>
        <time>2018-10-09T14:54:59Z</time>
      </trkpt>
      <trkpt lat="45.92106" lon="4.74887">
        <ele>170</ele>
        <time>2018-10-09T14:55:01Z</time>
      </trkpt>
      <trkpt lat="45.92109" lon="4.74889">
        <ele>170</ele>
        <time>2018-10-09T14:55:02Z</time>
      </trkpt>
      <trkpt lat="45.92113" lon="4.74892">
        <ele>170</ele>
        <time>2018-10-09T14:55:03Z</time>
      </trkpt>
      <trkpt lat="45.92117" lon="4.74894">
        <ele>170</ele>
        <time>2018-10-09T14:55:04Z</time>
      </trkpt>
      <trkpt lat="45.92122" lon="4.74897">
        <ele>170</ele>
        <time>2018-10-09T14:55:05Z</time>
      </trkpt>
      <trkpt lat="45.92126" lon="4.74901">
        <ele>170</ele>
        <time>2018-10-09T14:55:06Z</time>
      </trkpt>
      <trkpt lat="45.92131" lon="4.74903">
        <ele>170</ele>
        <time>2018-10-09T14:55:07Z</time>
      </trkpt>
      <trkpt lat="45.92136" lon="4.74905">
        <ele>170</ele>
        <time>2018-10-09T14:55:08Z</time>
      </trkpt>
      <trkpt lat="45.92144" lon="4.7491">
        <ele>170</ele>
        <time>2018-10-09T14:55:10Z</time>
      </trkpt>
      <trkpt lat="45.92149" lon="4.74913">
        <ele>170</ele>
        <time>2018-10-09T14:55:11Z</time>
      </trkpt>
      <trkpt lat="45.92155" lon="4.74917">
        <ele>170</ele>
        <time>2018-10-09T14:55:13Z</time>
      </trkpt>
      <trkpt lat="45.92158" lon="4.7492">
        <ele>170</ele>
        <time>2018-10-09T14:55:14Z</time>
      </trkpt>
      <trkpt lat="45.92165" lon="4.74924">
        <ele>170</ele>
        <time>2018-10-09T14:55:16Z</time>
      </trkpt>
      <trkpt lat="45.92169" lon="4.74926">
        <ele>170</ele>
        <time>2018-10-09T14:55:17Z</time>
      </trkpt>
      <trkpt lat="45.92173" lon="4.74929">
        <ele>171</ele>
        <time>2018-10-09T14:55:18Z</time>
      </trkpt>
      <trkpt lat="45.92177" lon="4.74931">
        <ele>171</ele>
        <time>2018-10-09T14:55:19Z</time>
      </trkpt>
      <trkpt lat="45.92183" lon="4.74932">
        <ele>171</ele>
        <time>2018-10-09T14:55:20Z</time>
      </trkpt>
      <trkpt lat="45.92187" lon="4.74935">
        <ele>171</ele>
        <time>2018-10-09T14:55:21Z</time>
      </trkpt>
      <trkpt lat="45.92195" lon="4.7494">
        <ele>171</ele>
        <time>2018-10-09T14:55:23Z</time>
      </trkpt>
      <trkpt lat="45.92199" lon="4.74941">
        <ele>171</ele>
        <time>2018-10-09T14:55:24Z</time>
      </trkpt>
      <trkpt lat="45.92206" lon="4.74944">
        <ele>171</ele>
        <time>2018-10-09T14:55:26Z</time>
      </trkpt>
      <trkpt lat="45.92209" lon="4.74946">
        <ele>171</ele>
        <time>2018-10-09T14:55:27Z</time>
      </trkpt>
      <trkpt lat="45.92217" lon="4.7495">
        <ele>171</ele>
        <time>2018-10-09T14:55:29Z</time>
      </trkpt>
      <trkpt lat="45.92221" lon="4.74952">
        <ele>171</ele>
        <time>2018-10-09T14:55:30Z</time>
      </trkpt>
      <trkpt lat="45.92229" lon="4.74956">
        <ele>171</ele>
        <time>2018-10-09T14:55:32Z</time>
      </trkpt>
      <trkpt lat="45.92231" lon="4.74957">
        <ele>171</ele>
        <time>2018-10-09T14:55:33Z</time>
      </trkpt>
      <trkpt lat="45.92239" lon="4.74961">
        <ele>171</ele>
        <time>2018-10-09T14:55:35Z</time>
      </trkpt>
      <trkpt lat="45.92241" lon="4.74961">
        <ele>172</ele>
        <time>2018-10-09T14:55:36Z</time>
      </trkpt>
      <trkpt lat="45.92249" lon="4.74957">
        <ele>172</ele>
        <time>2018-10-09T14:55:39Z</time>
      </trkpt>
      <trkpt lat="45.92251" lon="4.74955">
        <ele>172</ele>
        <time>2018-10-09T14:55:40Z</time>
      </trkpt>
      <trkpt lat="45.92254" lon="4.74943">
        <ele>172</ele>
        <time>2018-10-09T14:55:43Z</time>
      </trkpt>
      <trkpt lat="45.92255" lon="4.74939">
        <ele>172</ele>
        <time>2018-10-09T14:55:44Z</time>
      </trkpt>
      <trkpt lat="45.92255" lon="4.74928">
        <ele>172</ele>
        <time>2018-10-09T14:55:45Z</time>
      </trkpt>
      <trkpt lat="45.92256" lon="4.74925">
        <ele>172</ele>
        <time>2018-10-09T14:55:46Z</time>
      </trkpt>
      <trkpt lat="45.92259" lon="4.74915">
        <ele>172</ele>
        <time>2018-10-09T14:55:49Z</time>
      </trkpt>
      <trkpt lat="45.92261" lon="4.74912">
        <ele>172</ele>
        <time>2018-10-09T14:55:50Z</time>
      </trkpt>
      <trkpt lat="45.92268" lon="4.74904">
        <ele>172</ele>
        <time>2018-10-09T14:55:53Z</time>
      </trkpt>
      <trkpt lat="45.9227" lon="4.74901">
        <ele>172</ele>
        <time>2018-10-09T14:55:54Z</time>
      </trkpt>
      <trkpt lat="45.92276" lon="4.74894">
        <ele>172</ele>
        <time>2018-10-09T14:55:57Z</time>
      </trkpt>
      <trkpt lat="45.92281" lon="4.74887">
        <ele>172</ele>
        <time>2018-10-09T14:55:58Z</time>
      </trkpt>
      <trkpt lat="45.92286" lon="4.74878">
        <ele>172</ele>
        <time>2018-10-09T14:56:00Z</time>
      </trkpt>
      <trkpt lat="45.92288" lon="4.74874">
        <ele>171</ele>
        <time>2018-10-09T14:56:01Z</time>
      </trkpt>
      <trkpt lat="45.92293" lon="4.74865">
        <ele>172</ele>
        <time>2018-10-09T14:56:04Z</time>
      </trkpt>
      <trkpt lat="45.92294" lon="4.74863">
        <ele>172</ele>
        <time>2018-10-09T14:56:05Z</time>
      </trkpt>
      <trkpt lat="45.92299" lon="4.74854">
        <ele>172</ele>
        <time>2018-10-09T14:56:08Z</time>
      </trkpt>
      <trkpt lat="45.92301" lon="4.7485">
        <ele>172</ele>
        <time>2018-10-09T14:56:09Z</time>
      </trkpt>
      <trkpt lat="45.92306" lon="4.74842">
        <ele>172</ele>
        <time>2018-10-09T14:56:10Z</time>
      </trkpt>
      <trkpt lat="45.92308" lon="4.74838">
        <ele>172</ele>
        <time>2018-10-09T14:56:11Z</time>
      </trkpt>
      <trkpt lat="45.92313" lon="4.7483">
        <ele>171</ele>
        <time>2018-10-09T14:56:14Z</time>
      </trkpt>
      <trkpt lat="45.92315" lon="4.74828">
        <ele>171</ele>
        <time>2018-10-09T14:56:15Z</time>
      </trkpt>
      <trkpt lat="45.9232" lon="4.7482">
        <ele>171</ele>
        <time>2018-10-09T14:56:18Z</time>
      </trkpt>
      <trkpt lat="45.92321" lon="4.74817">
        <ele>171</ele>
        <time>2018-10-09T14:56:19Z</time>
      </trkpt>
      <trkpt lat="45.92327" lon="4.74808">
        <ele>171</ele>
        <time>2018-10-09T14:56:22Z</time>
      </trkpt>
      <trkpt lat="45.92332" lon="4.748">
        <ele>171</ele>
        <time>2018-10-09T14:56:23Z</time>
      </trkpt>
      <trkpt lat="45.92336" lon="4.74791">
        <ele>171</ele>
        <time>2018-10-09T14:56:25Z</time>
      </trkpt>
      <trkpt lat="45.92338" lon="4.74787">
        <ele>171</ele>
        <time>2018-10-09T14:56:26Z</time>
      </trkpt>
      <trkpt lat="45.92343" lon="4.74776">
        <ele>171</ele>
        <time>2018-10-09T14:56:28Z</time>
      </trkpt>
      <trkpt lat="45.92346" lon="4.74771">
        <ele>171</ele>
        <time>2018-10-09T14:56:29Z</time>
      </trkpt>
      <trkpt lat="45.92351" lon="4.74761">
        <ele>171</ele>
        <time>2018-10-09T14:56:31Z</time>
      </trkpt>
      <trkpt lat="45.92354" lon="4.74756">
        <ele>171</ele>
        <time>2018-10-09T14:56:32Z</time>
      </trkpt>
      <trkpt lat="45.92358" lon="4.74749">
        <ele>171</ele>
        <time>2018-10-09T14:56:35Z</time>
      </trkpt>
      <trkpt lat="45.9236" lon="4.74746">
        <ele>171</ele>
        <time>2018-10-09T14:56:36Z</time>
      </trkpt>
      <trkpt lat="45.92365" lon="4.74736">
        <ele>171</ele>
        <time>2018-10-09T14:56:39Z</time>
      </trkpt>
      <trkpt lat="45.92369" lon="4.74727">
        <ele>171</ele>
        <time>2018-10-09T14:56:40Z</time>
      </trkpt>
      <trkpt lat="45.92374" lon="4.74717">
        <ele>171</ele>
        <time>2018-10-09T14:56:42Z</time>
      </trkpt>
      <trkpt lat="45.92377" lon="4.74711">
        <ele>171</ele>
        <time>2018-10-09T14:56:43Z</time>
      </trkpt>
      <trkpt lat="45.92383" lon="4.74702">
        <ele>171</ele>
        <time>2018-10-09T14:56:45Z</time>
      </trkpt>
      <trkpt lat="45.92385" lon="4.74698">
        <ele>171</ele>
        <time>2018-10-09T14:56:46Z</time>
      </trkpt>
      <trkpt lat="45.92388" lon="4.74691">
        <ele>171</ele>
        <time>2018-10-09T14:56:48Z</time>
      </trkpt>
      <trkpt lat="45.92392" lon="4.74685">
        <ele>171</ele>
        <time>2018-10-09T14:56:49Z</time>
      </trkpt>
      <trkpt lat="45.92397" lon="4.74676">
        <ele>171</ele>
        <time>2018-10-09T14:56:51Z</time>
      </trkpt>
      <trkpt lat="45.924" lon="4.74671">
        <ele>171</ele>
        <time>2018-10-09T14:56:52Z</time>
      </trkpt>
      <trkpt lat="45.92403" lon="4.74665">
        <ele>171</ele>
        <time>2018-10-09T14:56:54Z</time>
      </trkpt>
      <trkpt lat="45.92407" lon="4.74659">
        <ele>171</ele>
        <time>2018-10-09T14:56:55Z</time>
      </trkpt>
      <trkpt lat="45.92412" lon="4.7465">
        <ele>171</ele>
        <time>2018-10-09T14:56:58Z</time>
      </trkpt>
      <trkpt lat="45.92413" lon="4.74646">
        <ele>171</ele>
        <time>2018-10-09T14:56:59Z</time>
      </trkpt>
      <trkpt lat="45.92414" lon="4.74644">
        <ele>171</ele>
        <time>2018-10-09T14:57:00Z</time>
      </trkpt>
      <trkpt lat="45.92419" lon="4.74634">
        <ele>171</ele>
        <time>2018-10-09T14:57:01Z</time>
      </trkpt>
      <trkpt lat="45.92424" lon="4.74624">
        <ele>171</ele>
        <time>2018-10-09T14:57:04Z</time>
      </trkpt>
      <trkpt lat="45.92426" lon="4.74622">
        <ele>171</ele>
        <time>2018-10-09T14:57:05Z</time>
      </trkpt>
      <trkpt lat="45.92431" lon="4.74612">
        <ele>171</ele>
        <time>2018-10-09T14:57:08Z</time>
      </trkpt>
      <trkpt lat="45.92432" lon="4.74608">
        <ele>171</ele>
        <time>2018-10-09T14:57:09Z</time>
      </trkpt>
      <trkpt lat="45.92432" lon="4.74595">
        <ele>171</ele>
        <time>2018-10-09T14:57:11Z</time>
      </trkpt>
      <trkpt lat="45.92431" lon="4.74592">
        <ele>171</ele>
        <time>2018-10-09T14:57:12Z</time>
      </trkpt>
      <trkpt lat="45.92426" lon="4.74583">
        <ele>171</ele>
        <time>2018-10-09T14:57:15Z</time>
      </trkpt>
      <trkpt lat="45.92424" lon="4.74581">
        <ele>171</ele>
        <time>2018-10-09T14:57:16Z</time>
      </trkpt>
      <trkpt lat="45.92418" lon="4.74576">
        <ele>171</ele>
        <time>2018-10-09T14:57:18Z</time>
      </trkpt>
      <trkpt lat="45.92415" lon="4.74574">
        <ele>171</ele>
        <time>2018-10-09T14:57:19Z</time>
      </trkpt>
      <trkpt lat="45.92408" lon="4.7457">
        <ele>171</ele>
        <time>2018-10-09T14:57:20Z</time>
      </trkpt>
      <trkpt lat="45.92404" lon="4.74568">
        <ele>171</ele>
        <time>2018-10-09T14:57:21Z</time>
      </trkpt>
      <trkpt lat="45.92396" lon="4.74563">
        <ele>171</ele>
        <time>2018-10-09T14:57:23Z</time>
      </trkpt>
      <trkpt lat="45.92392" lon="4.74562">
        <ele>171</ele>
        <time>2018-10-09T14:57:24Z</time>
      </trkpt>
      <trkpt lat="45.92384" lon="4.74558">
        <ele>171</ele>
        <time>2018-10-09T14:57:26Z</time>
      </trkpt>
      <trkpt lat="45.92381" lon="4.74556">
        <ele>171</ele>
        <time>2018-10-09T14:57:27Z</time>
      </trkpt>
      <trkpt lat="45.92372" lon="4.74551">
        <ele>170</ele>
        <time>2018-10-09T14:57:29Z</time>
      </trkpt>
      <trkpt lat="45.92368" lon="4.74549">
        <ele>170</ele>
        <time>2018-10-09T14:57:30Z</time>
      </trkpt>
      <trkpt lat="45.92361" lon="4.74545">
        <ele>170</ele>
        <time>2018-10-09T14:57:32Z</time>
      </trkpt>
      <trkpt lat="45.92357" lon="4.74543">
        <ele>170</ele>
        <time>2018-10-09T14:57:33Z</time>
      </trkpt>
      <trkpt lat="45.92349" lon="4.74538">
        <ele>171</ele>
        <time>2018-10-09T14:57:36Z</time>
      </trkpt>
      <trkpt lat="45.92347" lon="4.74537">
        <ele>171</ele>
        <time>2018-10-09T14:57:37Z</time>
      </trkpt>
      <trkpt lat="45.92341" lon="4.74534">
        <ele>171</ele>
        <time>2018-10-09T14:57:39Z</time>
      </trkpt>
      <trkpt lat="45.92334" lon="4.74529">
        <ele>171</ele>
        <time>2018-10-09T14:57:40Z</time>
      </trkpt>
      <trkpt lat="45.92327" lon="4.74524">
        <ele>171</ele>
        <time>2018-10-09T14:57:42Z</time>
      </trkpt>
      <trkpt lat="45.92323" lon="4.74522">
        <ele>171</ele>
        <time>2018-10-09T14:57:43Z</time>
      </trkpt>
      <trkpt lat="45.92318" lon="4.74519">
        <ele>171</ele>
        <time>2018-10-09T14:57:44Z</time>
      </trkpt>
      <trkpt lat="45.92314" lon="4.74515">
        <ele>171</ele>
        <time>2018-10-09T14:57:45Z</time>
      </trkpt>
      <trkpt lat="45.92306" lon="4.7451">
        <ele>171</ele>
        <time>2018-10-09T14:57:47Z</time>
      </trkpt>
      <trkpt lat="45.92302" lon="4.74508">
        <ele>171</ele>
        <time>2018-10-09T14:57:48Z</time>
      </trkpt>
      <trkpt lat="45.92295" lon="4.74504">
        <ele>171</ele>
        <time>2018-10-09T14:57:50Z</time>
      </trkpt>
      <trkpt lat="45.92292" lon="4.74503">
        <ele>171</ele>
        <time>2018-10-09T14:57:51Z</time>
      </trkpt>
      <trkpt lat="45.92288" lon="4.74501">
        <ele>171</ele>
        <time>2018-10-09T14:57:53Z</time>
      </trkpt>
      <trkpt lat="45.92281" lon="4.74498">
        <ele>171</ele>
        <time>2018-10-09T14:57:54Z</time>
      </trkpt>
      <trkpt lat="45.92273" lon="4.74493">
        <ele>171</ele>
        <time>2018-10-09T14:57:56Z</time>
      </trkpt>
      <trkpt lat="45.92269" lon="4.74491">
        <ele>171</ele>
        <time>2018-10-09T14:57:57Z</time>
      </trkpt>
      <trkpt lat="45.92262" lon="4.74487">
        <ele>171</ele>
        <time>2018-10-09T14:57:59Z</time>
      </trkpt>
      <trkpt lat="45.92259" lon="4.74486">
        <ele>171</ele>
        <time>2018-10-09T14:58:00Z</time>
      </trkpt>
      <trkpt lat="45.92252" lon="4.74481">
        <ele>171</ele>
        <time>2018-10-09T14:58:03Z</time>
      </trkpt>
      <trkpt lat="45.92249" lon="4.7448">
        <ele>171</ele>
        <time>2018-10-09T14:58:04Z</time>
      </trkpt>
      <trkpt lat="45.92242" lon="4.74473">
        <ele>171</ele>
        <time>2018-10-09T14:58:07Z</time>
      </trkpt>
      <trkpt lat="45.9224" lon="4.74471">
        <ele>171</ele>
        <time>2018-10-09T14:58:08Z</time>
      </trkpt>
      <trkpt lat="45.92237" lon="4.74464">
        <ele>171</ele>
        <time>2018-10-09T14:58:10Z</time>
      </trkpt>
      <trkpt lat="45.92235" lon="4.74453">
        <ele>171</ele>
        <time>2018-10-09T14:58:11Z</time>
      </trkpt>
      <trkpt lat="45.92236" lon="4.74441">
        <ele>171</ele>
        <time>2018-10-09T14:58:13Z</time>
      </trkpt>
      <trkpt lat="45.92238" lon="4.74435">
        <ele>171</ele>
        <time>2018-10-09T14:58:14Z</time>
      </trkpt>
      <trkpt lat="45.92241" lon="4.74423">
        <ele>171</ele>
        <time>2018-10-09T14:58:16Z</time>
      </trkpt>
      <trkpt lat="45.92242" lon="4.74417">
        <ele>171</ele>
        <time>2018-10-09T14:58:17Z</time>
      </trkpt>
      <trkpt lat="45.92246" lon="4.74409">
        <ele>171</ele>
        <time>2018-10-09T14:58:19Z</time>
      </trkpt>
      <trkpt lat="45.92247" lon="4.74405">
        <ele>171</ele>
        <time>2018-10-09T14:58:20Z</time>
      </trkpt>
      <trkpt lat="45.92251" lon="4.74398">
        <ele>171</ele>
        <time>2018-10-09T14:58:22Z</time>
      </trkpt>
      <trkpt lat="45.92252" lon="4.74394">
        <ele>171</ele>
        <time>2018-10-09T14:58:23Z</time>
      </trkpt>
      <trkpt lat="45.92254" lon="4.7439">
        <ele>171</ele>
        <time>2018-10-09T14:58:24Z</time>
      </trkpt>
      <trkpt lat="45.92257" lon="4.74381">
        <ele>171</ele>
        <time>2018-10-09T14:58:25Z</time>
      </trkpt>
      <trkpt lat="45.92262" lon="4.74371">
        <ele>171</ele>
        <time>2018-10-09T14:58:27Z</time>
      </trkpt>
      <trkpt lat="45.92263" lon="4.74369">
        <ele>171</ele>
        <time>2018-10-09T14:58:28Z</time>
      </trkpt>
      <trkpt lat="45.92269" lon="4.7436">
        <ele>171</ele>
        <time>2018-10-09T14:58:31Z</time>
      </trkpt>
      <trkpt lat="45.92271" lon="4.74357">
        <ele>171</ele>
        <time>2018-10-09T14:58:32Z</time>
      </trkpt>
      <trkpt lat="45.92277" lon="4.7435">
        <ele>171</ele>
        <time>2018-10-09T14:58:35Z</time>
      </trkpt>
      <trkpt lat="45.92279" lon="4.74348">
        <ele>171</ele>
        <time>2018-10-09T14:58:36Z</time>
      </trkpt>
      <trkpt lat="45.92286" lon="4.7434">
        <ele>171</ele>
        <time>2018-10-09T14:58:43Z</time>
      </trkpt>
      <trkpt lat="45.92287" lon="4.7434">
        <ele>171</ele>
        <time>2018-10-09T14:58:44Z</time>
      </trkpt>
      <trkpt lat="45.92294" lon="4.74334">
        <ele>171</ele>
        <time>2018-10-09T14:58:52Z</time>
      </trkpt>
      <trkpt lat="45.92295" lon="4.74333">
        <ele>170</ele>
        <time>2018-10-09T14:58:53Z</time>
      </trkpt>
      <trkpt lat="45.92301" lon="4.74324">
        <ele>170</ele>
        <time>2018-10-09T14:59:04Z</time>
      </trkpt>
      <trkpt lat="45.92302" lon="4.74322">
        <ele>170</ele>
        <time>2018-10-09T14:59:05Z</time>
      </trkpt>
      <trkpt lat="45.92308" lon="4.74315">
        <ele>170</ele>
        <time>2018-10-09T14:59:08Z</time>
      </trkpt>
      <trkpt lat="45.92314" lon="4.74309">
        <ele>170</ele>
        <time>2018-10-09T14:59:09Z</time>
      </trkpt>
      <trkpt lat="45.92322" lon="4.74303">
        <ele>170</ele>
        <time>2018-10-09T14:59:12Z</time>
      </trkpt>
      <trkpt lat="45.92324" lon="4.74302">
        <ele>170</ele>
        <time>2018-10-09T14:59:13Z</time>
      </trkpt>
      <trkpt lat="45.9233" lon="4.74299">
        <ele>170</ele>
        <time>2018-10-09T14:59:15Z</time>
      </trkpt>
      <trkpt lat="45.92334" lon="4.74298">
        <ele>170</ele>
        <time>2018-10-09T14:59:16Z</time>
      </trkpt>
      <trkpt lat="45.9234" lon="4.74297">
        <ele>170</ele>
        <time>2018-10-09T14:59:18Z</time>
      </trkpt>
      <trkpt lat="45.92343" lon="4.74297">
        <ele>170</ele>
        <time>2018-10-09T14:59:19Z</time>
      </trkpt>
      <trkpt lat="45.92351" lon="4.74297">
        <ele>170</ele>
        <time>2018-10-09T14:59:20Z</time>
      </trkpt>
      <trkpt lat="45.92353" lon="4.74298">
        <ele>170</ele>
        <time>2018-10-09T14:59:21Z</time>
      </trkpt>
      <trkpt lat="45.92358" lon="4.74301">
        <ele>170</ele>
        <time>2018-10-09T14:59:22Z</time>
      </trkpt>
      <trkpt lat="45.92362" lon="4.74303">
        <ele>170</ele>
        <time>2018-10-09T14:59:23Z</time>
      </trkpt>
      <trkpt lat="45.92366" lon="4.74306">
        <ele>170</ele>
        <time>2018-10-09T14:59:24Z</time>
      </trkpt>
      <trkpt lat="45.9237" lon="4.74308">
        <ele>170</ele>
        <time>2018-10-09T14:59:25Z</time>
      </trkpt>
      <trkpt lat="45.92378" lon="4.74312">
        <ele>170</ele>
        <time>2018-10-09T14:59:27Z</time>
      </trkpt>
      <trkpt lat="45.9238" lon="4.74313">
        <ele>170</ele>
        <time>2018-10-09T14:59:28Z</time>
      </trkpt>
      <trkpt lat="45.92387" lon="4.74314">
        <ele>170</ele>
        <time>2018-10-09T14:59:31Z</time>
      </trkpt>
      <trkpt lat="45.92391" lon="4.74314">
        <ele>170</ele>
        <time>2018-10-09T14:59:32Z</time>
      </trkpt>
      <trkpt lat="45.92397" lon="4.74313">
        <ele>170</ele>
        <time>2018-10-09T14:59:34Z</time>
      </trkpt>
      <trkpt lat="45.92405" lon="4.74308">
        <ele>170</ele>
        <time>2018-10-09T14:59:35Z</time>
      </trkpt>
      <trkpt lat="45.9241" lon="4.74301">
        <ele>170</ele>
        <time>2018-10-09T14:59:37Z</time>
      </trkpt>
      <trkpt lat="45.92412" lon="4.74299">
        <ele>170</ele>
        <time>2018-10-09T14:59:38Z</time>
      </trkpt>
      <trkpt lat="45.92416" lon="4.7429">
        <ele>170</ele>
        <time>2018-10-09T14:59:41Z</time>
      </trkpt>
      <trkpt lat="45.9242" lon="4.74282">
        <ele>170</ele>
        <time>2018-10-09T14:59:42Z</time>
      </trkpt>
      <trkpt lat="45.92425" lon="4.74273">
        <ele>170</ele>
        <time>2018-10-09T14:59:44Z</time>
      </trkpt>
      <trkpt lat="45.92427" lon="4.74269">
        <ele>170</ele>
        <time>2018-10-09T14:59:45Z</time>
      </trkpt>
      <trkpt lat="45.92431" lon="4.7426">
        <ele>170</ele>
        <time>2018-10-09T14:59:48Z</time>
      </trkpt>
      <trkpt lat="45.92433" lon="4.74256">
        <ele>171</ele>
        <time>2018-10-09T14:59:49Z</time>
      </trkpt>
      <trkpt lat="45.92438" lon="4.74246">
        <ele>171</ele>
        <time>2018-10-09T14:59:51Z</time>
      </trkpt>
      <trkpt lat="45.9244" lon="4.74242">
        <ele>171</ele>
        <time>2018-10-09T14:59:52Z</time>
      </trkpt>
      <trkpt lat="45.92443" lon="4.74232">
        <ele>171</ele>
        <time>2018-10-09T14:59:54Z</time>
      </trkpt>
      <trkpt lat="45.92446" lon="4.74227">
        <ele>171</ele>
        <time>2018-10-09T14:59:55Z</time>
      </trkpt>
      <trkpt lat="45.9245" lon="4.74217">
        <ele>171</ele>
        <time>2018-10-09T14:59:58Z</time>
      </trkpt>
      <trkpt lat="45.92451" lon="4.74213">
        <ele>171</ele>
        <time>2018-10-09T14:59:59Z</time>
      </trkpt>
      <trkpt lat="45.92456" lon="4.74202">
        <ele>171</ele>
        <time>2018-10-09T15:00:01Z</time>
      </trkpt>
      <trkpt lat="45.92458" lon="4.74198">
        <ele>171</ele>
        <time>2018-10-09T15:00:02Z</time>
      </trkpt>
      <trkpt lat="45.92463" lon="4.74188">
        <ele>171</ele>
        <time>2018-10-09T15:00:04Z</time>
      </trkpt>
      <trkpt lat="45.92465" lon="4.74182">
        <ele>171</ele>
        <time>2018-10-09T15:00:05Z</time>
      </trkpt>
      <trkpt lat="45.92469" lon="4.74172">
        <ele>171</ele>
        <time>2018-10-09T15:00:07Z</time>
      </trkpt>
      <trkpt lat="45.92471" lon="4.74167">
        <ele>171</ele>
        <time>2018-10-09T15:00:08Z</time>
      </trkpt>
      <trkpt lat="45.92474" lon="4.74161">
        <ele>171</ele>
        <time>2018-10-09T15:00:09Z</time>
      </trkpt>
      <trkpt lat="45.92476" lon="4.74155">
        <ele>171</ele>
        <time>2018-10-09T15:00:10Z</time>
      </trkpt>
      <trkpt lat="45.92479" lon="4.74144">
        <ele>171</ele>
        <time>2018-10-09T15:00:12Z</time>
      </trkpt>
      <trkpt lat="45.92481" lon="4.74138">
        <ele>171</ele>
        <time>2018-10-09T15:00:13Z</time>
      </trkpt>
      <trkpt lat="45.92484" lon="4.7413">
        <ele>171</ele>
        <time>2018-10-09T15:00:15Z</time>
      </trkpt>
      <trkpt lat="45.92485" lon="4.74127">
        <ele>171</ele>
        <time>2018-10-09T15:00:16Z</time>
      </trkpt>
      <trkpt lat="45.92488" lon="4.74119">
        <ele>172</ele>
        <time>2018-10-09T15:00:18Z</time>
      </trkpt>
      <trkpt lat="45.92491" lon="4.7411">
        <ele>172</ele>
        <time>2018-10-09T15:00:19Z</time>
      </trkpt>
      <trkpt lat="45.92495" lon="4.74101">
        <ele>172</ele>
        <time>2018-10-09T15:00:21Z</time>
      </trkpt>
      <trkpt lat="45.92498" lon="4.74097">
        <ele>172</ele>
        <time>2018-10-09T15:00:22Z</time>
      </trkpt>
      <trkpt lat="45.92505" lon="4.74088">
        <ele>172</ele>
        <time>2018-10-09T15:00:24Z</time>
      </trkpt>
      <trkpt lat="45.92508" lon="4.74085">
        <ele>172</ele>
        <time>2018-10-09T15:00:25Z</time>
      </trkpt>
      <trkpt lat="45.92514" lon="4.74078">
        <ele>172</ele>
        <time>2018-10-09T15:00:27Z</time>
      </trkpt>
      <trkpt lat="45.92516" lon="4.74076">
        <ele>172</ele>
        <time>2018-10-09T15:00:28Z</time>
      </trkpt>
      <trkpt lat="45.92523" lon="4.74069">
        <ele>172</ele>
        <time>2018-10-09T15:00:30Z</time>
      </trkpt>
      <trkpt lat="45.92524" lon="4.74067">
        <ele>172</ele>
        <time>2018-10-09T15:00:31Z</time>
      </trkpt>
      <trkpt lat="45.9253" lon="4.74059">
        <ele>172</ele>
        <time>2018-10-09T15:00:33Z</time>
      </trkpt>
      <trkpt lat="45.92533" lon="4.74054">
        <ele>172</ele>
        <time>2018-10-09T15:00:34Z</time>
      </trkpt>
      <trkpt lat="45.92536" lon="4.74049">
        <ele>172</ele>
        <time>2018-10-09T15:00:35Z</time>
      </trkpt>
      <trkpt lat="45.9254" lon="4.74045">
        <ele>172</ele>
        <time>2018-10-09T15:00:36Z</time>
      </trkpt>
      <trkpt lat="45.92545" lon="4.74035">
        <ele>172</ele>
        <time>2018-10-09T15:00:38Z</time>
      </trkpt>
      <trkpt lat="45.92548" lon="4.74031">
        <ele>172</ele>
        <time>2018-10-09T15:00:39Z</time>
      </trkpt>
      <trkpt lat="45.92553" lon="4.74021">
        <ele>172</ele>
        <time>2018-10-09T15:00:41Z</time>
      </trkpt>
      <trkpt lat="45.92556" lon="4.74015">
        <ele>172</ele>
        <time>2018-10-09T15:00:42Z</time>
      </trkpt>
      <trkpt lat="45.92556" lon="4.74005">
        <ele>172</ele>
        <time>2018-10-09T15:00:45Z</time>
      </trkpt>
      <trkpt lat="45.92554" lon="4.74002">
        <ele>172</ele>
        <time>2018-10-09T15:00:46Z</time>
      </trkpt>
      <trkpt lat="45.9255" lon="4.73995">
        <ele>172</ele>
        <time>2018-10-09T15:00:47Z</time>
      </trkpt>
      <trkpt lat="45.92546" lon="4.73993">
        <ele>172</ele>
        <time>2018-10-09T15:00:48Z</time>
      </trkpt>
      <trkpt lat="45.92539" lon="4.73988">
        <ele>172</ele>
        <time>2018-10-09T15:00:50Z</time>
      </trkpt>
      <trkpt lat="45.92535" lon="4.73986">
        <ele>172</ele>
        <time>2018-10-09T15:00:51Z</time>
      </trkpt>
      <trkpt lat="45.92528" lon="4.73982">
        <ele>172</ele>
        <time>2018-10-09T15:00:53Z</time>
      </trkpt>
      <trkpt lat="45.92526" lon="4.73981">
        <ele>172</ele>
        <time>2018-10-09T15:00:54Z</time>
      </trkpt>
      <trkpt lat="45.92522" lon="4.73979">
        <ele>172</ele>
        <time>2018-10-09T15:00:55Z</time>
      </trkpt>
      <trkpt lat="45.92517" lon="4.73977">
        <ele>172</ele>
        <time>2018-10-09T15:00:56Z</time>
      </trkpt>
      <trkpt lat="45.92512" lon="4.73974">
        <ele>172</ele>
        <time>2018-10-09T15:00:57Z</time>
      </trkpt>
      <trkpt lat="45.92508" lon="4.73972">
        <ele>172</ele>
        <time>2018-10-09T15:00:58Z</time>
      </trkpt>
      <trkpt lat="45.925" lon="4.73968">
        <ele>172</ele>
        <time>2018-10-09T15:01:00Z</time>
      </trkpt>
      <trkpt lat="45.92496" lon="4.73966">
        <ele>172</ele>
        <time>2018-10-09T15:01:01Z</time>
      </trkpt>
      <trkpt lat="45.92488" lon="4.73963">
        <ele>172</ele>
        <time>2018-10-09T15:01:03Z</time>
      </trkpt>
      <trkpt lat="45.92485" lon="4.73963">
        <ele>172</ele>
        <time>2018-10-09T15:01:04Z</time>
      </trkpt>
      <trkpt lat="45.9248" lon="4.73961">
        <ele>172</ele>
        <time>2018-10-09T15:01:06Z</time>
      </trkpt>
      <trkpt lat="45.92475" lon="4.73957">
        <ele>172</ele>
        <time>2018-10-09T15:01:07Z</time>
      </trkpt>
      <trkpt lat="45.92469" lon="4.73949">
        <ele>172</ele>
        <time>2018-10-09T15:01:09Z</time>
      </trkpt>
      <trkpt lat="45.92467" lon="4.73945">
        <ele>172</ele>
        <time>2018-10-09T15:01:10Z</time>
      </trkpt>
      <trkpt lat="45.92464" lon="4.73935">
        <ele>172</ele>
        <time>2018-10-09T15:01:12Z</time>
      </trkpt>
      <trkpt lat="45.92463" lon="4.73929">
        <ele>172</ele>
        <time>2018-10-09T15:01:13Z</time>
      </trkpt>
      <trkpt lat="45.92464" lon="4.73922">
        <ele>172</ele>
        <time>2018-10-09T15:01:14Z</time>
      </trkpt>
      <trkpt lat="45.92465" lon="4.73915">
        <ele>171</ele>
        <time>2018-10-09T15:01:15Z</time>
      </trkpt>
      <trkpt lat="45.92464" lon="4.73903">
        <ele>171</ele>
        <time>2018-10-09T15:01:17Z</time>
      </trkpt>
      <trkpt lat="45.92465" lon="4.73897">
        <ele>171</ele>
        <time>2018-10-09T15:01:18Z</time>
      </trkpt>
      <trkpt lat="45.92466" lon="4.73884">
        <ele>171</ele>
        <time>2018-10-09T15:01:20Z</time>
      </trkpt>
      <trkpt lat="45.92466" lon="4.7388">
        <ele>171</ele>
        <time>2018-10-09T15:01:21Z</time>
      </trkpt>
      <trkpt lat="45.92464" lon="4.73869">
        <ele>171</ele>
        <time>2018-10-09T15:01:23Z</time>
      </trkpt>
      <trkpt lat="45.92465" lon="4.73866">
        <ele>171</ele>
        <time>2018-10-09T15:01:24Z</time>
      </trkpt>
      <trkpt lat="45.92467" lon="4.73855">
        <ele>171</ele>
        <time>2018-10-09T15:01:28Z</time>
      </trkpt>
      <trkpt lat="45.92467" lon="4.73843">
        <ele>171</ele>
        <time>2018-10-09T15:01:29Z</time>
      </trkpt>
      <trkpt lat="45.92467" lon="4.73831">
        <ele>171</ele>
        <time>2018-10-09T15:01:31Z</time>
      </trkpt>
      <trkpt lat="45.92467" lon="4.73825">
        <ele>171</ele>
        <time>2018-10-09T15:01:32Z</time>
      </trkpt>
      <trkpt lat="45.92467" lon="4.73818">
        <ele>172</ele>
        <time>2018-10-09T15:01:33Z</time>
      </trkpt>
      <trkpt lat="45.92467" lon="4.7381">
        <ele>172</ele>
        <time>2018-10-09T15:01:34Z</time>
      </trkpt>
      <trkpt lat="45.92467" lon="4.73804">
        <ele>172</ele>
        <time>2018-10-09T15:01:35Z</time>
      </trkpt>
      <trkpt lat="45.92467" lon="4.73797">
        <ele>172</ele>
        <time>2018-10-09T15:01:36Z</time>
      </trkpt>
      <trkpt lat="45.92468" lon="4.73785">
        <ele>172</ele>
        <time>2018-10-09T15:01:38Z</time>
      </trkpt>
      <trkpt lat="45.92467" lon="4.73779">
        <ele>172</ele>
        <time>2018-10-09T15:01:39Z</time>
      </trkpt>
      <trkpt lat="45.92467" lon="4.73768">
        <ele>173</ele>
        <time>2018-10-09T15:01:41Z</time>
      </trkpt>
      <trkpt lat="45.92467" lon="4.73763">
        <ele>173</ele>
        <time>2018-10-09T15:01:42Z</time>
      </trkpt>
      <trkpt lat="45.92469" lon="4.73756">
        <ele>173</ele>
        <time>2018-10-09T15:01:43Z</time>
      </trkpt>
      <trkpt lat="45.92469" lon="4.7375">
        <ele>173</ele>
        <time>2018-10-09T15:01:44Z</time>
      </trkpt>
      <trkpt lat="45.92468" lon="4.73739">
        <ele>174</ele>
        <time>2018-10-09T15:01:46Z</time>
      </trkpt>
      <trkpt lat="45.92468" lon="4.73734">
        <ele>174</ele>
        <time>2018-10-09T15:01:47Z</time>
      </trkpt>
      <trkpt lat="45.92469" lon="4.73724">
        <ele>174</ele>
        <time>2018-10-09T15:01:50Z</time>
      </trkpt>
      <trkpt lat="45.92469" lon="4.7372">
        <ele>174</ele>
        <time>2018-10-09T15:01:51Z</time>
      </trkpt>
      <trkpt lat="45.92461" lon="4.73713">
        <ele>174</ele>
        <time>2018-10-09T15:02:20.31Z</time>
      </trkpt>
      <trkpt lat="45.92461" lon="4.73713">
        <ele>174</ele>
        <time>2018-10-09T15:02:21Z</time>
      </trkpt>
      <trkpt lat="45.92461" lon="4.73712">
        <ele>174</ele>
        <time>2018-10-09T15:02:23.652Z</time>
      </trkpt>
    </trkseg>
  </trk>
</gpx>